ECMWFFLT1_sfc_thetae_000.txt.gz
Theta_e
334 338 339 341 343 345 346 347 348 349 350 350 351 351 352 353 354 353 351 348 346 342 340 341 339 338 337 336 336 334 332 332 332 332 331 330 335 337 333 332 331 331 329 331 332 335 335 338 335 335 337 337 336 335 335 336 337 340 338 336 338 338 337
332 337 339 340 341 344 346 348 349 350 350 351 351 351 351 352 353 352 350 348 345 342 341 341 341 338 338 336 336 335 332 331 336 339 334 338 338 334 335 333 331 330 332 330 331 331 335 335 336 334 337 339 336 335 335 335 335 334 335 336 336 335 336
330 336 338 339 340 343 345 348 350 351 350 350 351 350 351 352 352 351 349 347 344 342 341 341 342 339 339 336 335 335 332 332 336 335 333 334 333 330 330 333 329 331 331 331 331 332 337 334 333 334 336 335 334 333 334 334 335 335 335 335 335 337 336
329 333 337 339 341 344 347 348 350 351 350 350 350 351 350 351 352 351 349 347 344 342 340 340 341 339 339 336 334 334 332 333 335 334 334 334 333 331 331 332 331 330 330 331 335 337 336 335 333 333 343 334 333 334 334 335 334 333 334 334 334 335 336
329 333 335 336 339 342 346 348 349 350 350 350 351 351 351 351 352 351 349 347 344 342 342 341 342 340 340 338 335 334 333 333 332 332 333 333 333 332 332 331 330 331 331 332 333 336 335 334 332 331 333 333 333 332 334 333 333 334 334 334 334 334 334
329 331 333 335 338 341 345 348 350 350 349 349 349 350 350 351 351 349 347 346 344 343 342 341 341 341 339 338 336 335 335 334 332 333 332 333 333 333 333 332 331 331 331 332 336 335 333 332 333 333 332 332 332 331 330 331 332 332 332 332 331 332 333
329 331 333 334 337 341 344 347 349 350 350 350 350 349 350 350 349 348 347 345 343 341 340 340 341 341 340 339 337 336 334 334 333 332 333 334 334 333 332 332 334 331 332 333 333 335 333 333 333 332 332 331 333 332 331 330 331 332 332 331 331 332 332
329 330 332 334 336 340 343 346 348 349 349 348 348 347 348 349 349 347 345 344 343 342 340 340 340 340 341 339 338 336 335 334 335 334 334 334 334 333 331 331 332 332 332 331 332 333 333 331 331 332 332 332 331 331 332 332 331 332 330 331 330 331 334
329 331 332 334 335 339 342 344 346 347 346 345 346 346 347 348 347 346 345 343 342 341 340 340 341 341 342 340 338 337 336 335 335 334 334 334 334 333 332 332 332 334 333 333 332 333 332 332 332 332 332 331 331 330 330 330 330 330 330 331 331 330 330
328 329 331 334 335 337 340 343 344 345 345 344 345 345 346 347 346 345 344 343 342 340 340 340 341 341 341 340 339 339 338 336 336 334 334 333 334 334 334 334 334 336 334 333 332 332 334 334 333 333 332 331 331 330 329 329 329 330 330 331 330 330 330
329 330 331 332 334 335 338 341 342 343 345 344 345 346 345 345 344 343 343 342 341 341 341 341 342 341 342 341 340 339 338 337 336 335 334 334 335 334 335 335 336 335 335 334 333 333 333 334 334 333 332 332 331 329 328 328 329 329 330 331 331 331 331
329 331 331 331 333 334 336 339 342 343 344 344 345 345 344 344 343 342 342 342 342 341 340 341 342 342 342 341 340 338 337 337 336 336 335 334 335 336 336 336 335 335 336 335 334 334 333 332 332 333 330 329 329 329 329 329 329 329 329 330 331 331 330
330 332 332 332 333 334 336 338 341 343 344 344 344 345 343 343 342 341 341 341 342 341 340 341 342 343 341 341 340 338 337 336 336 336 336 336 336 337 337 336 335 334 334 336 335 333 331 330 329 329 329 330 329 329 328 328 329 327 329 330 330 330 329
338 333 333 333 333 334 335 338 341 343 343 343 343 344 343 342 342 341 341 340 341 341 340 341 342 342 341 340 339 338 337 337 337 337 337 337 337 336 336 336 334 332 331 332 331 330 329 329 328 328 330 329 329 330 331 330 327 327 329 330 329 329 328
332 332 332 332 332 334 335 337 339 342 343 343 343 343 342 341 340 340 340 341 340 340 340 341 342 342 341 340 339 338 337 338 337 338 338 338 337 336 335 334 333 331 330 330 329 330 328 328 329 328 328 330 330 330 331 328 329 331 331 329 328 328 328
330 333 333 332 331 333 335 336 338 340 342 342 342 342 342 340 339 339 338 339 339 339 340 340 341 341 341 339 338 338 338 338 337 337 337 337 336 335 335 334 332 331 331 331 332 331 332 330 330 330 330 330 329 329 329 329 330 333 331 332 329 327 327
326 333 333 333 331 331 333 335 336 339 340 341 341 341 342 341 339 339 338 338 338 338 339 339 339 341 340 338 338 339 338 336 336 337 336 336 336 335 335 334 333 332 331 331 331 331 331 332 330 330 331 331 331 328 329 331 331 329 326 327 330 329 325
323 324 328 333 335 334 332 332 332 334 338 340 341 341 341 341 339 338 337 337 337 338 339 339 339 339 339 339 338 338 336 335 336 336 336 336 335 335 335 334 333 331 331 331 330 331 332 331 332 332 332 332 330 328 328 329 329 325 324 325 325 328 328
321 325 327 327 333 335 334 334 334 334 337 340 341 340 341 341 339 337 337 337 338 338 339 338 339 338 338 338 338 336 337 335 335 336 335 335 335 334 333 332 331 330 330 330 331 331 331 332 332 332 332 331 330 328 327 328 327 323 322 322 322 323 325
325 325 329 332 333 336 336 336 336 336 337 339 341 342 342 341 339 339 338 338 338 338 338 338 338 337 338 337 337 337 337 335 336 335 334 335 335 333 332 331 331 331 331 332 332 332 332 332 332 332 331 331 331 330 328 326 325 322 320 319 319 321 323
320 320 324 330 333 335 336 337 337 338 338 339 340 341 342 341 340 339 338 338 338 338 338 337 337 336 334 334 335 336 336 338 337 335 335 335 334 333 332 332 331 331 332 332 331 331 332 332 332 332 333 332 332 329 326 328 323 319 317 316 316 318 322
321 322 322 323 330 334 336 337 338 338 339 342 342 341 341 341 341 339 337 338 336 336 336 335 333 331 330 331 333 334 334 337 336 336 335 334 333 333 332 331 331 331 331 332 330 331 332 332 333 332 331 327 326 327 327 330 321 318 317 316 315 318 321
325 325 324 325 324 324 335 338 339 340 341 341 342 342 341 341 340 338 335 331 333 333 332 332 331 331 332 333 332 332 334 336 335 335 334 334 333 332 332 331 331 331 332 331 331 330 331 331 330 329 329 328 327 327 328 327 322 316 314 314 314 316 318
323 324 326 332 332 331 330 336 338 339 339 339 338 337 338 337 334 333 331 331 331 329 329 331 331 332 331 330 332 335 335 334 334 334 334 332 332 332 332 332 332 332 333 331 331 331 331 329 328 329 330 329 328 329 327 325 322 314 311 311 313 317 318
330 332 331 331 337 341 342 341 339 339 338 336 335 334 336 336 334 332 330 331 331 331 329 330 330 331 331 334 336 335 334 335 334 333 333 332 332 333 332 332 332 332 332 331 330 330 328 329 327 327 325 326 326 332 326 323 318 311 311 311 311 317 316
327 330 330 329 338 342 341 341 339 334 333 333 333 335 336 336 335 334 333 333 332 331 330 330 330 330 334 335 336 334 332 330 332 334 333 332 332 333 333 333 332 331 331 329 329 329 328 326 326 326 324 326 325 326 322 321 319 321 310 309 310 314 319
325 330 330 335 339 341 333 333 336 335 334 334 334 335 336 336 334 333 332 332 332 332 333 333 333 335 333 333 335 332 331 330 331 334 334 333 333 333 332 331 331 331 331 330 329 328 326 326 327 328 324 323 323 323 322 322 319 322 308 308 308 311 316
323 330 339 339 338 334 331 329 330 332 333 334 335 335 335 334 333 331 332 331 331 332 334 333 332 334 333 333 335 334 331 331 334 336 335 334 332 329 328 330 333 332 329 328 326 325 325 327 326 322 321 320 321 320 319 324 326 318 312 308 305 307 312
324 324 334 335 334 334 331 329 329 330 331 332 334 335 335 334 332 331 332 330 332 333 333 333 335 336 335 334 334 335 333 334 335 335 334 332 332 331 330 329 329 329 329 328 326 324 324 324 323 320 318 316 316 317 318 316 321 320 313 305 303 303 305
328 333 334 337 338 335 332 329 329 330 330 331 332 333 334 334 333 332 330 330 332 332 332 333 333 334 333 332 331 332 332 331 333 332 331 331 332 330 327 327 328 327 325 324 323 323 323 320 320 317 316 316 317 318 317 317 315 318 316 311 305 303 303
325 325 326 331 336 337 331 329 328 328 329 330 330 331 333 334 333 333 331 331 333 331 331 332 332 332 331 330 331 330 328 329 327 328 329 329 328 326 325 323 324 323 323 323 322 322 322 318 317 315 315 314 315 314 314 317 317 316 317 315 311 308 306
323 326 329 332 335 335 331 328 328 328 328 327 328 328 330 330 330 329 329 331 331 330 331 331 330 330 331 331 329 327 329 328 328 327 327 326 325 325 323 323 324 323 322 324 324 321 319 317 314 313 313 313 312 312 312 316 316 313 312 316 313 311 309
322 323 327 330 332 334 328 327 327 327 328 328 331 332 332 331 329 329 331 331 332 333 331 331 331 331 328 326 326 326 327 327 326 325 324 323 323 325 326 321 323 325 325 323 321 319 318 319 318 316 315 313 313 314 318 317 310 308 307 307 306 307 309
323 323 324 328 332 330 327 326 326 328 325 324 328 330 330 331 330 331 332 333 333 331 331 330 329 327 327 327 326 325 326 328 335 325 317 314 315 318 319 319 321 321 320 320 320 318 316 317 318 316 317 315 313 315 317 314 307 305 306 305 307 305 303
323 323 323 325 327 329 328 328 326 323 322 324 327 329 330 331 334 334 332 331 330 328 328 328 326 324 324 328 329 330 331 330 327 318 314 310 308 305 305 308 312 312 307 305 305 311 316 313 312 314 312 315 315 315 315 313 309 308 305 309 303 303 302
326 327 326 326 326 327 327 327 322 321 323 324 327 329 330 329 327 326 325 323 322 322 322 327 331 328 328 329 330 330 330 327 323 316 312 310 309 308 306 303 296 299 308 307 306 302 302 306 309 310 310 306 304 308 314 313 308 304 299 297 294 294 294
328 327 327 327 325 324 322 321 323 322 322 323 325 327 327 325 325 324 324 325 325 323 321 321 326 328 328 328 327 328 328 325 319 315 313 311 310 310 308 305 304 295 294 298 301 297 293 293 297 303 307 309 304 304 303 303 298 295 295 294 292 292 292
328 327 327 326 325 323 322 322 321 321 321 322 324 325 325 324 324 325 327 327 326 325 323 322 322 325 325 327 326 327 328 321 319 316 313 312 311 311 309 307 305 304 298 293 294 294 292 292 293 296 299 301 304 302 303 299 294 293 293 292 292 292 291

ECMWFFLT1_sfc_thetae_003.txt.gz
Theta_e
334 335 337 339 340 342 344 345 346 347 348 348 349 349 350 351 352 351 351 351 351 350 348 344 341 339 338 335 333 333 332 332 333 330 329 328 332 334 332 332 333 331 330 328 330 335 335 337 335 334 333 333 332 333 331 333 335 338 335 333 334 334 333
331 335 337 339 340 342 344 346 346 347 347 348 349 349 350 350 351 351 351 351 351 350 347 344 341 338 337 335 334 333 332 332 334 336 331 332 337 334 333 332 331 330 329 329 332 334 335 335 334 332 333 335 334 332 332 332 332 331 331 331 331 331 331
330 333 336 338 340 341 344 346 347 347 347 348 349 349 350 350 351 351 351 350 350 350 347 343 341 338 337 336 334 333 332 331 332 332 329 330 333 333 333 332 331 330 330 330 333 333 335 333 332 331 333 335 336 333 332 331 332 333 332 332 331 332 331
329 331 335 338 340 342 344 346 347 347 348 349 349 350 350 351 352 352 352 351 350 350 346 343 341 338 336 335 334 332 330 330 332 331 330 332 333 333 332 331 329 330 331 329 332 333 335 334 332 332 342 333 333 332 331 332 332 332 332 331 331 331 331
328 330 334 336 338 340 343 345 346 347 348 349 350 351 351 352 352 352 352 351 351 349 348 344 342 340 338 336 336 334 331 330 331 331 331 332 332 331 331 331 328 329 330 330 330 335 333 332 331 330 331 333 332 331 333 332 332 332 331 330 330 331 331
326 328 332 335 337 339 342 345 347 347 348 348 349 350 351 351 352 351 351 351 350 350 348 344 342 340 337 336 336 334 331 331 332 332 332 332 331 329 329 330 329 329 328 329 333 332 332 332 332 331 330 331 332 332 330 329 330 330 330 329 330 330 330
326 327 331 335 337 338 340 344 346 348 349 349 350 351 351 351 351 351 351 350 349 347 346 343 342 340 338 337 335 334 331 331 331 331 332 332 331 330 330 330 332 330 330 331 331 332 331 331 331 331 332 331 332 330 329 329 329 330 329 328 329 329 329
326 327 330 334 337 338 340 342 345 348 349 349 349 349 350 350 350 350 350 350 349 348 345 343 341 340 339 337 335 334 332 331 331 331 331 331 331 331 330 330 331 330 330 330 330 332 333 332 332 333 332 330 329 329 329 329 329 330 328 329 328 327 330
327 328 329 332 335 338 339 342 344 346 348 348 348 348 349 349 349 349 349 349 348 347 345 344 342 341 339 337 335 333 333 332 331 331 330 331 331 332 331 331 331 332 331 330 330 332 332 333 332 332 330 329 329 328 328 329 329 330 328 327 327 327 328
326 326 328 331 334 337 339 341 344 345 346 347 347 347 347 348 349 349 349 349 348 346 345 344 342 340 339 337 334 333 332 332 331 331 331 331 332 332 332 332 331 333 331 331 330 331 332 332 331 330 329 329 329 328 329 329 329 328 327 327 327 327 328
326 327 328 330 331 333 336 339 341 344 346 346 347 347 347 348 348 348 348 348 347 346 345 344 341 340 338 337 335 333 332 332 332 331 331 331 332 333 333 332 332 333 332 331 331 331 331 333 332 330 330 330 330 330 329 330 329 327 326 327 327 328 328
325 327 328 329 331 332 333 337 340 343 344 346 347 347 347 347 348 348 348 347 347 346 344 343 341 340 338 337 336 334 332 332 332 332 332 332 333 334 333 333 332 332 334 333 332 331 331 331 332 333 331 330 330 330 330 328 327 327 327 327 327 327 328
325 326 328 329 331 332 333 334 338 341 344 346 346 346 347 347 347 347 347 346 346 345 343 342 340 339 338 337 336 335 333 332 332 333 332 333 333 334 334 333 334 334 333 335 333 333 332 332 331 333 332 331 329 329 329 328 328 327 326 326 327 327 327
332 326 327 329 330 331 331 333 336 339 341 343 345 346 346 346 347 346 346 345 345 344 343 342 340 339 339 338 337 335 334 334 334 334 333 334 334 334 334 334 334 334 334 335 334 333 333 332 331 331 331 330 329 329 329 328 327 326 326 327 327 327 326
324 325 326 327 328 329 330 331 333 337 340 342 344 344 344 345 345 346 346 345 344 343 342 341 340 339 338 338 337 336 336 335 335 335 334 335 334 334 334 334 334 334 334 334 334 335 334 333 331 329 327 328 328 328 329 329 328 329 328 327 327 326 326
324 325 326 327 328 328 330 331 333 335 338 340 342 343 343 344 344 344 344 344 344 343 342 341 339 339 338 338 337 337 337 336 336 335 335 335 334 334 334 335 335 334 333 332 332 332 332 330 329 328 327 327 327 327 329 329 330 331 328 330 329 327 327
324 325 326 327 328 328 329 331 333 334 336 339 341 342 343 344 344 344 344 344 343 343 342 341 339 339 338 338 338 337 336 336 336 336 335 335 335 335 335 334 334 334 333 332 331 330 330 329 327 327 327 327 327 327 329 329 330 328 326 327 331 329 325
325 326 327 328 329 329 329 330 332 333 336 338 340 342 343 343 343 343 343 343 343 343 342 340 339 339 339 338 337 337 336 336 336 335 334 335 335 335 335 335 334 333 332 331 330 330 330 330 328 328 328 329 328 328 329 329 328 325 325 327 327 331 328
326 327 328 329 330 330 330 331 332 334 336 338 340 342 343 344 343 342 342 341 342 342 341 340 339 339 339 338 337 335 336 336 335 333 333 334 335 336 335 334 333 333 332 331 331 331 330 330 330 329 329 329 328 329 329 328 327 324 324 324 325 326 327
325 328 329 331 331 331 331 331 331 333 335 338 341 343 344 343 343 343 342 341 341 340 340 339 338 338 338 337 336 335 336 334 332 332 332 333 335 335 335 334 333 333 333 333 332 330 330 330 329 329 329 329 328 327 327 328 325 323 321 321 322 322 325
322 327 329 331 331 333 332 332 332 332 332 334 338 341 341 341 343 343 338 337 336 336 337 337 336 336 336 336 335 335 335 333 330 330 331 332 334 335 334 334 333 333 332 332 331 330 330 329 329 329 330 329 328 328 329 330 324 320 319 318 318 319 323
323 326 326 328 330 331 333 333 333 333 333 336 337 339 341 342 342 341 336 335 335 334 334 335 335 335 335 335 334 335 334 333 330 330 331 332 334 335 334 334 333 332 332 332 331 330 330 329 329 328 328 328 327 327 327 329 322 319 318 317 317 319 322
325 325 326 328 330 331 334 335 335 335 335 335 336 338 340 341 340 337 334 333 334 334 334 334 333 333 334 335 335 335 335 334 333 334 334 333 333 334 334 333 333 333 333 331 330 329 329 329 329 329 328 327 328 326 326 327 324 318 316 316 316 317 318
322 323 323 325 326 325 330 332 335 337 337 336 336 337 337 338 338 334 332 332 333 333 333 333 332 332 334 335 335 334 334 335 335 334 333 332 332 334 334 334 334 333 333 331 330 329 328 328 327 327 327 327 327 328 326 326 324 318 314 314 315 317 316
325 326 327 327 327 324 331 335 336 337 338 337 336 337 337 336 334 333 331 332 332 333 331 330 330 331 333 332 333 333 334 335 336 334 333 330 331 335 335 334 334 334 332 331 330 329 327 329 327 326 325 328 328 330 329 328 324 317 314 313 312 316 315
325 326 330 335 337 332 334 337 337 334 335 336 337 336 335 334 333 333 332 331 331 331 330 330 331 331 331 331 332 333 335 335 335 333 333 332 334 336 336 336 331 329 328 329 328 328 327 328 325 323 323 324 326 327 328 327 323 323 312 310 309 313 317
326 328 332 336 336 340 335 335 336 336 336 337 336 335 334 333 332 332 332 331 329 330 331 330 330 330 331 332 333 333 335 336 334 332 332 332 334 335 333 329 327 328 328 328 328 327 325 325 325 323 323 324 325 324 321 321 318 316 308 307 307 310 315
329 335 337 338 336 332 330 330 330 330 332 331 334 335 334 333 332 331 330 328 327 329 330 330 330 330 331 332 333 333 334 334 333 333 333 334 334 330 329 327 328 330 330 328 327 325 324 323 322 320 322 323 321 319 316 322 323 315 310 307 305 307 312
321 327 331 331 331 331 330 327 328 329 331 332 332 332 332 331 331 330 330 328 328 330 331 331 330 331 332 333 333 333 333 333 332 332 332 331 331 329 328 328 329 327 326 323 323 322 321 322 322 321 321 320 316 314 316 316 319 318 315 306 304 304 307
324 328 331 335 334 331 330 326 327 328 328 330 330 330 330 331 331 331 327 324 328 331 332 332 332 332 331 331 332 332 332 332 332 330 329 331 330 328 326 326 326 326 324 323 322 320 320 321 320 318 318 316 314 315 316 316 317 316 314 310 304 301 301
321 323 328 331 332 331 328 327 326 328 327 328 329 329 329 330 329 328 326 327 330 331 331 331 332 332 331 330 331 331 332 331 329 329 329 330 330 327 326 326 326 324 324 322 320 320 320 319 319 317 316 315 315 314 314 317 316 314 314 311 307 304 302
320 321 326 329 329 329 326 326 327 327 326 326 327 327 328 329 329 327 326 329 331 330 331 331 331 330 330 330 330 330 331 329 329 329 328 329 328 327 327 326 325 323 321 319 319 320 319 318 317 316 315 314 312 312 313 316 315 312 310 314 313 310 308
321 321 322 324 328 330 326 327 326 327 327 326 326 326 327 328 329 329 329 329 330 330 330 329 329 329 327 327 327 328 329 327 326 326 326 326 326 325 325 322 322 322 322 321 321 319 319 318 317 315 314 313 312 312 314 316 313 311 307 305 303 306 307
322 322 322 324 327 327 325 325 326 327 326 325 325 326 326 326 326 325 323 323 325 326 327 327 324 322 322 323 324 325 326 328 330 321 316 315 317 321 321 321 322 322 322 321 320 319 318 317 317 314 314 313 312 312 314 315 314 310 306 304 304 303 300
323 323 322 325 325 325 324 324 325 325 325 325 325 325 323 322 322 324 324 324 325 324 323 323 326 325 324 325 327 328 329 324 322 318 317 314 310 306 305 306 310 314 310 306 307 314 319 317 316 316 315 314 313 313 312 313 313 313 306 307 305 303 303
325 326 325 324 326 326 325 325 325 325 325 325 324 321 319 319 319 321 323 325 325 325 325 325 324 324 324 323 320 320 322 323 323 319 316 314 311 309 306 303 296 298 308 308 306 302 299 307 312 315 313 311 306 309 312 312 311 305 299 293 293 293 294
326 326 324 324 323 321 322 324 327 326 326 324 321 319 319 318 318 318 319 321 322 322 321 321 322 323 323 324 322 321 321 322 322 319 316 315 312 309 308 305 304 294 295 299 300 296 293 296 300 303 307 312 304 303 302 302 297 294 293 292 292 292 292
327 325 325 325 323 321 323 325 326 326 325 322 320 319 319 319 319 320 321 322 322 321 320 320 321 320 320 322 323 324 324 322 321 317 313 311 310 310 310 308 306 305 298 294 295 295 293 293 295 296 298 301 305 302 301 297 293 292 292 292 292 292 291

ECMWFFLT1_sfc_thetae_006.txt.gz
Theta_e
328 330 332 334 336 337 339 341 343 343 344 345 346 347 348 348 349 349 349 349 349 349 350 351 350 351 351 349 347 343 340 338 338 336 335 334 335 333 332 333 335 335 335 335 335 337 339 340 339 339 338 338 337 336 336 340 340 341 339 340 340 340 337
327 329 331 334 335 337 339 342 343 344 345 346 346 347 348 349 349 349 349 349 350 350 350 350 350 349 349 347 345 340 336 335 336 338 335 335 337 334 334 333 335 335 334 335 335 337 339 339 339 338 336 339 336 337 337 337 339 338 339 337 337 336 337
327 329 331 333 335 337 339 341 343 345 346 346 347 347 348 349 350 350 350 349 349 350 350 349 350 348 347 345 341 338 335 334 335 334 331 332 334 334 334 335 335 334 334 334 335 337 339 338 338 337 336 337 337 336 336 336 338 337 336 336 337 338 337
327 329 331 334 336 338 340 341 343 345 346 347 347 348 348 349 351 351 351 351 350 350 349 349 349 347 346 343 339 337 334 333 334 333 331 332 333 334 334 334 334 334 333 332 335 337 338 337 336 335 341 336 337 337 336 336 336 336 336 337 337 336 336
327 330 332 333 335 336 339 341 342 344 345 347 348 349 349 350 351 351 352 352 351 350 350 350 349 347 346 343 339 337 335 333 333 334 332 332 335 334 333 333 332 332 333 332 335 338 338 336 335 335 337 336 336 336 336 336 335 336 336 336 336 335 336
325 328 331 333 335 336 338 341 343 344 345 346 347 348 349 350 350 350 351 351 350 350 350 349 347 347 344 342 340 338 335 334 334 334 332 333 333 333 333 333 332 332 332 332 335 335 336 336 335 335 334 336 336 336 336 335 336 336 336 335 335 335 335
325 327 330 333 335 336 338 340 343 345 346 347 348 349 350 350 350 350 351 350 350 349 349 348 348 346 344 341 340 338 334 333 333 333 333 333 333 333 333 333 334 332 333 334 333 334 333 334 335 335 335 334 337 336 336 335 335 334 334 333 334 333 333
326 327 329 332 335 337 338 340 342 345 347 347 347 348 348 350 350 350 350 350 350 350 349 348 347 346 344 341 340 337 334 333 333 333 333 332 332 332 332 333 333 333 333 332 333 333 333 334 334 335 335 334 335 335 335 335 334 333 333 334 333 333 333
325 327 328 331 334 337 339 340 342 344 346 346 347 347 348 349 349 349 350 350 350 350 349 349 348 346 344 341 338 337 335 334 333 333 332 331 331 331 331 332 333 333 332 332 332 334 334 334 334 335 335 334 335 334 334 334 334 334 333 333 333 333 332
324 325 327 330 333 336 338 340 342 343 344 346 346 347 347 348 349 350 350 350 350 350 350 349 348 346 343 341 338 337 335 333 333 332 331 331 331 330 331 331 332 334 333 332 332 332 334 335 335 335 335 334 335 333 333 333 333 333 333 332 332 331 331
324 325 326 328 331 334 336 338 340 342 344 345 346 347 348 348 349 349 349 350 350 350 350 350 348 345 343 341 338 336 334 333 333 332 331 331 331 331 331 332 332 334 332 332 332 332 333 335 335 335 334 333 333 333 333 333 333 333 332 332 332 332 331
323 324 325 327 329 331 334 336 339 341 343 345 346 347 347 348 349 349 349 350 351 350 350 349 348 345 343 341 338 336 334 333 333 332 331 331 331 331 332 332 332 333 333 332 332 332 332 333 334 334 333 333 333 333 333 333 333 333 333 333 332 331 331
323 324 325 326 328 330 333 335 337 339 341 344 345 347 347 348 348 349 349 349 350 351 350 349 347 344 342 341 339 337 335 333 333 333 332 334 333 333 335 332 332 332 332 334 333 333 332 333 333 335 334 334 334 333 333 333 333 332 332 331 331 331 331
329 323 324 326 327 328 330 333 336 338 340 342 344 346 347 348 348 348 349 349 349 350 349 348 347 344 342 340 339 338 336 334 334 335 334 334 334 333 333 333 333 332 333 334 333 333 333 333 333 333 335 334 334 334 334 333 332 332 331 331 331 331 331
323 323 324 325 326 327 328 330 333 336 338 341 343 344 346 347 347 348 348 349 349 349 349 348 346 344 342 340 339 338 338 335 335 336 335 334 333 334 334 333 333 333 333 334 334 334 334 334 334 333 333 334 333 333 333 332 332 332 331 331 331 331 331
322 323 323 324 326 327 328 330 331 334 337 339 341 343 344 346 346 347 347 347 348 348 348 347 346 344 342 339 339 339 338 336 335 334 334 333 332 333 334 334 334 333 333 334 335 335 335 334 334 334 333 332 332 332 332 332 332 331 327 329 333 332 331
322 323 324 325 326 327 328 329 331 332 334 337 339 342 344 345 346 347 347 347 347 347 348 346 345 344 342 340 340 339 336 334 334 334 334 333 333 333 334 334 334 334 334 334 334 334 335 335 333 333 333 332 331 330 331 331 331 327 325 326 329 333 331
322 323 323 324 325 326 327 328 329 331 333 335 338 340 342 344 345 345 346 346 347 347 347 345 344 343 342 341 340 338 335 334 334 334 335 334 334 334 335 335 334 334 334 334 332 333 334 333 332 332 332 331 330 329 330 330 327 323 324 326 326 329 333
322 323 324 325 325 327 327 328 329 331 332 334 336 339 341 344 343 344 345 346 347 346 345 343 343 342 341 341 340 337 335 334 334 334 334 333 334 335 335 334 334 333 333 333 334 333 332 331 331 330 330 329 329 329 330 330 327 324 324 324 324 326 329
322 323 323 324 326 327 328 329 330 332 333 335 337 339 341 343 344 345 346 346 345 344 344 343 342 342 341 340 339 337 336 335 335 334 334 334 334 335 334 334 333 334 334 334 334 332 331 331 331 331 330 330 330 330 331 331 326 323 323 322 323 324 326
322 324 325 326 327 328 329 331 332 333 333 334 336 339 340 341 343 344 343 344 343 343 342 342 341 339 339 338 338 337 336 336 335 334 334 334 335 335 334 334 334 334 334 334 333 332 331 331 330 331 331 331 331 330 331 332 325 321 320 318 318 320 325
324 327 327 329 330 330 331 331 332 332 333 336 337 339 340 341 342 343 342 342 342 340 341 340 339 338 338 338 337 336 336 335 333 332 333 333 334 333 332 332 333 333 335 335 333 333 332 332 332 331 331 331 331 331 331 332 323 321 319 318 317 320 326
326 329 331 332 333 333 334 334 333 334 335 334 335 337 339 340 341 342 339 337 338 337 337 338 337 337 338 338 336 336 336 335 333 332 332 332 332 332 331 331 333 334 335 334 333 333 331 331 331 332 332 331 331 330 330 331 325 318 315 315 315 318 324
327 327 327 330 329 330 332 334 335 336 334 333 334 336 338 340 341 340 338 335 334 335 335 336 336 337 338 337 336 336 336 334 333 333 332 331 330 330 332 332 334 334 336 334 334 332 332 331 330 330 331 331 330 330 330 330 326 318 315 314 315 318 325
325 327 328 326 326 327 332 332 334 336 336 334 334 334 338 339 339 338 336 334 333 334 333 334 335 336 337 337 336 336 337 335 334 333 331 330 330 330 329 328 330 332 334 334 334 332 331 332 329 329 329 331 330 331 330 329 325 319 318 317 314 319 324
332 334 335 335 333 328 333 338 339 335 335 335 336 336 337 338 338 337 336 333 333 333 332 332 333 335 337 337 336 336 336 335 335 334 332 330 330 330 329 330 330 331 332 331 331 330 329 330 328 327 326 328 329 329 329 329 328 328 319 315 312 314 323
333 335 335 335 336 339 335 335 334 334 334 334 334 334 335 335 334 333 332 332 332 331 330 331 333 334 335 335 335 335 336 335 332 328 327 328 328 329 330 331 331 331 330 330 328 327 328 327 327 326 325 325 325 325 325 326 326 324 312 309 308 311 316
333 334 334 336 335 333 332 331 330 330 330 331 333 333 333 334 332 330 330 330 329 329 330 331 332 333 334 334 334 334 334 332 330 328 327 327 327 326 326 331 332 332 332 329 326 326 327 327 325 324 325 324 324 324 324 324 327 321 311 308 305 307 311
327 329 331 331 330 332 331 329 328 329 330 331 332 333 333 332 331 330 329 328 328 330 331 331 332 333 333 333 333 333 332 331 331 330 329 329 329 329 329 330 330 331 330 328 327 327 326 326 325 324 322 321 321 321 321 321 325 317 317 306 304 304 307
325 328 331 332 331 330 329 327 327 328 328 329 330 332 333 332 329 329 328 327 330 330 331 332 332 333 333 333 332 331 330 331 332 332 331 332 331 331 330 329 329 330 328 327 326 325 325 324 323 322 320 319 319 318 319 320 321 317 315 312 305 304 303
323 326 329 331 330 330 327 326 326 327 327 328 329 331 332 331 330 329 327 328 331 330 330 331 332 332 331 331 331 331 332 332 332 332 332 333 333 331 330 329 329 327 327 327 327 325 323 321 321 320 320 320 319 320 318 318 318 317 315 311 305 301 299
323 325 327 329 329 328 326 327 327 326 326 326 328 330 331 331 331 329 328 330 332 331 330 331 331 331 330 331 331 332 333 331 331 331 332 332 332 331 329 328 327 326 325 325 323 322 320 321 320 320 319 319 321 320 318 317 316 315 314 313 311 308 305
321 322 325 327 329 330 326 327 327 327 326 325 326 328 329 329 330 330 330 331 331 331 331 331 331 331 331 330 331 331 332 331 329 329 328 327 328 329 329 327 326 324 324 323 321 320 320 320 321 320 319 319 319 317 316 317 315 314 313 314 313 312 312
322 321 323 324 326 326 326 326 326 326 325 325 326 328 330 329 329 330 331 331 331 332 331 331 331 329 329 330 330 330 330 329 333 327 320 321 322 324 324 323 323 324 323 322 320 320 320 321 321 320 320 320 318 317 318 317 316 313 312 310 310 309 308
322 322 322 323 324 326 326 327 327 326 325 325 325 326 326 326 327 329 329 330 331 331 331 330 331 330 328 329 329 329 330 328 327 322 320 318 317 316 315 317 321 323 322 313 314 318 321 321 321 322 321 320 318 317 316 316 316 316 310 312 306 307 307
323 324 325 325 326 326 327 328 327 326 325 324 324 322 321 322 324 327 328 328 328 328 328 329 327 326 326 327 327 327 326 324 322 321 321 321 319 312 309 303 296 298 312 314 308 304 299 305 320 321 319 316 314 314 317 317 317 305 300 297 295 294 296
324 325 325 325 325 324 325 326 328 327 324 322 322 321 322 322 323 324 325 326 326 326 326 325 324 324 324 324 323 323 321 321 320 320 319 319 317 315 312 307 304 294 294 299 300 297 295 298 302 307 311 317 311 305 302 302 297 294 294 293 293 292 291
325 325 326 326 324 323 324 326 326 325 323 320 320 321 321 321 322 323 323 324 324 324 323 324 324 322 321 321 320 323 324 320 321 320 318 317 316 314 312 310 309 307 297 293 293 295 293 293 294 296 299 302 306 304 303 297 293 292 292 293 292 292 292

ECMWFFLT1_sfc_thetae_009.txt.gz
Theta_e
336 336 338 340 341 341 342 345 346 346 348 349 350 351 352 354 355 357 357 358 359 360 362 362 362 363 363 362 361 361 362 362 363 361 359 357 356 355 353 352 353 353 351 349 350 350 351 353 353 352 351 349 347 347 348 348 346 345 347 349 348 346 346
333 334 336 339 340 341 344 346 347 347 348 349 350 352 352 354 356 356 356 358 359 360 361 362 362 362 362 362 362 362 361 361 361 361 359 357 355 355 353 351 352 352 353 351 351 353 353 352 352 351 349 349 347 347 346 346 346 345 343 346 345 345 346
333 334 335 337 339 341 344 346 347 348 349 349 350 351 352 355 357 357 357 357 358 360 361 362 362 362 362 362 361 361 360 359 360 359 357 355 353 351 351 351 351 351 351 352 352 351 352 352 352 351 348 347 345 346 345 344 345 344 344 346 345 343 345
334 334 335 338 341 344 345 346 347 347 349 349 350 351 354 356 358 358 358 358 358 359 359 361 362 361 362 361 361 359 359 360 359 357 356 354 353 351 349 349 350 350 350 350 350 350 350 352 351 350 349 347 346 345 344 343 343 345 345 347 344 344 344
335 335 336 337 339 342 343 344 346 348 348 349 351 354 356 357 357 358 359 359 357 358 359 360 360 362 362 361 359 359 359 358 356 355 354 354 354 352 349 346 347 347 349 350 350 350 350 350 349 350 348 348 346 346 346 346 345 347 345 347 344 344 342
333 335 336 336 337 339 341 343 345 346 348 348 351 354 354 355 355 355 356 358 358 358 360 360 360 361 359 359 359 359 359 357 355 354 353 352 352 349 347 347 346 347 347 348 349 349 349 349 348 348 347 345 343 343 343 345 344 345 345 346 345 343 341
334 335 336 337 338 339 341 343 344 346 349 350 352 354 353 353 353 354 355 356 357 357 358 358 359 359 359 360 359 358 356 355 353 351 350 349 349 349 348 347 347 347 347 349 348 349 348 348 349 349 347 345 345 344 344 346 344 346 347 347 346 346 345
335 335 338 339 338 339 340 343 344 346 349 351 351 352 352 353 353 354 354 355 356 356 356 356 357 360 360 360 358 357 356 354 352 350 348 346 347 347 348 347 346 346 347 346 347 348 347 348 348 348 347 345 347 347 346 347 347 345 347 346 345 344 345
334 338 338 338 339 339 341 343 345 347 350 351 352 353 353 353 353 353 354 355 356 356 356 356 357 359 360 359 358 356 355 352 349 349 346 345 345 343 342 343 346 346 344 343 343 346 346 346 346 347 347 346 346 347 347 347 347 347 347 345 345 343 342
334 337 339 340 340 340 343 345 347 349 351 352 353 354 353 354 354 354 354 355 355 355 356 357 357 358 359 358 357 356 355 351 346 345 343 341 341 340 341 341 343 345 344 343 343 343 345 346 346 346 346 345 346 346 346 347 347 347 346 346 345 344 342
334 338 340 339 341 343 345 344 347 349 351 353 354 353 355 355 355 354 355 355 355 355 356 357 358 357 357 356 354 354 353 350 345 342 341 339 338 338 339 340 340 341 341 342 342 343 344 344 346 346 345 343 344 345 346 346 347 346 345 345 345 345 343
336 337 339 340 342 344 343 345 348 350 352 353 353 352 355 355 355 355 355 356 356 356 356 356 357 357 356 355 354 353 351 346 341 341 340 337 336 337 337 337 339 340 341 341 340 341 341 342 342 343 344 344 345 346 347 347 347 346 345 343 344 345 344
335 337 338 337 341 343 347 348 347 349 352 352 351 353 354 354 354 354 356 357 356 357 357 358 358 358 356 355 353 352 348 341 340 339 339 337 336 338 338 337 337 338 339 339 338 337 338 340 341 342 343 345 345 345 346 345 345 345 345 345 346 346 344
335 335 337 340 341 342 343 346 349 350 351 351 352 354 354 354 354 355 356 356 357 357 357 357 358 358 357 355 354 351 342 341 345 343 341 341 342 341 340 339 339 339 340 339 337 336 337 337 339 340 342 343 343 344 344 344 344 344 345 345 345 345 345
331 332 335 336 339 342 344 345 348 349 350 351 352 353 354 354 355 357 358 357 358 356 357 359 359 358 357 355 353 349 344 345 346 346 345 344 344 341 341 342 341 340 340 339 338 336 337 338 338 339 340 342 342 342 343 342 343 343 343 344 345 346 344
331 332 333 335 338 340 343 345 347 349 351 352 352 353 353 354 356 356 356 355 356 358 358 359 359 359 357 355 353 350 347 345 344 344 344 344 341 340 340 337 338 338 337 337 337 336 336 335 337 338 339 339 340 341 341 341 342 336 329 333 343 345 344
332 332 333 336 339 339 342 344 346 348 349 350 352 353 353 354 356 356 354 355 355 357 358 358 359 358 357 355 354 352 348 345 343 343 343 343 341 338 338 338 337 336 335 335 336 335 336 336 337 337 337 336 337 338 339 340 339 328 326 327 329 338 343
333 335 335 336 338 338 340 341 344 345 347 348 350 352 353 355 355 355 354 355 355 356 357 357 357 356 358 357 355 350 347 346 345 344 344 343 340 338 336 336 335 334 334 334 335 336 337 336 336 337 336 336 337 336 336 337 329 325 325 326 326 329 339
335 336 336 340 339 339 338 338 341 344 345 347 348 350 352 355 353 354 355 356 357 358 356 356 357 358 358 358 356 350 347 346 345 344 342 337 336 335 336 335 334 333 334 335 339 339 337 337 336 335 337 338 336 335 335 336 330 325 324 324 324 325 329
337 338 338 338 338 338 340 341 341 343 344 348 349 349 352 354 352 354 356 357 359 357 357 357 357 358 358 358 355 350 347 346 344 340 336 335 336 338 337 336 335 336 337 339 340 339 339 339 338 337 336 335 334 334 336 336 329 324 322 321 322 323 327
335 336 337 338 338 337 342 343 345 344 344 344 344 348 350 351 353 356 356 358 357 358 358 358 357 357 357 356 354 351 347 345 344 341 340 339 339 339 338 337 338 339 340 340 339 338 338 334 334 335 334 334 335 335 335 336 326 323 321 319 319 321 326
333 333 334 336 340 342 344 341 342 341 344 344 347 349 349 351 352 352 352 355 356 356 356 357 356 355 355 354 353 350 347 345 344 343 341 340 339 338 338 339 338 338 337 338 338 340 339 337 334 333 333 335 336 335 335 336 325 321 320 318 318 321 332
332 333 335 340 339 340 344 344 344 343 349 348 347 347 347 349 350 350 351 352 353 355 354 354 354 354 354 353 352 350 347 345 344 342 341 340 339 338 338 338 338 336 334 332 331 330 331 332 333 335 336 337 337 335 334 335 329 322 318 317 317 320 335
335 338 339 339 343 344 347 347 347 349 345 347 347 348 349 350 349 352 352 352 353 353 353 353 353 354 354 353 353 351 348 347 345 343 341 341 340 339 338 337 337 335 333 329 326 325 327 330 334 338 338 337 337 336 334 336 331 319 314 313 315 322 336
335 338 341 341 341 341 342 346 346 344 347 347 344 347 350 350 350 351 352 352 350 351 351 351 353 353 353 353 353 352 349 348 346 344 342 341 339 337 335 334 332 329 327 326 326 328 333 334 334 336 337 337 336 333 334 335 329 314 315 314 313 321 334
340 339 339 341 343 346 347 347 347 345 344 344 345 347 351 351 352 352 351 349 348 348 349 351 352 353 353 353 352 351 350 348 346 344 342 339 334 334 332 329 327 327 328 332 335 338 340 339 337 336 337 336 336 336 335 335 336 331 314 313 312 315 334
341 342 342 342 342 344 345 345 345 344 344 346 347 346 348 349 349 348 348 347 346 346 346 349 350 350 351 350 349 349 348 347 345 343 342 337 333 330 329 330 332 333 333 334 336 338 338 338 339 338 337 335 334 333 331 331 331 329 316 312 312 312 318
338 339 340 342 343 343 343 344 344 344 343 346 347 347 348 349 347 346 346 345 345 346 345 347 348 349 349 348 347 347 346 343 343 342 339 336 332 328 327 330 331 332 334 335 336 335 336 339 340 337 334 332 333 331 331 330 328 330 320 311 308 307 311
337 337 338 339 340 341 342 341 339 339 340 342 344 346 347 347 346 344 344 344 344 343 345 346 347 347 347 347 346 345 343 341 339 338 336 335 333 330 330 330 330 331 334 334 335 335 337 340 337 335 334 333 331 330 330 330 331 321 326 309 305 303 307
339 337 335 336 338 338 339 339 339 339 341 342 344 346 346 347 344 343 343 343 343 343 345 346 346 347 345 344 343 341 340 338 338 337 336 334 332 332 331 331 332 333 336 335 337 338 339 338 336 334 332 330 326 325 325 327 330 320 317 313 306 304 305
338 336 335 336 336 338 338 337 337 338 338 340 341 342 344 346 344 342 342 341 342 343 344 345 345 344 343 341 341 339 338 338 338 336 334 332 331 331 331 332 334 333 335 338 340 340 337 335 334 330 329 327 324 325 325 325 326 327 318 312 307 304 302
337 340 338 338 340 340 340 340 340 340 338 338 339 340 344 346 346 345 344 341 342 343 344 344 343 342 341 341 340 339 338 337 336 336 333 332 333 333 332 332 331 331 334 337 337 336 335 333 329 328 326 325 327 329 330 326 326 326 324 315 310 307 304
334 336 337 337 339 341 341 340 337 336 337 337 337 339 340 343 344 347 342 341 341 342 344 343 341 339 339 338 337 338 337 335 334 333 334 335 333 332 332 331 333 334 337 338 337 337 335 330 327 325 324 327 329 332 331 329 327 327 327 326 323 322 316
336 336 337 337 338 340 341 340 338 339 340 342 340 341 341 340 341 341 340 339 339 341 342 341 339 338 337 336 336 335 335 335 335 335 334 336 336 335 336 338 338 338 338 337 337 335 331 329 328 328 328 328 330 331 330 328 328 328 327 325 325 325 323
338 339 340 338 336 338 339 341 342 342 342 341 339 339 339 338 337 338 338 337 338 340 339 338 337 338 337 336 336 335 335 334 335 336 336 336 337 332 328 331 336 337 337 328 326 331 332 332 331 332 332 332 332 330 329 330 329 330 318 326 315 321 323
338 339 339 338 338 340 339 338 339 339 338 338 337 337 337 337 337 338 338 338 339 339 338 338 337 338 337 337 336 336 335 335 335 335 335 335 332 325 314 302 295 302 322 324 309 302 299 301 329 331 332 330 331 329 330 330 331 306 301 299 299 299 299
336 337 337 337 337 337 338 339 338 337 337 337 335 335 334 336 337 338 338 339 339 338 339 340 338 337 337 336 336 335 336 336 336 334 335 334 330 327 321 316 309 294 293 299 300 297 293 295 298 303 315 328 325 312 300 302 298 297 296 294 293 293 293
333 335 335 335 335 336 337 337 337 337 337 336 335 333 334 334 336 338 337 340 340 340 341 340 338 336 336 335 336 334 335 334 334 333 332 332 331 328 325 323 322 315 296 292 294 294 292 292 295 301 305 308 314 312 312 299 295 294 294 294 293 293 292

ECMWFFLT1_sfc_thetae_012.txt.gz
Theta_e
343 343 344 345 346 346 347 348 350 350 351 354 356 356 356 358 360 361 362 364 366 366 369 371 371 370 369 369 369 369 367 364 364 362 362 363 364 364 363 363 362 362 359 357 358 356 358 358 356 355 353 352 350 349 350 348 347 346 347 347 347 345 345
341 342 343 344 346 346 348 350 351 350 351 353 355 358 357 359 361 360 362 364 367 367 368 370 371 370 370 370 370 369 367 364 364 364 364 364 365 367 366 366 364 363 362 360 359 359 359 357 356 355 352 351 350 351 349 347 347 346 345 346 345 344 344
340 341 343 345 345 347 350 351 352 351 353 352 354 355 356 359 362 362 362 364 366 368 368 370 372 370 371 371 370 369 367 365 364 362 363 363 364 364 366 366 365 362 362 362 361 359 358 357 356 355 353 351 348 349 349 346 346 345 345 346 345 344 344
340 341 343 346 348 350 350 351 352 352 352 353 354 355 357 360 363 363 363 364 365 367 367 369 370 370 370 370 369 369 367 366 365 363 363 364 365 366 365 367 366 364 361 360 359 358 356 356 354 353 352 350 348 348 348 346 345 345 344 344 342 343 343
340 341 342 344 346 348 350 351 352 353 352 352 355 358 359 360 362 363 364 365 363 366 367 367 368 370 370 371 369 368 367 367 365 366 365 365 366 367 365 365 365 363 361 361 360 357 356 354 353 351 350 350 348 347 347 346 344 344 344 344 343 342 341
338 340 341 342 344 346 349 350 351 352 351 351 354 356 357 358 359 359 362 364 364 365 368 369 369 370 369 370 369 369 369 368 367 367 365 365 365 365 364 365 363 362 358 357 356 355 355 353 351 351 349 348 346 346 346 344 343 342 343 344 344 343 340
339 341 341 343 344 346 348 350 350 351 353 353 354 357 357 356 357 357 359 361 362 364 364 365 367 368 370 370 369 370 369 368 366 364 363 363 366 365 366 365 363 361 358 357 354 354 352 351 350 349 349 348 348 347 347 346 344 343 343 344 344 343 343
340 341 344 344 344 345 346 349 350 351 353 354 353 354 355 354 356 356 357 357 360 360 361 360 364 368 370 371 370 369 369 368 366 364 363 364 364 364 365 364 362 362 358 357 356 354 351 351 348 347 348 347 348 348 347 346 346 343 342 343 343 343 342
341 345 345 343 344 343 345 349 351 351 354 355 354 355 355 355 354 355 356 356 358 358 359 358 361 366 370 370 370 370 369 367 365 364 364 361 361 362 362 362 362 361 358 355 354 354 352 350 348 348 349 348 349 348 346 346 345 344 342 342 343 343 341
342 346 347 345 344 343 345 347 351 353 353 354 355 356 357 356 356 356 356 355 356 357 358 358 359 362 368 369 369 369 368 366 365 362 360 359 360 360 360 359 360 359 357 353 351 351 352 349 348 348 350 348 346 347 346 345 345 344 341 342 344 343 341
341 347 348 345 344 345 346 347 350 352 354 356 356 356 358 358 357 356 357 356 355 356 358 359 361 361 365 367 365 366 367 365 362 361 361 360 359 359 358 357 355 354 351 350 349 350 349 349 351 350 350 348 347 346 346 344 344 342 340 343 345 344 341
344 346 348 348 347 346 347 350 352 354 356 357 357 357 359 360 358 357 357 358 357 356 358 359 360 361 362 365 364 365 365 365 363 362 360 358 358 356 357 352 350 349 348 347 345 345 346 347 349 348 348 349 346 346 346 345 343 342 343 343 344 343 342
344 346 348 346 348 349 352 353 353 355 357 357 357 359 360 359 358 358 360 360 358 358 359 362 361 362 361 364 363 364 365 364 364 361 358 358 359 355 349 346 345 345 344 345 343 343 343 345 346 346 348 348 346 345 345 344 345 346 347 345 344 344 343
347 345 347 348 349 350 351 354 356 357 358 358 358 359 360 361 359 359 360 360 360 359 360 361 363 363 363 364 364 365 364 364 365 362 360 358 353 346 343 344 343 343 344 344 341 342 342 341 344 347 347 347 346 345 345 346 347 348 348 347 346 344 343
342 342 346 345 349 351 354 354 356 357 358 358 359 359 359 359 359 361 362 362 363 360 360 363 364 364 363 364 364 365 367 366 362 359 359 354 351 345 342 342 342 342 342 343 342 342 342 343 345 345 345 347 346 346 346 347 345 345 346 346 346 345 343
341 342 343 344 348 350 353 355 357 358 359 359 358 358 358 358 360 359 360 361 361 362 361 363 364 365 364 364 365 366 365 362 360 359 357 353 349 345 340 339 341 342 342 345 345 345 343 343 344 344 343 344 345 345 344 341 341 338 333 338 345 345 344
342 342 343 346 349 351 354 355 357 358 358 358 357 358 358 360 362 361 359 360 360 363 362 363 365 365 365 365 365 365 364 362 359 358 355 352 351 350 347 343 344 345 345 346 346 345 344 343 344 342 342 343 342 342 343 342 339 330 328 328 330 340 342
342 345 345 346 348 351 352 353 356 356 357 357 358 360 361 362 362 361 358 360 360 361 362 362 364 364 366 366 366 366 364 361 359 357 352 350 350 352 351 349 347 347 347 345 346 347 346 344 344 343 343 341 340 337 340 342 329 326 326 327 326 329 339
343 347 347 348 349 350 350 350 354 357 356 357 358 358 361 364 362 362 361 362 363 363 362 362 363 366 367 367 366 366 365 362 359 357 353 348 349 350 350 348 347 347 347 346 347 346 344 344 343 343 343 340 339 338 340 342 328 325 325 325 325 326 330
345 347 348 348 350 350 351 354 354 357 357 359 360 359 361 364 362 364 364 363 364 363 364 364 364 366 367 367 367 365 365 361 358 355 353 350 350 349 349 348 347 348 348 347 347 345 342 341 342 342 343 343 344 344 343 342 327 323 322 322 323 324 327
345 347 348 350 350 349 353 354 354 357 357 356 357 359 360 360 362 364 363 364 363 365 365 364 365 365 366 367 366 365 364 361 359 356 354 351 350 349 348 348 349 349 348 346 345 344 342 342 342 342 344 343 344 342 339 337 325 321 321 320 319 321 326
338 342 345 348 352 353 353 351 352 353 356 355 357 357 358 360 361 359 357 359 361 362 363 364 365 365 366 366 365 364 363 360 359 357 355 352 350 348 347 348 349 347 345 346 345 345 343 344 343 340 342 343 342 338 332 332 324 321 320 318 318 321 329
335 338 341 347 348 350 354 353 353 353 356 355 356 357 357 356 354 354 355 356 360 364 361 363 364 364 365 365 363 361 361 360 359 357 355 353 350 347 347 347 347 347 348 345 345 344 343 343 341 342 341 340 337 332 330 331 328 319 317 316 317 322 331
337 339 341 344 350 351 354 353 353 354 351 352 352 351 351 353 353 356 357 358 360 362 360 361 363 364 365 364 365 363 362 361 360 357 355 353 351 349 346 347 346 346 345 342 342 341 340 341 339 339 339 337 332 330 332 333 330 317 315 316 317 324 334
337 339 341 343 344 348 349 352 352 350 349 350 347 352 355 355 355 356 358 359 356 358 359 360 363 364 365 365 365 364 360 361 360 356 355 352 351 351 349 348 347 347 345 342 339 336 335 334 335 336 336 334 336 333 333 332 329 317 318 317 316 326 334
343 346 346 347 348 350 351 352 353 349 350 350 356 357 359 357 358 361 360 357 355 356 359 362 365 367 366 365 365 363 360 358 357 355 354 352 352 351 349 349 346 343 341 339 337 332 330 330 328 328 330 332 336 338 339 338 341 330 315 314 312 319 335
345 346 347 347 350 352 353 353 352 352 353 358 359 357 358 359 360 359 359 358 359 358 359 363 366 365 364 365 363 362 359 357 356 354 353 353 352 350 348 346 343 340 337 334 333 329 328 326 327 329 332 335 338 341 342 343 340 334 312 312 311 314 321
347 348 349 349 349 349 350 351 354 354 354 357 358 358 360 362 360 359 358 358 358 359 361 364 364 364 363 362 360 358 356 355 355 353 350 350 348 346 344 342 340 336 335 335 334 330 330 331 331 331 332 334 338 340 344 340 335 342 316 311 309 310 313
347 346 348 349 350 350 349 349 349 349 350 350 352 356 357 358 357 356 356 357 358 358 360 360 360 360 360 358 355 353 352 352 351 348 345 344 345 343 340 338 338 337 336 336 334 334 334 334 334 334 333 335 337 343 341 339 335 327 329 311 308 307 307
346 345 343 344 346 349 350 350 349 349 352 352 355 356 356 357 356 355 355 353 354 355 356 357 358 358 356 354 353 350 349 348 346 347 343 342 343 341 339 337 337 336 336 336 335 335 335 333 335 333 332 333 339 338 336 335 335 323 324 320 309 306 304
340 342 344 345 344 348 348 348 349 349 351 352 353 354 357 357 354 352 349 349 352 353 355 356 356 354 352 350 349 347 345 345 345 344 342 341 340 339 337 336 335 334 336 336 336 335 334 333 334 332 332 335 338 333 331 331 333 331 323 318 311 306 303
342 343 343 344 347 346 344 345 347 348 348 351 352 351 354 354 355 353 353 354 354 356 356 354 352 350 349 348 346 344 343 343 342 342 340 340 339 338 336 335 334 334 336 335 334 334 333 333 333 331 333 337 335 333 332 330 329 330 325 317 312 310 307
346 347 347 348 348 346 344 343 343 343 345 346 349 350 350 354 356 358 356 354 353 353 354 352 351 348 347 345 343 343 343 341 339 339 339 339 337 335 334 334 334 333 333 333 332 333 332 334 336 336 335 333 332 333 331 329 327 328 330 329 326 324 317
343 344 346 350 352 351 344 341 341 342 345 347 348 349 349 350 351 351 350 348 349 351 352 349 348 346 345 343 343 341 341 340 339 338 336 337 336 335 334 334 334 334 334 333 334 334 334 336 336 335 333 331 332 331 331 329 330 332 333 333 330 329 326
341 343 345 345 348 351 348 346 347 348 348 349 350 350 350 348 347 348 349 348 350 353 351 348 345 347 344 342 341 339 340 339 338 337 337 336 339 334 332 337 336 335 337 340 339 339 338 339 337 336 335 333 332 331 331 332 332 335 325 341 321 335 329
341 341 342 345 345 345 345 348 348 347 346 348 350 348 347 346 346 346 344 347 350 350 349 347 346 345 342 341 340 339 338 338 337 338 337 337 338 334 322 303 295 305 329 331 311 302 297 305 333 330 334 334 338 334 333 331 333 307 300 298 295 295 296
343 342 341 341 341 344 345 345 344 344 344 344 345 343 343 344 344 345 344 348 349 349 349 348 344 342 341 340 340 337 339 338 338 339 338 338 336 335 333 329 318 295 293 300 302 298 293 293 295 301 306 327 332 316 300 302 300 298 297 295 294 294 294
340 342 341 341 342 344 344 344 345 344 344 344 342 342 343 342 344 346 346 349 349 350 350 348 344 342 340 340 339 338 340 338 338 337 337 336 335 335 334 333 330 322 298 292 296 296 293 293 293 296 304 305 319 321 321 302 296 295 294 294 293 294 293

ECMWFFLT1_sfc_thetae_018.txt.gz
Theta_e
338 339 339 340 341 340 342 344 348 348 350 352 352 352 351 353 356 359 358 361 361 363 365 366 366 366 366 366 367 368 367 367 367 365 366 366 364 364 363 363 362 362 360 359 358 358 358 361 359 358 356 357 356 356 356 353 352 351 352 353 352 353 349
334 335 334 335 338 341 343 345 347 348 350 353 352 353 352 353 356 358 358 361 362 363 365 366 366 366 366 367 367 368 367 367 367 366 367 367 366 367 365 364 363 362 363 360 361 362 359 359 360 356 355 356 353 354 352 352 351 349 349 352 349 350 352
334 334 335 336 337 340 344 345 347 349 350 350 351 351 351 353 356 358 359 361 362 364 366 366 366 366 367 368 367 367 368 367 367 367 365 364 365 361 364 366 364 362 362 363 364 361 361 357 359 357 355 352 351 352 351 350 351 349 350 350 349 347 348
334 333 335 337 341 346 346 345 347 348 348 348 350 350 353 355 357 359 359 360 362 363 365 366 366 366 366 367 366 367 367 367 367 365 364 364 365 364 364 365 364 363 362 361 361 359 358 358 356 357 356 353 351 350 349 349 348 349 350 350 347 347 346
334 335 335 337 338 346 346 346 347 350 349 349 350 354 355 356 356 356 359 360 360 361 364 365 364 365 366 367 366 366 367 367 367 367 365 364 366 365 363 360 362 360 361 361 361 360 359 357 355 354 353 352 350 350 349 350 348 349 348 349 346 345 345
335 335 336 335 336 341 345 345 345 346 348 349 351 353 353 353 352 351 354 358 359 360 364 366 365 366 365 366 365 365 367 368 368 368 366 365 365 364 362 362 361 360 359 360 359 358 359 357 354 354 351 351 350 349 349 348 347 347 348 347 347 344 342
335 337 338 338 338 338 341 342 341 344 349 351 352 353 352 352 351 350 351 354 355 359 360 363 365 365 365 365 366 367 367 367 367 367 366 365 365 364 363 363 360 359 359 360 357 357 358 357 355 354 352 350 350 349 348 348 347 347 347 345 344 345 344
337 336 340 340 338 337 338 342 345 347 350 352 352 351 351 351 351 350 350 352 355 358 360 360 363 365 365 366 366 366 367 366 366 367 366 364 364 363 363 363 362 360 359 358 356 357 357 357 356 355 353 351 351 350 349 349 348 346 346 344 343 344 344
334 338 338 336 336 336 339 342 345 346 346 349 351 353 352 352 350 349 349 352 356 357 359 362 362 364 367 366 365 365 366 367 367 366 365 362 362 359 359 362 364 364 360 357 354 358 359 359 357 357 355 352 351 350 348 349 348 346 346 343 343 341 340
335 338 338 337 338 336 340 346 348 347 346 348 352 354 353 352 351 349 350 352 353 353 357 360 361 362 365 366 365 365 366 367 367 364 362 359 360 358 358 359 361 363 362 360 355 355 360 361 359 358 355 352 351 349 347 348 348 345 345 344 343 341 341
338 345 344 342 342 342 344 343 347 348 348 351 354 354 355 354 352 350 351 350 350 350 355 359 359 358 362 363 361 361 365 364 364 364 362 360 360 359 359 359 359 361 361 360 357 358 360 360 360 358 355 351 350 349 347 348 347 345 344 345 344 342 341
338 345 345 345 346 345 343 346 349 352 356 358 355 353 356 356 353 350 350 350 350 349 352 355 355 354 358 361 361 364 364 363 362 363 363 361 360 359 359 358 359 360 361 361 359 359 360 360 359 357 355 353 351 349 347 349 347 345 343 343 343 343 341
346 350 349 348 350 348 349 350 350 356 361 360 356 354 355 356 353 351 352 351 349 350 350 352 352 354 354 359 362 364 363 363 362 363 363 363 361 360 359 357 356 359 360 361 360 358 358 360 359 358 356 354 351 350 348 349 348 346 345 343 343 343 341
350 346 352 353 353 354 355 361 360 360 361 361 357 355 354 355 353 352 351 350 348 348 348 348 351 353 355 359 362 364 364 365 364 364 365 364 363 361 360 358 357 358 360 361 360 359 359 359 359 358 356 353 351 350 349 348 347 347 346 344 344 343 342
341 344 351 351 354 355 355 359 368 365 362 362 360 356 354 353 353 353 351 349 348 345 347 349 350 351 354 359 363 365 365 366 367 365 365 365 364 362 361 359 359 359 361 361 360 359 358 359 359 357 354 353 352 350 349 348 346 346 345 344 345 344 342
330 329 345 350 354 355 359 361 367 368 365 364 361 358 354 353 354 353 349 347 346 345 346 351 350 351 352 359 364 367 367 368 368 367 366 365 364 363 362 360 359 359 361 362 361 361 361 359 360 356 354 353 351 350 349 348 347 339 331 336 344 343 342
328 330 337 351 356 354 357 359 362 367 364 364 362 360 357 356 357 356 349 344 343 346 346 352 352 352 351 359 366 368 368 369 369 368 367 366 366 366 364 362 361 362 362 361 362 361 361 362 358 355 354 352 350 348 349 349 346 329 328 332 336 341 341
327 329 342 346 354 353 355 356 360 362 363 362 362 363 360 360 360 357 350 346 343 342 344 349 354 352 352 361 367 369 369 369 370 370 369 369 368 367 367 366 365 364 365 366 365 365 363 359 358 358 355 353 351 349 350 349 334 325 327 330 331 335 342
330 330 335 351 355 357 354 352 355 361 359 358 359 360 361 363 360 359 357 354 348 346 344 345 356 357 356 362 368 370 371 371 372 371 370 371 370 370 369 368 365 365 366 363 364 363 360 360 359 358 357 354 351 350 350 348 327 324 325 328 327 331 341
329 329 330 332 347 355 357 358 357 360 360 362 362 359 360 362 361 362 361 359 359 352 348 348 359 360 358 363 368 371 372 372 374 372 372 372 371 370 369 368 366 366 364 364 364 362 359 358 357 357 356 354 352 350 349 347 322 323 323 324 325 329 338
337 337 334 335 339 354 360 362 363 364 366 360 359 362 362 362 361 363 361 362 361 362 361 356 362 363 363 366 370 373 373 373 373 371 369 368 367 366 366 365 365 364 363 363 361 359 359 357 356 356 354 353 352 352 349 343 318 321 321 322 325 329 338
327 328 331 336 347 351 363 362 362 360 364 362 363 360 359 359 360 360 360 360 361 361 363 364 368 367 367 369 372 373 374 372 370 369 366 365 364 362 361 361 362 362 364 364 364 361 358 359 356 356 354 354 353 349 340 329 319 320 321 321 323 329 339
324 327 328 332 337 355 366 365 364 361 369 366 362 359 358 359 360 361 360 358 358 361 362 368 368 368 369 371 372 373 371 370 368 367 364 363 362 361 360 360 360 362 365 362 361 360 358 357 354 354 353 352 348 342 334 326 320 318 317 318 321 328 338
324 325 327 329 334 353 359 360 364 366 366 365 363 361 362 361 362 363 361 358 361 360 359 369 368 369 371 371 372 371 370 369 367 365 363 362 360 360 360 360 361 361 362 359 358 357 357 356 356 354 353 349 345 340 332 329 320 315 315 316 320 326 336
322 323 326 327 339 350 353 359 360 360 367 366 362 363 365 363 362 361 360 361 359 359 360 368 369 369 370 371 371 371 369 368 366 364 362 361 360 358 357 357 358 359 360 359 358 353 348 349 350 351 352 350 346 332 332 329 319 314 316 317 317 327 333
328 324 325 327 328 342 354 367 365 362 362 363 365 364 365 363 362 360 360 360 359 359 362 367 368 371 370 371 372 370 368 367 365 363 361 360 359 358 358 358 356 355 355 353 352 350 346 343 344 344 344 341 336 334 332 328 326 321 314 314 315 321 333
343 339 328 325 327 348 366 367 364 360 359 364 367 364 362 361 361 360 361 361 361 360 362 369 371 370 369 370 369 368 367 365 363 361 361 361 359 358 357 356 355 354 352 349 346 345 344 344 342 341 339 337 337 335 332 330 327 322 312 312 313 317 324
341 346 333 343 358 347 361 358 364 362 358 367 367 364 363 364 364 363 364 363 364 366 367 370 370 369 368 368 366 364 364 363 363 362 361 361 360 357 357 357 355 354 352 344 342 342 342 342 340 337 336 335 335 335 334 330 327 326 313 312 311 313 318
348 344 349 347 364 352 356 358 359 355 357 360 361 361 363 367 365 364 364 365 367 368 370 370 368 367 365 363 362 362 362 363 362 360 360 360 359 355 353 354 352 345 342 342 340 338 337 336 336 335 333 333 333 334 335 335 331 322 323 312 310 310 313
354 348 353 351 353 356 355 358 357 355 357 355 361 365 366 368 363 363 364 366 369 369 368 368 367 365 361 360 361 361 362 361 357 357 357 357 357 354 351 349 345 341 341 340 338 336 335 335 334 333 332 332 333 334 335 340 337 324 321 320 311 310 311
346 354 353 347 351 358 355 355 357 354 359 364 368 369 369 368 365 364 366 368 367 366 366 365 363 360 358 358 359 358 357 355 355 356 355 354 353 350 347 344 343 340 339 339 337 336 335 334 334 333 333 333 334 335 337 339 339 333 325 320 314 311 309
352 351 350 348 354 356 355 354 354 356 357 365 368 368 368 370 367 365 366 368 366 366 364 362 359 358 358 357 355 354 353 351 350 351 350 351 350 348 347 343 340 339 338 337 337 337 335 334 333 332 332 332 332 334 337 337 337 336 330 322 317 314 310
340 344 350 347 353 359 355 350 351 358 360 361 363 364 364 365 365 366 368 365 364 363 363 360 357 354 353 352 351 351 350 348 345 345 346 347 345 344 343 341 340 339 338 337 335 336 336 334 334 333 332 333 334 336 336 336 335 335 331 328 325 325 319
341 339 342 350 351 353 352 357 354 357 359 359 362 364 361 361 361 362 362 362 362 361 359 355 353 351 351 349 349 347 346 343 344 343 341 341 340 339 339 339 340 339 338 337 337 337 336 336 334 334 333 332 334 335 334 334 333 334 332 330 330 329 326
344 346 349 350 352 355 352 352 352 355 354 355 358 359 359 359 359 360 360 359 359 358 354 351 348 349 347 346 345 344 343 340 340 339 339 335 326 320 319 330 341 339 333 326 328 340 338 337 334 335 334 333 334 333 332 333 332 333 324 332 320 327 328
342 343 344 346 348 349 349 350 352 352 352 351 351 350 351 353 354 355 356 356 357 355 351 350 347 346 344 344 343 340 339 339 338 339 336 331 327 323 316 306 296 309 333 325 313 303 302 315 333 331 336 333 335 332 334 334 336 315 312 310 310 311 313
339 342 343 345 343 344 345 346 348 349 351 352 352 350 351 353 354 356 355 355 354 352 351 349 345 343 342 342 340 338 339 339 338 340 339 333 331 330 326 323 316 297 295 303 303 299 296 295 297 302 313 336 328 314 303 309 305 301 304 305 302 298 298
337 340 343 344 344 344 344 344 345 346 347 349 349 350 353 351 352 354 352 353 352 351 350 348 345 343 341 341 340 341 341 339 338 338 337 336 336 334 331 328 324 320 301 294 297 298 295 295 295 296 299 308 320 322 318 304 299 298 298 298 297 297 296

ECMWFFLT1_sfc_thetae_021.txt.gz
Theta_e
331 330 330 332 332 333 335 335 337 340 341 344 346 347 347 348 348 350 352 354 355 355 356 356 357 358 358 358 358 359 359 359 359 358 356 355 354 355 353 352 354 353 353 352 351 352 350 351 349 351 350 349 350 347 346 345 343 342 341 343 341 342 339
330 330 329 331 332 334 337 337 337 340 341 343 346 347 347 347 348 349 351 354 355 355 356 356 357 357 358 358 359 359 359 359 359 359 358 357 355 357 356 353 356 354 353 353 353 352 351 349 349 350 350 349 349 347 345 345 342 341 339 341 340 342 340
329 329 329 330 332 333 335 339 339 340 342 343 345 347 347 347 348 349 351 353 354 355 357 357 357 357 358 358 358 359 359 359 359 358 357 357 356 357 357 355 356 355 355 354 354 353 351 351 350 349 349 348 348 347 345 343 342 341 341 340 340 339 340
329 329 332 333 333 334 335 339 341 341 342 344 345 346 347 347 348 350 352 354 354 355 355 357 357 358 358 357 358 359 359 359 359 358 358 359 357 357 357 356 356 356 355 354 354 354 352 349 352 350 353 348 346 346 345 343 342 340 342 341 340 339 340
329 331 333 334 334 334 335 336 340 341 342 344 346 347 348 349 349 351 353 355 355 355 357 357 358 358 359 359 359 360 360 359 359 359 359 359 358 357 356 356 355 355 356 355 354 353 352 348 350 349 349 347 346 346 344 343 341 341 342 341 339 340 338
329 331 332 333 334 335 336 337 339 341 342 343 345 347 348 349 350 351 353 355 355 356 357 358 358 359 358 359 360 360 360 360 360 359 359 359 359 357 356 356 356 355 355 355 355 353 353 349 348 349 349 347 346 345 344 343 341 341 341 341 338 339 338
330 331 332 332 333 333 335 337 338 340 342 344 347 348 349 349 349 350 353 354 355 355 356 357 358 359 359 360 359 359 359 359 359 359 359 359 359 357 356 356 356 356 355 355 355 353 352 351 349 349 348 347 346 345 343 342 341 341 341 341 338 338 338
330 330 331 332 332 333 334 338 339 340 341 343 346 348 347 349 349 349 351 354 355 356 356 357 358 358 359 360 360 359 359 360 360 360 359 358 358 357 356 356 356 356 355 354 354 354 352 351 350 349 349 347 345 344 343 342 341 340 340 340 339 338 339
330 331 331 332 332 333 335 337 339 340 341 342 344 347 347 348 348 349 350 352 355 356 356 358 358 359 359 359 359 359 360 360 360 360 359 357 357 357 357 356 356 356 355 355 354 354 353 352 351 350 349 347 345 344 343 342 342 341 340 339 339 338 338
329 329 330 331 332 333 336 339 339 339 341 342 343 345 346 347 348 348 350 351 353 354 356 358 359 359 359 359 359 359 359 359 360 359 359 357 357 357 357 357 356 356 355 355 355 353 353 353 352 350 349 347 345 344 343 342 342 341 340 339 339 338 337
330 329 330 330 330 331 334 337 337 338 341 343 344 346 346 347 347 347 348 350 351 353 356 357 359 359 359 359 358 359 358 359 359 359 359 358 357 356 357 356 356 356 355 354 354 353 352 352 352 350 349 347 345 344 343 343 342 341 340 340 339 338 338
329 329 329 330 330 332 333 335 337 338 340 343 345 346 346 347 347 348 347 348 351 351 353 355 357 359 359 359 358 358 358 358 359 359 358 358 357 356 356 356 356 355 355 354 353 352 352 351 352 351 349 348 346 345 344 343 342 341 341 340 339 338 337
328 330 331 331 330 332 333 335 336 340 342 344 346 347 347 347 347 347 347 347 349 351 352 354 356 358 359 359 358 357 357 358 358 359 359 358 357 357 356 355 355 355 355 355 353 351 350 350 352 352 351 350 348 346 344 343 343 341 340 340 339 338 336
337 331 331 331 330 330 333 336 337 339 341 342 345 346 348 348 348 347 347 346 347 350 352 355 356 357 358 358 357 356 357 358 359 359 359 359 357 356 355 354 353 354 355 356 354 353 351 350 351 352 352 351 349 347 345 343 342 342 340 340 339 338 336
330 331 329 329 329 332 335 336 338 339 340 341 342 344 347 348 348 348 347 347 347 350 352 354 356 356 357 357 356 356 356 357 358 359 359 358 357 355 354 354 353 353 354 355 355 355 354 353 352 353 352 351 349 347 345 343 343 342 341 339 339 338 337
330 331 331 331 333 335 336 338 339 341 342 342 342 343 346 348 348 347 347 346 347 348 350 352 354 355 355 356 356 356 356 356 357 358 359 358 357 356 355 354 354 353 353 355 355 354 354 353 354 354 353 351 349 347 346 344 344 338 329 333 339 338 338
334 335 338 338 339 338 337 337 339 341 343 345 346 345 346 348 349 349 348 347 347 347 348 349 352 353 352 354 356 356 356 356 356 357 357 358 358 357 355 354 354 353 352 354 355 355 354 354 354 354 353 351 349 347 346 345 343 330 327 330 333 338 338
336 337 339 342 342 343 342 342 343 343 345 348 349 348 347 348 349 349 348 348 347 347 347 347 349 350 350 352 355 356 357 357 357 357 357 358 358 357 356 355 353 352 351 353 354 354 354 353 354 353 353 351 349 347 346 345 333 326 327 329 329 334 339
327 334 339 340 341 341 342 345 350 351 349 350 351 351 349 349 349 349 349 348 348 347 346 345 346 348 348 350 353 356 358 358 358 358 357 357 358 358 356 355 353 352 353 354 355 355 354 353 353 352 351 350 348 347 346 345 330 325 325 327 328 331 336
319 323 330 339 341 343 344 344 348 356 355 353 353 354 352 351 350 350 350 349 347 345 344 343 344 345 347 348 351 355 358 359 359 359 358 358 357 357 357 355 354 355 356 356 356 355 354 353 352 351 349 348 348 346 346 346 328 324 323 325 326 328 333
327 329 327 339 342 344 344 344 345 351 354 355 356 355 354 351 350 350 349 348 344 343 343 341 343 344 345 347 351 355 357 358 359 359 359 359 358 358 358 357 356 357 356 355 354 353 352 351 350 350 349 349 348 346 346 347 324 321 321 322 323 326 334
326 328 328 332 343 345 345 346 346 350 353 356 356 355 355 353 352 351 350 349 345 342 340 340 343 343 344 345 351 355 358 359 359 359 360 360 360 359 359 357 357 356 355 354 353 353 352 351 350 349 348 349 348 346 343 333 318 320 320 320 321 327 338
321 322 322 327 335 345 349 349 348 350 352 354 355 355 355 355 354 353 352 349 347 343 340 339 342 344 344 345 350 356 359 360 360 361 362 361 360 359 358 357 356 356 355 353 352 351 350 350 349 349 348 347 345 339 333 328 320 318 317 318 320 328 338
315 316 320 321 328 346 350 350 350 351 352 353 353 354 355 356 355 354 353 351 350 348 343 339 342 347 346 346 352 358 360 362 362 362 361 360 358 357 356 356 356 355 355 353 351 350 350 349 347 347 347 346 341 337 332 329 320 315 314 317 321 329 335
314 315 321 324 323 347 351 351 351 352 355 354 353 354 355 356 355 354 353 352 352 352 350 344 344 350 348 349 356 361 363 364 363 362 360 358 357 356 354 354 354 355 355 353 351 347 346 347 347 345 345 344 340 330 331 329 319 312 314 317 320 331 334
330 333 334 336 338 335 353 355 355 355 355 354 353 355 356 355 355 353 352 352 353 352 351 351 353 355 353 357 363 365 365 364 361 360 359 357 355 354 354 354 354 354 352 349 345 342 342 343 342 340 337 337 336 333 331 326 322 319 314 316 319 324 334
335 334 332 334 339 345 350 357 356 356 357 356 355 355 356 355 354 352 353 353 352 351 352 357 360 360 363 364 365 364 363 362 360 358 357 356 354 354 353 352 352 350 347 343 341 340 340 340 338 336 334 334 333 331 328 326 324 321 313 314 317 320 324
341 338 338 344 351 346 341 353 355 356 358 358 357 356 356 354 353 353 353 353 352 352 355 362 363 364 365 364 363 362 360 359 358 357 356 354 353 351 349 349 349 346 342 340 339 338 337 337 334 333 332 332 331 330 328 326 323 322 314 314 314 316 320
342 342 340 340 345 348 350 346 351 355 357 359 359 358 357 355 353 353 353 353 353 355 360 364 365 365 364 362 361 359 358 357 355 355 354 352 351 349 347 346 343 341 340 338 336 335 333 332 332 330 329 329 330 329 328 327 326 320 320 312 311 310 315
338 339 341 344 348 349 350 352 350 352 355 360 360 359 357 356 353 353 352 353 356 360 363 364 365 364 361 358 358 357 355 355 355 354 352 351 350 347 343 340 339 338 337 335 334 332 331 330 330 329 328 328 329 329 327 326 326 320 317 316 311 309 310
338 339 341 340 339 339 342 346 344 341 344 354 359 358 357 357 354 352 351 355 360 362 362 362 362 360 358 357 355 353 353 354 354 352 351 349 347 342 339 338 337 335 334 334 332 331 330 329 330 328 328 327 327 328 328 327 326 323 319 316 312 310 309
334 336 340 343 341 337 336 338 340 340 338 339 344 353 356 357 356 352 354 361 361 362 362 360 358 356 355 354 353 352 352 351 350 349 348 346 343 341 339 337 336 334 333 332 332 331 330 329 329 329 328 328 328 328 329 330 327 324 322 320 316 315 312
331 332 334 338 339 338 337 339 339 338 339 339 340 339 353 359 358 359 362 361 362 361 359 357 355 352 351 350 349 349 349 347 346 345 344 342 341 340 338 337 335 334 333 332 331 330 329 329 329 329 328 328 328 329 330 331 329 326 322 321 318 318 316
331 332 333 337 338 339 337 335 334 335 336 335 336 338 339 347 356 362 362 361 360 357 355 352 351 350 349 347 346 344 344 344 345 342 340 340 339 338 336 335 335 334 332 332 331 330 329 329 329 328 328 328 329 330 330 330 330 327 323 321 320 319 317
332 332 332 334 337 338 338 336 332 333 335 334 335 337 338 341 342 343 345 348 348 345 343 342 342 342 343 344 343 341 341 341 340 337 330 321 315 311 314 332 336 332 323 318 325 334 332 330 330 330 330 330 331 330 329 330 329 330 319 325 316 320 320
332 332 332 335 337 338 339 338 336 337 337 336 336 335 336 338 342 343 345 345 343 343 342 343 343 343 342 341 340 339 338 334 330 327 326 324 320 317 313 304 299 310 324 319 311 305 307 321 331 333 332 332 331 330 331 330 332 317 311 309 308 308 310
332 332 333 335 335 336 337 339 340 336 333 334 336 337 338 339 343 343 343 344 345 344 342 341 341 341 340 338 337 335 334 331 328 327 325 324 322 320 318 315 309 297 296 302 303 299 296 296 303 310 321 329 325 313 311 320 312 307 307 306 305 305 306
326 332 334 335 336 337 337 338 339 335 333 335 337 336 336 339 340 341 341 342 342 343 344 342 340 338 337 336 335 334 333 331 329 328 327 326 325 322 320 318 315 312 300 295 298 298 295 295 296 303 310 314 317 317 316 309 306 306 305 305 304 304 303

ECMWFFLT1_sfc_thetae_024.txt.gz
Theta_e
326 326 326 328 328 329 331 334 336 336 337 340 342 343 344 344 346 347 349 350 350 350 352 353 352 352 352 354 354 354 354 353 353 353 353 353 353 353 351 350 351 351 351 350 349 350 350 350 349 349 348 347 346 345 344 344 341 341 339 339 339 339 337
325 326 327 328 328 329 330 333 335 336 337 340 342 343 344 344 345 346 348 350 350 350 351 353 354 353 352 353 354 355 354 354 355 355 355 354 353 353 353 350 351 351 351 351 349 350 349 349 349 348 348 348 346 344 345 343 340 338 339 338 337 337 337
325 326 327 328 329 329 330 331 334 336 337 339 342 343 344 344 345 346 348 350 350 351 352 353 354 354 353 353 353 354 355 355 355 355 354 353 352 353 353 351 352 351 351 351 350 350 350 348 348 348 347 347 346 344 344 343 341 337 338 338 338 338 335
326 326 327 329 330 330 331 331 333 336 337 339 342 343 344 345 346 347 349 350 350 351 351 352 353 354 354 353 352 353 354 355 355 355 355 355 353 353 352 351 352 352 350 350 350 351 351 349 348 348 351 346 347 346 344 343 340 338 337 337 337 338 336
327 328 328 328 329 330 331 331 332 335 336 339 342 344 345 346 346 347 349 351 352 351 352 353 354 354 355 355 354 354 354 354 355 355 356 356 355 354 352 350 351 351 351 351 351 350 350 348 347 347 348 346 346 346 344 342 340 338 337 337 336 337 336
326 327 328 328 329 330 331 332 333 334 336 338 340 343 345 346 346 347 348 350 352 353 353 353 353 354 354 355 355 355 355 355 355 356 356 356 355 353 353 352 351 352 351 351 352 351 350 349 347 347 347 347 345 346 344 342 340 338 337 336 335 336 336
325 327 328 328 329 330 331 333 334 334 336 338 341 344 345 346 346 347 348 349 352 352 352 353 354 354 354 355 355 355 354 355 355 355 356 356 356 354 353 353 352 352 353 352 351 351 350 348 348 347 347 347 345 345 344 342 340 338 338 336 335 335 335
325 327 328 329 329 330 332 333 335 335 336 339 340 343 344 346 346 346 347 349 351 352 353 353 353 354 354 355 355 355 355 355 356 356 356 355 355 354 354 354 353 352 353 352 352 351 351 348 348 348 347 346 345 344 343 342 340 338 338 337 335 335 336
325 327 328 329 330 330 331 333 335 336 336 338 339 342 344 345 345 346 347 349 351 351 352 354 354 355 355 355 354 355 356 356 356 356 356 355 355 355 354 354 354 354 353 353 352 352 351 350 347 347 347 346 345 344 343 342 340 339 337 337 336 335 336
325 326 328 330 331 331 331 332 334 337 336 338 340 341 343 344 345 346 347 348 350 351 352 353 354 355 355 355 355 355 355 355 356 356 356 355 355 355 355 354 354 354 353 353 353 352 351 351 349 347 347 346 345 344 343 342 341 339 338 337 337 335 336
326 327 327 328 330 331 331 331 332 335 337 338 340 342 343 344 345 345 346 348 350 351 352 354 355 355 355 355 354 355 355 355 356 355 356 355 355 355 355 355 354 354 354 353 352 352 352 351 350 347 346 346 345 344 343 342 341 339 338 338 338 337 336
326 327 327 328 329 329 329 331 333 334 336 338 340 342 343 344 345 345 346 348 350 351 352 353 355 355 355 355 354 354 354 355 355 355 355 356 355 355 355 356 354 354 354 353 352 352 352 351 350 349 346 346 345 344 343 343 342 340 339 338 338 337 336
326 327 327 328 329 329 329 331 333 334 335 337 339 342 343 344 344 345 346 347 350 352 352 353 354 355 355 355 355 354 354 355 355 356 356 356 356 356 355 355 355 354 353 354 353 352 351 351 350 349 348 346 346 345 344 343 342 341 339 338 337 337 336
333 326 327 328 328 327 329 331 333 334 335 336 338 341 343 344 345 345 345 346 349 351 353 354 354 354 354 354 354 354 354 355 356 356 356 356 356 356 355 355 355 354 354 354 353 352 352 351 350 350 349 348 347 346 344 343 341 340 340 339 338 337 336
323 325 325 326 327 327 329 332 333 334 336 337 338 340 342 344 344 345 346 347 348 351 352 354 354 354 354 354 354 354 355 356 356 356 356 356 356 355 355 354 354 354 354 353 353 353 353 352 351 350 349 348 347 346 345 343 342 341 340 339 338 337 336
324 324 324 325 326 327 329 332 334 334 335 337 338 339 342 343 344 345 345 346 348 349 352 353 353 353 353 353 354 354 355 355 356 356 356 356 355 355 355 354 354 353 353 352 352 352 352 351 351 350 349 348 347 346 345 344 343 337 328 332 339 338 337
323 325 326 326 327 327 329 332 334 334 335 337 339 340 342 343 344 345 345 346 347 348 350 352 352 353 353 353 354 355 355 355 355 355 355 355 355 355 355 354 353 352 352 352 352 351 351 350 349 349 349 349 348 346 346 345 343 329 326 329 331 337 338
323 324 326 327 327 328 328 330 332 334 336 338 340 341 342 343 344 345 345 346 346 347 350 350 351 351 352 353 354 355 354 354 354 354 354 355 354 355 355 354 353 352 351 350 350 351 351 350 348 348 349 349 349 348 347 346 333 326 326 327 328 332 339
325 325 326 327 327 328 329 331 333 335 337 338 340 342 344 345 344 344 345 345 346 347 348 349 350 350 351 353 354 354 355 354 354 354 354 354 355 355 354 353 352 351 350 349 350 351 350 350 349 348 349 349 348 348 348 347 332 325 324 326 326 329 334
328 328 328 328 329 330 331 333 334 336 338 339 340 343 345 347 346 346 347 347 347 346 347 348 349 350 350 352 353 354 355 354 354 353 353 354 354 354 354 353 352 351 351 350 350 350 350 350 349 350 350 350 349 348 348 347 329 323 322 324 325 327 332
328 329 329 330 330 332 332 333 334 336 337 339 341 342 344 346 347 347 347 347 346 346 346 347 348 349 350 351 352 353 354 354 353 353 353 353 354 354 353 353 352 351 351 350 349 350 350 350 349 350 350 350 350 349 348 348 323 321 321 321 322 325 330
328 330 330 331 332 333 333 333 334 335 336 341 343 343 343 344 347 347 347 347 346 345 345 346 346 348 350 350 351 352 353 353 353 352 352 352 353 353 353 353 352 351 351 350 350 351 352 351 351 350 350 350 350 348 346 343 319 320 320 320 321 324 333
322 327 331 333 333 333 335 336 336 337 339 341 343 344 344 345 346 347 347 346 346 345 345 345 344 346 348 350 351 352 353 354 353 352 352 352 352 352 352 353 352 352 352 350 350 351 351 351 351 351 350 349 347 346 343 334 321 319 318 319 319 322 335
319 322 324 329 333 337 339 339 339 340 342 344 345 347 347 346 346 346 346 346 346 345 344 344 343 344 346 348 350 351 352 353 353 353 352 352 351 351 352 353 353 353 353 351 350 350 351 351 349 348 348 347 345 344 339 337 323 316 315 316 316 325 335
326 312 316 324 331 335 337 340 342 342 345 348 348 348 349 349 347 345 345 345 345 345 344 343 343 343 344 346 348 349 351 353 354 354 353 352 352 353 352 353 353 353 353 353 352 350 349 348 347 345 345 345 343 333 338 338 326 313 315 315 315 327 337
336 334 334 340 336 331 338 342 343 342 343 345 349 351 351 350 348 346 345 345 346 344 343 343 344 344 344 345 346 348 350 352 353 354 354 354 354 354 354 355 354 353 352 351 350 348 348 346 345 344 342 341 339 338 339 336 329 320 313 313 314 322 336
337 338 338 339 342 343 339 341 343 343 343 345 348 351 352 352 350 347 346 345 345 344 344 345 345 345 344 344 344 346 348 351 353 353 355 356 356 356 355 355 354 352 350 348 347 346 345 344 343 341 338 337 335 334 332 332 327 320 310 310 313 319 325
337 339 341 341 342 339 341 344 343 343 344 345 346 348 349 350 349 348 347 346 345 345 347 346 345 344 343 343 343 344 348 350 353 355 356 357 357 355 354 354 354 351 348 346 344 343 341 339 337 335 333 332 332 332 330 326 323 320 311 312 313 316 321
332 335 337 338 336 337 340 340 343 346 346 348 350 349 349 349 348 348 348 347 347 349 348 347 345 343 342 342 343 345 348 352 354 355 358 357 356 355 353 352 349 346 344 343 341 339 337 335 334 332 331 330 329 329 328 326 324 317 319 312 312 313 317
331 333 336 337 337 337 339 338 338 339 341 344 346 348 349 348 345 344 344 346 350 350 350 348 347 344 343 344 346 348 352 355 356 357 357 356 355 354 351 348 345 343 342 341 339 336 333 332 332 332 331 329 327 326 325 324 323 318 317 317 313 312 313
330 332 334 334 335 337 337 338 337 339 341 342 344 344 344 344 343 342 344 345 350 351 352 352 352 349 348 349 351 353 355 356 357 356 355 354 353 350 347 344 342 339 338 338 335 334 331 330 331 331 330 328 326 324 323 323 323 322 320 316 313 312 311
330 331 333 335 335 335 334 337 338 338 339 338 340 341 342 343 343 339 338 343 349 354 356 356 354 353 352 353 354 355 356 355 354 353 352 351 350 347 345 342 339 336 335 333 332 331 330 329 329 328 327 326 325 324 323 323 323 322 321 320 317 316 313
329 330 331 332 334 334 332 333 333 333 334 334 337 340 340 340 341 341 340 342 348 352 353 351 352 351 353 353 354 354 354 352 350 346 342 340 339 339 338 336 335 334 332 331 330 330 329 328 327 327 326 326 325 325 324 323 322 322 321 320 319 319 317
328 329 332 333 335 334 332 332 331 331 332 333 336 338 340 340 340 340 341 345 352 354 350 346 345 346 346 347 347 345 344 341 341 338 337 337 337 336 335 334 333 333 332 331 331 330 329 328 328 327 327 326 326 326 325 323 322 321 321 319 319 318 316
325 327 330 333 334 335 333 332 331 331 333 333 335 338 339 339 340 341 340 342 344 344 340 337 335 337 338 338 338 337 337 337 336 336 334 332 327 324 329 334 335 331 326 326 332 333 331 330 329 329 329 328 327 327 326 325 323 323 316 321 315 318 317
324 326 329 333 336 335 333 332 331 331 332 333 336 337 337 337 338 340 341 341 341 341 338 338 338 337 336 336 336 336 335 334 333 330 326 323 320 317 312 305 300 312 328 325 316 318 321 319 330 331 330 329 329 330 328 327 327 315 309 307 305 305 308
324 326 329 333 334 334 334 332 333 333 332 334 336 337 337 337 338 339 340 339 340 340 338 338 337 336 336 336 334 333 332 330 329 328 327 327 324 321 318 315 309 296 296 302 305 307 310 312 312 316 321 329 329 322 319 319 311 306 305 303 303 303 303
325 327 329 331 333 333 334 334 332 331 332 334 335 335 336 337 338 338 339 339 339 339 337 335 334 332 333 333 332 331 329 330 328 327 326 325 324 323 322 320 315 311 299 295 298 298 298 303 307 308 311 315 319 318 318 309 305 303 302 302 302 301 301

ECMWFFLT1_sfc_thetae_027.txt.gz
Theta_e
324 325 326 329 330 331 332 333 334 335 336 337 338 339 340 341 343 344 344 344 344 344 346 348 349 350 349 349 349 349 350 349 349 349 348 348 348 348 349 350 350 351 353 352 353 353 354 354 353 353 351 351 349 347 345 344 342 342 339 338 337 337 336
322 323 324 327 329 330 332 333 334 335 335 337 338 339 340 341 342 343 344 344 345 345 346 348 350 349 350 349 350 350 349 349 350 350 350 349 350 349 350 350 351 351 352 353 353 353 353 352 352 351 350 350 349 347 345 344 342 340 338 337 336 336 336
321 322 323 324 327 329 330 332 334 335 335 336 338 339 340 341 342 343 344 345 344 345 346 347 349 350 350 350 349 350 350 350 350 349 349 349 349 350 351 351 351 351 352 353 353 352 353 351 351 351 350 348 348 346 346 344 343 340 338 337 337 336 335
320 322 323 324 326 328 330 331 333 335 336 336 337 339 340 341 342 344 345 346 345 345 345 347 348 349 350 350 350 350 350 350 350 350 350 350 350 351 351 350 350 351 350 351 352 352 352 351 349 349 352 348 347 345 345 344 343 340 338 337 336 336 335
320 322 323 323 324 326 328 329 332 334 335 336 337 340 341 342 343 344 345 346 346 346 346 348 349 349 350 351 351 351 350 350 350 351 350 351 351 351 351 350 350 350 350 351 351 351 350 349 348 348 348 347 346 345 344 344 343 341 337 336 335 335 335
321 321 322 323 324 325 327 328 331 333 335 335 336 338 340 342 343 343 344 346 347 348 348 348 349 350 349 350 351 351 351 351 351 351 351 351 351 351 351 351 351 350 350 350 351 349 349 349 348 347 347 347 346 345 343 342 342 340 338 336 335 335 335
323 322 322 323 325 325 326 327 329 332 334 336 337 338 340 341 342 343 344 345 346 346 347 348 349 350 350 350 350 351 350 351 351 351 352 352 352 351 351 351 351 351 351 351 350 349 348 348 347 347 347 346 346 345 343 342 341 340 337 336 335 334 335
324 324 323 324 325 326 327 327 328 330 333 335 336 337 339 341 342 343 343 345 346 347 348 348 349 350 350 351 350 350 350 351 352 352 352 352 352 352 352 351 352 351 351 350 350 350 349 348 347 347 346 346 345 345 344 343 341 340 338 336 334 333 335
324 325 325 325 326 327 327 328 328 329 330 332 334 336 338 340 342 342 343 344 346 347 347 349 349 351 351 351 351 350 350 351 351 352 352 352 352 352 352 352 352 352 350 350 350 350 349 349 348 347 346 345 345 344 344 344 342 340 338 336 335 333 334
323 324 325 326 327 327 328 328 329 329 329 331 333 335 337 340 341 342 343 344 345 346 348 349 350 351 351 351 351 351 351 350 351 351 351 351 352 352 353 353 352 352 351 351 350 349 350 349 348 347 346 345 345 344 344 343 343 341 338 337 336 334 334
323 323 325 326 326 327 328 328 328 329 330 331 333 335 337 339 341 342 343 344 345 346 348 349 351 351 351 351 351 351 351 351 351 350 351 351 352 352 353 353 353 353 351 350 350 350 349 349 348 347 346 345 345 344 344 343 343 341 339 338 337 335 334
321 322 323 324 326 327 326 327 329 330 330 331 333 334 337 339 341 342 343 344 345 346 348 349 351 351 350 351 351 351 351 351 351 351 351 351 352 352 353 353 353 352 352 351 350 350 350 349 348 347 346 346 345 345 344 344 343 342 340 339 338 336 335
319 321 323 324 325 327 327 327 328 329 331 332 332 334 336 339 340 342 342 343 345 347 348 350 350 351 350 351 350 350 351 351 351 352 352 352 352 353 353 353 353 352 352 352 351 350 350 349 349 348 347 346 346 345 344 344 343 341 341 339 338 337 335
327 321 322 323 324 325 326 327 328 329 331 332 333 334 336 339 341 342 342 343 345 346 348 350 350 350 350 350 350 350 351 352 352 352 353 353 353 353 353 353 353 352 352 352 351 351 350 350 349 349 348 346 346 345 345 343 342 342 341 340 338 337 336
317 320 322 322 323 324 326 326 327 329 331 333 334 334 336 338 340 342 343 344 345 346 348 350 350 350 350 350 350 350 351 352 352 353 353 353 353 353 353 352 352 353 352 352 351 352 351 351 350 349 348 347 346 345 345 344 343 342 341 340 338 337 336
316 319 321 322 323 324 326 327 328 329 331 333 334 335 336 338 340 341 342 343 344 346 348 349 349 350 350 350 350 351 352 352 352 353 353 353 352 352 353 352 352 352 352 351 351 351 351 350 350 349 348 347 346 345 344 344 344 337 328 331 339 337 337
315 317 320 322 323 324 326 327 329 329 330 332 334 335 337 338 340 341 342 343 344 346 348 349 349 349 349 350 351 351 352 352 352 352 352 352 353 353 352 352 352 352 352 351 351 351 351 350 349 349 349 348 347 345 344 344 343 329 326 327 330 337 337
316 317 319 321 323 325 326 327 328 329 330 332 334 336 337 339 340 341 342 343 344 346 348 349 349 349 349 350 351 351 351 352 352 352 352 352 352 352 352 353 352 351 351 351 350 350 350 350 349 349 349 348 347 346 346 345 333 326 325 326 326 330 338
317 318 319 321 323 325 326 327 328 330 332 333 334 336 338 340 340 341 342 343 344 346 347 348 348 349 349 350 351 351 352 352 352 352 352 352 352 353 353 352 351 351 350 350 351 350 349 349 349 348 349 348 347 347 347 346 332 325 324 325 325 327 332
319 320 321 322 324 326 326 327 329 331 333 334 335 336 339 341 341 342 343 344 345 345 346 347 348 349 349 350 350 351 352 352 352 351 352 352 352 352 352 351 351 351 351 351 350 349 349 349 348 348 348 348 347 347 347 347 331 324 322 322 323 325 330
322 321 321 322 323 324 325 326 328 330 332 334 336 337 338 339 342 343 343 344 343 344 345 347 347 348 349 349 350 351 351 352 352 351 352 352 352 352 352 351 351 351 351 350 349 349 348 348 348 348 347 348 348 347 347 348 330 323 321 320 321 324 327
320 323 323 323 324 325 326 327 328 330 332 336 338 338 338 339 341 342 342 344 343 344 345 346 346 347 348 349 350 351 351 352 351 351 352 352 352 351 351 351 351 351 351 350 350 349 349 349 349 348 347 347 347 347 346 347 327 322 320 319 319 323 331
327 317 321 324 325 326 327 329 330 331 334 336 337 338 339 340 341 341 342 342 343 343 344 344 345 346 347 348 349 351 351 352 352 351 351 351 351 351 351 351 351 351 351 350 349 348 348 348 348 349 348 347 347 346 346 346 329 320 318 318 318 321 333
335 332 328 324 324 329 330 331 331 332 334 335 336 338 340 341 341 341 341 342 342 342 343 343 344 345 346 347 349 350 351 352 352 351 351 351 350 350 351 352 352 352 351 350 349 348 348 348 348 349 349 348 347 347 346 346 327 316 316 316 317 322 334
335 336 336 336 335 334 332 332 333 333 334 332 334 336 338 339 341 341 341 341 342 342 342 342 343 344 345 347 349 350 351 352 352 352 351 351 351 351 351 351 351 352 352 351 350 349 349 348 348 348 348 348 348 338 344 347 329 314 316 315 315 323 335
332 334 335 336 337 337 337 338 336 335 335 334 334 336 338 338 339 341 341 342 342 342 341 342 343 345 346 347 348 349 350 351 352 352 352 351 351 352 352 352 352 351 351 350 350 349 349 348 348 347 347 348 348 346 346 344 337 322 314 313 313 318 336
332 333 334 335 336 338 336 337 336 335 335 336 339 340 339 340 339 339 341 342 342 341 343 344 345 345 346 346 347 348 349 351 352 352 352 353 352 352 351 351 351 351 351 350 350 349 348 347 347 347 346 345 346 345 343 343 338 326 312 311 312 315 325
332 333 334 336 339 336 337 337 337 338 338 339 341 344 344 342 340 340 339 340 341 343 345 345 345 345 345 345 346 347 349 350 351 352 353 353 352 351 350 351 352 352 351 350 349 348 347 346 345 345 341 339 339 340 339 335 331 329 312 311 310 312 321
330 331 331 332 333 335 337 336 337 338 339 343 344 343 345 344 341 340 339 339 341 343 344 345 345 345 344 344 344 345 347 349 350 350 352 352 352 351 350 350 351 350 350 349 348 347 345 343 341 338 335 333 331 330 329 329 328 320 318 310 309 311 316
331 332 332 333 333 334 335 335 336 337 337 338 340 341 343 345 343 343 342 342 341 345 345 343 343 343 343 342 342 344 345 347 349 351 352 352 352 351 350 350 350 349 349 348 346 344 340 337 336 335 332 330 327 326 325 325 325 318 316 314 310 310 313
331 332 332 332 332 333 333 332 333 334 335 337 337 338 336 340 343 342 343 344 344 345 347 345 343 341 341 341 341 342 343 345 347 349 351 352 351 350 350 349 349 346 345 344 342 339 335 333 333 332 330 329 326 325 324 324 323 322 318 314 311 312 312
331 334 334 334 333 332 331 333 334 334 334 335 337 338 338 336 338 342 342 341 347 349 349 347 344 341 340 340 340 341 341 342 345 347 349 351 352 351 351 350 347 344 342 340 337 336 334 334 333 331 330 330 328 325 324 323 323 322 320 319 318 317 314
329 332 333 333 334 332 331 332 333 334 334 335 336 338 339 338 338 337 337 338 344 349 351 349 347 343 340 339 339 340 341 342 344 347 349 351 352 352 351 348 345 342 339 338 336 335 335 334 333 331 331 330 328 325 324 323 322 322 322 321 322 322 320
328 331 334 335 333 332 331 332 332 333 334 334 336 337 338 338 338 338 339 342 346 349 349 348 347 346 344 343 343 343 344 345 347 347 347 349 350 348 345 344 343 340 339 338 338 337 335 334 332 331 331 330 327 324 324 322 322 322 322 322 323 322 322
328 330 332 333 333 331 330 331 332 333 334 335 336 337 337 337 337 338 337 340 343 343 343 343 341 342 343 344 345 345 344 346 345 346 346 344 342 340 342 342 341 340 340 341 342 341 338 334 333 334 334 332 328 326 324 323 322 323 317 324 316 321 323
326 328 330 333 333 331 331 332 333 332 333 334 336 337 337 337 337 338 339 338 338 338 337 335 337 339 341 343 343 343 343 344 344 344 343 340 333 327 318 310 305 318 338 336 329 326 322 323 334 335 334 331 331 331 328 326 326 314 308 306 306 306 309
324 327 329 331 332 333 333 333 334 333 333 334 335 336 337 337 337 337 338 338 337 337 337 338 337 337 338 340 341 340 342 342 342 342 339 335 334 332 325 318 311 298 300 316 321 316 310 313 312 315 321 330 328 321 313 312 308 305 304 303 302 304 303
324 326 328 330 331 332 333 333 333 333 333 334 335 335 336 336 337 336 336 336 335 335 334 334 335 335 336 336 337 337 338 341 341 339 335 334 334 331 326 323 319 311 300 299 307 308 307 306 307 309 310 314 319 320 317 307 304 303 302 302 301 301 301

ECMWFFLT1_sfc_thetae_030.txt.gz
Theta_e
327 328 329 331 331 332 332 333 334 334 335 336 337 338 339 341 342 343 344 344 345 344 345 346 347 348 348 349 349 350 350 350 350 349 348 348 348 348 348 348 349 349 351 351 352 354 356 357 357 357 357 357 356 354 352 351 350 348 345 344 343 343 342
324 326 328 330 330 331 332 333 334 334 335 336 337 338 339 340 341 342 343 344 344 345 345 346 347 348 348 349 349 349 349 350 350 350 350 349 349 349 349 349 349 349 350 352 353 355 356 356 357 356 356 356 356 354 351 350 348 347 344 343 341 341 341
322 325 327 328 329 330 332 333 333 334 335 336 337 337 338 339 341 342 343 343 344 345 345 346 347 347 348 349 349 349 349 350 350 349 349 348 348 348 349 350 350 350 350 352 354 354 356 356 356 356 356 355 355 353 350 349 347 346 345 343 342 341 340
320 322 325 327 329 331 332 333 333 334 335 335 336 337 338 340 341 342 343 344 343 344 344 345 346 347 348 348 348 348 349 349 350 349 349 349 349 349 349 349 350 351 351 351 353 355 356 356 355 355 356 354 354 353 351 348 347 346 345 343 341 341 340
317 320 323 325 326 328 330 332 333 334 334 335 336 339 339 340 341 342 343 344 344 344 345 345 346 347 349 349 349 349 349 349 349 350 350 350 350 350 349 349 349 350 351 352 354 355 355 354 354 354 354 354 353 352 350 349 347 346 344 343 341 340 340
316 317 320 322 324 326 329 331 332 333 334 334 335 337 338 339 340 340 342 343 344 345 345 346 346 348 348 349 349 349 350 350 350 350 350 350 350 349 349 349 350 350 350 351 353 354 354 354 353 353 353 353 352 351 350 349 348 346 344 342 341 340 339
318 318 318 321 323 325 327 329 331 333 334 335 336 337 338 339 339 340 341 342 344 344 344 344 345 346 348 349 349 350 349 349 349 350 350 350 350 350 350 350 351 351 351 352 352 353 353 353 353 352 352 352 351 350 348 348 347 347 345 342 341 340 339
319 319 319 320 322 324 325 327 330 332 334 335 335 335 336 338 339 340 340 342 343 344 344 344 345 346 347 349 349 349 349 349 350 350 350 350 350 350 350 351 351 351 352 351 352 353 352 352 352 352 351 351 350 350 348 347 347 346 345 342 341 340 339
320 321 321 320 321 323 324 326 328 330 332 333 334 335 336 338 339 339 340 341 343 343 344 345 345 346 348 348 349 349 350 350 350 350 350 350 350 349 350 351 351 352 351 351 351 352 352 352 352 351 351 350 350 349 348 347 346 346 344 343 341 340 339
320 321 322 322 322 322 324 325 327 328 329 331 333 334 335 337 338 340 340 341 342 343 344 345 346 346 347 348 348 349 350 350 350 350 350 349 350 350 350 351 351 352 352 352 351 351 352 352 351 351 350 349 349 349 348 347 346 345 344 343 342 341 340
319 321 322 322 322 322 324 324 325 326 328 330 332 333 335 336 337 339 340 341 342 343 344 345 347 346 347 347 347 348 349 349 350 350 350 350 350 350 351 351 351 352 352 352 351 351 351 351 351 350 349 348 348 348 347 347 346 345 344 343 343 342 341
318 320 321 322 323 323 323 324 325 326 327 329 331 332 334 336 337 338 340 341 342 343 344 345 347 347 347 347 347 348 348 348 349 349 350 350 350 351 351 352 352 352 352 352 351 351 351 351 350 350 349 348 348 348 348 347 347 346 344 343 342 342 341
317 320 321 321 323 324 324 325 325 326 327 328 329 331 334 335 336 338 339 341 342 343 344 345 346 347 347 347 347 348 348 348 349 349 350 351 351 352 352 352 352 352 352 352 352 351 350 350 350 350 350 349 349 348 348 347 347 346 346 344 343 342 341
325 319 320 322 324 324 324 324 325 326 327 327 328 330 333 335 336 337 339 340 342 343 344 345 346 347 347 347 347 348 348 349 350 350 350 351 352 352 352 352 353 353 353 353 352 351 351 350 350 350 350 349 349 348 348 347 346 346 346 345 344 342 341
313 316 318 319 322 324 325 324 325 326 327 328 328 329 331 333 335 337 339 341 342 343 344 345 346 346 347 347 347 348 349 350 351 351 351 351 352 352 352 352 353 353 353 353 352 352 352 351 351 350 349 349 349 348 348 347 346 346 346 345 344 343 341
311 313 315 318 321 322 325 326 326 327 328 328 329 329 330 332 334 336 338 339 341 342 344 345 346 346 347 347 347 349 350 351 351 351 352 351 351 351 352 352 352 352 352 352 352 352 352 352 351 350 349 348 348 348 347 347 347 339 329 333 344 343 342
311 312 314 317 320 321 324 326 327 327 328 329 329 330 330 332 334 336 338 339 341 342 344 345 345 346 346 347 348 349 350 350 351 351 351 351 352 352 352 352 352 352 352 352 352 352 352 352 350 350 350 349 348 347 347 347 346 330 327 328 332 341 343
312 313 313 315 318 321 322 324 326 327 327 328 330 331 331 332 334 336 337 339 340 342 344 345 345 346 347 347 349 349 350 350 351 351 351 352 351 352 352 352 352 352 352 352 351 352 352 351 350 350 350 350 349 348 347 347 334 327 326 327 327 331 343
313 314 315 316 317 321 322 323 325 327 328 329 330 331 332 333 334 335 337 339 341 343 343 344 345 346 347 348 349 349 350 350 350 350 351 351 352 352 352 352 352 351 351 351 352 352 351 351 351 350 351 350 349 348 348 348 333 326 325 326 326 327 334
315 315 316 316 317 318 322 324 325 327 328 330 331 332 334 335 335 336 339 340 342 342 343 344 345 346 346 348 348 349 350 350 350 350 351 352 352 352 352 352 351 352 352 352 352 351 351 351 351 351 350 350 350 349 349 349 333 325 323 323 323 325 330
317 319 321 322 321 319 321 324 326 327 328 329 331 333 335 335 336 338 339 341 341 343 343 344 345 345 346 347 348 349 350 350 350 350 351 351 352 352 352 352 352 352 352 352 351 351 350 350 350 350 350 350 350 350 349 350 330 322 321 320 321 323 326
329 330 325 321 322 322 323 324 326 327 328 332 333 333 334 335 337 338 338 341 341 342 343 344 345 345 346 347 348 349 350 350 350 350 350 351 351 351 351 351 352 351 352 352 352 352 352 352 351 350 350 351 350 349 349 350 326 321 320 319 320 322 333
332 332 331 329 324 322 325 326 327 328 332 334 333 333 334 336 338 339 339 340 341 342 343 344 344 345 346 347 348 349 350 350 350 350 350 351 351 351 351 351 351 352 353 352 352 351 351 351 351 351 351 350 350 349 349 350 330 319 318 318 318 321 336
333 334 334 334 334 335 335 332 329 331 330 332 333 334 336 336 339 340 340 340 341 341 342 343 343 345 346 347 348 349 350 351 351 351 351 351 350 350 351 352 352 352 353 351 351 350 351 351 351 351 351 350 350 349 349 349 333 317 317 317 316 323 337
331 332 333 334 335 335 336 336 335 330 333 332 332 335 337 337 338 339 339 340 340 341 341 342 343 345 345 347 348 350 351 351 351 351 351 351 351 351 351 351 352 353 353 353 352 352 352 351 351 351 351 351 350 337 345 350 335 315 317 316 315 325 339
330 331 333 335 337 337 337 338 335 332 331 331 333 336 338 337 338 339 339 340 341 340 341 342 343 345 347 348 349 350 351 352 352 352 351 351 351 352 352 352 352 352 352 353 353 352 352 350 350 349 350 350 350 349 347 349 347 326 316 315 314 319 339
331 332 332 334 335 338 337 339 338 336 336 338 337 336 337 338 337 337 339 340 340 340 341 343 345 346 347 348 349 350 351 351 352 352 352 352 352 353 352 353 352 353 352 352 352 352 351 350 349 349 349 350 350 350 349 349 348 333 314 313 313 315 326
332 333 334 335 337 336 337 338 338 338 339 340 341 340 338 338 338 338 340 339 339 341 343 345 347 346 346 347 348 349 351 351 352 352 352 353 353 352 352 353 353 353 353 352 351 350 350 350 348 348 348 349 349 349 349 345 337 338 314 314 312 313 320
331 331 331 332 333 334 335 335 335 336 336 338 339 339 341 341 338 338 339 340 341 343 345 345 346 346 346 346 347 348 349 351 351 351 353 352 352 351 351 352 352 352 352 352 351 350 349 348 348 347 347 346 347 348 348 348 342 326 323 313 311 310 316
332 332 333 333 333 333 334 333 334 335 336 337 338 338 337 340 341 340 338 339 345 346 345 345 345 346 345 344 345 347 348 349 350 351 352 352 352 352 351 351 351 351 351 351 350 349 348 348 347 347 345 343 342 342 343 343 343 325 320 318 311 310 313
331 332 331 331 331 332 334 333 333 334 335 336 338 338 338 338 339 340 340 340 343 345 345 345 344 344 344 344 344 345 347 348 349 350 352 353 352 351 351 351 350 349 350 350 350 349 348 347 347 346 344 342 339 336 335 336 337 332 323 316 312 312 312
331 332 332 331 331 332 333 334 334 334 334 335 336 337 338 338 337 337 336 339 342 347 348 346 344 343 344 344 344 344 346 346 347 349 350 351 352 352 352 351 350 349 349 348 348 348 347 346 345 344 342 340 339 334 333 332 332 330 325 320 315 314 314
331 331 331 330 332 333 333 333 333 333 333 333 335 337 338 338 339 338 338 339 343 346 349 348 346 344 343 343 344 344 344 345 345 347 348 350 351 352 352 352 351 350 348 349 349 348 347 345 343 342 341 339 338 337 332 329 328 325 322 320 320 322 321
330 332 333 333 333 334 333 333 333 333 333 334 336 337 338 338 338 338 338 340 342 344 346 347 347 346 344 343 343 343 343 343 344 345 347 348 350 350 350 351 351 350 348 348 348 347 346 345 342 342 341 339 339 334 326 325 324 322 321 321 324 325 327
330 331 332 333 333 333 333 333 333 334 334 334 336 337 337 337 337 338 338 338 339 340 341 341 340 343 345 345 344 342 341 342 343 344 345 347 348 350 351 350 350 350 350 351 352 350 348 345 344 343 343 341 337 328 324 324 323 323 317 325 319 325 329
329 330 331 333 334 334 334 334 334 334 334 334 336 336 336 336 336 337 337 337 338 338 338 338 339 340 341 341 342 343 344 343 343 343 343 345 346 347 348 337 325 339 351 349 339 335 331 330 343 340 335 331 330 330 327 324 327 315 310 308 309 311 315
327 328 329 330 331 332 332 333 335 334 334 335 336 336 337 336 336 336 336 337 337 337 336 337 338 338 337 337 338 336 338 340 341 342 343 344 346 347 345 341 332 311 312 325 331 322 314 316 317 319 325 332 331 328 323 320 313 307 306 305 305 306 305
325 326 327 329 329 330 330 331 331 332 332 334 335 336 336 336 337 336 337 337 337 336 335 334 334 333 333 334 334 334 334 334 334 334 335 336 339 340 339 333 331 328 310 310 315 312 311 311 311 312 315 318 323 324 323 310 304 302 303 303 303 303 302

ECMWFFLT1_sfc_thetae_033.txt.gz
Theta_e
337 338 339 340 340 341 342 344 345 345 346 347 348 348 348 349 351 353 353 355 355 356 358 358 358 358 358 359 360 361 361 361 361 359 358 358 359 359 359 359 359 361 361 361 363 363 366 368 367 367 366 364 363 363 364 364 363 362 363 363 361 360 359
335 336 337 339 340 340 342 345 346 345 346 346 347 348 348 349 351 352 352 355 356 356 357 357 357 357 358 358 360 361 361 360 360 360 359 359 360 360 360 360 360 361 362 362 364 367 368 367 367 367 366 365 362 363 362 363 363 363 362 361 360 359 358
334 335 336 338 339 340 342 344 345 345 346 345 346 346 347 350 352 352 353 353 354 356 357 357 357 357 358 359 359 360 360 360 360 359 358 357 358 356 359 361 361 360 361 363 365 365 366 366 367 367 366 364 362 361 362 362 363 362 362 361 360 358 356
332 333 335 338 340 341 342 343 344 344 345 345 345 346 347 350 351 353 354 353 353 355 355 356 356 356 357 358 358 359 359 360 360 358 358 358 358 358 359 360 360 360 360 361 362 363 364 365 365 366 366 365 364 363 361 361 360 362 362 361 359 358 356
331 333 335 336 338 340 340 341 342 343 343 344 345 347 349 350 349 351 352 353 352 353 354 355 354 356 357 358 357 358 359 359 359 359 359 359 360 360 359 357 358 358 359 360 362 363 364 364 364 365 364 364 363 362 361 362 360 361 361 361 359 357 355
327 330 332 334 336 337 339 340 341 341 342 342 344 345 346 347 347 347 349 351 352 352 355 356 355 356 356 356 357 357 359 360 360 360 359 360 360 358 358 357 357 358 357 359 361 361 363 363 363 364 362 361 361 362 362 361 360 360 360 359 358 356 353
327 329 330 332 334 336 338 339 340 341 342 343 344 345 345 345 346 346 347 349 350 351 352 353 353 354 356 356 356 358 358 358 359 359 359 359 359 359 358 358 359 358 359 361 360 361 361 362 363 364 363 362 362 362 363 362 360 359 359 359 357 356 355
329 328 330 332 333 335 336 339 339 340 342 343 342 342 343 344 345 345 346 347 349 349 350 351 352 355 355 356 356 356 357 357 357 358 358 358 358 358 358 358 359 360 360 360 361 361 360 362 362 364 363 362 363 363 364 363 362 359 359 358 356 355 354
328 332 330 328 330 332 334 338 340 340 342 343 342 343 343 343 343 344 345 346 347 348 349 350 351 353 356 356 356 357 356 356 357 358 358 357 356 356 356 357 359 360 359 358 358 361 361 361 362 364 364 363 363 364 364 364 362 360 360 358 357 355 354
329 332 334 331 330 329 333 336 340 342 343 345 344 345 343 343 344 344 345 346 346 347 348 349 350 352 355 355 355 356 356 357 357 356 355 355 355 355 356 356 357 359 358 358 357 359 361 362 363 364 364 362 363 364 364 363 362 362 361 359 358 357 355
330 335 336 333 333 332 333 333 337 340 342 343 344 343 344 344 344 344 344 345 345 346 348 349 351 351 353 353 353 354 355 355 355 355 355 354 354 355 355 355 356 358 357 357 357 359 360 361 363 363 363 361 362 362 362 362 362 361 359 359 359 358 356
332 333 337 338 338 335 333 335 339 340 342 343 344 343 345 345 343 343 344 346 346 346 348 349 350 350 351 352 351 353 354 355 354 354 354 354 354 355 355 355 356 357 357 358 357 358 358 360 361 361 362 362 362 362 363 363 362 361 360 358 358 358 357
330 334 336 334 339 338 341 340 338 338 341 341 340 343 344 343 343 343 346 346 346 347 348 349 350 351 351 351 351 353 353 354 354 355 354 355 355 356 356 356 356 356 357 357 357 357 357 358 360 361 361 362 362 361 362 362 362 361 360 360 359 358 357
328 327 330 334 336 338 339 338 338 339 340 341 341 343 342 343 343 344 346 346 346 346 347 349 351 352 351 351 351 353 353 354 356 357 357 356 358 357 357 356 356 357 358 358 357 356 357 357 358 360 360 361 361 361 362 362 361 361 361 360 359 357 356
326 327 331 331 338 340 340 338 340 341 341 341 339 341 342 343 343 346 348 347 347 346 347 351 351 352 351 352 352 354 356 356 357 359 359 358 359 359 358 357 358 358 359 359 358 357 357 358 358 359 359 360 361 361 361 360 359 359 359 359 358 358 355
322 324 326 329 334 336 341 340 342 343 342 342 340 341 340 342 344 344 344 345 347 347 348 350 352 353 351 351 353 357 357 358 359 359 360 359 359 360 360 358 358 358 359 360 358 359 359 359 359 358 358 358 359 360 359 359 359 346 333 338 357 357 356
328 328 328 331 335 334 338 340 342 343 343 343 342 341 341 342 343 344 342 343 344 347 348 349 353 351 351 352 354 356 358 359 358 360 359 359 360 360 360 359 359 359 360 360 360 359 360 359 358 358 358 358 358 358 358 358 355 332 329 331 334 352 356
329 333 333 331 333 333 335 336 339 341 341 339 339 341 341 342 342 342 341 343 344 345 347 348 349 349 353 354 358 358 358 357 359 359 358 359 359 360 360 359 359 359 360 359 359 360 360 359 359 359 358 358 358 357 358 358 337 329 328 329 328 334 355
328 330 332 334 332 333 330 331 335 341 339 338 339 339 339 341 340 342 343 344 346 347 346 347 348 352 354 355 356 358 359 359 359 359 359 359 359 360 360 360 359 359 360 359 360 361 360 359 358 359 359 358 358 357 357 357 335 328 327 327 326 327 339
328 328 330 330 329 329 331 333 333 334 338 342 341 339 339 341 340 343 344 345 348 347 349 350 350 352 352 356 358 358 359 359 359 358 359 360 359 360 360 359 358 359 359 359 360 360 359 359 358 359 359 358 358 358 358 358 335 326 325 324 324 325 332
336 337 338 339 339 337 337 336 336 337 338 337 338 340 340 340 341 342 343 345 346 349 351 351 351 352 354 356 356 358 359 359 359 359 360 360 360 360 359 358 359 359 359 359 359 358 358 358 357 357 358 357 357 357 357 358 332 324 323 321 321 323 327
339 340 340 343 343 343 343 339 337 335 336 339 339 338 339 339 340 339 339 342 344 346 348 351 353 351 354 356 356 357 359 358 359 359 360 360 359 359 358 358 359 359 360 360 359 360 359 360 358 357 357 357 357 355 355 357 329 324 322 320 319 322 339
339 341 341 343 343 343 346 346 342 339 339 339 337 337 338 339 339 339 339 341 342 347 346 349 351 352 355 354 355 357 358 358 358 359 359 359 358 358 358 358 359 359 360 359 359 358 358 357 357 358 358 357 357 355 356 357 337 322 319 318 317 323 344
339 340 342 342 345 345 347 349 349 346 338 337 339 338 340 341 341 341 343 343 344 346 345 347 351 354 356 355 358 359 359 359 357 358 358 359 358 358 358 359 360 360 360 358 357 357 357 358 357 357 357 356 356 356 355 356 338 318 317 316 316 326 346
339 340 342 343 343 344 346 349 350 349 342 339 337 340 343 342 342 342 345 347 342 344 346 350 353 355 355 356 358 359 359 359 357 355 358 359 358 359 359 360 360 361 361 359 359 358 359 357 356 356 357 358 357 341 350 357 340 316 317 315 315 328 349
340 341 343 344 346 346 348 351 349 343 339 337 342 345 346 343 344 346 347 345 343 344 348 350 351 356 356 356 358 358 360 360 359 358 357 357 359 360 360 361 360 360 359 358 357 357 358 357 356 356 357 357 357 357 355 356 358 331 315 315 314 319 348
339 340 341 343 344 345 348 349 349 347 347 350 350 345 344 343 345 348 349 350 348 346 346 351 356 358 358 359 357 358 360 360 360 357 358 360 360 361 361 362 360 359 359 357 356 357 356 356 355 355 356 356 357 358 357 357 359 338 313 313 313 316 328
338 341 344 344 343 344 347 346 347 348 347 348 348 346 346 349 349 352 352 351 349 351 352 356 359 359 358 359 359 358 360 360 361 361 360 361 362 361 360 360 360 359 359 358 358 356 357 357 355 355 354 357 357 358 357 350 340 351 316 314 312 314 318
336 337 337 338 343 345 345 345 343 342 344 345 347 349 349 347 350 351 352 351 353 354 356 357 358 359 359 359 358 359 360 360 361 358 358 359 360 359 358 360 360 360 360 359 358 357 356 356 357 355 354 354 355 356 357 358 351 334 330 314 312 312 315
336 336 336 337 338 342 345 344 342 341 342 343 345 347 351 354 350 352 351 355 355 356 355 358 360 361 359 359 359 359 360 361 358 358 359 360 360 360 360 360 360 360 359 359 357 355 355 355 357 356 353 353 354 356 356 357 359 335 323 322 312 313 313
333 333 334 335 336 338 340 340 340 340 341 342 343 344 345 350 354 353 351 351 356 360 356 357 358 357 357 355 356 359 360 359 359 360 360 361 360 360 359 360 360 358 360 359 357 356 355 354 353 353 353 354 353 355 355 356 356 350 328 319 314 314 312
334 335 335 336 337 337 338 339 340 340 339 340 342 342 343 344 345 343 343 348 352 358 360 358 356 357 357 358 358 358 358 359 359 360 360 361 360 360 360 359 358 357 358 358 357 357 355 355 355 354 354 354 354 354 354 355 355 350 339 325 320 317 314
333 334 335 335 336 338 338 338 337 337 338 337 340 341 342 343 344 345 347 348 351 355 359 360 356 356 357 357 356 358 358 357 355 355 356 359 359 359 360 359 359 359 358 358 357 356 354 354 354 353 352 351 351 352 352 350 351 349 343 338 334 332 326
333 334 336 337 338 339 338 338 337 337 337 336 338 339 340 341 343 345 347 349 351 354 358 359 360 356 356 357 358 356 357 356 355 354 356 358 359 358 359 360 359 358 357 356 356 355 353 354 352 351 351 351 352 353 346 345 346 348 345 341 339 336 333
333 334 335 336 338 339 338 338 337 337 337 336 338 339 339 341 343 345 347 348 351 354 354 354 355 357 358 359 358 357 355 356 356 355 355 358 360 359 361 359 358 358 359 360 361 359 357 355 353 353 354 354 354 353 343 343 343 346 333 341 328 333 330
332 332 333 335 337 338 338 338 338 337 337 337 339 341 341 342 343 344 344 346 348 350 350 350 350 350 349 349 349 350 352 352 352 353 352 351 352 355 357 349 331 344 357 357 339 323 315 314 347 360 360 360 360 358 350 345 346 329 319 316 313 314 315
329 330 332 333 334 334 334 335 337 337 337 338 339 340 340 340 341 342 342 343 344 345 346 346 344 343 342 342 342 342 345 345 346 348 349 349 349 351 350 351 355 324 317 319 320 314 308 307 307 308 315 345 357 352 330 329 324 313 309 307 307 308 310
329 330 331 332 332 333 333 333 334 334 335 337 339 339 340 340 341 341 341 342 343 343 343 343 343 340 342 343 344 343 347 348 348 348 349 349 349 348 348 347 347 351 330 319 318 317 311 308 307 308 310 313 328 341 351 322 311 306 306 306 305 306 306

ECMWFFLT1_sfc_thetae_036.txt.gz
Theta_e
339 341 344 346 347 347 349 351 353 353 354 355 355 357 356 357 359 361 361 363 364 365 365 365 365 364 362 361 363 364 365 365 366 365 366 366 365 364 365 364 365 365 364 362 365 363 367 369 369 370 371 371 369 368 368 368 367 366 366 368 367 366 365
336 338 341 344 346 348 350 352 354 353 354 355 355 357 357 358 359 359 361 363 364 365 366 366 366 364 363 363 363 365 365 364 366 367 366 366 367 366 366 367 366 367 367 365 365 368 368 370 370 370 370 371 370 370 367 366 367 365 364 367 365 365 365
336 337 341 344 345 347 350 351 354 354 355 355 355 356 356 359 360 361 361 362 363 365 366 366 366 364 363 363 364 364 365 365 365 365 365 364 366 364 367 368 368 366 367 367 367 367 369 370 372 371 371 370 368 369 369 367 366 364 365 366 365 362 364
337 338 340 344 347 350 351 351 353 353 354 355 356 356 357 359 361 361 361 362 363 364 364 365 365 363 364 364 364 365 365 365 365 364 365 367 367 366 366 367 368 367 366 366 365 366 367 370 371 372 372 370 369 367 368 366 365 365 365 366 364 364 364
337 339 339 342 345 348 349 350 351 353 353 354 356 358 359 359 359 360 361 361 361 363 363 364 364 365 366 365 364 364 364 364 364 365 365 367 369 369 367 365 366 365 365 366 367 367 368 370 370 370 371 371 369 368 368 368 366 366 365 366 363 362 361
334 338 339 341 344 346 348 349 351 352 352 352 354 356 357 357 358 357 359 360 361 362 364 364 364 365 364 364 364 364 366 367 367 366 366 367 368 367 366 366 365 366 363 364 366 366 367 368 367 369 369 369 366 365 366 367 366 366 366 364 363 361 358
332 338 340 341 343 345 347 349 349 351 353 352 353 356 356 356 356 356 357 358 360 361 361 361 362 363 364 364 364 366 366 365 366 366 367 368 368 367 367 367 366 365 365 367 366 366 366 367 368 368 369 367 368 366 366 368 367 366 366 365 363 362 363
330 336 342 343 342 344 345 349 349 350 352 353 351 352 353 354 354 355 356 357 357 357 359 358 360 363 364 365 364 364 365 366 367 367 368 367 366 366 365 366 366 367 367 364 367 367 365 368 368 368 368 367 368 368 367 368 369 366 366 365 364 363 362
334 340 341 341 342 342 344 348 350 349 351 352 351 352 352 353 352 353 355 355 356 355 356 357 359 361 364 364 364 364 365 365 366 366 367 365 365 363 364 365 366 367 365 363 364 367 367 367 367 369 369 369 368 369 368 369 368 367 366 366 365 364 363
330 338 342 339 340 339 343 344 348 350 349 351 352 352 352 352 352 352 353 353 354 354 355 356 357 359 362 363 362 364 364 365 365 364 364 363 363 362 363 363 365 366 365 364 362 364 367 367 368 369 370 369 368 369 369 369 368 366 366 366 366 365 365
337 343 344 339 338 338 340 341 345 349 350 354 353 351 352 352 352 351 352 352 352 353 354 356 358 358 360 361 361 361 362 362 363 362 363 362 361 362 362 362 363 364 364 364 362 363 366 367 368 369 370 368 368 369 369 369 369 367 365 366 367 367 367
342 340 344 344 343 339 338 342 346 351 352 353 352 350 353 353 351 350 351 352 352 352 354 355 356 357 359 360 359 360 361 361 361 361 361 361 361 361 361 361 361 362 364 364 363 363 363 366 366 367 369 370 370 370 370 371 370 368 367 366 366 367 366
334 341 341 339 343 343 344 344 346 350 353 351 349 350 351 350 350 350 352 353 352 353 353 355 356 358 357 359 359 360 360 360 361 361 360 361 361 361 361 360 360 360 362 364 363 363 361 363 366 367 368 370 370 369 370 370 370 370 370 368 367 368 367
344 336 341 343 346 346 346 347 347 350 353 351 349 350 349 350 349 350 351 351 352 352 352 354 356 356 357 358 359 361 359 360 362 363 363 362 364 363 362 362 361 362 363 364 363 362 361 361 364 366 367 369 370 370 371 371 370 371 371 370 368 367 368
323 330 338 340 347 351 351 349 351 350 349 350 347 347 349 348 349 351 352 352 353 351 352 355 355 356 356 358 360 361 362 363 363 364 364 364 365 364 364 362 363 363 363 364 364 363 362 363 363 365 367 368 369 369 369 368 369 369 370 369 368 367 366
322 323 325 332 343 346 354 354 354 354 351 351 347 347 346 348 351 349 350 350 351 352 352 354 355 356 356 356 359 362 363 364 364 365 365 365 364 365 365 363 363 362 363 363 364 365 365 365 364 364 365 366 368 369 368 367 368 354 338 345 367 367 366
324 323 325 332 344 344 349 354 352 354 353 352 350 348 347 349 351 350 349 349 350 352 352 352 355 355 356 357 360 363 364 365 365 366 365 365 366 366 366 364 364 364 364 364 365 365 366 365 363 362 364 365 366 366 366 367 365 337 333 335 340 361 367
325 326 327 327 330 341 349 350 352 351 352 351 350 349 348 350 350 349 347 348 349 350 352 352 353 354 358 358 362 364 364 364 366 366 366 366 366 366 367 365 364 364 365 364 364 366 366 364 364 365 364 364 365 365 366 367 343 331 331 333 333 341 365
322 323 325 328 328 344 340 338 343 353 349 348 348 347 348 350 348 349 350 350 351 353 351 350 352 357 360 360 362 364 366 367 366 366 367 367 366 367 367 366 365 364 364 363 366 366 366 366 364 364 364 364 365 365 365 366 338 330 328 330 331 333 346
324 325 326 325 327 335 341 343 343 342 346 350 349 345 347 350 347 348 350 350 351 351 353 353 353 357 360 362 363 366 368 367 367 367 367 368 368 367 367 366 365 364 364 364 366 366 366 365 365 365 366 365 365 366 366 367 336 327 326 327 327 329 337
326 328 330 332 335 335 342 350 351 351 347 343 344 347 347 346 347 348 349 350 349 352 357 354 355 355 360 362 362 365 367 367 366 367 368 368 368 367 367 366 366 365 364 364 364 365 365 364 365 365 366 366 365 365 365 365 332 324 323 324 324 326 331
325 325 326 332 346 356 360 354 352 348 349 349 346 344 346 346 347 345 345 348 348 349 351 353 355 354 358 361 362 364 366 365 366 366 366 366 367 366 365 366 366 365 365 364 363 365 365 366 366 365 365 364 364 363 362 364 329 322 322 322 322 324 345
326 333 344 350 350 349 355 359 357 354 355 351 347 344 344 345 345 345 344 345 346 349 350 352 355 356 358 360 362 364 366 366 364 364 365 365 365 364 364 364 365 365 366 364 363 363 364 364 363 365 363 363 364 361 361 364 340 320 319 320 320 326 351
340 344 345 346 352 353 356 357 358 358 357 354 351 348 347 346 346 346 346 346 346 348 349 350 354 358 361 362 364 365 367 366 365 365 365 365 364 364 364 365 366 366 366 364 363 362 364 365 364 365 365 364 362 361 361 362 343 318 318 318 317 330 353
344 345 349 350 351 351 353 358 361 360 360 360 351 348 348 347 347 344 346 347 345 347 350 351 355 359 361 363 365 367 367 366 366 366 366 365 365 365 365 365 366 367 367 365 365 364 366 365 365 364 364 362 362 342 355 362 345 316 318 316 316 332 356
348 349 350 351 353 356 357 359 360 359 354 351 352 350 351 346 346 348 347 346 345 345 348 351 356 361 363 364 365 368 367 367 367 367 366 366 367 367 366 367 367 367 366 366 364 363 364 363 364 363 362 362 361 360 361 360 364 340 315 315 314 321 354
347 348 350 351 351 352 356 357 357 355 354 360 358 354 350 346 346 347 349 350 349 347 348 353 358 362 364 364 364 366 366 366 367 367 367 368 368 368 367 367 366 366 366 364 363 363 363 364 363 362 363 363 364 362 360 360 361 358 313 314 313 316 330
347 349 350 351 352 352 354 354 356 355 353 355 355 351 350 351 349 350 352 352 351 351 351 356 361 365 365 365 365 366 367 367 369 369 367 368 368 367 366 367 367 367 366 364 364 364 363 364 362 359 360 360 361 361 361 353 340 363 318 314 312 314 318
346 346 347 348 350 351 351 354 353 353 354 354 356 356 354 350 352 354 354 354 356 353 355 357 363 366 365 365 364 365 367 368 367 366 364 364 366 367 366 367 366 366 367 366 365 363 361 360 360 359 358 358 360 361 361 363 360 334 336 313 312 311 315
344 345 345 346 346 346 350 353 353 353 354 354 357 360 361 357 355 357 357 357 366 361 360 363 365 366 364 364 364 364 366 367 365 365 363 364 365 365 365 365 364 365 366 366 363 359 358 358 359 357 356 357 356 359 360 364 363 340 328 327 311 312 313
341 342 344 344 343 345 347 348 349 349 351 352 355 357 361 364 361 362 362 363 366 363 362 364 364 363 361 362 363 364 366 366 365 365 364 364 363 364 363 365 366 364 366 365 362 359 358 358 358 356 357 356 356 358 359 360 362 362 340 321 315 312 312
341 343 343 343 345 344 345 346 347 347 347 349 352 354 357 357 358 357 358 361 363 366 363 362 361 362 361 362 363 363 364 364 364 364 364 364 364 365 365 365 364 363 363 362 359 359 359 358 356 356 357 356 357 357 357 359 361 361 361 329 322 317 314
339 340 341 341 343 344 345 345 344 343 344 345 349 352 353 354 356 357 359 360 361 364 367 365 362 361 360 360 360 363 363 363 360 360 361 364 362 363 364 364 364 364 362 362 359 359 358 357 356 355 355 355 356 357 358 359 359 360 362 352 343 335 328
339 340 341 344 345 345 344 343 343 342 343 343 348 351 351 351 353 355 357 357 361 364 366 365 363 361 361 361 361 361 362 360 362 360 359 361 364 361 362 364 364 362 361 361 360 358 357 357 355 355 355 354 355 356 357 357 359 359 360 356 347 343 339
337 338 340 341 343 344 343 344 342 342 343 344 347 347 348 349 350 353 355 357 361 363 364 363 361 364 364 364 363 362 364 363 363 359 358 361 363 362 362 361 362 363 362 363 364 362 358 358 356 357 358 356 356 355 356 357 357 359 337 361 333 343 345
337 338 339 340 340 342 342 343 343 343 342 343 345 345 346 346 347 349 351 354 357 358 356 356 357 358 358 358 357 359 359 361 358 360 358 357 357 360 362 333 320 346 361 362 339 323 316 326 355 357 355 357 361 365 361 359 361 334 325 322 318 318 322
334 336 337 339 339 339 340 341 342 343 343 343 344 344 345 345 347 348 349 350 352 354 356 354 352 352 352 353 354 352 356 355 356 357 356 357 356 356 356 357 360 317 319 330 334 326 317 314 313 313 315 340 351 348 329 325 320 314 313 313 314 313 314
336 337 338 338 337 338 339 339 340 341 340 343 344 344 345 345 346 348 348 349 349 351 352 352 354 352 352 352 352 351 355 355 356 356 357 358 358 359 354 352 353 361 327 311 321 318 311 309 306 305 306 308 316 328 352 334 322 317 315 312 310 310 309

ECMWFFLT1_sfc_thetae_039.txt.gz
Theta_e
334 336 338 343 348 348 349 352 354 353 355 356 358 356 356 357 360 362 363 366 367 367 368 368 368 367 366 364 364 365 365 366 367 365 363 364 364 363 364 366 367 366 362 362 364 363 364 366 363 363 365 368 369 368 369 371 371 369 369 369 368 366 365
330 329 333 339 345 348 350 354 355 355 355 357 358 359 357 359 360 361 364 367 368 368 369 368 368 367 365 365 365 366 366 367 368 369 368 367 366 366 365 367 367 367 366 363 363 367 366 365 364 364 364 367 368 369 368 370 371 371 368 369 367 367 366
331 330 332 336 341 348 351 352 355 356 357 357 358 358 358 360 361 363 364 366 368 370 370 370 369 366 366 366 365 366 367 367 369 368 367 364 366 364 366 367 367 366 366 366 365 364 366 366 368 367 365 365 366 368 367 367 369 368 367 369 366 365 366
332 330 332 337 344 351 352 352 355 356 356 357 358 359 360 362 362 363 365 367 368 369 369 369 368 365 365 365 365 366 366 368 368 367 365 365 366 368 366 366 367 367 366 366 363 363 364 366 366 368 370 368 367 366 366 366 365 368 367 367 366 365 366
331 333 332 335 339 348 350 352 354 356 355 357 359 362 362 361 362 363 365 366 367 368 368 368 366 366 366 367 366 366 366 367 367 367 367 367 367 368 367 364 365 366 366 366 367 365 366 366 365 368 368 369 368 366 366 366 365 367 366 366 365 365 363
327 331 332 332 336 342 350 351 353 354 355 356 357 360 361 361 361 361 363 365 366 368 369 369 367 367 366 365 365 365 367 368 369 369 368 367 367 366 366 367 365 366 364 365 367 366 365 365 366 367 366 368 366 363 364 365 364 364 366 366 365 363 361
329 332 331 333 336 341 349 352 352 354 356 357 358 360 360 360 361 361 362 363 364 366 365 366 365 366 367 366 366 367 366 366 367 366 366 366 367 367 369 369 368 366 367 367 366 366 365 366 367 367 367 366 368 363 364 367 365 365 366 367 365 364 363
331 333 336 336 337 340 348 352 353 354 356 357 356 357 358 359 360 359 361 361 361 363 364 364 365 367 368 368 366 365 366 366 367 367 367 365 366 367 367 368 369 369 369 365 367 367 366 367 366 367 367 366 368 367 364 367 368 364 365 365 365 363 362
330 335 336 337 340 340 343 351 352 353 356 356 356 358 358 359 359 359 360 361 361 360 362 363 364 366 369 367 367 366 367 366 367 367 365 364 363 364 365 367 370 370 368 366 365 368 367 366 367 369 368 368 368 369 367 368 367 366 366 366 366 364 362
331 334 338 337 339 337 341 346 353 356 356 357 357 358 358 358 359 358 359 359 360 358 360 360 362 364 367 367 366 366 367 366 366 363 363 362 362 363 364 363 367 370 368 367 363 364 368 368 368 370 370 367 367 368 369 367 367 368 367 367 367 366 365
331 341 343 340 342 343 346 348 353 357 356 362 361 355 358 358 358 358 358 358 358 358 358 360 360 361 365 366 364 364 366 365 363 363 363 361 360 361 361 361 364 367 367 366 363 361 366 368 369 370 370 367 366 367 368 368 368 369 367 366 367 367 366
338 338 343 342 340 340 343 353 357 360 361 362 357 355 359 361 357 357 357 358 358 358 358 359 358 360 363 365 363 364 364 365 364 363 363 362 360 360 360 361 361 362 366 366 364 362 361 366 367 368 369 370 369 368 369 370 370 370 369 365 366 367 367
332 341 345 342 344 343 349 353 355 358 360 356 354 355 355 356 356 356 358 358 357 358 358 359 359 360 361 364 362 364 364 364 365 364 363 364 361 361 361 360 359 359 362 366 366 363 359 361 367 368 369 371 370 369 370 370 370 371 371 368 366 367 367
342 339 342 344 346 346 346 350 352 356 358 354 351 354 354 355 355 356 357 356 357 357 357 358 360 360 362 364 364 365 363 364 365 367 366 366 369 365 362 360 359 361 362 366 366 363 362 358 363 367 368 370 371 371 371 371 370 371 371 370 366 365 366
325 330 337 338 346 350 349 347 353 354 354 354 351 352 353 352 354 358 358 357 358 356 356 359 359 360 360 363 364 366 367 368 367 369 369 369 372 370 366 363 363 363 363 365 366 365 363 361 359 365 368 369 372 372 370 369 370 370 371 370 367 365 365
322 325 327 334 342 347 352 352 354 355 356 358 353 354 351 353 355 353 354 355 355 357 356 358 359 361 361 361 364 367 368 370 371 370 371 370 371 372 370 365 365 362 362 363 364 367 367 366 363 361 366 367 370 371 370 369 370 357 341 349 369 367 365
323 324 329 333 340 342 351 353 356 358 358 359 357 354 353 354 354 352 351 352 353 355 356 355 361 359 360 362 365 369 370 370 370 371 371 371 371 371 371 369 366 367 369 368 367 368 372 367 363 361 362 366 368 369 371 371 368 341 335 338 344 365 368
323 326 326 326 329 334 340 348 354 360 358 355 356 356 354 356 353 352 350 351 352 353 354 354 356 357 363 363 369 371 371 369 371 371 371 371 370 371 371 369 368 369 369 366 365 370 367 365 366 367 363 364 367 368 370 371 347 334 334 335 337 345 368
324 325 327 331 331 331 328 331 343 357 350 349 354 353 353 353 350 353 353 354 353 354 353 352 353 362 366 363 365 371 371 372 371 371 371 372 371 372 372 371 369 367 367 365 367 367 368 370 367 367 365 365 368 367 369 370 342 332 331 333 334 336 351
324 326 327 328 329 329 332 334 335 341 337 346 349 348 353 354 349 351 353 353 353 353 356 356 355 357 359 364 367 370 371 372 371 370 371 373 372 371 371 370 369 367 366 366 368 368 368 367 368 368 370 368 368 369 369 370 339 329 328 330 331 334 342
329 329 329 329 330 329 342 349 352 350 348 339 338 346 350 352 351 351 351 353 352 355 362 357 357 358 360 363 366 368 370 372 371 371 371 373 373 372 371 370 370 368 366 365 366 366 367 367 367 368 369 367 365 366 367 369 334 326 325 326 327 331 336
325 327 327 328 334 351 355 352 351 347 350 354 347 341 342 345 349 349 349 351 351 351 353 357 359 356 360 363 364 365 368 370 371 371 372 372 372 370 370 370 370 369 368 367 366 368 367 369 368 367 367 368 367 364 364 367 329 324 324 324 325 328 350
324 327 328 335 340 343 357 359 356 354 357 354 350 341 340 341 343 347 348 349 349 351 350 354 358 357 360 362 362 365 368 371 371 371 372 372 371 370 369 369 370 370 370 366 365 366 366 367 368 369 368 368 368 367 365 366 339 321 321 322 323 329 356
325 331 340 346 353 352 354 355 359 361 360 357 353 352 349 343 343 347 351 349 349 350 350 351 355 359 363 363 366 367 370 372 372 371 371 372 371 370 369 370 372 371 370 367 365 364 366 368 368 369 368 367 366 366 366 365 345 317 319 320 320 332 358
347 348 349 348 348 350 356 362 363 361 358 357 355 358 357 352 347 345 350 352 348 349 350 353 357 360 362 364 367 371 371 373 373 372 371 371 372 371 370 370 371 372 371 368 368 366 368 367 367 368 369 367 368 348 359 366 347 316 318 317 317 333 360
346 346 347 345 350 359 357 359 361 362 359 357 358 358 360 355 351 354 352 349 348 348 349 353 360 365 361 362 368 371 372 372 374 373 371 371 373 373 372 373 372 372 371 369 368 366 365 365 365 366 366 367 365 365 364 365 369 335 315 316 316 321 358
347 348 351 352 353 356 355 356 360 359 357 361 363 363 359 353 351 352 355 355 354 351 350 355 362 364 367 367 363 367 372 373 373 372 373 373 372 372 372 372 371 370 370 367 367 366 366 365 364 364 366 367 369 368 367 366 366 351 313 314 314 317 332
347 348 347 353 355 356 354 355 360 359 358 361 359 357 354 357 356 355 357 355 352 354 353 359 368 364 365 368 367 368 372 374 375 374 371 372 372 372 370 371 371 369 369 367 367 367 367 367 366 365 365 366 366 367 367 359 345 372 316 315 312 315 319
348 346 348 349 352 353 350 355 357 358 358 358 361 363 363 355 356 356 355 355 358 356 359 360 362 366 367 369 369 372 373 375 374 371 369 369 371 371 369 370 370 370 370 369 368 367 366 367 366 364 362 363 363 364 365 368 365 337 336 313 313 312 315
347 348 347 349 350 351 349 356 357 356 358 357 360 364 367 365 357 357 357 357 363 362 361 362 365 367 366 368 369 369 373 374 370 370 368 368 369 370 371 370 370 370 370 370 368 365 364 364 363 362 360 359 358 359 360 370 368 342 330 326 311 313 312
344 345 346 348 347 350 351 352 352 353 354 356 359 362 367 368 361 359 359 368 370 365 362 361 363 365 366 366 367 368 370 371 370 369 369 368 369 370 369 370 370 367 369 369 366 364 363 363 361 360 360 359 359 359 359 361 368 364 343 322 314 312 312
343 346 346 347 348 348 349 350 351 351 351 354 357 359 363 365 367 365 366 366 368 369 368 366 367 368 368 368 368 366 366 368 368 368 368 368 367 368 369 368 366 365 367 366 365 366 363 361 359 358 358 357 359 359 359 364 363 366 363 330 320 316 313
344 344 345 344 347 347 349 349 348 348 350 351 355 357 359 360 361 362 362 363 364 365 369 367 366 365 366 366 366 367 367 367 365 364 364 366 364 366 366 366 366 366 363 363 361 362 361 361 360 358 355 355 356 359 360 360 360 361 361 365 347 338 329
342 344 345 347 348 348 348 348 348 348 350 350 352 355 356 355 356 359 361 363 365 368 368 366 365 364 365 365 365 365 366 365 364 363 361 364 365 362 363 365 363 361 365 362 362 361 360 360 357 355 356 354 356 358 358 357 359 359 360 361 357 350 345
341 342 343 344 345 347 347 347 347 348 348 348 350 351 353 354 355 358 361 363 366 369 367 366 364 366 366 364 364 366 366 366 366 363 363 364 367 365 364 361 361 368 364 364 361 361 361 360 358 358 357 357 360 361 362 362 358 361 325 337 319 348 352
340 341 342 343 344 346 345 346 347 347 347 348 349 350 350 352 353 354 357 361 363 364 364 365 364 364 363 364 364 364 362 364 363 362 360 361 359 361 362 333 323 347 365 360 329 317 323 334 357 357 356 358 361 365 360 358 358 319 311 310 308 310 311
339 340 340 342 342 343 344 345 346 347 347 347 347 348 349 349 350 352 353 355 361 362 362 362 359 359 360 361 361 359 360 359 362 362 363 362 360 359 362 357 347 309 313 325 327 316 307 305 306 308 315 335 335 335 325 319 310 305 303 302 301 300 304
340 340 340 341 341 341 342 342 344 344 345 347 347 348 349 348 348 350 350 353 354 357 361 359 358 356 356 357 358 362 362 361 362 361 361 359 361 364 361 359 357 344 318 311 314 312 308 308 307 306 305 305 314 329 336 321 311 303 301 301 300 299 298

ECMWFFLT1_sfc_thetae_042.txt.gz
Theta_e
331 335 338 341 342 343 344 343 344 344 345 348 352 353 354 355 357 359 359 361 362 362 363 363 363 363 362 362 363 363 364 365 366 364 362 361 361 360 363 364 364 365 364 363 364 363 365 366 365 364 367 369 368 368 371 371 371 369 370 371 369 370 366
330 334 336 339 341 342 344 345 345 344 345 350 354 356 355 356 358 358 360 361 362 362 362 363 364 363 363 363 362 363 363 365 366 365 364 363 363 363 364 366 366 367 368 366 366 368 368 365 366 366 366 368 368 369 369 371 371 370 367 369 368 369 368
328 327 337 340 340 339 342 346 346 347 348 349 353 354 355 357 359 360 361 362 362 363 363 363 363 364 364 364 363 363 363 364 365 365 363 361 363 359 362 365 368 368 368 368 369 369 368 367 366 368 366 366 366 369 369 370 371 370 370 370 368 367 367
332 331 331 337 339 342 346 346 346 347 348 352 351 354 356 359 360 361 362 362 363 364 363 363 363 363 364 364 363 363 363 363 364 363 362 362 362 361 361 363 366 367 368 366 365 366 365 365 366 366 368 365 366 368 368 367 368 370 370 370 368 368 368
332 332 332 336 341 341 341 343 346 348 348 351 351 358 358 360 359 361 362 363 364 364 363 363 362 364 365 364 363 363 363 363 364 363 363 363 364 363 361 359 363 364 365 367 366 364 366 366 365 365 366 367 367 369 368 368 368 370 369 369 367 365 367
331 333 333 332 335 340 339 339 344 349 349 343 352 358 357 357 356 358 361 364 365 365 366 365 364 366 364 364 364 363 363 364 364 365 364 365 366 365 362 362 361 362 362 366 366 365 365 368 364 365 364 365 364 364 366 367 366 368 368 367 366 364 363
334 333 332 331 334 337 335 338 340 346 348 346 351 357 357 356 356 357 360 363 365 365 365 365 364 364 364 365 364 365 363 363 364 364 366 366 366 365 364 364 363 363 364 366 366 366 363 364 365 366 366 363 363 363 364 366 365 366 366 366 365 365 365
333 331 332 333 335 337 340 341 342 343 346 347 347 353 357 356 356 356 358 362 365 364 364 364 363 364 364 366 364 363 363 363 364 364 365 364 364 363 364 365 365 365 366 365 366 367 364 363 363 365 367 365 365 365 365 366 366 365 366 365 364 363 364
334 333 331 330 334 334 337 340 339 338 341 343 347 354 356 357 356 356 358 361 363 364 365 365 364 364 366 365 364 363 363 363 364 364 364 361 361 360 360 364 366 366 365 363 363 367 366 365 362 364 367 366 368 368 366 367 366 364 364 365 364 363 361
336 333 334 333 336 335 340 339 344 346 345 346 349 357 358 357 357 357 358 359 362 363 365 365 365 364 364 364 362 362 363 363 363 362 362 360 362 360 359 360 361 365 365 364 363 364 366 367 365 366 367 366 367 368 366 366 366 364 364 365 365 364 363
335 337 336 335 342 344 346 349 349 350 351 355 359 357 359 359 358 357 357 358 360 362 365 365 365 364 362 362 361 361 362 361 362 362 361 361 360 360 359 358 362 364 363 363 362 364 365 366 367 367 367 365 366 368 367 365 366 364 363 364 365 365 364
335 336 336 337 344 341 343 347 348 349 353 359 359 357 360 361 358 358 358 359 360 361 363 364 364 363 363 363 362 361 361 362 359 360 361 361 358 359 357 358 360 362 365 365 363 363 363 365 365 366 367 366 366 367 368 367 366 365 364 363 364 365 364
341 345 342 339 345 340 345 349 351 349 356 359 356 356 358 358 358 358 360 360 360 361 362 363 363 363 362 363 362 361 360 361 360 361 361 361 358 358 358 359 359 359 362 364 364 362 360 364 365 365 368 368 367 366 367 368 367 367 366 365 365 366 365
341 335 341 346 349 352 347 350 361 360 361 358 356 356 357 358 358 359 361 359 359 359 360 361 362 362 363 364 363 363 360 362 362 362 363 361 361 360 359 359 358 359 362 366 365 362 360 359 364 365 366 368 368 367 367 368 367 367 368 367 366 366 365
329 334 338 339 356 351 344 356 363 363 362 359 356 356 356 356 358 360 362 361 361 359 360 361 361 361 361 364 364 364 363 363 364 363 363 363 363 361 360 359 359 360 360 364 365 363 362 360 358 364 365 367 369 368 367 366 366 367 367 367 367 366 365
327 330 332 336 344 348 349 356 366 365 364 363 357 358 354 356 359 359 359 358 358 360 360 361 360 360 359 362 365 366 366 366 366 365 364 363 363 362 361 360 360 359 359 361 364 365 365 363 360 360 365 365 367 369 367 366 366 354 341 349 365 366 364
327 327 328 332 347 342 354 357 361 365 365 364 362 360 357 357 359 358 357 356 357 360 359 359 361 360 359 360 365 367 368 367 367 367 365 364 364 365 363 361 361 360 361 361 362 364 367 366 363 358 360 365 365 367 368 367 364 341 335 338 344 361 363
325 333 332 336 340 340 350 350 355 359 360 359 358 360 358 360 358 355 355 356 355 356 357 357 360 359 360 361 367 369 368 367 368 368 368 367 366 366 366 363 361 361 362 361 361 364 366 365 365 363 359 362 365 365 367 367 346 334 333 335 337 345 363
324 325 334 342 346 352 348 346 347 356 352 350 351 352 352 358 353 355 355 357 358 357 356 355 357 362 363 363 366 369 369 369 369 368 368 368 367 368 368 366 363 362 362 361 362 364 365 366 365 364 362 360 364 365 366 368 343 332 331 333 334 336 349
323 324 325 327 329 330 339 348 357 356 354 359 355 350 350 354 354 356 355 354 358 356 357 357 357 361 364 364 367 369 370 370 369 368 369 370 370 369 369 368 365 363 363 363 364 363 364 365 365 364 364 362 363 365 367 368 344 329 328 330 331 333 341
330 333 335 336 337 336 355 358 358 357 350 338 344 357 354 353 352 357 355 355 354 356 362 360 358 360 365 363 366 370 371 371 370 369 370 371 371 370 369 368 367 365 364 364 364 363 363 363 364 365 365 364 363 364 366 367 340 327 326 326 327 331 335
326 326 327 332 353 360 362 353 352 344 354 357 344 339 352 352 351 349 351 352 352 353 356 362 360 359 367 365 365 369 371 371 370 370 370 371 371 369 368 368 368 366 366 365 365 365 365 366 365 365 366 366 365 363 364 366 334 326 324 324 325 328 345
342 329 332 340 347 347 358 360 354 352 356 355 348 342 340 342 350 348 347 349 350 354 352 354 361 358 362 366 365 367 371 372 371 371 371 371 371 369 368 368 369 369 368 365 364 365 365 365 365 366 366 367 367 364 362 364 340 323 322 322 323 327 350
346 344 343 346 353 356 363 363 363 361 360 361 357 352 351 345 345 352 352 350 349 351 350 351 356 361 361 366 367 367 370 372 372 371 371 372 371 371 369 370 371 370 369 365 364 364 365 366 366 366 366 365 366 365 364 364 344 318 320 320 320 330 352
345 346 348 353 354 353 353 355 356 355 357 353 348 351 357 355 351 344 360 355 347 348 349 352 356 361 361 364 369 369 370 372 373 373 372 371 372 373 371 371 371 371 371 368 366 364 367 366 365 366 367 366 366 350 360 364 349 316 318 317 319 330 354
346 346 346 351 353 350 352 359 359 362 359 357 366 368 367 354 357 362 371 357 348 347 353 353 358 365 364 366 372 371 370 371 373 374 373 372 374 374 374 373 373 372 371 369 366 364 364 365 365 365 366 366 365 365 365 365 366 339 315 316 316 320 352
345 348 345 346 348 358 352 350 357 357 354 364 366 359 359 360 360 365 364 368 364 351 350 357 363 369 368 368 369 372 371 371 373 374 375 376 375 375 374 373 372 372 371 367 366 365 364 364 364 363 365 367 369 368 367 367 366 356 314 314 314 316 329
347 347 348 346 353 354 350 349 358 360 359 361 360 363 365 366 365 367 372 369 364 368 362 375 367 369 369 367 368 372 373 373 375 376 375 376 377 375 373 374 372 371 372 369 368 366 366 365 364 364 364 366 368 369 369 364 347 369 319 314 312 315 316
344 345 344 347 351 351 347 349 355 356 358 357 359 359 363 365 370 366 368 367 370 371 376 368 373 371 370 368 368 372 375 375 376 375 372 372 375 374 373 373 372 372 372 371 369 368 367 367 366 365 364 365 367 368 369 371 364 339 337 313 312 312 314
343 344 344 346 349 349 347 350 354 354 355 356 359 360 362 368 368 367 364 365 371 371 374 374 385 378 372 369 368 370 375 376 372 372 372 374 374 374 375 373 372 372 372 372 370 368 367 367 367 365 362 362 364 365 366 371 372 346 329 324 311 312 313
342 343 344 344 345 348 347 347 351 350 352 354 359 360 363 367 367 359 360 371 376 371 369 373 377 376 373 370 371 371 376 376 374 374 375 375 374 373 372 373 373 371 372 372 370 368 366 367 366 365 364 363 362 364 366 367 371 370 337 321 313 313 312
342 343 343 344 346 346 347 348 350 350 349 353 357 359 362 363 365 364 363 368 372 372 373 371 371 374 374 374 375 373 370 375 374 375 372 372 371 372 373 370 369 368 371 370 369 368 367 366 364 364 364 363 363 363 365 368 366 368 362 328 319 315 313
342 343 344 345 346 347 347 348 348 347 349 353 354 354 356 358 359 363 365 364 361 366 372 374 368 373 372 374 371 373 374 371 368 367 366 368 365 368 370 369 369 369 368 369 367 367 365 365 363 362 360 360 362 362 363 364 363 366 366 345 337 333 329
341 342 344 346 347 347 349 348 348 349 349 349 351 353 353 354 355 358 361 363 367 366 370 367 367 369 371 369 371 368 369 370 370 368 367 368 369 366 366 367 367 366 370 365 365 364 363 363 360 358 359 358 358 359 361 360 364 332 329 333 338 347 344
341 342 343 343 345 346 347 348 348 348 348 348 350 352 354 353 355 356 360 362 366 368 367 368 365 369 368 370 372 375 371 373 374 370 367 366 368 355 355 363 362 366 362 352 357 363 362 361 360 361 359 362 360 359 358 346 328 320 311 318 308 315 324
339 341 341 343 344 345 347 347 347 347 347 348 350 351 351 352 353 356 357 361 364 367 366 368 369 366 367 367 369 368 368 368 364 365 365 362 358 352 344 326 315 344 353 342 323 316 318 322 341 347 353 347 340 341 335 329 323 304 299 299 300 301 302
338 340 341 343 344 344 344 345 347 347 346 347 349 348 349 350 351 354 356 359 363 363 363 364 364 365 363 366 365 365 367 363 363 365 373 373 360 350 339 332 327 306 312 320 318 310 303 303 305 310 318 337 335 323 310 309 303 300 300 300 299 298 298
341 341 341 342 341 342 343 343 344 344 345 347 348 347 349 348 348 351 351 353 355 360 361 362 363 362 361 361 362 365 362 363 368 369 368 365 363 352 339 335 333 333 312 303 307 305 302 302 303 303 305 310 319 330 334 316 305 301 301 300 300 297 296

ECMWFFLT1_sfc_thetae_045.txt.gz
Theta_e
334 334 336 338 338 339 340 340 340 341 344 346 346 347 349 350 351 353 352 353 352 352 353 354 355 353 352 352 353 354 354 355 355 355 355 354 355 356 355 355 354 355 354 356 357 357 357 358 357 358 361 361 361 362 362 363 363 363 361 361 360 359 358
333 334 335 336 337 338 340 340 340 341 344 347 347 346 348 349 351 352 353 353 353 353 353 354 355 354 353 352 354 354 354 355 355 356 356 355 355 356 357 356 355 355 357 356 357 359 359 359 357 358 361 362 361 362 363 362 363 362 360 361 359 358 358
333 334 334 335 336 337 339 340 341 341 342 346 347 346 346 348 350 352 353 353 353 353 354 354 355 355 354 353 353 354 355 355 355 355 355 354 354 355 357 358 356 356 357 359 358 359 361 359 358 357 360 361 361 361 362 362 362 362 360 360 359 359 357
332 333 334 336 338 339 339 340 342 343 343 345 346 347 347 348 350 353 355 354 353 353 353 354 354 354 354 354 353 354 354 355 355 355 355 355 354 354 354 357 358 358 357 358 360 360 361 360 358 358 363 361 361 361 361 363 362 362 361 361 359 359 359
331 332 332 334 337 338 338 339 341 342 343 345 347 348 347 349 352 353 355 356 355 354 355 355 355 355 355 355 355 355 355 355 355 356 356 356 356 355 353 354 358 359 359 360 361 361 360 359 358 359 359 360 360 361 360 361 362 363 361 361 359 359 359
330 329 331 333 336 337 338 339 340 341 343 344 345 346 347 349 352 353 355 356 356 357 356 356 356 356 354 355 355 355 355 355 356 356 356 356 355 355 353 354 356 359 360 360 361 361 361 359 359 357 359 360 360 360 361 360 362 363 362 362 360 359 359
330 330 331 333 335 337 338 339 340 340 341 343 345 347 348 350 352 353 354 355 357 356 356 356 356 356 355 356 355 355 353 354 354 355 357 357 356 355 355 354 354 357 360 362 361 360 359 359 359 357 358 359 360 360 360 360 360 363 362 361 360 359 360
329 331 332 333 335 336 338 339 340 341 341 342 344 347 348 350 353 354 354 355 356 357 357 356 356 356 356 357 356 355 354 354 354 355 356 356 356 356 355 355 354 355 357 359 361 360 358 359 359 359 357 358 358 359 361 361 360 362 362 361 360 359 360
327 330 332 333 334 336 338 339 340 340 341 343 344 348 350 351 352 353 355 356 357 357 356 357 357 357 357 357 356 355 355 355 354 355 355 355 355 355 356 356 355 356 356 357 360 361 359 357 359 359 358 357 357 358 360 361 360 361 361 361 359 358 358
326 327 332 333 335 336 337 339 340 340 340 342 344 345 348 351 352 353 354 356 357 357 358 358 358 358 357 357 357 357 356 355 355 354 355 354 355 355 356 357 356 357 356 357 358 360 361 358 357 358 359 357 356 356 358 360 360 360 360 360 359 358 357
327 328 331 333 334 335 336 338 339 340 341 342 344 346 347 349 350 351 351 354 358 359 360 360 360 358 357 357 357 357 356 355 355 354 354 354 355 355 356 357 358 357 357 357 357 359 360 359 358 356 358 359 357 357 357 359 360 359 359 360 360 359 358
327 328 327 332 334 333 334 336 340 341 342 342 344 346 347 349 350 351 351 352 357 360 360 361 361 360 358 358 357 357 356 356 355 354 354 354 354 355 356 357 357 358 358 358 357 358 359 359 359 356 356 359 359 359 358 358 359 359 358 359 359 359 358
327 327 326 330 333 333 333 334 338 341 342 343 343 344 347 349 350 351 352 353 355 360 362 362 362 361 359 358 357 356 356 356 355 355 355 355 354 355 356 356 356 358 358 358 358 357 358 359 359 359 356 357 359 360 360 359 359 359 359 358 358 358 358
335 326 328 331 332 332 333 334 337 338 340 342 343 344 346 349 351 352 353 353 355 358 362 363 362 361 360 358 356 356 356 356 356 355 355 355 355 355 355 355 354 355 357 358 357 357 357 358 359 359 358 357 357 359 361 361 359 359 359 358 357 358 358
326 329 333 332 333 333 334 334 336 337 339 340 342 343 345 348 351 354 354 355 355 357 359 362 362 361 360 359 357 356 356 356 356 356 356 356 355 354 355 355 354 354 355 357 357 357 357 358 359 358 358 359 358 358 359 361 361 360 359 358 357 358 358
331 334 334 334 335 336 336 337 339 339 340 341 342 344 347 350 352 353 354 354 355 356 358 361 361 361 360 359 357 357 356 356 355 355 355 356 355 354 354 354 354 353 353 356 357 356 356 356 357 359 358 358 359 359 359 360 362 351 339 344 357 357 358
331 335 335 335 336 337 339 342 343 343 344 346 347 348 351 353 354 355 355 356 356 356 357 359 360 360 360 359 359 358 357 356 355 355 354 355 356 355 354 353 353 352 352 355 357 357 357 357 355 356 358 358 358 359 359 359 359 340 333 335 340 354 357
325 331 334 335 335 339 348 352 349 347 346 349 350 351 351 352 354 355 355 356 356 357 357 357 358 359 359 359 360 359 358 357 356 356 355 354 355 355 354 353 352 351 352 353 356 358 358 357 356 355 357 358 358 359 360 360 344 334 332 333 333 340 358
324 327 333 333 338 340 346 352 354 353 353 352 353 352 352 352 353 354 355 356 357 357 357 356 357 357 358 358 359 360 359 358 357 356 356 354 355 355 355 353 352 351 351 351 354 357 357 357 357 356 355 357 358 358 360 360 342 332 330 331 332 333 345
323 332 336 335 334 336 338 340 349 352 353 353 353 354 353 354 352 354 356 356 356 356 356 355 355 356 357 357 358 360 360 359 358 357 357 356 355 355 355 353 352 351 352 352 353 354 356 357 357 357 356 355 357 358 359 360 342 331 328 328 329 331 337
321 327 325 334 341 345 341 340 344 348 348 348 349 348 348 349 351 352 352 353 354 354 353 354 354 354 355 355 357 359 360 360 358 357 357 358 356 355 355 354 353 352 352 352 352 352 353 355 356 357 357 357 355 357 359 361 339 329 326 325 326 329 332
343 342 347 349 348 347 345 345 346 349 349 350 342 347 345 345 347 349 350 351 350 352 352 352 352 352 355 355 355 358 360 360 359 358 358 358 358 356 355 355 355 353 352 352 352 353 353 354 355 356 357 358 357 355 355 360 335 327 325 324 324 327 342
348 347 347 348 350 351 352 353 353 354 353 349 348 341 345 347 346 346 347 347 347 348 350 352 351 351 355 355 355 357 360 361 360 359 359 359 359 358 357 356 356 356 355 353 352 352 353 353 354 355 357 357 358 356 355 356 338 325 322 322 322 326 346
347 347 345 344 344 345 348 350 351 355 352 345 342 344 349 350 346 346 343 345 346 346 347 347 350 351 354 356 356 357 360 361 361 359 359 359 359 359 359 359 359 359 358 355 353 352 354 354 355 356 357 357 357 358 356 355 342 320 320 319 320 329 349
342 342 344 345 346 344 345 349 354 355 357 355 354 356 356 350 349 350 346 345 345 346 345 345 346 351 352 358 358 359 361 362 362 361 360 360 360 361 360 360 360 360 361 359 357 355 356 356 356 356 357 358 358 349 355 358 347 317 318 318 318 329 350
340 340 339 345 348 345 345 350 353 349 352 356 356 358 359 360 356 357 357 359 345 344 344 345 346 350 354 359 361 360 363 364 363 362 361 361 361 362 362 362 362 362 362 361 360 357 357 357 358 357 358 358 358 359 358 358 359 335 314 315 316 320 348
341 340 340 346 346 351 344 348 354 354 354 354 354 355 356 358 362 360 355 359 355 350 344 345 347 352 355 358 362 361 362 364 364 363 363 363 363 364 364 364 363 363 363 362 361 359 357 357 358 358 358 358 359 359 359 361 360 349 311 313 313 316 326
340 341 342 348 351 347 343 346 352 352 352 353 354 356 356 356 359 362 362 357 357 359 361 353 349 353 355 356 361 361 362 364 365 365 365 365 365 365 365 366 366 364 364 363 361 359 358 357 356 356 356 357 359 360 360 360 348 360 315 312 311 314 316
339 339 340 342 343 345 345 345 349 348 349 351 354 355 356 358 359 360 362 357 360 364 362 368 352 354 355 355 360 361 361 363 364 365 367 367 367 367 366 367 366 365 364 363 361 360 358 357 356 355 355 355 357 360 361 362 356 339 334 311 311 311 313
340 340 340 343 343 343 345 343 345 347 348 351 355 356 356 359 357 362 360 358 365 363 364 361 366 356 356 354 358 361 361 362 365 366 367 368 367 367 366 366 365 364 364 363 362 360 359 357 357 356 355 354 355 359 360 362 363 343 331 322 311 311 311
339 340 341 342 343 345 345 343 344 345 347 351 351 351 353 357 357 358 357 358 360 364 364 363 365 360 358 356 357 362 362 363 364 365 366 368 368 366 365 365 365 363 363 363 362 361 359 358 357 357 355 354 354 356 357 361 362 364 339 322 314 312 311
337 339 341 342 342 343 345 346 345 345 347 347 349 349 351 351 353 352 354 360 361 362 364 363 364 363 360 359 360 364 365 364 364 365 366 367 368 367 367 366 365 363 363 364 362 361 360 358 358 357 357 356 356 356 358 359 360 357 342 329 320 316 313
334 336 339 340 341 343 344 345 345 346 347 346 346 348 350 351 351 352 356 358 361 363 364 363 366 364 363 362 363 366 366 364 364 365 365 366 367 368 368 367 366 364 362 363 363 362 360 360 357 357 357 357 357 357 356 356 341 334 336 337 332 330 327
333 334 337 339 341 342 342 343 344 344 344 343 346 348 349 349 349 351 353 357 358 363 363 364 364 363 361 363 363 365 365 364 375 367 363 364 363 365 366 366 366 365 363 363 364 361 361 359 357 356 357 357 357 357 354 331 323 323 322 322 326 332 334
332 334 336 338 339 342 340 342 343 343 343 343 345 346 346 346 347 350 349 350 357 360 360 361 365 364 361 362 362 361 364 364 366 362 360 347 335 327 324 339 364 358 339 331 336 363 364 360 359 356 354 349 349 345 332 326 320 318 310 313 308 317 322
333 334 336 339 341 342 342 343 343 343 342 343 344 344 345 345 346 347 348 349 351 354 357 356 359 359 357 358 361 362 361 362 362 361 352 345 340 334 326 316 305 314 333 326 318 311 313 327 341 338 331 324 322 328 328 321 319 307 300 301 299 298 301
334 335 336 339 339 340 340 341 344 343 341 342 343 344 344 343 344 345 346 347 350 350 352 354 354 355 355 354 354 356 359 358 359 359 351 346 340 332 326 323 319 304 302 310 312 307 304 304 307 312 317 324 320 315 310 309 302 297 299 299 301 302 300
335 336 339 340 339 338 338 338 341 342 343 343 344 344 342 342 342 344 345 346 348 349 353 355 353 353 352 354 354 355 356 358 358 354 344 337 333 329 326 324 322 321 308 301 305 306 303 303 303 304 307 311 315 317 312 302 298 297 296 297 297 298 298

ECMWFFLT1_sfc_thetae_048.txt.gz
Theta_e
332 333 335 337 337 337 337 338 338 339 340 341 342 343 344 345 345 345 345 346 346 346 348 349 350 351 350 350 350 350 350 349 348 349 348 349 350 348 347 349 349 347 349 352 353 354 355 355 355 355 356 359 359 360 360 360 360 360 359 358 358 358 355
331 332 334 336 337 337 338 338 339 339 340 341 342 343 345 345 346 346 345 346 346 346 348 348 350 350 350 349 350 349 349 349 349 350 350 349 350 351 349 349 350 350 350 352 354 355 355 355 355 355 355 358 359 359 360 360 360 359 358 357 356 356 356
331 332 334 336 337 337 338 339 339 340 341 341 342 343 344 345 346 347 346 347 346 346 347 348 350 350 350 350 349 349 349 349 349 349 349 349 349 351 352 351 350 351 352 353 354 355 356 355 355 355 355 356 358 359 360 360 360 360 358 357 356 356 355
331 332 333 336 337 338 339 339 339 340 341 342 343 343 344 345 347 348 348 348 347 347 346 348 349 350 350 349 349 349 349 350 350 350 350 351 350 351 352 352 351 351 352 353 355 356 357 356 355 354 360 356 357 358 360 360 360 360 359 357 356 356 355
331 332 333 335 336 337 338 338 339 340 341 343 343 345 345 346 348 349 349 349 349 348 348 349 350 351 351 350 350 350 349 350 350 351 351 352 352 352 352 352 352 351 352 354 355 356 356 356 355 354 356 357 357 357 358 360 359 360 359 357 356 356 355
330 331 332 334 336 337 338 339 339 340 341 342 343 344 345 347 348 348 349 350 350 350 350 350 350 351 351 351 350 350 351 351 351 351 351 351 352 352 352 353 354 353 352 353 356 356 357 356 356 355 354 356 357 357 358 358 359 359 359 358 356 355 355
330 331 333 334 336 337 338 339 339 340 341 343 345 345 346 347 347 349 350 350 351 350 350 350 350 351 351 352 351 351 350 350 351 351 352 351 352 351 352 353 355 355 354 354 355 357 356 356 356 355 355 355 357 357 357 357 358 359 359 357 356 355 355
331 331 333 334 336 337 338 339 339 340 341 343 344 345 345 347 348 349 350 351 351 351 351 350 351 351 352 352 352 351 350 351 352 352 352 351 351 351 351 351 353 355 355 354 354 357 357 356 357 356 356 355 355 357 357 357 357 359 359 357 356 355 356
331 332 333 334 335 337 338 339 339 340 340 341 343 344 345 346 347 348 350 351 352 351 351 352 352 352 352 352 352 352 352 351 351 352 352 351 351 351 351 351 351 354 356 356 355 357 358 357 356 356 355 355 355 356 357 357 357 358 358 358 357 356 356
330 331 332 334 336 337 338 339 340 339 339 340 341 343 344 345 346 348 350 351 352 352 352 352 353 353 352 352 352 352 352 351 352 351 352 351 352 352 352 352 352 352 353 356 357 357 357 358 358 357 355 355 355 355 356 357 357 357 358 358 357 357 356
330 331 331 333 334 335 336 337 337 338 339 340 341 343 344 345 345 347 348 351 352 353 353 353 354 353 353 352 351 352 351 351 351 351 351 351 352 352 352 352 352 352 352 353 356 358 357 357 358 357 356 355 354 355 355 356 357 357 357 358 358 358 357
329 330 330 332 333 334 334 336 337 338 339 340 341 342 343 344 345 346 348 350 353 353 354 354 354 354 353 352 351 351 351 351 351 351 351 351 351 352 353 353 353 352 352 352 353 356 358 357 357 357 356 356 355 355 355 356 357 357 357 358 358 358 358
328 329 329 330 332 334 334 335 335 337 338 339 340 342 343 344 344 346 348 350 352 354 354 355 355 354 353 353 352 351 351 351 351 351 351 351 351 352 353 353 353 353 352 353 352 352 355 357 357 356 356 357 356 355 355 355 357 357 357 357 358 358 357
335 328 329 330 331 332 332 334 335 336 337 338 340 341 343 344 345 346 348 349 352 353 354 355 355 354 354 353 352 352 352 352 352 352 352 352 352 352 352 352 353 353 353 353 352 352 353 355 357 357 356 356 356 356 356 355 355 356 357 357 357 357 357
327 327 328 329 330 331 332 333 335 336 336 338 339 340 343 345 346 347 349 350 352 354 354 355 355 354 354 353 352 352 353 354 354 353 353 353 352 351 351 352 352 353 353 353 353 353 353 354 355 356 356 355 355 356 356 355 354 355 356 356 356 357 356
326 327 327 328 329 330 332 334 335 336 337 338 339 340 342 344 346 347 348 349 351 354 356 356 355 355 354 353 353 354 354 354 354 354 353 352 352 351 351 351 352 352 352 353 353 353 353 353 354 355 356 355 354 354 356 356 356 348 337 342 356 356 356
324 325 327 328 329 330 331 333 335 336 337 338 339 340 342 343 345 347 348 349 350 352 356 357 356 356 355 354 355 355 354 354 354 354 353 353 352 352 351 351 351 351 351 352 353 353 353 353 353 354 355 355 355 354 354 356 356 338 332 334 337 352 355
323 324 327 328 329 330 331 332 335 336 337 338 340 341 342 343 345 346 347 348 349 351 354 358 358 357 356 357 356 356 355 355 354 354 353 353 352 352 352 351 351 350 351 351 352 353 354 353 353 353 354 355 355 355 354 354 340 334 331 332 332 337 355
324 326 327 329 329 331 331 332 335 337 338 340 340 341 342 344 345 346 347 349 350 352 353 356 358 358 358 358 358 357 356 355 354 354 353 353 353 353 352 351 350 350 350 350 351 352 353 352 353 352 353 354 354 354 355 355 339 331 329 330 330 330 341
328 329 330 330 331 331 332 334 335 337 339 340 341 342 343 345 346 347 350 351 352 352 353 353 356 358 358 359 358 358 357 356 355 354 353 354 353 353 352 351 350 350 351 351 350 350 351 352 352 352 352 352 353 354 355 355 340 329 327 327 328 329 334
336 336 334 335 336 339 341 340 339 339 339 340 342 342 344 346 348 349 350 352 352 353 353 353 354 356 358 358 359 359 358 357 355 354 354 353 353 352 352 351 351 350 350 350 349 349 349 351 351 351 352 352 352 353 354 356 337 328 325 324 324 327 329
339 341 342 343 341 340 342 344 344 344 343 347 350 349 348 349 351 351 351 353 353 353 353 353 353 353 356 358 358 358 358 357 356 355 354 353 352 352 351 352 351 350 350 350 350 350 350 351 352 352 352 352 352 351 352 355 334 327 324 323 323 325 338
339 339 340 342 345 345 346 347 347 347 345 343 343 342 346 349 351 353 353 352 353 353 353 353 352 352 353 356 357 358 359 358 357 355 354 354 353 351 351 351 352 352 352 350 349 348 348 349 351 352 353 353 353 352 352 353 338 324 322 321 321 324 343
341 341 342 344 347 349 350 351 353 355 353 352 353 355 355 348 343 347 350 351 352 352 352 352 352 353 353 354 356 358 358 359 358 357 356 354 353 352 352 352 353 352 353 350 349 348 348 349 349 351 353 353 353 354 352 352 342 321 319 319 319 327 345
341 341 341 342 345 348 350 351 352 352 351 350 350 352 356 359 357 346 343 345 346 349 350 350 350 351 352 353 355 356 358 359 359 358 357 355 355 355 353 353 352 353 353 352 351 349 349 349 349 349 351 352 354 347 351 354 343 318 319 318 318 327 346
339 340 341 343 344 346 349 350 348 348 349 349 349 352 354 358 359 361 358 357 348 342 343 346 348 350 351 353 354 355 356 358 359 358 357 356 356 356 356 355 354 353 353 352 352 350 350 349 349 349 350 351 352 353 353 354 354 331 317 317 317 320 345
340 340 340 343 344 348 344 346 346 346 348 349 351 353 355 357 358 357 358 354 349 350 346 341 343 346 350 352 354 354 355 357 358 358 358 358 357 357 357 356 355 354 354 353 353 352 350 349 349 350 350 351 352 353 353 355 355 339 314 315 315 317 326
340 341 342 345 349 346 342 344 345 347 349 349 350 351 354 356 356 357 356 353 354 357 361 360 351 344 347 351 354 354 355 356 358 359 359 359 358 357 356 357 358 356 355 355 354 353 352 351 350 350 351 352 353 354 354 355 347 351 316 315 313 315 316
337 338 339 340 341 345 344 342 343 346 347 348 348 348 349 353 353 355 354 351 354 357 360 360 358 346 346 350 354 355 355 356 357 358 360 359 358 357 356 358 358 358 357 356 355 354 353 352 352 351 351 351 353 355 355 356 352 336 330 314 313 312 313
335 338 339 340 341 343 345 342 343 344 345 345 346 347 348 348 349 353 352 349 355 357 360 359 359 349 345 347 352 355 356 357 359 359 359 359 359 358 357 358 358 358 358 357 356 355 354 354 353 352 351 351 351 353 354 356 356 337 326 324 312 312 312
332 334 336 337 339 341 342 343 342 343 343 344 345 346 347 347 346 349 347 349 355 357 358 359 360 352 348 347 349 354 356 358 359 359 360 360 359 358 358 358 359 358 358 358 357 356 355 354 354 353 352 351 350 350 352 357 357 357 333 320 314 312 311
331 333 334 336 338 340 340 343 343 342 342 343 344 345 346 345 345 344 344 349 352 354 357 359 359 354 351 348 349 353 356 357 359 360 361 361 361 360 360 360 360 359 359 358 358 357 356 354 353 353 352 351 351 350 353 355 356 341 333 328 320 316 311
330 331 332 334 336 339 339 340 341 341 342 341 342 343 345 344 345 345 346 347 348 350 353 357 360 357 354 350 353 356 356 356 358 359 361 362 362 362 362 362 362 360 358 359 358 357 356 355 353 352 352 352 352 351 352 349 332 332 333 332 329 328 323
329 331 332 334 336 339 338 339 338 339 339 339 341 341 342 343 343 344 343 344 346 348 349 355 359 359 352 353 357 358 357 357 367 363 360 359 360 361 360 361 363 360 359 359 359 357 356 356 355 353 354 354 353 353 345 327 324 322 324 328 332 331 329
329 329 330 333 335 338 337 338 339 338 337 338 339 340 340 340 341 342 342 342 344 346 346 350 358 359 352 354 357 358 359 359 362 357 345 331 319 312 310 312 320 344 347 333 333 357 361 358 358 357 357 356 354 352 332 327 323 321 310 315 311 329 334
329 330 332 334 336 334 335 339 339 337 337 337 337 338 338 338 339 341 341 342 343 344 344 348 352 350 349 350 354 358 359 359 356 348 340 333 327 321 318 312 303 306 322 325 318 309 319 337 353 349 336 326 320 328 339 329 322 304 299 298 297 298 300
329 330 331 334 335 333 334 336 340 338 338 338 338 338 338 338 338 339 340 340 342 343 343 346 347 347 346 347 351 353 358 355 350 345 340 334 329 326 325 323 317 302 301 308 309 305 300 301 305 311 319 326 318 313 310 309 302 298 298 297 297 297 296
332 332 333 335 335 335 335 335 336 336 337 336 337 337 336 337 338 338 339 341 342 342 344 346 344 344 346 347 348 351 353 351 347 342 336 332 329 328 327 325 322 320 307 300 304 303 301 301 301 303 305 308 313 314 314 304 299 298 298 298 297 296 295

ECMWFFLT1_sfc_thetae_054.txt.gz
Theta_e
332 332 333 334 334 334 334 335 336 336 336 338 339 341 342 343 344 345 345 345 345 345 346 347 347 347 347 347 348 348 349 349 348 348 347 347 348 347 346 346 346 347 349 350 352 353 354 356 355 356 356 356 356 357 358 359 359 360 360 361 360 360 360
330 331 332 333 333 334 335 336 336 336 336 337 338 340 341 342 344 344 344 345 345 345 346 347 348 348 348 348 348 349 348 349 349 350 349 348 349 348 348 347 347 346 348 351 352 354 354 355 356 355 355 356 356 357 357 358 359 359 360 360 359 359 359
329 330 332 333 333 334 335 335 336 337 337 337 338 339 340 342 343 344 344 344 345 346 346 347 348 348 348 349 348 348 349 349 349 349 348 347 347 348 348 348 348 347 347 350 352 353 355 354 355 355 355 355 356 356 357 358 359 359 360 360 359 359 358
328 330 331 333 334 335 335 336 336 337 337 338 338 338 339 341 343 344 345 345 344 345 345 346 348 348 348 348 348 348 349 349 349 349 349 349 348 349 348 348 348 348 347 347 350 352 354 355 354 355 358 355 355 356 357 358 358 359 359 359 359 359 359
327 330 331 332 333 334 335 335 336 337 337 338 339 340 340 341 342 343 344 345 345 345 346 346 348 348 349 349 349 349 349 349 349 349 349 349 349 349 348 347 347 347 348 348 350 352 354 354 354 354 355 355 355 356 356 357 358 359 359 359 358 358 358
325 327 329 330 332 333 335 336 336 337 337 337 338 339 340 340 342 342 343 345 345 346 346 347 347 349 348 349 349 349 350 350 350 350 350 350 349 348 348 348 348 348 348 348 350 351 353 353 353 354 353 354 354 355 356 357 357 358 359 359 358 358 357
325 327 328 330 331 333 334 335 336 337 338 338 339 340 340 340 340 342 343 343 345 344 345 346 347 348 348 349 349 350 349 349 349 349 350 349 349 348 348 349 350 348 349 350 349 351 352 352 353 354 354 354 354 354 355 356 357 358 359 358 358 358 358
325 326 328 329 330 332 334 335 336 337 338 338 338 339 339 340 341 341 342 343 344 344 345 345 346 348 349 349 349 349 349 349 349 350 350 349 349 348 348 349 349 350 350 349 350 351 351 352 353 354 354 354 354 354 354 355 356 357 358 358 357 357 357
325 327 328 329 330 331 333 335 336 337 337 337 338 338 339 340 340 341 342 342 343 344 344 346 346 348 349 349 349 349 349 349 349 350 349 348 348 348 348 348 349 351 349 349 350 352 352 352 352 353 354 353 354 354 354 355 355 357 357 357 357 357 357
323 325 328 329 330 331 333 334 336 336 336 337 337 338 339 340 340 341 342 342 343 343 344 345 346 347 348 348 349 349 349 349 349 349 349 348 348 348 348 348 349 351 350 350 350 351 353 353 353 353 353 353 353 353 354 354 355 355 356 357 357 357 357
322 325 327 328 329 330 332 333 334 335 336 337 337 338 339 340 340 341 341 342 343 343 344 345 346 346 347 348 348 348 348 348 349 348 348 348 348 348 348 349 349 350 350 351 350 350 352 353 354 353 353 352 352 352 353 354 354 355 355 356 357 357 357
321 323 325 328 329 330 330 332 335 336 336 337 337 338 339 340 341 341 342 342 343 344 344 345 346 346 346 347 347 347 348 348 348 348 348 348 348 348 348 349 349 349 350 351 351 351 351 352 353 353 353 353 353 353 353 354 354 355 355 355 356 357 357
320 322 325 326 329 330 331 333 334 335 336 337 337 338 339 340 341 341 342 343 343 344 345 345 345 346 346 346 347 347 347 348 348 348 348 348 349 349 349 349 349 349 349 351 351 351 351 351 352 353 354 354 354 354 354 354 354 354 355 355 356 356 356
327 322 324 326 328 329 330 332 334 335 336 337 337 338 339 340 341 342 342 343 344 344 345 345 345 345 346 346 346 346 347 348 348 348 349 349 350 349 349 349 349 350 350 351 351 351 351 351 351 352 354 354 354 354 355 354 354 354 355 355 356 356 356
318 321 323 324 327 329 330 332 334 335 336 337 337 338 338 340 341 342 343 344 345 345 345 346 345 345 345 346 346 346 348 348 349 349 349 350 349 349 349 349 350 350 350 351 351 351 352 352 353 352 352 353 354 354 355 354 354 354 354 354 355 356 355
317 321 322 324 326 328 331 333 334 335 336 337 337 338 338 339 340 341 342 343 344 345 346 347 346 345 345 345 346 347 348 349 349 349 349 349 349 349 349 349 350 350 350 350 350 351 352 352 353 353 352 352 353 354 354 354 354 346 335 339 354 355 355
317 321 322 325 327 329 331 333 334 335 336 337 337 338 339 340 341 342 342 343 344 345 347 347 346 346 346 345 347 348 348 349 349 349 349 349 349 350 350 350 350 350 350 350 350 350 351 351 350 351 353 353 353 353 354 354 353 336 330 331 334 351 355
319 321 323 325 327 329 331 332 334 335 336 336 337 338 339 340 341 341 342 343 344 346 347 347 347 346 347 347 348 348 348 349 349 349 349 349 349 350 350 350 350 350 350 350 350 350 351 350 350 350 351 351 353 353 353 354 339 332 329 329 328 334 354
320 322 324 326 328 330 331 332 334 335 336 337 338 338 340 341 341 341 343 344 345 347 347 347 347 347 347 348 348 349 349 350 349 349 350 350 350 350 350 350 350 350 350 349 350 351 350 350 350 349 350 350 350 350 352 353 337 331 328 328 327 327 338
321 323 325 327 329 330 331 334 335 336 337 338 339 340 341 343 342 343 344 345 347 347 348 348 348 348 348 349 349 350 350 350 350 349 350 350 350 351 350 350 349 350 350 350 351 350 350 350 350 350 350 350 349 350 351 352 337 329 326 326 325 326 330
319 323 325 327 328 330 332 333 335 336 337 338 339 340 341 342 343 344 344 345 346 347 348 349 349 348 349 349 350 350 350 350 350 350 350 351 351 350 350 350 350 350 350 350 350 350 349 349 349 350 350 350 350 350 349 350 334 327 324 323 322 324 327
321 323 324 326 328 330 332 333 334 336 337 340 341 340 340 341 343 343 343 345 345 346 348 349 349 349 350 350 350 351 351 351 350 350 351 351 350 350 350 350 350 350 350 351 350 351 351 351 351 350 350 351 351 350 349 350 331 325 323 321 321 323 336
324 324 325 327 329 330 333 334 335 336 340 339 339 339 340 341 343 343 343 344 345 346 347 348 349 349 350 351 351 352 352 352 351 351 351 351 350 350 350 350 350 351 352 350 350 350 350 350 350 351 350 350 351 350 350 350 337 324 321 320 319 322 341
340 333 331 331 332 333 334 335 337 340 338 338 338 339 340 342 343 343 343 343 344 345 346 347 348 350 351 351 352 353 353 353 353 352 352 352 351 351 351 351 352 351 352 350 350 349 350 350 350 351 351 350 350 350 350 350 341 324 319 318 317 325 343
342 341 337 334 334 334 336 337 338 339 339 338 337 339 341 342 343 342 342 344 344 345 345 347 348 350 350 352 353 354 354 354 354 353 352 352 352 352 352 352 352 353 353 352 352 351 352 351 350 350 351 351 351 342 347 351 343 324 319 317 315 326 345
341 342 344 344 342 342 344 346 344 340 339 338 338 340 342 342 342 344 343 343 344 344 345 347 349 352 352 353 354 355 355 355 355 354 354 353 353 354 353 354 354 354 353 353 353 352 352 352 351 350 350 351 351 351 349 350 352 344 319 316 314 318 344
342 343 343 345 346 351 347 347 346 346 347 349 350 344 341 342 342 344 345 344 343 343 345 347 349 352 354 355 355 355 356 356 356 355 355 355 354 355 355 355 354 354 353 353 353 352 352 352 351 351 350 351 351 351 351 351 351 348 320 314 314 314 324
340 341 343 346 349 347 346 346 347 348 350 352 353 349 346 346 347 348 348 346 347 352 355 356 355 350 351 353 355 356 357 357 357 357 356 356 356 355 355 356 356 355 354 354 353 352 351 352 351 351 351 351 351 351 351 351 341 352 324 316 313 313 314
336 338 339 340 341 344 345 343 343 344 346 348 350 351 351 350 349 349 349 347 349 351 354 357 357 355 351 351 353 355 357 358 358 357 358 357 358 356 355 356 355 355 355 354 353 352 351 351 351 350 350 350 350 351 351 352 350 332 342 318 312 311 311
336 337 339 340 341 341 342 340 341 341 342 343 346 348 349 348 346 347 346 344 347 350 354 356 356 355 352 351 351 353 355 357 359 359 359 359 358 357 356 356 356 355 355 354 353 352 351 351 351 350 349 349 349 349 350 351 352 337 328 332 313 312 311
333 335 337 337 339 340 340 339 338 339 339 340 341 342 344 345 345 345 342 344 348 348 350 353 356 355 348 347 349 351 353 355 357 358 359 359 359 357 356 356 356 354 355 354 353 352 351 351 351 350 349 349 348 349 349 350 350 351 337 324 319 312 311
332 334 336 337 338 339 339 339 338 338 337 337 339 339 341 340 341 340 340 344 348 346 349 353 355 356 355 349 345 347 350 352 354 356 358 359 359 359 358 357 356 354 354 353 353 352 351 351 350 349 349 349 349 349 349 350 351 351 351 335 329 321 314
330 332 332 334 336 338 337 338 337 337 337 336 336 337 338 338 339 340 343 343 342 344 348 354 355 356 354 353 349 347 349 350 351 352 354 356 358 359 359 358 357 355 353 353 353 352 351 351 350 349 349 348 349 350 350 350 352 353 353 348 344 341 335
329 331 333 334 336 337 336 335 335 335 335 334 335 336 337 337 337 337 338 339 340 341 346 352 354 352 351 350 352 348 348 350 355 354 352 354 356 356 357 357 356 355 354 353 353 352 351 351 350 349 349 349 350 351 351 350 352 352 351 347 346 345 342
329 330 332 333 334 337 334 335 335 334 334 334 334 335 335 335 336 337 337 338 339 339 343 348 351 351 348 347 351 349 352 350 354 354 352 343 326 313 311 316 333 353 356 351 353 357 355 353 353 352 353 353 352 351 351 351 348 349 335 349 331 341 342
330 331 333 333 334 334 335 337 335 334 334 333 334 335 335 335 336 337 338 339 339 338 342 346 346 345 346 346 349 351 354 352 354 351 344 335 327 322 317 308 300 303 324 335 320 313 316 332 353 357 357 355 350 339 354 353 353 322 316 315 314 315 319
330 331 332 333 334 334 335 335 337 335 334 333 334 334 334 334 334 335 337 338 339 339 339 339 342 343 344 345 349 351 353 350 346 342 339 335 333 330 327 326 319 300 297 304 305 301 300 311 321 325 333 350 339 313 301 304 301 301 301 301 301 301 302
332 333 333 333 333 333 334 334 333 332 332 332 332 331 332 333 333 333 336 338 340 340 340 340 341 343 345 346 348 349 348 346 342 339 336 335 335 334 333 332 331 325 304 297 300 300 297 295 298 308 320 322 321 318 315 302 298 298 298 298 299 299 298

ECMWFFLT1_sfc_thetae_057.txt.gz
Theta_e
338 338 339 339 339 339 340 341 343 343 345 347 348 348 349 349 350 351 351 352 352 353 354 355 355 356 355 355 356 357 357 356 356 355 355 355 356 357 357 357 358 360 358 359 361 362 365 367 367 367 368 368 367 367 368 369 368 367 369 369 367 367 367
337 338 338 339 339 339 341 342 343 344 345 347 347 349 349 350 351 352 352 354 354 354 354 354 355 355 355 356 356 357 357 357 357 357 356 357 358 359 358 359 358 360 361 361 362 365 366 366 366 366 366 367 366 368 367 368 368 368 367 369 367 366 365
336 337 338 339 339 339 341 342 343 343 345 345 347 347 348 350 352 353 353 353 353 354 355 354 355 355 356 356 356 357 357 357 356 356 355 354 355 354 357 359 359 359 359 362 364 363 365 364 366 366 366 366 365 367 368 368 368 368 368 369 368 365 366
336 337 338 340 341 341 342 342 342 342 343 345 346 348 349 352 353 354 354 353 353 354 354 354 354 354 355 356 356 356 356 357 357 355 354 355 355 356 357 358 359 358 358 359 360 361 362 364 364 365 366 366 366 366 367 366 366 368 368 369 367 366 367
336 338 338 339 340 341 341 341 342 343 342 344 346 349 350 351 351 352 353 353 352 353 353 354 353 354 355 356 355 355 356 356 356 356 356 356 358 358 357 355 356 356 357 358 360 362 363 364 363 363 364 366 365 366 366 367 366 368 368 368 366 366 365
334 336 338 339 340 340 341 341 342 342 342 342 344 347 348 349 350 350 351 353 353 353 355 355 354 355 355 355 355 355 356 357 358 358 357 357 358 356 356 356 356 356 355 357 358 359 361 362 361 362 362 362 362 362 364 365 365 366 367 367 367 366 364
333 336 337 339 339 340 341 341 342 343 343 343 344 346 348 348 348 349 350 351 352 352 352 353 353 354 356 355 355 356 356 356 357 357 357 357 358 357 357 357 358 356 357 359 358 358 359 360 361 362 362 361 362 361 363 365 365 366 367 367 367 367 367
334 335 338 339 339 340 341 342 342 343 343 344 343 344 345 346 347 348 349 350 351 351 352 352 352 355 356 356 356 356 356 356 356 357 357 356 356 356 356 357 357 358 359 358 359 359 357 359 360 361 361 361 362 363 363 365 367 365 366 366 366 366 366
334 337 337 338 339 340 341 342 343 343 343 343 343 343 344 345 346 347 348 349 350 350 351 352 353 354 356 356 356 357 356 356 356 357 357 355 355 355 355 356 357 358 358 356 356 359 358 358 358 361 363 361 362 364 364 365 365 365 365 365 366 366 365
333 336 338 338 339 339 341 342 344 344 344 343 344 344 344 344 346 347 348 349 349 349 351 351 352 353 356 356 355 356 356 357 357 355 355 354 355 355 355 355 356 358 357 356 356 356 358 359 359 361 363 361 362 363 363 363 364 364 365 365 366 366 366
332 337 338 337 338 340 341 342 343 345 345 346 346 344 345 344 345 345 347 348 348 349 351 351 353 353 354 354 354 354 355 355 355 355 355 354 354 355 355 355 355 357 356 356 355 357 358 359 360 361 362 359 360 362 363 363 364 364 363 364 365 365 365
332 336 339 338 339 339 340 342 345 347 348 347 345 344 345 346 345 345 346 348 349 349 350 351 352 353 353 353 353 354 354 355 355 354 354 354 354 355 355 355 355 356 356 356 356 357 357 358 359 359 361 361 361 362 363 364 364 364 364 362 363 364 364
327 333 337 336 339 339 342 345 346 348 349 345 344 344 345 345 345 345 347 348 348 350 350 351 352 353 352 352 352 353 354 354 354 355 355 355 355 356 356 355 355 355 355 356 356 356 356 356 358 359 360 361 361 361 362 363 363 364 364 364 364 364 364
330 328 332 337 338 340 342 344 346 347 347 345 343 344 345 345 345 345 347 347 348 349 350 351 352 353 353 353 353 354 353 354 355 356 356 356 358 357 356 356 356 356 357 357 356 356 356 356 356 358 359 360 361 362 363 363 363 364 365 364 363 363 363
321 324 329 332 338 342 342 341 345 347 346 345 344 344 345 345 345 347 349 348 349 348 349 352 352 352 352 353 353 355 356 356 356 357 358 358 359 358 357 356 357 357 357 358 357 356 356 357 356 357 358 359 360 361 362 361 361 361 363 363 363 363 362
316 319 324 329 335 337 342 341 343 347 348 348 345 345 344 345 346 346 347 347 347 349 350 352 352 353 352 352 354 356 357 357 358 358 359 359 359 359 359 357 357 356 357 357 357 358 358 358 358 357 357 358 359 360 360 360 361 352 338 344 361 363 362
326 321 320 328 335 337 340 342 343 346 347 347 346 346 345 346 347 347 346 347 347 349 350 351 352 352 351 352 354 357 357 359 359 359 358 359 359 359 359 357 357 357 358 357 358 358 359 358 357 357 357 357 357 358 359 359 358 338 332 333 336 356 363
333 327 324 322 327 335 339 340 343 344 345 344 345 346 346 348 346 346 345 347 347 348 349 350 351 350 352 353 355 357 357 357 358 358 358 359 358 359 359 358 357 357 358 357 357 358 358 358 357 358 357 357 357 357 358 359 342 332 330 331 330 337 360
339 334 328 325 325 333 336 337 341 344 343 344 344 344 346 348 346 346 347 348 348 349 349 349 349 351 353 353 355 358 357 358 358 358 358 358 358 359 359 358 358 357 357 356 357 358 358 358 357 357 358 358 358 357 357 358 338 330 329 329 328 328 341
341 340 334 328 325 325 334 340 341 343 344 345 346 345 346 348 346 347 348 349 350 349 350 350 350 351 352 353 355 357 357 358 358 357 357 358 358 358 358 358 357 357 356 356 358 357 358 357 357 358 359 359 358 359 359 359 339 328 326 326 326 327 332
341 343 337 330 329 327 336 343 344 345 345 345 345 347 347 347 348 349 349 350 349 350 352 351 351 352 353 353 356 357 357 357 357 357 358 358 358 358 357 357 357 357 356 356 356 357 357 356 357 357 358 358 358 358 358 357 335 325 324 323 322 325 328
341 343 341 331 332 335 341 339 342 343 345 346 346 345 347 347 348 348 348 350 349 350 352 353 352 352 353 354 354 355 356 356 357 358 358 358 358 357 357 357 358 357 358 357 357 358 358 358 358 357 358 358 358 356 356 357 332 324 322 321 321 323 343
342 345 343 338 335 338 345 344 345 344 348 346 345 346 346 347 347 347 348 348 349 350 350 351 353 353 354 354 354 355 356 357 357 357 358 358 357 357 356 357 358 358 359 358 357 357 357 357 357 359 358 358 358 357 357 357 339 323 320 319 319 324 350
346 346 341 336 340 343 346 346 346 349 345 346 346 346 347 348 347 348 348 348 349 349 349 350 352 353 356 355 356 357 358 358 358 358 357 358 357 357 357 358 359 359 360 357 356 356 357 358 358 359 359 358 357 357 357 357 343 321 318 317 317 329 352
345 347 342 340 339 340 341 346 346 346 347 347 345 347 350 349 348 347 349 349 349 350 349 351 354 356 357 356 358 360 360 360 359 359 358 358 358 358 358 359 359 359 361 359 358 357 359 358 358 358 359 358 358 347 353 358 347 321 319 317 315 330 354
344 346 348 341 342 343 348 352 350 346 345 344 347 349 350 349 349 351 350 349 349 348 350 352 356 358 357 357 359 361 361 360 360 360 359 359 359 360 360 361 360 360 360 359 358 357 358 358 358 357 358 358 358 358 356 356 359 349 318 316 314 318 351
345 347 348 349 348 349 347 348 346 344 344 348 351 348 349 349 349 350 352 351 350 350 351 355 359 360 360 360 360 360 361 361 361 360 360 361 361 361 361 361 360 360 359 357 357 357 358 358 358 357 358 358 360 359 358 358 358 359 317 315 313 314 325
344 346 348 351 353 352 346 344 347 346 345 351 349 348 349 351 353 355 354 352 350 353 354 358 361 361 362 363 360 360 362 362 363 362 361 362 362 362 361 361 361 360 360 358 358 358 358 359 358 358 358 359 359 360 360 356 344 360 324 315 312 312 314
341 342 343 347 348 350 351 350 347 345 347 347 347 349 350 350 354 354 355 352 355 355 359 361 360 362 362 362 362 363 363 364 363 361 360 361 362 362 361 361 361 361 361 360 359 358 358 359 359 358 357 359 359 360 361 362 358 333 351 316 312 311 311
341 342 343 345 346 347 350 351 352 352 349 347 349 352 351 353 356 356 354 356 366 363 364 364 364 364 362 362 362 363 363 364 362 361 361 362 363 362 362 362 362 361 362 361 359 358 358 358 359 358 356 356 357 359 360 362 362 341 330 337 313 312 310
339 340 341 342 343 346 347 348 349 350 351 354 358 358 360 360 357 357 358 363 366 366 365 365 364 362 361 360 361 363 363 363 362 363 363 363 363 363 362 363 363 361 363 363 361 359 358 359 359 357 357 356 357 358 359 361 361 362 343 325 320 313 311
339 341 341 342 343 344 346 346 347 348 348 350 353 358 361 361 360 359 360 361 365 367 368 367 364 363 361 361 362 362 363 363 363 364 363 364 364 363 363 362 361 360 362 361 360 360 360 358 358 358 357 357 358 358 360 361 361 361 361 338 331 323 314
338 339 339 340 341 343 343 344 343 344 345 346 349 350 353 355 357 358 359 360 361 363 367 368 367 366 366 364 361 363 363 363 361 362 363 364 363 364 364 363 364 363 362 362 360 360 359 358 359 357 357 356 357 359 360 361 361 360 360 360 354 350 340
337 338 340 342 342 342 343 343 343 343 343 344 346 348 349 349 350 352 354 356 361 364 366 366 366 366 366 365 364 363 363 362 362 362 362 364 365 364 364 364 365 363 362 361 361 360 359 359 358 358 358 358 359 360 360 359 360 360 359 359 359 356 354
337 338 339 340 341 342 341 341 342 342 342 342 346 347 348 349 350 352 354 355 358 364 367 366 364 365 367 368 367 365 363 362 363 362 362 364 368 346 336 349 365 366 365 365 367 365 362 361 360 360 361 360 360 360 360 361 360 361 340 361 339 353 357
335 337 339 341 342 342 342 341 342 342 342 342 345 346 346 347 349 351 352 355 356 362 365 365 366 366 364 366 368 367 363 362 360 361 361 361 353 341 327 307 299 309 340 362 329 323 321 329 363 368 365 363 364 367 363 362 363 340 324 323 321 319 325
332 335 336 338 338 339 340 341 341 341 340 341 343 343 344 345 346 349 351 354 356 359 363 365 364 364 365 365 366 362 364 362 362 364 363 358 351 346 342 337 327 299 295 303 308 306 310 313 315 317 335 359 364 342 314 313 311 316 314 315 314 313 315
331 334 336 336 336 337 338 339 338 338 339 340 340 340 342 343 344 346 349 353 356 358 360 362 364 364 364 364 363 360 364 364 362 359 356 352 351 349 347 346 343 335 305 296 299 299 295 294 296 303 312 319 336 343 344 312 302 304 306 307 306 305 302

ECMWFFLT1_sfc_thetae_060.txt.gz
Theta_e
342 343 344 346 346 347 348 349 351 351 352 353 354 354 354 355 356 358 358 360 361 362 363 364 362 362 360 359 360 362 362 361 362 360 360 359 358 358 358 357 357 359 356 356 360 360 364 366 364 365 367 368 368 368 369 370 370 366 367 368 367 366 366
338 340 342 344 345 346 349 351 352 351 352 353 354 355 354 355 356 357 358 360 361 362 363 363 363 362 361 361 361 362 362 361 362 361 361 360 361 360 360 361 358 360 361 358 358 364 365 366 366 366 367 368 367 369 367 369 369 368 364 367 366 365 366
335 339 342 344 344 345 348 350 351 352 352 352 353 354 354 356 357 358 358 359 361 362 363 363 364 362 363 361 361 362 362 362 362 361 360 358 360 357 360 362 361 359 361 361 361 362 366 366 369 368 367 365 362 366 368 368 369 367 367 367 366 364 366
333 337 341 344 346 348 348 349 350 351 352 352 353 354 355 357 358 358 359 359 360 361 362 362 362 362 362 362 362 363 363 363 363 361 360 359 360 360 360 361 362 359 359 360 359 360 361 366 367 369 369 366 365 365 365 366 364 367 367 368 364 365 366
332 335 339 342 344 346 347 348 349 351 351 352 354 356 356 356 357 357 358 359 359 360 360 361 360 361 362 363 362 362 363 363 363 362 362 361 362 362 360 359 360 359 357 359 362 363 364 365 365 366 368 369 366 366 366 367 366 367 367 367 365 363 363
331 335 338 341 344 345 347 348 348 349 350 351 352 354 355 355 356 355 357 358 358 359 361 362 361 361 361 361 362 362 364 364 363 364 363 363 362 361 361 360 359 360 356 359 361 362 364 364 363 363 364 365 364 360 362 364 364 363 365 366 365 362 360
331 335 339 341 344 345 346 347 348 349 351 351 352 354 355 354 354 355 356 357 357 358 358 359 359 360 361 362 362 363 363 363 364 364 363 362 362 362 362 362 362 361 361 362 361 362 363 365 365 364 364 364 364 361 362 366 364 363 365 366 366 365 365
331 335 341 343 344 345 346 348 348 349 350 351 351 352 353 353 354 354 355 356 356 357 357 357 358 359 361 362 361 361 363 363 363 364 363 362 362 362 362 362 363 363 363 360 363 363 362 365 364 364 364 363 364 366 364 365 368 363 363 364 365 365 362
331 337 341 342 344 344 346 348 349 349 350 350 351 351 352 353 352 353 355 355 356 355 356 356 357 358 361 361 362 362 362 362 363 363 363 361 360 360 360 362 363 363 362 360 360 364 363 363 363 365 366 365 365 367 366 367 367 367 364 364 365 366 362
331 337 344 344 344 344 346 348 350 351 350 350 350 351 352 352 353 354 354 355 355 354 355 356 357 358 360 361 361 362 362 362 362 361 361 359 359 359 361 360 361 362 362 361 360 361 364 364 364 365 367 366 366 366 368 367 366 367 365 365 366 366 366
328 338 344 343 344 345 347 348 349 350 350 352 351 350 352 352 352 353 353 354 354 354 355 356 358 358 359 360 359 360 361 361 360 361 361 360 358 359 360 359 359 362 362 361 360 360 363 364 365 366 366 365 366 366 367 367 368 367 363 363 365 366 364
336 338 345 347 345 345 345 348 350 352 353 352 350 349 351 353 352 352 353 354 354 355 355 356 357 357 358 359 359 359 360 360 360 360 360 360 359 359 359 359 359 360 362 362 361 360 361 363 363 363 366 367 367 367 368 369 369 368 366 361 362 364 364
329 337 342 345 347 346 349 352 352 352 353 351 350 350 350 351 352 352 353 354 354 355 355 357 357 358 358 359 359 359 359 359 360 360 359 360 359 359 359 359 358 359 360 362 361 360 359 361 364 364 365 367 368 366 368 369 368 369 369 366 364 364 365
336 329 335 340 344 345 346 350 352 353 353 351 350 350 350 351 351 352 353 353 354 355 355 356 357 358 358 359 359 360 358 360 361 361 361 362 363 362 360 360 359 360 361 363 362 360 359 358 360 364 364 366 367 367 368 369 369 369 370 369 366 363 364
324 323 327 333 342 346 347 347 352 354 353 352 351 350 350 350 351 353 354 355 355 354 355 357 357 357 357 359 360 361 361 362 362 363 363 364 365 364 362 361 361 361 362 364 363 360 359 359 359 362 364 365 366 367 366 366 367 367 368 368 368 366 362
329 325 323 327 336 343 348 349 353 356 356 355 351 351 349 350 352 351 352 352 353 354 355 356 357 357 357 358 360 361 363 363 364 364 364 364 365 365 364 362 363 361 362 363 363 364 363 363 362 361 362 363 365 366 365 365 366 359 343 351 367 367 362
330 333 333 329 332 338 345 349 351 356 356 355 353 351 350 351 351 351 351 352 353 354 355 356 357 357 357 358 361 362 363 364 364 365 365 365 366 366 365 364 363 363 364 364 364 365 366 364 362 361 361 362 364 364 364 364 363 342 334 337 343 364 368
338 342 343 342 341 335 339 345 347 351 354 353 351 351 351 352 351 351 350 352 352 353 354 355 356 356 359 359 362 363 364 363 365 365 365 366 366 367 367 365 364 364 365 364 363 365 365 363 363 364 362 361 363 363 364 364 348 332 332 334 334 344 365
341 342 345 348 349 349 340 336 343 349 351 351 351 350 351 353 351 351 352 352 353 354 354 354 355 358 360 359 361 364 365 365 365 365 366 366 367 368 367 366 364 364 363 362 365 365 365 365 364 364 364 362 363 362 363 364 341 330 329 331 332 333 347
342 344 346 347 349 350 351 347 340 344 349 352 352 350 352 354 352 353 353 353 355 354 355 355 356 358 359 360 362 365 365 365 366 365 366 367 367 368 367 365 364 363 363 364 365 365 365 364 365 365 366 365 364 364 364 364 339 328 326 328 328 330 337
343 345 346 348 350 351 354 353 347 342 346 348 349 351 352 353 353 354 353 354 353 354 356 355 357 358 359 360 362 365 365 365 366 366 367 367 367 367 366 366 366 364 363 363 363 364 364 364 365 365 366 365 364 364 362 363 332 325 324 324 324 326 332
342 344 345 348 350 351 354 353 347 339 342 351 349 349 350 351 353 352 352 353 353 353 354 356 357 357 359 360 362 364 365 365 366 366 366 367 366 366 365 366 366 365 364 364 363 365 365 366 365 365 365 366 365 363 362 363 329 323 322 322 322 325 349
343 345 347 349 350 351 354 355 349 340 344 349 348 346 349 351 352 352 351 351 352 353 353 354 356 358 359 359 361 363 364 364 365 365 365 365 365 364 364 364 365 366 366 364 363 362 363 365 364 366 364 365 365 364 365 364 340 321 319 319 319 327 356
345 346 348 349 353 354 352 348 345 342 343 349 348 347 350 351 352 352 352 351 352 352 352 353 355 358 360 360 362 363 365 365 365 364 364 365 364 364 364 365 366 366 366 363 363 361 362 364 364 365 365 364 364 364 364 364 344 319 318 317 317 333 358
345 346 348 349 351 352 346 345 345 342 345 349 347 348 350 351 352 350 351 352 351 352 352 354 356 358 360 361 362 365 365 365 365 364 364 364 365 364 364 365 365 366 367 365 364 362 364 364 364 364 365 364 363 353 359 364 348 318 319 316 316 334 360
344 346 348 350 353 354 350 350 350 344 344 348 349 348 352 351 351 353 352 352 352 351 352 355 358 361 362 362 364 365 366 365 365 365 364 364 365 366 366 367 366 366 365 365 364 362 362 362 363 362 363 363 363 363 362 362 366 344 316 316 314 320 359
347 347 348 350 351 356 351 348 348 345 347 348 351 349 351 351 351 352 355 354 354 352 353 357 361 363 364 364 363 364 366 365 365 364 365 366 366 366 366 366 365 365 365 363 362 362 363 362 362 361 363 363 365 365 363 364 364 362 315 315 313 316 329
346 347 349 352 353 353 350 349 349 348 345 350 350 352 352 352 352 354 356 354 353 355 356 359 363 364 365 364 364 365 366 366 367 366 365 366 367 366 365 366 366 366 365 362 363 364 364 365 363 362 362 364 364 366 366 363 352 369 321 315 313 314 316
345 346 346 349 353 353 352 348 347 345 347 350 351 350 351 351 355 355 356 354 357 357 359 361 364 365 365 365 364 366 367 367 366 364 362 363 366 366 365 366 366 366 367 366 364 364 363 364 364 363 362 364 365 366 367 369 365 338 347 316 313 311 313
345 346 346 347 349 352 354 353 349 347 349 351 352 353 353 354 355 358 357 357 361 360 361 363 366 368 367 365 365 366 367 367 365 365 364 365 366 366 366 365 365 365 366 366 364 362 362 362 362 362 360 360 360 362 364 368 369 345 334 333 311 312 311
342 344 345 347 347 351 353 354 354 348 351 353 354 355 357 358 360 361 359 362 364 363 363 366 367 366 366 364 364 367 368 367 366 366 365 365 365 366 365 367 366 364 367 367 364 363 363 363 363 361 360 359 359 361 363 365 365 369 347 327 316 312 311
341 343 343 345 347 349 351 352 355 358 359 354 355 356 360 361 364 363 362 364 364 364 366 368 368 367 366 366 367 367 367 367 365 366 365 365 365 366 367 366 365 364 365 365 364 364 363 362 361 361 362 359 361 361 363 365 368 369 368 339 327 320 313
340 341 341 342 345 348 350 349 350 354 358 359 362 360 358 361 363 365 365 369 364 365 371 370 368 365 366 366 364 367 366 366 363 362 363 365 364 366 367 366 367 366 365 366 365 364 362 363 363 361 359 360 361 363 363 366 367 368 369 365 355 349 337
340 340 341 342 343 344 346 348 350 351 353 355 358 362 364 365 364 368 370 367 365 365 370 369 367 365 366 365 365 364 366 365 363 362 362 364 365 364 365 367 367 366 365 365 366 365 363 363 361 360 361 360 362 363 364 365 367 369 369 368 365 362 357
339 339 340 341 341 341 341 343 346 349 350 351 354 359 361 364 364 368 370 367 367 369 368 365 364 365 366 365 365 366 367 366 366 364 363 364 367 366 375 373 368 367 368 369 371 369 367 365 363 363 364 363 364 363 365 367 366 369 348 378 347 363 364
335 336 336 339 340 340 342 343 343 345 347 349 351 353 356 359 362 365 367 370 372 371 369 370 368 367 366 365 364 365 365 365 364 364 362 364 365 369 343 307 300 316 346 363 326 309 305 319 362 366 374 367 369 372 369 370 370 333 329 330 325 328 320
330 331 332 336 336 337 339 340 342 344 346 348 351 352 354 356 358 360 363 366 368 368 369 370 365 363 365 366 365 362 365 364 364 366 366 365 366 368 358 348 333 299 296 307 314 304 296 294 294 299 309 342 368 356 311 314 309 310 315 316 315 311 305
328 329 331 333 334 335 336 338 339 341 343 347 348 350 352 354 356 358 360 365 367 369 369 369 366 363 360 364 365 368 369 365 364 366 366 365 366 369 364 362 356 344 305 296 301 300 296 296 295 294 297 299 312 348 357 316 301 302 304 306 306 304 300

ECMWFFLT1_sfc_thetae_063.txt.gz
Theta_e
337 336 341 343 345 346 345 346 347 348 351 353 354 354 354 356 358 359 360 362 363 364 364 366 366 366 365 365 364 365 363 362 361 358 355 354 353 354 355 354 354 353 348 349 356 356 360 362 358 359 362 365 366 365 367 369 368 365 367 368 367 366 364
337 335 336 342 344 347 349 351 354 352 353 354 354 355 355 356 358 359 360 363 364 364 365 365 366 365 366 366 364 366 365 363 363 361 359 358 358 356 355 357 355 356 355 349 352 359 360 360 361 360 359 362 365 367 365 367 369 367 364 366 365 366 365
335 336 337 343 343 344 346 348 350 352 355 354 355 354 355 358 359 361 361 362 364 366 366 366 367 367 367 367 366 366 365 364 363 361 359 356 357 353 355 357 357 355 355 353 353 354 359 360 364 363 361 360 359 364 366 366 368 366 366 366 365 363 366
336 337 338 340 342 345 347 344 347 354 355 356 356 356 357 359 360 361 361 363 363 364 365 367 366 366 366 366 365 366 366 366 365 363 360 357 357 356 355 357 358 357 355 355 351 351 353 359 361 364 364 362 361 361 364 364 363 366 366 366 364 363 365
335 338 339 337 340 343 344 349 351 356 355 355 357 359 359 359 359 360 362 363 363 364 366 365 365 365 366 365 364 364 365 365 364 363 362 359 359 359 356 353 355 356 354 356 357 355 357 359 359 362 364 365 363 363 362 362 362 364 366 366 364 362 361
331 335 338 339 340 344 346 343 344 349 353 354 356 358 358 358 358 359 360 362 363 365 367 367 365 365 364 364 363 362 364 364 366 366 363 361 358 357 356 355 354 357 353 354 356 356 356 355 358 361 363 363 360 357 359 362 362 362 364 365 365 361 358
329 334 336 340 340 342 341 341 343 348 354 355 356 358 358 357 357 358 359 360 362 363 364 364 363 363 364 364 362 363 362 362 364 364 363 360 358 358 360 359 358 357 357 356 356 357 357 358 358 361 362 360 361 356 359 363 363 362 363 365 365 364 363
329 331 335 337 340 339 340 343 348 349 351 350 356 356 356 356 357 357 358 359 360 361 362 362 361 362 364 363 362 362 362 363 364 365 364 362 359 359 359 360 359 360 360 355 357 357 357 361 360 360 360 361 361 362 357 363 365 360 360 362 364 364 361
329 332 333 336 339 336 338 343 345 348 349 351 352 356 356 357 356 356 357 358 359 359 360 361 359 361 364 363 363 363 363 363 364 366 364 362 360 358 358 359 361 361 360 356 355 358 358 360 362 364 362 362 362 364 361 364 361 363 361 362 363 363 361
330 332 336 337 338 338 339 337 345 350 351 353 354 356 356 356 357 357 356 357 358 357 358 358 358 359 362 362 362 363 363 364 365 364 362 360 360 359 357 358 359 361 358 358 355 356 360 361 363 365 366 361 362 363 365 364 363 364 362 361 362 363 364
328 335 336 337 338 341 342 339 345 351 351 351 355 355 357 356 356 356 356 356 357 356 357 358 358 357 361 361 360 361 363 362 362 362 361 360 359 358 358 356 358 360 359 359 356 355 359 362 364 366 366 362 362 363 365 365 365 366 363 361 361 362 363
329 332 338 339 338 338 339 345 348 352 352 353 354 354 357 358 357 356 356 357 357 356 356 356 356 357 360 361 359 360 361 361 360 361 361 360 358 357 358 356 356 358 361 361 359 357 355 361 362 363 365 366 364 364 366 367 368 368 365 360 360 361 362
330 333 338 338 339 339 348 349 350 349 357 354 354 354 355 356 356 356 358 357 357 357 356 356 356 357 359 360 358 359 359 360 360 360 360 360 358 357 357 357 355 355 358 360 359 357 355 357 362 363 364 367 366 364 366 367 367 368 368 364 362 361 362
338 333 338 341 342 343 346 351 352 356 355 353 353 354 355 356 356 356 357 357 357 357 356 356 356 357 358 360 359 359 358 360 360 360 361 361 363 360 357 357 355 354 356 360 359 357 355 354 359 362 362 366 367 367 367 368 367 368 369 368 362 359 360
325 327 332 335 344 345 349 347 354 355 354 354 354 353 354 355 356 357 358 359 358 357 357 358 356 356 357 359 360 361 361 362 361 360 362 363 366 364 360 357 356 356 357 359 360 358 356 355 355 361 362 364 366 367 366 366 366 366 367 368 365 360 357
324 324 324 327 335 342 347 349 352 357 357 358 354 354 352 354 356 356 356 357 357 358 358 358 357 357 357 358 360 362 364 366 366 364 364 364 367 367 364 358 358 355 356 357 359 360 360 360 357 357 360 361 364 366 365 364 366 361 347 354 366 363 356
329 331 332 334 334 338 344 346 350 356 359 359 357 355 353 354 356 356 356 357 357 358 358 358 358 358 358 359 362 364 365 365 366 368 367 368 368 367 365 363 360 360 362 361 361 364 366 360 356 354 356 360 362 363 364 363 362 346 337 340 348 364 363
331 332 332 335 336 339 342 342 346 351 356 357 356 355 354 355 354 355 354 356 356 356 357 358 358 358 360 361 364 366 366 364 367 368 368 369 368 368 368 363 361 364 364 360 360 366 362 359 359 360 356 357 360 362 363 363 350 334 335 337 338 350 367
332 333 333 337 338 341 342 343 341 349 352 355 355 354 353 355 353 355 355 356 357 357 356 357 358 360 363 362 364 367 367 369 367 367 366 368 368 369 368 368 366 362 360 358 362 364 366 367 361 361 359 357 361 360 361 362 342 331 332 334 335 336 352
334 334 335 337 337 340 347 350 352 354 347 355 358 355 354 356 353 355 356 356 357 357 358 358 359 360 360 363 366 367 368 368 368 367 368 369 369 370 369 367 366 362 361 362 364 365 366 364 364 364 366 363 362 366 362 364 338 329 328 331 331 334 341
334 338 341 342 342 344 351 355 355 358 357 354 350 355 356 353 354 356 355 355 355 357 361 358 359 360 361 362 365 367 368 368 368 368 369 370 370 370 369 368 366 364 363 363 363 365 366 365 364 365 366 364 362 362 362 361 331 326 325 326 327 330 336
338 340 341 344 346 348 352 352 355 355 357 359 355 348 354 353 354 354 354 354 355 355 356 358 360 359 361 362 364 366 368 368 368 369 370 370 370 369 369 369 368 367 366 365 363 366 367 368 366 365 366 366 365 361 361 362 324 325 324 324 325 328 353
334 337 339 343 345 347 353 355 354 356 359 358 357 352 347 352 352 352 353 353 353 355 355 357 359 359 362 362 363 366 368 368 368 369 370 370 369 369 369 368 369 369 368 365 364 364 365 367 366 368 366 366 367 364 362 362 334 322 321 322 322 330 359
334 337 340 343 347 348 353 354 354 356 356 356 354 354 351 352 352 352 353 353 353 354 354 354 357 360 364 363 364 367 369 369 370 369 369 370 369 368 368 370 371 369 368 366 365 363 365 366 367 367 367 366 366 365 365 363 344 317 319 319 319 336 361
331 335 339 344 346 347 350 353 356 357 358 356 349 350 350 352 352 350 352 354 352 353 354 355 357 360 362 363 365 368 370 370 370 369 369 370 369 369 369 370 370 370 370 367 366 364 366 366 366 366 367 365 366 359 362 364 347 316 319 317 317 338 364
329 332 337 343 347 350 352 356 356 355 354 351 350 348 349 350 352 354 353 352 352 352 354 356 359 362 364 365 367 369 371 370 371 371 369 370 370 371 371 371 371 371 370 368 366 364 363 364 365 365 366 365 365 366 365 364 364 337 316 316 315 323 362
329 333 338 344 347 351 351 352 353 352 351 352 353 347 346 349 351 353 355 355 355 354 354 357 361 364 367 367 366 368 371 370 371 369 370 372 371 371 371 370 370 369 369 366 364 363 363 363 364 363 365 365 367 364 364 365 367 347 314 315 314 318 334
328 332 337 342 349 350 350 351 354 354 353 353 350 347 348 352 356 358 363 358 354 356 357 359 365 364 366 367 367 368 371 371 372 371 370 371 371 370 369 370 369 369 368 366 366 366 365 365 365 362 362 365 365 366 366 365 355 367 317 316 313 316 320
325 328 332 339 349 350 349 350 351 352 352 350 348 347 349 351 359 363 362 356 360 358 361 362 362 365 367 368 367 370 370 371 371 369 367 368 370 370 368 369 368 369 370 368 367 366 364 366 365 363 362 364 364 365 367 371 370 345 337 315 313 313 315
323 326 331 340 349 351 351 350 352 353 353 350 351 353 353 355 364 363 360 360 366 362 364 365 367 369 368 367 367 368 370 370 369 368 368 368 370 370 369 368 368 369 369 368 365 363 363 364 365 364 361 360 361 362 364 369 370 344 331 327 312 313 313
320 325 329 342 348 352 353 352 353 351 352 350 353 355 358 358 364 365 362 366 369 374 368 368 367 366 366 366 366 369 370 370 369 369 367 368 369 369 367 368 367 365 368 369 366 364 363 364 364 363 362 361 362 363 363 366 368 370 341 323 315 313 312
321 327 330 344 350 352 353 354 356 358 361 356 355 355 360 358 360 363 364 364 367 368 368 367 367 367 367 367 367 369 369 369 368 367 365 368 369 369 369 367 366 365 367 366 365 364 364 364 361 361 362 361 362 362 363 364 365 367 363 333 323 319 314
321 324 331 342 346 349 353 355 355 357 359 357 357 355 354 356 357 363 367 368 363 362 370 369 368 367 368 367 367 369 369 367 364 364 364 366 367 368 368 367 367 367 366 365 364 363 363 363 362 360 359 359 360 362 363 363 364 365 365 357 347 342 333
319 323 337 342 345 349 353 353 355 355 357 359 363 367 359 357 361 364 365 363 362 362 369 370 369 368 369 367 367 368 368 367 366 364 362 363 365 364 366 367 367 365 364 365 362 362 362 362 360 358 359 360 360 362 362 362 363 365 365 365 358 355 349
320 326 340 340 342 345 348 351 352 354 354 355 361 365 366 363 364 363 366 367 365 371 370 369 367 369 370 368 369 368 369 368 366 364 362 363 364 368 380 373 366 365 366 368 368 366 365 363 361 361 363 363 362 361 361 363 362 365 346 374 343 356 359
321 329 337 340 342 342 345 349 350 351 352 355 359 360 363 365 368 368 365 367 369 372 370 370 368 369 369 368 368 367 366 366 363 363 361 362 361 357 336 307 299 312 361 361 321 309 308 332 368 369 373 369 370 375 368 365 368 333 328 327 326 328 331
321 326 331 338 339 339 340 343 348 349 351 354 356 357 358 360 364 366 369 370 370 370 370 369 367 366 367 366 364 361 364 363 363 363 365 365 362 363 355 349 336 301 296 307 309 302 297 297 299 304 313 364 371 341 314 319 315 314 312 307 307 311 315
322 326 331 336 336 338 339 341 342 345 348 353 354 355 356 358 360 362 363 367 369 370 369 369 366 365 363 364 364 368 369 364 367 366 365 365 366 368 362 359 352 341 306 297 301 300 296 295 295 296 301 303 330 356 352 317 307 306 305 303 303 306 308

ECMWFFLT1_sfc_thetae_066.txt.gz
Theta_e
340 340 342 342 341 341 343 345 346 344 346 348 351 350 350 351 354 355 355 358 360 361 362 362 362 362 359 357 359 358 356 354 354 353 352 352 350 353 358 355 356 358 356 356 358 359 363 364 368 362 365 368 367 369 374 373 373 369 374 370 369 371 368
336 337 339 343 344 345 345 347 348 347 348 351 352 353 351 352 354 355 356 359 361 361 362 362 363 362 361 358 359 359 357 356 354 355 353 354 354 355 359 359 358 359 358 355 360 361 364 362 365 366 365 367 366 370 368 372 371 371 368 371 370 372 370
335 335 340 343 343 343 347 346 348 348 348 348 348 349 350 353 355 356 358 359 361 362 362 363 364 364 362 362 360 359 358 357 355 355 351 351 352 347 354 360 359 358 356 356 362 361 360 362 363 367 365 363 362 369 369 370 371 369 370 372 368 366 371
336 337 338 341 345 346 346 346 345 346 347 345 346 349 352 354 355 357 359 359 360 361 361 362 363 362 363 363 361 361 360 358 356 353 350 349 351 349 350 356 359 355 356 353 350 353 354 359 362 364 368 365 365 366 365 365 365 369 369 370 369 368 370
334 335 336 340 340 341 344 346 349 352 353 348 349 353 354 355 354 355 357 358 360 360 361 361 362 363 364 363 359 360 361 359 358 355 352 351 353 351 350 348 353 353 354 354 354 353 360 361 360 362 363 366 364 365 365 366 366 369 368 369 367 366 366
333 334 338 340 342 345 345 344 347 350 350 349 349 352 354 353 353 353 354 358 360 361 362 362 361 362 362 362 361 362 362 361 360 360 356 355 356 352 350 351 350 352 350 354 355 353 354 362 358 361 360 360 358 358 359 363 362 365 367 367 365 363 361
334 334 337 341 342 341 344 348 349 348 349 349 353 356 355 354 353 355 356 359 360 360 361 362 361 360 363 364 363 363 362 360 361 358 359 356 357 355 353 352 352 352 352 355 354 355 352 354 358 360 361 360 360 357 358 362 362 362 365 365 366 367 366
336 336 338 341 339 341 345 346 346 347 348 352 352 352 352 352 355 356 355 355 359 359 359 361 362 362 364 364 362 361 361 361 359 359 359 356 354 354 355 354 353 354 355 353 355 356 353 354 354 359 360 360 363 362 361 363 365 361 363 364 365 365 361
332 335 334 343 343 342 343 344 345 347 351 351 349 350 350 351 351 351 352 355 358 360 360 361 363 363 365 363 361 362 362 361 361 360 359 357 355 352 352 354 354 355 355 352 351 356 355 356 352 356 361 360 363 364 361 365 363 362 362 363 364 363 361
330 333 335 338 342 341 343 345 347 349 350 350 351 351 350 350 351 351 351 355 358 359 360 361 363 363 364 362 359 360 362 362 362 360 359 357 357 354 352 353 352 354 353 352 352 352 356 357 356 357 360 361 363 365 362 363 362 361 361 363 364 364 364
328 335 337 338 340 342 343 342 346 350 350 352 351 350 352 352 352 353 353 354 355 356 361 362 362 363 363 361 359 359 361 359 359 359 358 357 356 354 353 352 353 353 351 351 351 351 353 357 360 361 362 359 361 364 363 362 362 361 359 361 363 364 363
336 335 335 338 340 340 340 342 346 349 350 351 353 352 352 352 353 353 352 352 355 357 362 361 363 362 363 361 359 359 359 358 357 358 358 356 355 353 352 352 353 354 355 353 353 352 352 355 356 360 363 361 360 362 364 364 364 363 361 359 360 362 362
330 336 338 337 341 340 342 346 348 349 352 351 350 350 351 353 353 352 354 354 354 355 358 362 363 362 361 360 358 357 357 357 358 358 358 356 355 354 353 351 351 354 355 355 355 352 349 352 356 358 363 364 363 361 363 364 364 365 365 363 362 362 361
339 334 335 339 341 341 345 347 348 351 355 353 349 349 350 352 351 351 352 352 355 354 355 359 361 361 361 360 358 358 357 359 357 358 359 359 358 357 355 354 352 353 356 358 356 353 349 350 355 358 360 364 364 363 364 365 365 366 367 366 364 362 361
328 328 332 335 343 350 352 353 355 355 353 351 349 349 350 352 352 353 354 353 353 355 354 358 360 359 359 360 359 360 360 360 360 361 362 362 361 359 358 356 355 355 357 359 356 354 352 351 354 357 358 361 364 364 363 363 364 365 366 365 364 361 359
328 327 331 333 340 348 355 354 356 356 355 354 350 350 349 352 355 355 355 355 354 356 354 357 359 358 358 359 360 361 361 362 362 361 362 362 362 361 360 357 357 354 356 359 358 359 359 355 354 357 358 359 363 364 363 362 363 357 347 353 363 362 356
330 329 330 335 342 340 347 350 353 360 356 354 353 350 349 355 354 355 355 354 355 354 354 354 357 357 357 359 360 362 362 363 363 363 362 363 364 363 362 360 358 357 357 358 360 359 361 359 355 353 357 358 359 361 362 361 360 345 337 340 348 360 359
328 331 331 334 335 338 340 340 347 350 350 355 354 354 354 356 354 353 351 354 355 354 352 353 355 355 357 360 363 364 363 362 363 363 362 364 364 363 363 361 360 358 358 356 358 360 361 359 358 356 355 358 359 359 362 363 350 335 334 336 338 349 362
328 330 333 336 336 338 336 341 344 350 346 347 347 344 349 356 357 350 353 355 355 356 353 352 353 357 358 360 363 364 364 363 363 363 362 363 365 365 363 361 361 359 358 356 357 360 360 359 358 358 356 357 359 358 361 362 345 331 332 334 335 337 354
331 332 339 341 338 336 336 341 345 349 352 355 353 347 348 352 349 349 350 351 356 356 355 354 356 357 358 360 364 365 365 364 364 363 363 364 365 365 363 361 360 359 358 357 358 360 360 359 359 359 359 358 360 360 360 361 343 328 329 331 332 334 342
331 333 334 338 341 342 344 345 349 349 349 346 349 353 349 346 345 347 357 358 356 355 359 358 359 358 358 360 364 366 366 365 365 364 364 364 365 365 363 361 360 360 357 356 356 359 361 358 358 359 360 358 358 363 360 359 335 325 325 327 328 331 338
329 331 332 335 337 341 345 343 345 346 350 356 353 354 351 344 345 345 349 350 349 355 356 358 360 358 359 361 365 366 366 365 365 365 365 365 365 364 363 362 361 360 360 358 356 358 362 362 360 360 360 361 358 357 360 357 328 325 324 325 326 330 350
328 329 331 334 336 338 343 346 347 347 352 351 350 351 350 350 346 346 346 347 348 353 352 353 356 360 360 361 364 366 367 366 365 366 365 365 364 363 363 363 362 362 362 359 358 358 359 362 360 363 362 361 361 358 358 361 331 322 322 323 324 331 356
327 329 330 332 335 338 342 345 346 348 348 349 352 352 351 347 346 343 346 346 347 348 348 350 353 361 362 361 363 366 367 367 367 366 366 365 364 364 364 364 364 362 363 360 359 359 359 362 363 363 362 360 360 361 361 360 340 317 319 320 320 336 358
324 326 328 331 333 335 339 344 349 350 351 352 351 353 356 351 346 344 346 348 346 346 346 350 353 360 363 363 364 367 368 368 368 367 366 366 365 365 365 366 365 364 364 362 362 360 363 363 363 363 363 360 361 355 360 360 345 313 319 317 317 336 360
322 324 326 329 332 335 338 344 348 350 350 349 352 353 356 357 350 346 345 346 345 344 344 348 355 361 364 364 366 369 370 370 369 368 367 367 368 369 370 370 368 365 363 362 360 360 361 362 362 363 363 361 361 364 363 361 361 330 316 315 316 325 360
321 323 325 327 329 334 335 340 345 348 348 350 357 355 356 354 349 349 348 348 348 347 347 349 356 363 367 366 365 369 371 370 370 369 370 371 370 371 371 371 368 367 364 360 359 359 360 362 361 361 364 363 364 363 363 363 364 340 313 314 315 319 336
319 321 323 326 328 330 333 338 343 348 350 352 353 354 355 356 355 354 354 349 348 351 352 356 363 364 366 367 365 368 371 371 372 371 370 372 372 370 369 370 368 367 365 360 361 361 362 361 361 361 362 364 365 364 364 363 353 353 316 315 314 317 324
317 317 319 322 325 328 331 335 340 347 349 351 352 353 355 353 354 353 356 353 351 353 356 360 364 365 367 368 366 368 371 371 372 369 368 368 371 369 368 370 369 369 368 366 364 363 362 362 362 361 361 363 364 364 366 368 363 340 332 314 313 314 318
317 317 318 321 323 326 330 333 342 348 351 352 355 358 360 359 356 353 356 361 360 358 361 367 368 367 367 366 366 368 371 371 369 369 367 369 370 370 368 369 368 369 369 368 365 362 361 362 362 361 359 359 361 362 364 369 370 340 328 324 312 313 315
316 316 317 318 321 325 329 337 346 349 351 354 357 364 368 365 359 359 361 365 365 363 367 369 368 366 366 366 367 369 372 371 370 369 369 369 369 368 368 368 368 367 369 368 366 363 362 362 362 360 359 358 359 361 363 366 368 358 333 321 315 314 313
317 317 318 319 322 326 330 341 347 350 352 357 362 366 369 367 362 363 368 370 367 366 372 370 367 365 367 366 367 368 370 369 368 368 368 368 368 368 369 367 366 366 368 367 364 364 363 362 361 361 360 360 361 361 362 365 365 365 346 326 321 318 315
316 316 316 318 322 325 333 343 346 350 353 357 361 363 367 370 362 371 375 372 368 367 374 370 367 364 366 367 366 368 369 368 365 365 366 366 366 367 368 367 367 366 365 366 364 363 363 363 361 361 360 359 358 360 361 362 364 367 355 341 337 332 330
316 317 319 320 323 329 338 343 346 349 352 354 359 362 366 369 369 371 372 367 363 369 374 369 366 365 366 366 365 365 367 367 364 363 363 364 366 365 365 367 366 365 366 364 364 361 360 361 360 359 360 359 358 360 361 361 362 363 365 351 346 342 341
318 319 319 320 324 329 337 341 344 349 351 354 358 361 363 369 369 369 370 372 365 375 371 368 363 366 368 366 366 366 365 367 366 365 364 363 367 368 377 370 366 365 366 367 369 365 361 360 360 361 361 361 360 359 359 360 360 361 344 359 336 346 348
318 319 319 321 326 330 335 339 341 347 350 353 357 359 361 362 369 371 368 377 373 378 370 368 367 367 367 366 366 366 365 366 365 366 363 362 361 344 328 308 299 310 366 365 336 326 329 339 362 365 364 363 364 364 361 360 362 340 330 324 322 323 326
318 318 320 322 325 328 334 335 338 343 349 353 354 356 359 362 363 365 367 372 376 378 372 371 366 365 365 365 364 362 364 364 364 364 364 362 359 351 346 343 333 303 296 305 313 307 301 306 316 327 336 363 366 346 319 333 335 324 321 313 317 317 317
320 321 323 324 325 329 332 331 333 336 346 351 352 352 353 358 360 360 360 365 367 374 376 371 368 365 364 365 364 361 362 365 364 363 364 364 362 357 354 352 347 338 308 298 301 300 297 297 297 300 307 320 343 355 353 322 312 310 311 311 313 314 312

ECMWFFLT1_sfc_thetae_069.txt.gz
Theta_e
335 337 337 341 342 342 342 342 341 340 341 343 344 345 347 348 349 349 351 350 349 350 350 353 352 349 347 347 348 346 345 346 345 344 345 344 345 341 343 343 347 347 351 351 352 354 354 355 354 358 358 359 357 362 360 362 361 363 359 362 363 366 360
334 335 336 340 341 342 342 342 341 341 342 343 345 345 347 347 349 349 350 352 350 351 351 352 353 350 348 347 348 347 345 345 346 346 344 345 348 344 345 344 344 349 350 353 351 352 355 355 354 356 358 360 358 359 363 361 361 361 361 360 358 358 360
334 334 336 339 341 341 341 341 341 342 342 344 345 345 346 347 348 350 351 352 351 351 352 351 354 352 349 348 348 348 346 345 345 345 342 343 344 347 348 346 345 348 350 352 353 353 355 352 355 355 358 358 358 359 362 362 361 361 360 361 360 359 357
335 336 338 340 341 341 341 341 341 342 344 345 346 346 347 347 348 350 352 353 352 353 352 351 353 353 351 349 348 348 347 345 345 345 343 343 343 347 350 349 348 349 350 350 354 354 353 353 350 357 363 357 358 359 361 362 361 361 361 361 358 360 359
336 338 339 340 340 340 340 341 341 342 343 345 347 348 347 349 349 350 352 354 354 353 354 353 353 354 353 351 350 350 349 346 345 344 344 343 344 343 349 350 350 350 350 350 350 354 351 353 351 353 359 357 357 359 360 360 361 361 360 361 358 358 359
335 337 338 339 340 341 341 341 342 343 344 343 345 347 348 349 350 350 352 354 355 356 356 356 354 355 353 352 350 350 350 348 346 345 344 343 343 341 343 349 351 350 350 349 348 348 350 351 353 351 356 356 357 358 359 359 360 362 360 360 358 357 359
335 336 337 339 340 341 341 342 343 344 345 345 346 348 349 349 349 350 352 354 355 355 355 356 356 356 356 354 351 350 349 348 347 345 344 343 343 342 341 343 349 350 349 350 347 345 343 351 352 351 352 356 356 358 357 356 358 360 360 359 358 357 357
335 335 336 339 340 342 342 343 343 344 345 345 346 347 348 349 350 350 351 353 355 356 356 356 356 356 357 357 354 351 350 349 348 346 345 343 343 343 341 341 344 348 348 348 348 346 343 348 353 353 352 353 354 354 356 357 356 359 359 358 357 357 359
335 335 336 338 340 342 343 343 344 344 343 343 344 345 347 348 348 349 350 353 355 355 356 357 357 357 358 358 356 354 352 351 349 348 345 343 342 343 342 342 342 345 346 346 348 349 346 343 350 354 353 352 353 352 353 355 356 357 358 358 357 356 357
334 334 336 338 340 342 342 343 343 343 343 343 345 347 347 348 348 349 349 352 355 355 356 357 358 358 358 358 358 356 354 353 351 349 347 345 343 343 343 343 342 345 345 346 346 348 349 345 344 351 354 353 353 352 352 354 356 356 356 357 357 357 356
334 333 334 336 338 339 340 342 342 343 344 344 346 349 349 349 349 350 350 351 354 356 357 358 359 358 358 359 358 357 356 354 353 351 349 347 345 345 345 344 344 344 345 346 345 347 349 349 345 345 352 354 354 354 353 354 355 355 355 357 358 358 357
332 333 333 335 337 339 339 341 343 344 344 344 346 348 348 348 349 350 350 351 354 355 357 358 359 359 358 358 358 358 356 355 354 352 350 349 348 347 347 347 346 345 346 346 346 346 348 349 348 345 348 353 354 356 355 355 356 355 355 355 357 358 358
332 332 334 335 337 338 339 341 343 343 344 345 346 347 348 348 349 349 349 350 352 354 355 357 358 359 358 358 358 358 357 356 355 353 352 351 350 349 348 347 348 347 346 347 347 346 346 347 349 349 347 349 353 356 357 355 355 355 355 354 356 357 357
342 332 336 337 336 337 338 340 342 343 344 345 346 347 347 348 348 349 349 349 351 353 355 356 357 358 358 358 358 358 357 357 356 355 353 352 351 351 350 348 348 348 348 348 346 346 346 347 348 350 350 349 350 353 357 357 355 355 355 354 354 356 356
330 332 334 335 336 336 339 339 341 343 344 345 346 346 346 347 348 349 349 350 351 352 354 356 356 357 358 358 358 357 357 357 357 357 355 353 352 352 351 350 348 348 348 348 347 347 346 347 348 350 352 352 351 352 354 357 356 356 355 354 353 354 355
331 332 333 333 334 336 337 340 342 344 345 345 346 346 346 347 347 348 349 349 351 351 354 355 356 356 357 357 358 358 357 357 357 356 356 354 353 352 352 350 349 348 349 349 347 346 347 346 348 349 351 353 354 353 354 355 357 353 344 347 355 354 355
331 331 331 333 333 336 339 341 341 341 343 345 346 347 347 347 348 349 350 350 351 351 353 354 354 355 356 357 358 358 357 356 356 355 354 354 354 352 351 350 349 348 348 350 349 348 348 347 346 348 350 352 355 355 355 355 356 343 336 338 344 354 355
326 329 334 333 336 336 338 339 341 342 345 343 347 352 351 351 349 349 349 350 351 352 353 353 353 354 354 356 358 358 357 356 355 354 353 354 353 352 351 350 349 347 347 350 350 350 350 349 346 348 350 351 354 356 356 356 348 336 334 336 337 346 356
324 326 327 330 333 338 341 342 344 343 344 344 348 349 346 345 352 349 350 350 351 353 353 352 352 352 353 355 356 357 357 356 355 354 353 353 354 353 352 350 349 348 347 348 351 351 350 349 348 347 351 352 352 355 357 357 343 333 332 333 334 336 350
321 323 324 327 329 334 337 337 342 345 345 345 345 348 352 349 346 349 353 353 350 349 350 349 349 349 349 352 352 357 357 356 355 354 354 355 355 354 352 351 350 349 349 349 352 351 351 351 350 348 350 353 353 354 357 358 343 330 328 330 331 333 341
319 320 321 323 324 328 330 333 338 343 348 349 350 347 348 348 349 349 353 354 352 351 349 348 348 347 347 347 345 348 356 356 355 355 355 355 355 354 353 352 351 351 350 350 350 352 351 351 350 350 350 352 354 354 355 358 337 327 325 326 327 331 337
318 319 319 321 323 325 327 330 333 336 339 346 351 351 348 346 348 348 349 350 350 350 350 349 347 347 347 347 347 348 354 357 356 355 355 355 355 355 354 353 352 351 351 351 350 352 353 353 352 351 351 351 354 354 353 357 331 326 324 324 325 329 345
318 318 319 321 323 324 327 329 331 333 337 340 345 347 349 348 348 347 347 348 349 348 349 349 347 347 347 347 348 350 356 358 356 356 356 356 355 355 355 354 352 352 353 351 350 350 352 352 352 352 352 351 351 353 354 355 334 325 322 322 323 328 348
319 318 319 320 322 324 325 327 329 332 334 338 343 348 350 351 350 347 343 347 347 346 348 348 347 348 348 348 348 349 356 358 357 356 356 356 355 355 356 356 354 353 354 351 350 349 351 353 352 353 353 351 351 351 352 355 337 321 321 320 320 332 349
318 317 318 319 320 321 323 325 328 332 334 337 340 345 348 349 349 349 345 343 347 347 347 347 348 348 348 349 350 350 355 359 358 357 356 356 356 356 356 356 355 354 354 353 351 350 351 353 352 352 353 353 352 350 350 351 341 317 320 319 318 332 351
315 317 317 319 320 321 323 327 327 328 330 332 336 341 345 348 349 350 349 345 342 345 346 347 348 349 350 350 350 352 355 359 359 358 357 357 357 357 357 358 357 355 354 353 352 351 351 353 353 352 353 354 354 354 352 351 351 327 316 316 316 323 351
316 318 317 318 319 324 322 323 325 326 328 331 336 340 345 349 348 348 348 349 346 342 342 348 349 350 350 351 351 353 357 360 360 358 358 358 358 358 358 358 357 356 354 353 353 352 352 352 353 353 353 354 355 355 355 354 352 335 313 313 314 317 333
315 316 318 320 321 321 321 323 324 326 328 331 335 341 347 350 348 348 349 348 347 347 347 344 347 350 350 350 351 353 357 360 361 360 360 360 360 358 358 359 359 358 356 354 353 351 351 352 352 353 354 355 356 356 356 355 347 346 314 314 313 315 321
314 315 316 317 317 320 322 322 323 325 328 332 337 343 347 349 349 349 350 350 350 349 348 346 345 347 349 349 352 356 358 361 361 360 361 361 361 359 358 359 359 358 357 355 353 351 351 352 353 353 354 355 356 356 357 357 354 336 327 313 312 313 316
315 316 317 318 319 319 322 321 323 324 327 331 338 343 346 349 350 351 352 355 359 355 349 346 345 345 347 350 350 354 360 362 362 362 362 362 361 361 359 359 360 359 358 356 353 351 350 351 353 354 354 355 355 357 357 358 359 338 327 324 312 312 314
314 315 316 317 318 321 322 322 322 324 327 334 341 346 350 355 357 357 358 362 364 358 352 347 345 345 345 349 356 355 358 362 363 362 362 363 363 361 360 360 361 359 359 357 354 352 350 350 352 353 353 354 355 356 357 358 359 356 334 322 315 313 313
315 316 317 318 319 320 322 323 324 325 328 334 341 345 349 353 356 356 359 364 365 364 355 349 347 347 347 347 353 358 361 362 362 363 363 363 364 363 362 361 361 360 360 358 356 354 352 351 351 351 352 352 354 355 357 357 359 358 348 329 322 317 314
315 316 316 317 319 321 322 323 324 325 328 333 339 343 348 351 355 357 360 362 364 365 359 350 348 349 352 352 353 357 361 362 362 362 363 363 364 365 364 363 362 361 359 359 358 355 353 352 351 351 351 351 352 355 356 357 358 359 352 341 335 331 326
314 315 317 318 320 322 323 323 324 326 330 333 336 339 344 349 354 358 360 362 363 365 361 353 349 350 353 356 357 357 360 361 359 360 362 362 363 364 364 363 363 362 359 359 359 357 355 354 352 351 351 351 352 353 354 355 356 359 354 345 341 337 334
314 315 317 318 320 322 323 324 325 328 330 331 334 337 342 348 353 357 358 359 361 362 360 356 352 352 353 356 357 358 359 361 360 361 361 361 361 363 365 364 364 362 361 364 364 362 359 357 355 354 354 353 352 351 351 353 354 357 340 347 331 337 339
313 315 317 319 321 321 322 324 325 328 328 330 332 335 340 347 351 352 355 358 359 360 362 358 355 354 355 357 357 358 359 360 361 361 360 361 361 357 335 316 304 320 358 362 351 341 337 335 355 357 356 355 354 354 352 352 355 336 326 322 318 317 321
313 315 316 319 319 317 320 323 327 327 328 328 330 331 333 339 347 352 355 356 357 358 361 360 356 355 356 357 357 355 358 360 360 361 360 360 361 352 344 338 332 304 298 307 332 332 322 319 325 330 336 352 355 350 336 336 334 321 316 315 313 313 313
314 315 318 320 319 317 318 321 324 324 326 327 328 328 330 333 342 346 349 351 355 357 359 362 357 355 356 357 357 354 355 360 360 359 359 359 357 349 345 345 342 335 309 299 302 311 319 319 319 320 321 327 338 349 345 329 321 315 311 312 312 312 311

ECMWFFLT1_sfc_thetae_072.txt.gz
Theta_e
338 337 337 338 338 338 338 339 339 339 340 340 341 341 341 342 342 340 343 343 344 344 345 348 348 347 347 347 346 344 343 341 346 343 340 339 342 343 341 342 346 349 350 351 351 350 352 355 355 357 357 357 356 357 357 357 357 356 357 357 357 358 357
336 336 336 337 337 338 339 340 339 340 340 341 342 342 342 343 343 342 342 344 344 345 346 347 349 346 347 347 346 343 342 341 345 347 342 340 342 342 342 342 345 348 350 351 352 352 352 353 354 355 356 357 356 356 358 357 357 354 355 356 357 356 357
335 335 335 336 337 338 339 339 339 340 341 341 342 343 342 343 344 344 343 344 343 344 347 347 348 346 346 346 345 343 342 342 342 345 342 339 340 340 341 342 345 347 350 351 352 352 353 352 352 354 355 355 355 355 359 357 357 356 355 355 354 355 355
334 335 335 336 337 338 339 340 340 340 341 342 342 343 343 344 345 346 345 345 344 344 345 347 348 347 345 345 345 343 341 342 342 345 344 341 341 341 340 340 343 346 348 350 351 353 354 352 351 351 360 354 355 354 357 358 357 356 356 356 354 354 353
333 334 335 336 337 338 339 340 340 339 340 342 343 344 345 345 346 347 347 346 346 345 346 348 349 348 347 345 345 345 343 342 342 343 344 343 342 342 340 340 340 344 347 349 350 352 351 351 350 351 353 354 354 354 354 358 357 357 356 356 354 355 354
332 332 333 335 337 338 339 340 341 340 340 341 342 343 345 346 347 347 348 348 347 347 347 348 349 350 347 346 345 345 344 342 343 343 343 343 343 342 341 340 340 340 345 347 350 350 349 349 348 350 352 354 354 354 354 356 357 357 356 357 355 354 355
332 332 333 335 338 339 340 340 341 341 341 342 343 345 346 346 346 347 348 348 348 347 347 347 349 350 349 347 345 345 344 342 342 342 343 342 342 343 342 341 342 340 342 346 348 349 348 347 348 347 352 354 354 354 354 355 356 357 356 356 355 354 355
333 332 333 335 338 340 340 341 341 341 341 342 342 343 344 346 347 347 348 349 349 348 348 348 348 349 350 349 347 344 344 344 342 342 342 341 340 341 343 343 343 342 342 343 346 348 349 348 347 348 349 353 353 353 354 354 355 357 356 355 355 355 356
334 334 334 335 338 340 341 341 341 341 340 340 341 343 344 345 346 347 348 349 350 349 349 349 349 350 351 350 348 346 345 345 344 342 341 341 340 339 340 344 345 345 343 343 344 347 348 348 348 348 347 351 353 353 353 354 355 356 356 355 354 354 354
333 334 334 336 338 340 341 341 341 341 340 340 341 342 343 345 346 347 348 349 350 350 350 350 350 350 350 350 349 348 346 345 345 343 341 340 340 339 339 340 344 347 346 345 345 345 346 347 348 348 348 348 351 352 353 353 354 355 356 356 355 354 354
334 334 335 336 337 339 340 340 339 340 340 340 341 343 344 344 345 346 347 349 350 351 352 352 352 351 350 350 349 349 347 346 346 344 342 341 340 339 339 339 339 343 346 346 346 346 345 344 345 347 348 348 348 350 352 353 354 353 355 356 356 355 355
334 334 334 336 337 338 338 339 340 340 340 341 341 343 344 344 345 346 347 349 351 352 352 353 353 352 351 351 350 349 348 347 346 345 344 343 341 340 339 339 338 338 342 345 345 345 346 344 342 344 348 349 348 349 350 352 353 353 353 354 356 355 355
332 335 335 335 337 338 339 339 339 340 340 341 342 342 344 345 345 346 347 348 350 352 353 353 354 353 352 352 351 351 349 348 347 346 346 345 343 342 340 339 339 338 338 341 343 344 344 346 344 343 344 349 350 349 349 350 351 352 353 353 353 355 355
337 332 333 335 335 336 336 337 339 340 340 341 342 343 344 345 346 346 347 347 350 352 353 354 354 354 353 353 352 352 352 351 350 348 347 346 345 343 341 340 339 339 338 339 340 341 342 344 345 344 343 346 349 351 351 350 350 350 352 352 352 353 354
330 331 332 332 333 335 336 337 338 341 341 341 341 342 343 344 345 346 347 348 350 352 353 354 354 354 353 353 353 353 354 354 354 352 350 349 347 345 343 341 340 340 339 339 339 341 341 342 344 345 343 343 347 350 352 351 350 351 351 351 351 352 353
321 323 325 329 330 331 335 336 337 338 339 340 343 342 343 345 345 346 346 347 349 351 353 354 354 353 354 353 354 355 355 356 355 354 353 351 349 347 345 344 342 341 340 340 340 340 341 341 342 344 344 343 343 347 351 352 353 349 340 344 352 351 353
318 319 321 323 325 327 329 332 335 337 338 338 339 341 344 348 348 348 347 348 349 350 353 355 354 354 354 354 355 356 356 356 356 355 354 353 351 350 348 346 345 343 342 342 341 341 341 342 341 342 344 345 343 343 346 351 353 341 334 335 340 350 351
316 317 319 321 322 323 325 329 331 336 338 338 339 341 341 341 346 347 347 348 348 350 353 354 354 354 354 355 356 356 356 356 356 356 355 354 352 351 350 349 347 345 344 343 343 343 343 342 341 342 343 345 345 344 345 347 342 335 333 334 333 341 352
315 316 318 319 321 322 323 325 328 331 335 340 341 341 342 342 342 345 350 348 349 350 351 352 353 353 354 355 356 357 357 357 356 356 355 354 354 353 351 349 348 347 345 344 344 344 343 342 342 342 343 344 345 345 346 346 338 332 331 332 332 332 344
314 315 317 321 321 323 322 324 326 329 331 334 339 346 346 343 345 343 345 349 349 349 349 350 351 352 353 354 353 353 355 356 356 355 355 355 354 353 352 350 349 348 348 347 346 345 344 344 343 342 342 344 345 346 348 348 339 329 327 328 329 331 336
314 315 315 316 319 322 322 324 325 327 328 330 335 339 348 345 344 346 346 346 348 349 349 349 350 351 352 352 350 350 351 352 354 355 355 355 354 353 352 351 350 349 349 348 346 345 345 344 343 343 343 344 345 346 348 350 336 327 325 324 325 328 333
314 315 315 316 317 318 320 321 323 326 328 333 332 334 339 349 347 345 344 348 348 347 349 349 349 349 350 350 351 351 351 351 352 354 355 354 353 353 352 352 351 349 349 348 347 346 347 347 346 344 344 344 345 345 346 350 333 327 324 323 323 327 340
314 315 316 317 318 318 320 322 323 325 329 330 331 332 336 345 349 348 345 344 346 346 346 348 347 348 348 350 351 352 352 351 351 353 354 354 353 352 352 352 351 351 351 348 347 345 346 347 347 347 346 345 345 346 346 348 336 325 322 322 322 326 343
316 316 317 317 318 319 320 321 323 326 329 327 329 333 337 339 343 345 344 343 345 346 345 347 347 348 348 348 350 351 351 351 351 352 354 354 353 352 352 353 352 351 351 349 347 346 346 347 348 348 348 346 346 347 347 348 339 322 321 320 321 329 345
317 316 317 317 318 318 319 320 323 325 326 327 327 331 333 337 341 343 345 345 344 344 344 344 346 348 348 349 349 350 350 351 351 352 354 354 354 354 353 352 352 352 352 350 349 348 347 348 348 348 349 349 348 347 348 350 341 320 321 320 319 328 346
314 317 318 318 319 320 320 322 322 322 323 324 326 330 334 335 337 342 346 349 348 345 344 345 347 349 350 350 350 350 349 349 351 352 354 354 354 354 354 354 354 353 351 350 350 349 348 348 348 348 349 350 350 349 349 350 351 336 318 319 317 320 345
315 317 317 317 318 322 320 321 321 322 323 325 327 329 332 334 336 339 343 346 347 346 346 346 347 348 349 350 350 349 349 349 350 352 354 355 355 355 355 355 354 353 352 350 350 349 348 348 348 348 349 349 350 350 349 351 351 344 318 316 316 317 327
314 316 318 319 320 320 319 320 321 322 323 325 327 329 331 334 336 339 342 344 346 349 351 350 347 347 348 348 349 349 349 349 349 352 354 356 356 355 355 355 355 354 353 352 350 349 348 348 347 348 348 349 350 350 350 349 344 351 321 317 315 315 316
312 314 315 316 317 319 320 319 320 321 323 326 327 330 332 335 337 340 343 344 348 354 358 357 352 346 346 347 348 349 349 350 349 349 353 355 357 355 354 355 355 355 354 352 351 349 348 348 347 347 347 348 349 350 351 351 349 335 336 317 314 313 314
312 314 316 317 319 320 320 319 321 322 324 326 328 331 333 335 336 338 340 342 348 353 357 360 361 356 349 346 347 347 348 349 350 350 352 354 356 356 355 354 354 354 354 353 351 349 348 348 347 347 346 346 347 349 351 351 351 337 328 327 313 313 313
311 313 314 315 317 319 320 319 320 322 324 327 329 332 333 334 334 335 336 340 346 350 353 357 359 360 359 354 349 347 347 348 349 350 351 354 356 355 355 354 354 353 354 353 352 350 348 348 347 347 347 347 347 348 350 351 352 351 334 323 316 313 312
311 314 314 315 315 318 320 320 320 322 324 327 330 331 332 332 333 333 335 340 344 349 354 357 357 356 355 357 355 349 347 347 348 350 352 354 356 356 356 355 354 354 353 353 352 351 349 348 347 347 347 347 348 348 350 351 352 353 348 330 322 317 313
311 313 313 313 315 318 318 318 318 320 323 325 328 328 329 329 331 332 335 338 344 349 352 352 353 352 353 354 355 353 347 346 347 349 352 354 356 357 357 356 355 354 353 353 352 351 350 349 347 347 347 347 348 349 350 351 352 353 353 344 337 331 326
310 313 313 314 315 318 318 316 316 319 323 323 325 327 327 328 329 330 332 334 340 346 349 350 351 351 351 353 354 353 348 346 348 350 352 354 356 356 356 356 356 355 353 353 353 352 350 350 348 347 347 347 348 349 350 351 352 352 353 351 345 340 336
310 311 312 312 314 317 317 317 317 319 322 322 323 324 325 327 328 328 329 333 339 341 340 343 345 349 351 353 354 353 348 346 347 350 353 355 355 356 357 357 356 356 356 357 357 356 354 352 351 350 350 349 349 349 349 350 352 353 338 352 334 341 342
309 310 311 313 314 317 318 319 317 319 322 321 321 322 324 324 325 327 329 332 334 334 334 337 342 348 351 353 354 354 350 346 348 350 352 355 356 356 347 331 328 347 358 356 346 339 335 333 351 353 352 351 351 352 350 350 354 335 324 321 319 318 322
309 309 311 313 314 316 318 318 319 320 321 321 321 322 323 323 324 325 327 328 329 330 331 333 339 345 349 350 352 351 351 348 348 351 353 355 356 356 350 344 332 309 311 326 340 330 321 319 323 328 334 348 351 346 333 332 330 328 320 316 313 313 314
310 310 312 314 314 316 318 319 318 319 321 320 320 321 321 322 323 324 324 325 325 327 330 332 336 342 347 348 349 351 348 350 350 351 354 355 356 355 350 348 346 338 315 302 317 324 316 314 316 317 319 324 334 345 350 329 317 318 314 312 312 311 310

ECMWFFLT1_sfc_thetae_075.txt.gz
Theta_e
336 336 336 336 336 337 337 338 337 337 337 337 337 335 335 337 338 340 341 342 343 343 344 345 345 346 346 345 345 345 344 343 343 341 341 340 341 341 343 346 347 348 350 350 351 350 351 353 353 354 355 356 356 356 355 356 356 356 354 354 353 355 354
335 336 337 337 336 337 338 338 338 338 338 338 338 337 335 336 337 339 341 342 343 343 344 345 346 346 346 346 346 345 344 343 343 345 342 341 342 341 341 344 347 348 349 350 351 351 350 352 353 353 354 355 355 355 355 355 355 354 353 352 352 353 354
335 336 337 337 336 337 337 338 339 339 338 339 339 338 336 336 337 339 341 341 342 343 344 345 346 346 347 346 346 345 344 343 342 343 342 340 339 341 341 341 345 347 349 350 351 351 351 351 352 353 354 354 355 354 354 354 354 354 352 352 353 353 352
335 336 337 338 338 338 338 339 339 339 339 339 339 339 338 337 337 339 341 342 341 342 343 345 346 346 346 346 346 345 344 342 342 343 343 342 340 340 341 340 342 346 347 348 350 352 352 351 351 351 358 353 353 353 353 354 354 354 353 352 351 353 353
335 337 337 337 337 337 338 338 339 339 339 340 340 341 340 339 339 338 340 342 342 342 343 345 347 346 346 347 346 346 345 343 342 342 343 343 341 340 340 340 340 343 346 348 349 351 350 350 350 350 351 352 352 352 352 353 354 354 353 352 351 351 351
333 335 336 336 337 337 338 338 339 339 339 339 340 340 341 340 340 338 339 342 342 343 344 344 346 347 345 346 346 346 345 344 342 342 343 343 340 339 339 340 340 342 344 346 349 349 350 350 349 349 349 351 352 352 352 352 353 354 353 352 352 351 351
333 335 336 336 337 337 338 338 339 340 340 340 341 342 342 341 340 340 339 340 342 342 342 343 345 346 346 345 345 345 344 343 342 341 342 343 340 339 339 340 341 341 344 346 347 349 349 349 349 349 349 350 352 352 351 351 352 353 353 352 351 351 351
333 335 336 337 337 337 338 339 339 340 340 341 341 341 341 342 341 341 340 340 341 342 342 343 344 345 346 345 345 344 344 343 342 341 341 342 341 339 339 339 340 340 342 344 346 348 348 348 349 349 349 349 349 351 351 351 351 352 353 352 351 351 352
332 335 336 337 337 337 338 338 339 340 339 340 340 341 342 342 342 342 342 341 342 342 342 343 344 345 346 345 344 344 344 344 342 341 340 340 341 341 339 339 339 340 339 342 344 347 348 348 348 348 347 348 349 349 350 351 351 352 353 352 352 351 352
329 331 334 336 337 337 338 338 339 339 339 339 339 340 341 342 342 343 343 343 343 342 342 343 344 346 346 345 345 344 343 343 343 341 340 339 340 341 341 340 340 341 338 339 342 344 347 347 347 346 345 346 348 349 349 350 351 351 352 353 352 352 351
329 330 331 333 334 335 336 337 337 338 339 339 339 340 341 342 342 343 343 344 344 344 344 344 345 346 346 346 345 344 343 343 343 341 340 339 340 340 341 341 341 341 340 338 338 340 343 346 346 344 343 344 344 346 348 349 350 350 351 353 353 353 352
330 332 333 334 335 335 336 337 338 338 339 339 339 340 341 342 343 343 344 345 346 345 345 345 346 346 346 347 346 345 344 343 342 342 341 340 340 339 340 340 340 341 342 341 338 338 340 342 344 345 343 343 343 344 346 348 349 350 351 352 353 353 353
322 324 328 331 334 335 336 337 338 338 340 339 339 339 340 342 342 344 344 345 346 347 346 346 346 346 346 347 347 346 345 344 343 343 342 341 340 340 340 339 339 339 340 343 342 340 339 340 341 343 344 344 344 344 345 346 348 349 350 351 351 352 352
322 320 321 323 326 329 333 335 336 337 338 338 339 339 340 341 343 343 344 345 346 347 348 348 347 347 346 347 346 346 346 346 345 344 343 343 342 341 340 340 339 338 338 340 342 342 341 340 341 341 343 343 344 345 346 345 346 348 349 350 350 351 352
315 316 318 320 320 323 326 329 334 336 338 340 339 339 339 341 342 343 344 345 347 348 348 349 348 347 347 347 346 347 347 347 347 346 345 345 343 342 340 339 339 339 338 337 338 342 343 343 342 341 341 341 343 345 346 346 346 347 348 349 350 350 350
314 315 316 317 319 320 322 325 327 330 336 338 339 341 340 340 341 343 343 344 346 348 349 350 349 348 348 347 347 348 348 348 348 347 346 345 344 343 342 341 339 338 338 337 337 337 339 341 342 342 342 341 340 341 344 346 347 345 337 341 350 349 350
313 314 315 317 318 319 320 322 324 327 328 330 336 339 339 341 342 343 344 345 346 347 349 350 349 349 349 348 349 349 349 349 348 348 346 346 345 344 344 342 341 340 338 337 337 336 336 338 338 339 341 342 341 340 341 344 345 337 331 332 336 348 349
313 314 315 316 318 319 319 320 322 324 325 328 331 334 340 339 341 344 343 344 345 347 350 350 350 350 350 350 350 350 350 350 350 349 348 347 346 345 345 344 343 341 339 338 337 337 337 336 336 337 338 340 341 341 341 341 337 331 330 330 330 337 349
313 314 315 316 317 319 319 319 321 323 325 327 329 332 337 342 341 340 343 346 347 349 349 350 350 350 350 351 351 351 351 351 351 350 350 349 348 347 347 345 344 342 341 339 339 338 337 336 336 336 337 337 338 339 341 342 334 330 328 329 329 329 339
312 315 316 317 317 318 319 320 321 323 324 326 329 333 335 343 345 344 345 346 346 345 344 344 347 349 351 351 351 352 352 352 352 351 351 352 351 350 348 347 345 345 344 343 342 339 338 337 337 337 337 337 337 338 340 341 334 327 326 326 327 328 332
311 313 314 315 317 318 319 320 321 322 323 325 329 332 334 336 341 346 347 346 345 344 344 344 344 345 348 350 352 352 352 352 352 352 353 353 353 352 351 349 348 347 346 345 343 341 340 339 338 338 338 338 338 338 339 341 331 325 323 323 324 326 330
312 313 312 314 315 317 318 319 320 322 323 330 330 332 332 333 335 339 344 348 346 346 345 345 344 345 346 349 352 352 353 353 353 353 353 353 353 352 352 351 350 349 349 348 347 345 344 342 342 340 340 340 339 339 339 341 329 324 322 321 321 325 336
313 313 314 315 316 317 319 320 321 322 324 327 328 331 332 334 336 338 340 343 345 346 346 345 344 345 346 350 352 353 354 354 354 354 354 354 353 353 353 352 351 351 351 349 348 347 345 344 343 343 342 341 341 340 340 340 332 323 320 319 320 323 337
316 315 315 315 317 318 319 321 321 323 324 324 325 329 331 333 335 336 338 341 344 345 344 344 344 346 347 349 351 353 353 354 354 354 354 354 353 353 354 354 354 353 353 350 349 347 347 346 345 345 344 343 342 342 341 341 335 322 319 318 318 325 337
314 315 315 316 316 316 318 319 322 323 323 323 324 327 329 333 335 336 338 341 343 346 345 344 344 345 346 347 349 351 353 353 354 354 354 354 354 355 354 354 354 354 353 352 351 349 349 348 346 345 345 345 344 343 341 342 336 322 319 318 317 324 338
312 313 314 316 317 318 319 321 321 321 322 323 324 326 328 331 332 336 338 340 343 344 346 347 347 346 346 348 349 350 350 352 353 353 353 353 354 355 355 355 354 354 353 352 352 350 350 349 347 345 345 346 346 346 344 343 343 338 318 317 316 318 339
313 314 315 315 316 321 318 319 320 320 321 323 325 326 328 330 331 334 336 339 341 343 345 348 351 352 348 347 348 349 349 350 350 351 352 352 353 354 355 355 354 354 353 352 352 351 350 349 348 346 346 346 346 346 346 346 344 342 320 316 315 315 323
311 313 315 317 318 318 317 318 319 319 320 323 325 327 329 330 331 332 333 335 337 340 342 345 348 352 353 345 344 347 348 349 349 350 351 352 353 352 353 355 355 354 353 353 351 350 349 349 348 347 346 346 346 346 346 346 339 346 326 317 314 314 314
309 310 312 313 315 316 317 317 318 318 318 321 324 327 329 331 330 330 331 331 333 337 340 342 345 348 352 354 351 347 346 348 349 349 350 350 352 351 352 353 354 354 353 352 351 349 348 348 347 346 345 345 346 346 347 348 347 332 339 319 313 312 312
310 311 312 314 315 316 318 317 318 318 318 320 324 326 329 329 328 329 329 329 333 335 338 340 344 347 350 354 356 353 351 349 350 350 349 349 350 351 351 352 353 353 353 352 351 349 348 348 347 346 345 344 344 346 347 348 348 336 328 331 315 313 312
309 310 311 312 313 316 317 316 317 318 318 319 323 326 326 327 326 326 326 328 332 333 334 337 342 346 349 351 352 353 355 355 353 350 349 349 349 349 350 351 352 351 352 352 351 350 348 348 347 346 345 344 344 345 346 347 348 349 336 324 321 314 312
309 309 311 313 313 314 315 316 318 318 318 319 322 323 323 323 324 324 326 328 330 330 331 335 340 344 347 349 351 352 353 353 354 353 350 349 349 349 350 350 352 351 351 351 351 350 349 348 347 346 345 345 345 345 346 347 348 348 348 333 327 320 314
308 308 309 311 313 314 314 315 316 317 318 318 321 322 322 322 323 325 326 327 327 328 331 336 338 339 340 342 345 347 349 350 351 352 352 349 349 349 350 351 352 351 351 351 351 350 349 348 347 346 346 345 346 346 346 346 347 348 348 346 339 335 330
308 308 309 310 311 314 313 314 315 317 318 318 320 322 322 322 322 323 324 325 326 328 329 331 333 334 335 337 340 344 348 350 351 351 352 350 347 347 348 349 351 351 351 351 351 350 349 349 348 347 347 346 346 346 346 346 346 347 348 348 344 341 337
308 309 309 310 311 313 312 314 316 318 319 319 320 322 321 321 322 323 323 324 325 325 324 325 328 330 332 335 339 343 348 351 351 352 351 350 348 348 348 349 350 351 352 354 354 353 352 351 350 350 350 349 348 346 345 346 346 347 333 347 332 340 341
308 308 309 310 312 312 312 316 317 318 319 319 320 321 321 321 321 322 323 324 325 324 323 324 325 327 330 335 339 343 348 350 350 351 350 349 347 347 347 342 332 341 352 352 341 335 332 331 350 353 352 350 350 350 348 347 349 333 324 322 319 318 322
307 308 309 310 310 310 311 312 317 319 319 319 320 320 320 320 321 321 322 323 324 324 323 323 324 327 330 334 337 341 346 347 346 348 349 349 347 347 346 347 345 322 322 330 337 328 320 317 321 326 332 347 350 345 332 332 328 324 317 315 314 313 314
307 308 311 312 311 311 312 313 316 317 318 318 319 319 319 319 320 320 321 322 323 324 324 324 325 326 329 332 336 340 343 345 346 347 348 348 347 346 346 346 347 347 323 314 318 319 316 314 315 315 316 322 332 343 348 327 317 318 312 313 312 311 311

ECMWFFLT1_sfc_thetae_078.txt.gz
Theta_e
333 333 334 335 335 336 337 338 338 336 335 335 336 337 338 339 340 341 342 343 344 343 344 345 346 346 345 345 345 345 345 344 344 342 342 341 344 347 348 350 350 351 353 353 354 354 356 357 357 357 358 359 359 359 359 360 360 360 361 361 359 359 358
332 333 334 334 335 336 337 338 339 337 336 335 336 337 337 338 339 340 341 343 343 344 344 345 346 346 346 346 346 346 345 344 345 346 343 343 345 345 348 349 350 350 352 353 354 355 355 355 356 356 356 358 359 359 359 359 359 360 359 358 358 357 358
333 334 334 334 335 335 336 338 339 339 337 336 336 336 336 338 339 340 341 342 343 344 344 344 346 346 346 346 345 345 345 345 344 344 342 341 342 342 345 348 350 350 351 352 354 354 355 354 355 356 356 357 357 358 358 358 359 358 358 357 357 357 356
333 334 335 336 336 337 337 338 339 339 338 337 336 336 336 337 339 340 341 342 342 343 343 344 345 346 346 346 345 345 345 345 345 344 344 343 342 342 343 344 347 349 350 351 352 354 354 354 354 354 359 356 357 358 358 358 358 358 357 357 357 357 357
332 335 335 336 335 336 336 337 338 338 338 338 338 338 337 337 339 340 341 342 342 342 343 344 345 346 347 347 346 346 345 345 344 344 345 344 344 343 342 342 343 346 349 350 352 354 354 353 353 353 355 356 356 357 357 357 357 358 357 356 356 356 356
328 333 335 336 336 336 337 338 338 338 338 338 338 338 337 337 338 338 340 342 342 343 344 345 345 346 346 346 347 346 346 346 346 345 345 345 344 341 341 342 342 343 346 348 351 351 352 352 352 352 353 354 355 355 356 356 356 357 357 356 356 356 355
327 331 334 336 337 337 337 338 338 339 339 339 339 340 339 337 336 338 339 340 342 342 342 343 345 345 346 347 347 347 346 345 345 344 345 344 344 342 341 342 344 342 344 347 349 351 351 351 352 352 352 353 355 354 355 355 355 357 357 356 356 355 356
327 329 334 336 337 338 338 338 339 340 340 340 339 339 339 337 337 337 338 340 341 342 342 343 344 345 346 347 347 346 346 346 345 345 344 343 344 343 342 341 342 343 344 343 346 349 350 351 351 352 351 352 353 354 355 355 355 355 357 356 355 355 354
324 329 335 336 337 338 339 339 339 339 339 339 339 339 340 338 337 337 337 339 341 341 342 343 344 346 347 346 346 346 347 346 345 345 343 343 343 343 342 341 341 343 343 343 344 348 349 350 351 351 351 351 351 353 354 354 354 355 356 356 356 355 355
320 323 326 333 340 338 339 339 339 339 339 339 339 339 339 339 339 338 337 338 340 341 342 343 344 345 346 346 346 346 346 346 346 344 343 342 343 342 343 342 341 343 342 342 343 345 348 350 350 351 351 350 351 351 352 353 354 354 355 355 356 355 355
319 320 322 324 329 334 338 338 338 338 339 339 340 339 340 340 340 339 338 338 339 340 342 343 344 344 345 346 345 345 345 345 345 344 343 342 342 342 343 343 341 341 341 341 342 344 346 349 350 350 349 349 349 350 351 352 353 353 353 354 355 355 355
317 318 319 320 322 325 328 332 336 341 339 339 339 339 340 341 340 340 340 339 340 340 341 342 343 344 344 345 345 345 344 344 344 344 343 343 342 342 343 343 342 341 341 341 340 342 344 346 348 349 348 349 349 350 351 352 352 352 353 353 354 355 355
317 317 318 319 320 321 324 326 328 331 336 340 339 340 340 340 341 341 341 341 341 341 342 342 343 344 343 344 344 344 344 344 344 344 343 343 343 343 343 342 343 342 341 342 341 340 340 343 346 348 348 348 348 348 349 350 352 352 352 353 354 355 355
319 316 317 318 319 319 321 323 325 327 329 332 338 341 340 341 342 342 342 341 342 342 342 343 343 343 343 344 344 344 344 344 345 344 344 344 344 343 342 342 342 343 343 343 342 340 340 339 341 344 347 347 347 348 348 348 349 351 352 352 353 353 354
314 314 316 317 318 319 320 320 322 324 326 328 331 334 340 341 342 343 344 343 344 343 343 344 343 343 343 344 344 344 345 346 345 345 345 346 344 343 342 342 342 342 342 343 343 343 342 341 340 340 342 345 346 347 347 346 346 348 349 350 352 353 352
313 314 314 315 317 318 319 320 321 322 324 326 328 330 334 338 341 342 343 343 344 345 345 345 344 343 343 343 344 346 347 347 347 346 346 345 344 344 343 342 342 341 341 341 342 343 344 344 343 341 340 341 342 344 344 346 346 344 336 340 350 351 351
312 313 314 315 316 317 318 319 320 321 322 324 326 329 331 333 340 342 343 344 344 345 346 346 345 344 344 344 345 346 347 348 347 347 346 345 345 345 344 343 342 342 341 340 340 341 342 344 343 342 342 341 341 341 342 343 344 336 330 331 335 348 351
310 312 313 314 316 317 317 318 319 320 321 323 326 328 329 332 335 339 342 344 345 345 347 347 346 345 345 346 347 347 347 348 348 348 347 347 346 346 345 344 343 342 341 340 339 340 340 340 341 342 343 342 342 342 342 342 336 329 329 330 329 336 350
310 311 312 313 315 316 317 317 319 320 321 323 326 327 330 332 332 334 336 343 346 347 347 347 347 347 347 347 347 348 348 349 348 348 348 348 347 347 346 345 344 343 342 340 341 340 340 339 339 339 340 341 342 341 343 343 333 327 327 328 328 328 339
309 311 312 314 314 316 317 318 320 321 322 323 326 328 330 333 333 334 337 341 347 347 348 348 349 348 348 349 348 349 349 349 349 348 349 349 349 348 347 346 345 344 344 343 343 341 339 339 338 338 339 339 339 340 341 342 333 326 324 324 325 327 331
309 310 311 312 314 315 317 318 319 320 321 323 326 327 328 331 332 335 337 341 344 346 345 349 349 349 349 349 349 349 349 348 348 348 349 349 349 348 347 347 346 346 345 345 343 342 341 339 339 338 339 338 338 338 338 339 330 324 322 321 321 324 329
310 311 310 312 313 315 316 317 318 319 321 325 325 326 329 329 332 334 337 341 343 344 345 345 346 348 349 348 348 348 348 347 347 349 350 350 350 349 348 348 347 346 347 347 345 345 344 343 342 340 339 339 339 338 338 339 326 322 321 320 320 322 335
312 312 312 313 314 314 317 318 319 320 323 323 323 326 327 330 332 335 338 341 342 344 345 344 344 344 345 348 349 349 349 349 349 350 350 351 350 350 349 349 349 349 349 347 347 345 345 344 343 343 341 341 340 339 338 339 331 321 318 318 318 321 336
314 313 314 314 315 316 317 318 320 322 322 321 323 325 327 329 331 333 337 340 342 343 345 345 344 345 346 347 348 351 352 352 351 351 352 352 351 351 351 352 352 351 352 349 348 347 347 346 346 345 345 343 341 341 340 339 333 320 317 316 317 324 337
312 314 314 314 314 314 316 317 320 321 321 321 320 323 326 328 331 333 335 338 340 341 341 342 343 344 345 346 348 350 352 354 353 353 353 353 353 353 353 353 353 354 354 352 351 350 350 350 348 347 347 345 344 342 341 342 336 321 317 316 315 323 337
310 311 312 314 315 317 318 319 318 319 319 319 320 323 325 327 329 331 332 334 338 339 338 339 341 343 344 346 348 349 352 354 355 355 354 354 354 355 355 356 355 355 355 354 354 352 352 351 351 349 349 348 347 346 344 344 344 339 318 315 314 316 337
310 311 312 313 314 319 317 316 317 317 319 320 321 322 324 327 328 329 329 332 334 335 336 339 341 342 344 346 347 346 346 350 354 355 356 356 356 356 357 357 356 356 355 354 355 354 353 352 352 351 350 350 350 349 348 347 346 344 321 315 313 313 322
309 310 312 314 316 317 316 316 316 317 318 320 321 322 324 325 324 325 327 328 328 331 333 335 338 341 343 345 346 347 346 344 345 349 353 355 354 351 351 355 358 357 356 355 355 354 353 353 352 352 351 352 351 350 349 347 338 348 327 317 313 312 313
308 308 309 310 312 314 317 315 315 316 317 319 320 321 324 324 323 323 324 325 327 329 330 331 334 337 340 345 347 349 349 347 346 346 345 348 353 353 351 353 356 356 356 356 355 354 353 353 353 352 351 351 351 351 351 351 349 330 341 321 313 311 310
308 309 310 311 312 313 316 315 315 315 317 319 321 321 322 324 322 322 322 323 326 327 329 329 330 333 339 344 349 349 350 349 347 348 350 349 349 349 350 353 354 355 356 356 355 354 353 353 352 352 351 350 350 351 351 352 351 337 326 333 316 312 310
308 308 309 309 310 314 315 314 314 314 316 319 320 322 322 323 322 322 321 323 326 326 326 327 329 332 338 342 342 345 351 353 353 354 353 352 350 347 346 346 349 352 354 355 354 353 352 352 352 351 351 350 350 351 351 352 351 351 336 323 322 314 311
307 309 309 310 310 311 314 314 314 314 314 318 320 321 323 322 322 320 321 325 325 325 325 326 327 329 333 336 338 339 340 341 345 350 352 352 351 350 348 346 347 347 350 353 353 353 352 352 351 351 351 350 350 350 351 352 352 351 350 333 327 321 314
306 308 308 308 310 312 311 312 312 313 314 315 319 320 321 321 322 323 323 323 323 324 325 325 325 326 328 330 333 336 338 339 341 344 348 351 352 353 350 348 347 347 347 348 351 352 352 351 351 350 350 349 350 351 351 351 351 351 351 351 345 340 332
305 306 308 309 310 311 311 311 311 312 314 315 317 320 321 321 322 322 323 323 323 324 324 324 325 325 326 327 329 332 335 337 341 343 346 349 351 351 351 349 347 346 345 346 350 351 351 351 350 350 350 350 350 351 350 350 350 350 350 350 349 345 343
305 306 307 307 308 310 309 310 312 313 314 315 317 319 320 321 322 322 322 322 323 324 323 323 325 326 326 327 329 331 335 338 341 343 346 349 351 352 352 352 351 350 350 352 354 354 353 352 352 352 353 352 351 350 349 349 349 350 334 349 332 342 346
304 305 306 307 308 309 309 312 313 313 314 314 316 319 320 321 321 322 322 322 322 323 322 323 324 324 325 327 329 332 335 337 339 343 345 344 345 346 349 343 330 339 351 351 340 333 330 330 350 354 355 353 354 354 351 350 352 332 321 319 317 317 322
303 304 305 306 306 306 308 309 313 314 315 315 317 319 320 320 321 320 321 321 321 321 321 322 322 324 326 328 329 331 333 335 337 340 343 344 345 346 346 348 347 316 315 326 336 327 319 315 318 322 329 349 353 348 331 330 326 321 317 312 312 312 312
304 304 305 306 306 307 308 310 312 314 315 315 317 318 319 320 319 319 319 320 320 321 320 320 322 323 325 328 329 331 332 334 337 340 342 343 344 345 346 346 346 348 323 313 315 317 314 312 312 313 314 317 329 343 353 329 316 314 314 309 311 310 309

ECMWFFLT1_sfc_thetae_081.txt.gz
Theta_e
341 340 341 342 342 342 342 343 344 342 342 344 345 345 346 347 350 351 351 353 354 355 356 356 356 356 356 355 357 357 356 356 356 354 353 354 355 358 359 358 360 363 361 362 364 365 368 370 369 368 369 369 368 370 371 372 371 370 371 372 371 371 370
339 339 340 341 342 342 343 345 345 344 343 343 344 346 346 347 349 350 351 353 354 355 355 355 356 355 355 356 356 358 357 356 356 357 355 356 358 359 359 361 362 363 365 364 365 368 369 368 368 368 368 369 367 370 369 371 371 371 368 371 368 370 370
335 339 340 341 341 342 344 345 346 346 344 343 344 345 345 348 350 350 351 351 353 354 355 355 356 355 356 357 357 357 356 355 355 354 353 351 353 351 357 361 362 361 362 364 366 366 367 367 368 369 368 367 365 368 369 369 371 369 370 371 368 365 370
330 333 339 341 342 343 344 345 346 346 345 344 343 344 345 349 350 351 351 351 351 353 353 354 355 354 355 356 356 356 356 356 355 353 352 352 353 353 356 358 360 360 362 361 362 364 362 365 366 367 367 367 367 368 368 367 367 369 370 371 367 367 368
329 332 334 339 341 342 343 344 344 346 346 345 344 345 346 347 347 349 350 350 350 351 352 352 353 354 355 356 354 354 355 355 355 354 354 354 355 355 354 352 355 357 359 360 363 364 365 365 363 365 365 367 366 367 367 368 367 369 369 370 367 366 365
327 329 333 336 340 341 342 343 344 345 346 345 344 344 345 345 346 346 347 349 350 351 353 353 353 354 354 354 354 353 355 356 357 356 355 355 355 353 352 353 353 355 355 358 360 361 363 363 362 363 363 363 363 362 364 365 365 366 368 368 367 365 362
326 328 331 336 339 342 342 343 344 344 346 346 345 345 345 344 344 345 346 347 348 349 350 350 351 352 354 354 354 355 355 354 355 354 354 354 354 353 353 353 354 353 354 359 358 360 360 361 363 364 363 362 363 362 364 366 365 366 367 368 367 367 367
326 327 330 335 339 342 342 343 344 345 346 346 345 344 344 344 345 345 346 346 347 348 349 349 350 352 354 354 354 354 354 354 354 354 354 353 353 353 352 353 353 354 355 354 357 359 358 361 361 363 362 361 363 364 364 366 367 365 365 366 366 366 363
326 327 329 332 335 340 343 343 344 344 345 345 345 344 343 343 343 343 344 345 346 347 348 349 350 351 354 354 354 355 354 354 354 354 354 352 352 351 351 351 352 354 353 351 352 357 357 358 358 362 363 361 362 365 364 366 365 364 364 365 365 365 363
323 325 327 329 332 334 337 343 346 345 345 346 346 345 343 343 343 343 344 344 345 346 347 348 349 351 353 353 353 354 354 354 354 353 352 351 351 351 351 351 351 353 351 351 350 352 356 357 358 361 363 360 362 363 363 364 363 363 364 364 365 364 365
321 323 325 326 328 330 333 334 336 342 346 348 347 345 345 343 342 342 342 344 344 346 347 348 350 350 351 351 351 352 353 353 353 352 352 351 351 351 351 351 351 352 351 350 350 351 353 356 358 360 361 357 359 361 362 362 363 363 361 362 364 364 363
318 320 321 323 325 327 328 330 332 336 339 344 347 345 346 346 343 342 342 343 345 345 347 347 349 350 350 351 350 351 351 352 352 351 352 351 351 351 351 351 351 351 351 351 350 351 351 353 354 356 358 358 358 360 361 363 363 363 362 361 362 363 363
317 318 319 320 322 324 327 328 330 332 335 337 340 345 346 345 344 343 343 343 344 345 346 348 349 350 349 350 349 351 351 351 352 352 352 352 352 351 352 351 351 350 350 351 350 350 350 350 353 355 356 358 358 358 360 362 361 363 364 363 363 364 363
319 317 318 319 320 321 322 325 328 329 332 334 336 340 343 346 345 345 344 343 344 344 345 347 349 349 350 350 350 351 351 351 352 353 353 353 355 353 352 351 351 351 351 351 350 349 349 349 350 354 355 356 357 358 360 362 361 363 364 363 362 362 362
314 315 315 316 318 318 319 321 324 327 329 331 334 336 339 342 345 351 348 346 345 344 344 348 348 349 349 350 350 352 353 353 353 354 354 355 356 354 353 352 352 352 352 352 350 349 349 349 349 351 353 354 356 357 358 357 357 359 361 361 362 362 360
312 312 313 315 316 317 319 319 321 323 326 329 332 333 335 338 340 343 346 349 346 345 345 346 348 349 348 348 350 353 354 355 355 355 355 355 356 356 355 352 352 351 351 351 351 351 351 351 350 349 351 352 355 356 355 355 356 353 341 346 360 361 358
312 312 312 315 316 317 318 319 320 321 323 326 329 332 333 336 338 341 343 345 349 347 346 346 348 347 348 348 350 353 354 356 356 356 355 356 357 356 355 353 352 352 352 352 352 352 353 351 349 348 348 349 351 352 352 353 352 339 333 333 338 356 361
311 311 312 312 314 317 317 319 319 320 321 322 326 329 331 334 336 340 342 345 348 350 352 347 346 347 349 349 351 354 354 354 355 356 356 356 356 356 356 354 353 352 352 351 351 353 352 350 349 350 348 347 348 348 350 352 342 331 330 331 330 338 357
311 312 312 313 313 314 316 317 318 320 321 323 325 327 330 333 334 337 341 345 348 353 352 352 347 348 350 350 351 355 355 355 355 356 355 356 356 357 356 355 353 352 351 349 350 351 351 351 350 350 350 348 348 347 347 349 336 329 327 328 328 328 341
312 313 313 314 315 315 315 317 318 320 322 324 326 327 329 332 333 336 341 345 349 351 354 355 357 354 351 353 354 356 356 357 356 355 356 357 357 357 356 355 354 352 351 350 351 351 350 349 350 351 352 351 350 350 349 349 336 326 325 325 325 327 332
312 313 313 313 314 316 317 317 318 319 321 323 325 326 328 329 331 334 339 344 347 350 351 353 355 357 356 355 356 356 356 357 356 356 357 358 357 357 356 355 354 353 352 351 350 350 350 348 348 349 351 350 350 350 349 348 332 324 322 321 322 324 329
312 313 313 314 314 315 316 317 317 318 322 324 323 324 325 327 331 333 336 342 343 345 348 349 349 349 352 354 356 357 356 354 353 355 357 354 357 356 356 355 356 355 354 353 351 351 351 351 350 349 349 349 348 347 347 348 329 323 321 319 320 323 339
313 314 314 315 316 316 318 319 318 319 322 322 323 323 324 327 331 333 337 339 342 343 345 346 345 347 349 350 351 354 354 355 353 353 353 354 353 353 354 356 356 356 357 354 352 351 350 351 349 351 349 348 348 347 347 347 335 321 318 318 318 323 343
314 314 315 316 317 317 319 320 320 320 320 321 321 323 325 328 330 332 334 337 340 341 341 341 341 344 345 347 350 352 354 354 353 352 352 353 353 353 355 356 356 357 357 354 353 351 352 352 351 351 351 349 348 347 347 347 338 319 316 315 316 326 345
314 314 315 315 315 316 317 319 321 321 320 320 319 322 324 328 329 330 331 334 335 336 336 335 336 338 341 344 347 350 352 353 354 354 353 353 352 351 352 354 355 358 359 357 355 354 355 354 353 352 352 351 350 344 345 348 340 320 316 314 314 326 346
312 313 314 315 316 316 318 321 321 320 319 318 320 324 324 326 327 328 329 331 332 332 331 332 334 335 337 341 346 350 352 351 352 354 354 354 355 354 352 353 356 354 352 352 355 354 357 354 354 353 353 353 352 351 349 348 350 346 315 314 312 316 344
311 312 313 313 314 319 316 317 319 318 319 320 321 322 324 325 325 326 327 329 329 329 330 332 334 335 336 338 342 348 350 351 351 351 353 354 355 353 353 352 354 353 352 353 355 354 354 354 355 354 354 354 356 354 353 352 351 351 317 313 311 312 322
310 311 312 314 316 317 316 315 317 318 318 320 320 321 323 324 324 325 326 326 326 327 329 331 332 333 335 336 338 345 350 350 351 351 350 351 353 352 352 355 356 353 352 356 355 353 351 357 357 356 356 357 357 357 356 353 342 354 327 314 311 311 312
309 309 310 311 313 314 314 315 315 315 317 318 319 321 323 323 324 324 325 324 325 327 330 331 332 332 334 336 340 344 350 352 350 350 351 352 353 352 353 354 354 354 354 353 353 351 351 353 355 358 358 358 359 359 359 360 357 333 349 319 311 310 309
310 310 310 311 311 313 314 314 314 315 316 318 320 321 322 324 324 325 324 324 326 327 329 330 331 332 333 334 336 339 343 346 350 350 352 352 353 352 351 353 352 352 351 351 353 351 351 351 352 356 355 355 356 359 360 362 362 342 328 338 313 311 309
308 309 310 310 310 313 313 312 313 313 315 316 319 320 322 324 323 324 325 326 327 326 327 328 329 330 331 333 333 335 337 341 343 346 351 352 353 351 351 349 350 349 351 352 353 353 353 352 355 356 357 356 356 358 359 360 362 363 344 325 322 312 310
309 310 309 310 311 311 312 312 312 313 313 316 318 319 321 321 323 323 325 327 327 327 327 328 329 330 331 331 332 332 333 333 336 340 344 348 353 353 352 350 350 349 348 350 352 354 353 352 355 356 358 357 357 357 359 361 362 362 363 338 330 322 313
308 308 309 309 310 312 310 311 311 312 313 314 317 318 317 319 321 323 326 327 326 327 328 328 328 328 329 329 330 332 332 332 334 336 340 343 349 353 354 354 352 350 349 349 350 352 353 354 355 356 356 355 356 358 359 360 359 360 362 362 354 348 339
307 308 309 310 311 311 311 311 311 311 312 314 316 319 318 319 321 322 324 325 326 326 326 326 327 327 327 328 329 330 332 333 334 336 338 342 345 347 352 355 355 353 352 351 352 351 352 353 353 354 355 356 358 359 359 359 360 360 361 361 360 357 353
306 307 308 308 309 310 310 311 311 311 312 313 315 317 318 319 321 323 324 325 326 326 325 324 325 326 327 328 329 330 332 334 335 337 338 340 344 346 351 351 353 353 353 356 357 356 355 354 354 356 358 359 359 359 358 359 359 361 341 362 338 353 357
306 306 307 308 309 310 310 311 311 311 311 312 314 316 318 319 322 325 325 324 324 324 324 324 324 324 324 326 328 331 332 333 335 335 336 336 338 341 344 342 327 336 349 351 341 331 328 328 350 356 359 359 361 364 360 360 362 340 328 322 320 319 323
305 305 306 307 307 308 308 309 311 311 312 312 314 315 317 320 322 324 325 324 323 322 322 322 322 322 324 326 327 328 330 331 333 334 335 337 338 340 341 343 345 315 313 323 330 326 315 310 314 318 324 346 355 353 334 331 328 329 321 314 314 314 313
305 306 306 307 307 307 308 309 310 311 312 313 314 316 318 319 321 324 324 323 322 322 321 321 320 320 322 324 325 326 328 330 332 334 334 335 338 339 341 342 342 345 324 312 313 315 311 310 309 309 309 311 322 339 356 334 317 317 315 309 311 312 311

ECMWFFLT1_sfc_thetae_084.txt.gz
Theta_e
341 346 347 348 348 346 347 348 349 348 348 350 351 351 351 353 355 357 359 362 364 365 366 366 365 365 364 363 363 363 362 361 362 360 360 359 358 358 358 356 357 359 357 357 360 359 364 366 366 367 368 367 366 369 372 372 371 370 373 376 372 371 371
340 343 345 346 346 347 349 349 350 349 349 350 351 353 352 353 355 356 359 363 364 365 365 366 366 365 364 364 363 364 364 361 363 362 361 360 360 360 359 360 358 359 361 359 360 364 365 365 366 366 365 368 366 369 369 370 371 371 370 371 369 370 370
337 339 341 346 346 346 350 350 350 350 350 350 350 351 352 354 356 357 359 360 363 365 365 365 366 364 365 365 364 364 363 361 361 361 360 357 359 357 359 361 360 358 359 359 361 362 364 365 366 366 365 364 361 365 367 368 369 368 369 371 369 367 369
335 336 339 341 345 349 350 351 351 350 349 350 351 352 353 355 355 358 359 360 361 362 363 363 364 363 363 365 364 364 363 363 361 359 358 357 358 359 358 359 361 359 357 357 357 358 357 360 362 365 366 364 363 363 365 364 364 366 367 369 367 367 368
335 336 337 339 342 346 348 349 350 352 350 350 351 354 354 353 354 356 358 358 358 360 361 362 361 362 363 364 362 362 363 362 361 359 359 358 359 360 358 356 357 357 355 357 360 360 362 363 361 362 364 366 364 364 364 365 364 365 367 368 366 364 363
334 335 335 339 340 343 346 348 349 350 351 350 351 351 352 352 353 353 356 357 356 358 361 361 361 362 361 362 361 360 363 363 363 362 360 360 360 357 358 357 356 357 353 356 357 359 363 362 359 359 360 359 358 357 360 361 361 362 365 366 366 363 360
333 335 336 339 342 342 345 348 348 350 351 351 352 351 353 351 352 352 354 354 355 355 357 358 358 360 362 362 361 362 362 361 362 360 360 359 359 358 359 359 359 355 355 357 357 358 359 361 360 361 360 357 358 356 359 362 360 361 364 366 366 365 365
331 333 337 339 339 341 342 347 349 349 351 351 349 351 351 351 351 353 353 352 353 354 354 355 356 359 362 362 362 361 361 361 361 362 361 358 358 358 358 358 358 358 358 355 358 358 356 359 358 360 360 357 358 360 358 362 366 360 360 363 363 364 361
329 332 334 335 336 337 338 340 345 347 349 350 350 350 350 351 350 351 351 351 352 352 353 354 355 357 361 361 362 362 361 361 361 362 360 358 356 355 355 356 357 359 358 355 354 359 358 355 356 358 362 360 359 362 361 364 362 361 360 361 363 363 361
325 328 331 333 334 336 336 337 339 342 345 349 350 351 350 351 351 351 351 351 351 351 352 354 355 356 359 360 360 361 361 361 360 359 359 356 355 354 354 352 355 358 357 356 352 352 358 357 356 358 362 363 361 362 364 362 362 360 360 362 363 363 363
323 326 327 329 331 332 333 334 334 335 339 344 348 349 351 351 351 350 351 351 351 351 352 354 356 355 357 358 359 358 359 359 358 358 358 356 354 354 354 353 351 354 356 355 353 351 353 358 358 358 361 361 360 361 363 361 362 363 359 359 361 362 360
321 322 324 325 327 329 329 330 331 333 335 338 342 346 350 350 349 350 351 351 352 351 353 353 354 355 355 357 357 358 358 358 358 357 357 357 355 354 354 353 352 352 354 356 354 353 350 354 357 356 359 362 361 359 362 363 363 364 362 358 358 359 359
318 319 321 322 324 325 328 328 328 331 333 335 338 342 345 348 347 349 352 352 352 352 352 353 354 355 354 355 356 357 357 357 357 357 357 357 357 355 355 354 352 352 351 355 355 352 350 350 356 358 357 361 361 357 359 362 362 364 365 362 359 360 361
320 317 318 320 322 323 324 326 328 329 330 333 336 339 343 346 346 349 352 350 352 352 351 350 352 353 354 355 356 358 356 357 357 358 359 359 361 359 356 355 354 354 354 355 356 353 351 350 350 355 357 358 359 359 359 361 363 365 366 365 360 359 360
318 317 317 317 319 320 321 322 326 328 329 330 333 335 338 342 346 349 351 353 356 350 350 353 351 353 353 354 356 358 359 359 358 359 360 361 362 361 359 357 357 357 357 357 356 354 353 352 350 351 354 356 356 358 357 354 358 361 363 364 363 360 357
318 318 318 318 319 318 320 320 322 325 328 330 330 332 335 337 341 345 347 350 352 352 350 351 351 352 352 352 355 357 359 361 362 360 362 362 362 363 362 359 358 357 357 357 357 358 358 357 355 352 351 353 356 357 355 354 353 356 346 352 362 361 355
318 318 319 320 320 318 319 319 320 322 324 326 328 330 332 335 338 342 346 348 349 353 353 349 350 349 351 353 355 358 358 359 361 361 361 363 364 364 364 362 359 359 360 359 359 360 361 358 356 354 351 351 353 354 354 352 350 343 335 337 342 359 361
318 318 319 320 321 321 320 318 318 320 322 324 326 328 329 331 334 337 340 345 349 352 353 353 349 348 351 353 356 358 359 359 362 361 361 362 364 365 366 363 361 361 361 359 358 361 359 357 357 357 355 352 352 352 353 354 345 333 332 334 334 343 357
317 318 320 320 320 322 321 319 319 320 322 325 326 326 327 329 331 333 335 340 347 353 353 353 355 351 351 352 354 357 359 361 362 361 360 363 364 365 366 364 362 360 359 358 360 360 361 361 358 358 357 355 355 353 353 353 340 330 329 331 331 332 345
316 318 319 321 321 322 322 322 322 321 323 325 327 327 328 330 330 332 336 340 346 351 356 355 356 358 358 356 355 356 358 360 361 362 362 363 364 364 363 362 361 360 358 357 359 360 359 359 360 359 360 359 357 357 355 355 343 328 326 327 327 329 336
316 317 317 318 320 322 323 324 324 324 324 324 325 326 327 329 331 334 336 339 343 346 350 355 357 356 357 358 356 355 356 358 359 360 362 363 363 363 363 362 361 360 358 355 355 356 358 358 359 359 360 359 357 357 355 354 337 326 322 322 323 326 332
316 316 316 317 318 320 321 322 323 323 324 326 324 326 327 327 331 332 334 337 340 342 344 350 354 354 355 357 359 359 358 357 357 359 360 361 362 362 362 362 361 360 360 359 355 356 357 358 358 357 358 358 358 357 356 357 333 325 321 320 321 324 344
316 316 317 318 318 319 320 322 323 324 325 325 324 326 327 328 331 332 333 335 337 341 341 340 341 345 348 348 350 355 357 360 359 361 360 361 360 360 361 360 360 361 362 359 357 355 354 356 357 359 357 357 358 357 357 357 341 323 319 318 318 325 349
317 317 317 318 319 320 320 321 322 324 323 324 324 325 328 329 331 332 332 334 335 336 338 338 338 340 340 344 347 352 355 356 356 357 357 359 358 358 359 361 361 362 362 359 357 355 355 356 356 358 357 355 356 356 356 357 347 323 317 316 317 329 350
316 316 316 317 317 317 318 321 321 321 322 323 321 324 326 330 330 329 331 332 333 334 335 336 336 336 337 339 343 347 353 356 357 356 355 356 357 358 358 359 360 361 361 360 359 359 360 358 356 356 357 355 355 351 353 356 348 324 318 316 315 329 352
314 315 316 316 317 318 319 323 321 320 319 320 322 324 325 326 328 329 329 330 332 332 332 333 335 336 338 340 342 345 350 354 355 357 357 357 357 358 359 360 360 360 360 361 359 358 359 359 359 358 357 355 354 354 355 356 358 358 316 315 313 317 350
314 314 315 315 316 319 317 318 318 318 318 320 322 321 323 325 326 328 329 330 331 331 332 334 335 337 337 339 342 345 347 351 354 356 357 358 358 359 359 359 359 360 359 358 359 360 359 358 359 357 357 357 359 356 355 356 358 358 319 314 312 313 324
313 313 315 316 317 317 316 316 318 318 318 320 320 321 321 324 325 327 329 329 328 330 333 335 337 337 337 338 342 345 347 351 351 353 355 357 359 358 358 358 359 358 359 358 357 358 358 358 356 356 356 357 357 357 357 356 347 360 327 315 312 312 312
312 312 313 314 315 315 315 316 315 316 317 318 319 321 322 321 324 327 328 328 330 330 331 334 335 336 336 338 340 343 345 347 348 349 353 354 355 355 356 356 358 359 359 358 357 356 355 356 357 356 354 355 356 357 358 360 359 336 354 317 311 310 310
312 313 313 313 313 315 315 315 316 315 317 317 320 322 323 322 323 325 326 328 331 332 333 333 334 335 336 338 340 341 342 343 345 347 347 349 354 355 353 355 356 358 359 358 357 354 353 354 357 355 353 353 355 357 358 362 361 346 331 341 312 311 309
311 311 312 312 312 315 315 315 315 315 316 317 320 322 323 324 322 323 325 328 331 331 332 332 333 333 334 336 337 338 340 341 343 343 345 346 348 351 354 354 354 354 357 356 355 354 353 354 355 354 353 353 354 356 359 360 362 365 349 326 321 312 310
311 312 311 311 313 314 315 314 315 316 315 317 319 321 323 323 323 322 324 327 330 330 330 330 330 331 333 334 337 338 338 339 341 343 345 346 348 350 350 353 355 354 353 354 354 354 353 353 354 353 353 352 353 354 358 362 364 366 368 350 331 321 313
311 312 312 312 313 314 314 315 314 315 317 317 319 319 320 321 322 323 324 326 327 328 329 330 331 331 332 333 334 336 338 337 338 339 341 344 345 347 350 351 352 353 353 353 351 352 353 354 353 353 353 353 354 356 357 360 364 362 361 363 361 356 342
311 311 313 314 314 315 315 314 315 315 316 317 319 320 320 320 321 322 323 322 325 327 330 330 329 328 330 331 333 334 335 336 337 338 339 343 344 343 345 349 352 352 352 352 352 351 351 352 353 352 353 354 356 358 359 359 360 358 357 356 357 359 361
311 312 312 313 313 314 314 314 314 315 316 317 318 319 320 320 321 323 324 325 327 329 328 329 329 330 330 331 332 333 336 336 337 338 339 341 342 342 344 343 346 350 354 357 357 355 354 354 354 355 356 356 356 356 357 358 357 358 337 362 335 347 356
310 311 311 312 313 313 313 314 314 314 314 315 318 319 319 319 320 323 323 325 328 328 327 327 328 329 328 329 330 331 333 334 335 336 337 337 338 341 342 340 325 334 345 346 342 332 321 323 349 356 358 357 358 361 358 358 365 331 325 318 314 316 318
309 309 310 311 311 311 312 312 313 314 314 315 317 317 318 320 321 322 324 325 328 327 327 326 325 326 327 328 327 328 329 329 330 335 337 338 339 340 341 341 345 316 311 320 328 323 317 311 312 313 317 338 348 347 331 326 320 317 315 313 312 314 313
309 309 309 310 310 310 311 311 312 312 313 314 315 316 319 320 321 323 323 325 327 328 327 325 324 323 325 327 329 329 330 329 331 332 333 334 335 336 336 337 337 340 324 309 311 313 308 308 308 308 309 311 318 332 349 333 321 317 318 316 312 309 308

ECMWFFLT1_sfc_thetae_087.txt.gz
Theta_e
343 343 345 346 347 345 346 346 348 349 349 349 351 351 348 352 354 355 355 359 361 362 364 364 364 364 363 362 362 361 360 359 359 358 358 357 355 355 354 354 357 359 359 358 359 360 363 367 365 365 366 366 366 370 376 371 371 369 373 374 368 369 362
340 343 344 346 346 346 348 348 350 349 349 351 350 351 351 352 352 353 357 363 362 364 364 364 365 365 364 363 362 363 362 360 360 361 359 358 358 357 356 356 355 358 361 358 360 362 365 362 366 367 366 366 364 368 369 372 373 372 367 368 369 371 368
340 341 344 344 346 345 348 348 348 348 349 350 350 349 349 353 353 356 360 360 363 365 367 365 367 364 365 364 363 364 363 360 359 359 357 354 357 354 356 358 356 355 356 359 362 360 361 365 364 365 365 365 362 364 368 369 370 370 369 373 368 364 370
339 340 341 345 347 348 348 348 348 348 349 349 350 351 352 356 356 357 360 362 362 365 364 366 365 362 364 365 363 364 363 362 360 358 356 354 354 354 354 355 358 356 354 355 356 358 357 362 363 364 365 363 363 363 364 363 363 366 368 372 369 365 367
338 340 343 343 347 348 349 349 352 353 351 349 351 351 349 353 355 358 358 358 357 362 364 363 365 363 363 363 361 361 362 362 360 358 358 355 356 356 354 352 354 354 353 354 356 357 360 361 360 363 363 365 362 363 363 363 363 364 366 367 366 365 366
334 337 339 342 344 345 348 347 351 351 350 351 353 353 351 351 354 352 355 357 360 357 360 363 361 362 362 362 360 359 363 364 363 362 359 357 355 352 352 353 351 353 350 352 352 354 357 359 360 360 360 359 358 357 358 360 360 360 363 365 365 362 359
333 336 337 340 342 343 346 350 352 349 350 352 353 354 356 352 351 354 354 355 357 356 358 358 356 359 363 361 360 360 362 362 363 360 358 356 355 355 354 354 355 351 351 353 352 353 354 358 360 361 359 358 359 356 358 361 359 360 361 364 364 364 363
332 333 336 339 340 341 344 347 349 350 352 351 353 352 352 353 356 357 355 352 353 355 360 361 361 358 361 362 360 359 360 360 360 361 359 355 354 355 353 354 354 354 352 349 352 353 351 357 357 359 358 358 358 359 356 359 362 357 358 360 361 362 359
332 333 334 336 337 338 340 344 346 349 350 349 353 352 356 353 354 352 353 356 357 355 357 356 355 357 362 361 361 360 359 359 360 360 358 354 351 351 350 352 354 355 353 349 349 353 353 352 354 357 359 359 359 360 358 361 360 360 359 359 360 361 360
329 330 333 334 336 336 338 339 342 344 346 350 351 350 349 352 356 355 352 354 356 357 358 359 356 357 359 360 361 360 359 359 357 357 356 352 351 350 349 348 350 355 354 351 348 347 353 353 353 354 359 358 358 359 360 359 359 360 359 358 359 360 362
328 329 330 331 333 334 335 336 337 340 342 347 350 351 353 353 352 352 352 354 354 356 357 354 354 359 361 360 359 358 359 358 356 355 355 354 351 350 348 346 346 349 352 351 348 346 349 353 354 356 357 355 358 359 360 360 361 361 358 358 359 360 359
326 328 327 330 331 331 332 334 336 338 340 342 344 347 353 350 352 352 351 354 357 355 357 361 362 354 357 356 357 359 357 357 356 354 355 353 352 350 349 348 345 345 349 351 349 347 345 349 351 351 355 358 358 359 359 361 362 362 361 357 357 357 358
325 325 325 326 328 328 330 332 334 336 338 338 339 341 343 347 352 350 352 355 356 355 356 356 356 358 353 356 357 361 358 357 357 355 354 354 353 351 350 348 346 345 345 349 350 348 345 345 349 352 352 356 358 357 359 359 359 363 363 361 360 357 358
326 323 324 324 325 325 326 329 331 333 334 335 336 339 341 343 345 348 353 352 353 351 352 356 356 356 357 361 359 359 358 358 357 357 357 356 359 355 350 349 349 347 347 348 349 347 346 344 344 349 352 353 355 357 358 359 359 362 363 363 361 357 356
323 322 322 322 323 324 324 324 328 331 331 332 334 335 337 339 342 348 350 352 352 353 353 354 355 353 352 356 357 362 360 359 359 358 359 359 363 359 354 350 351 351 350 350 348 347 347 345 343 346 348 351 354 356 354 351 354 357 360 361 362 360 354
322 322 322 322 323 323 324 324 325 328 331 332 332 332 333 336 339 341 345 349 353 353 355 357 353 353 352 352 356 357 361 364 366 362 363 362 364 365 360 355 353 350 350 351 349 352 352 350 346 344 345 348 351 354 352 349 348 354 348 354 360 360 354
321 321 322 324 324 324 325 325 325 326 328 330 331 331 332 334 337 339 342 344 348 351 352 353 352 353 351 352 354 358 361 362 364 364 366 366 364 364 366 361 357 355 358 356 354 356 360 354 349 346 345 345 348 350 349 347 346 343 336 338 346 359 359
320 322 322 323 325 325 325 325 326 326 326 327 329 331 332 334 335 337 338 342 345 349 352 351 354 353 353 354 355 359 360 360 363 363 364 367 366 366 366 364 361 360 360 356 355 360 355 353 353 354 348 346 346 346 346 347 345 332 333 335 336 347 359
320 321 322 323 323 325 325 325 326 327 327 328 328 330 332 333 334 334 336 339 343 348 350 353 353 353 356 357 356 354 357 362 361 362 363 365 367 367 367 367 364 361 357 355 356 357 360 361 356 356 355 351 352 347 347 347 339 329 330 333 333 335 348
319 319 321 323 323 323 324 325 327 327 329 329 330 332 333 335 335 335 336 338 343 346 347 348 351 353 352 353 354 354 353 356 361 362 363 364 366 368 368 364 365 361 358 357 359 359 358 358 359 358 362 359 356 357 352 350 342 326 327 329 330 332 340
318 319 319 320 322 322 323 324 326 327 328 328 329 330 330 332 335 336 338 339 340 342 343 344 344 345 347 351 353 354 355 355 354 359 364 362 357 362 365 367 365 362 359 357 357 358 359 358 360 360 361 359 359 358 354 352 337 325 324 325 326 329 336
318 318 318 319 320 322 322 322 323 325 326 329 327 328 329 330 332 334 335 339 337 338 341 341 342 341 343 345 349 349 352 355 354 355 354 357 355 355 355 358 365 362 361 360 357 358 359 361 360 359 359 360 360 359 358 356 335 324 322 321 323 327 348
318 318 318 319 319 320 322 323 323 323 325 328 326 326 329 331 333 333 335 337 337 338 338 339 340 340 340 341 343 345 348 352 354 354 353 355 354 353 353 355 355 363 363 358 358 357 357 358 358 361 359 360 361 359 359 359 343 323 319 318 320 328 353
318 318 318 318 320 320 321 322 323 323 322 323 324 324 328 330 333 334 334 335 336 337 336 336 336 339 339 339 340 341 344 348 351 353 355 356 352 352 354 356 358 359 362 361 359 358 357 358 359 360 361 360 359 359 359 359 349 322 318 316 317 333 354
317 317 317 317 318 318 318 320 322 322 322 323 322 323 325 327 331 332 332 333 334 335 335 335 335 336 337 339 340 342 342 347 351 352 353 354 354 353 352 351 353 357 356 355 357 360 361 360 360 358 360 358 359 359 358 359 350 322 319 316 315 331 357
315 316 317 317 318 318 319 322 321 321 319 320 322 323 325 323 324 329 329 330 333 333 332 334 335 336 339 339 339 340 343 345 350 352 351 351 353 356 356 356 358 358 359 360 360 360 361 361 361 358 356 357 358 358 358 358 360 353 317 316 314 319 355
315 316 316 316 317 320 318 318 318 318 318 321 322 322 323 322 323 324 328 329 331 331 332 334 337 338 339 341 342 341 342 346 348 349 349 351 353 353 354 357 355 357 358 356 357 357 357 359 362 361 361 360 362 361 359 358 358 363 317 315 313 314 326
315 315 316 318 318 318 317 317 318 318 318 320 320 321 322 323 323 325 326 327 328 330 331 334 336 337 338 339 340 342 345 345 346 348 348 351 351 350 350 350 355 356 354 356 357 354 354 355 357 359 359 360 359 361 361 362 355 360 326 315 313 312 314
314 314 314 315 316 316 316 316 316 316 318 318 319 320 322 323 325 325 326 324 328 330 332 333 334 337 337 338 339 340 341 342 343 343 344 349 351 350 350 352 351 353 354 356 355 355 357 357 355 358 357 358 359 357 359 362 363 340 355 316 311 311 311
315 315 314 314 314 315 315 315 316 316 317 318 321 321 323 324 324 325 325 326 329 330 332 333 334 336 336 337 339 340 341 343 343 344 344 345 346 348 350 350 351 351 352 353 354 354 354 356 358 356 355 355 355 356 357 361 362 349 334 342 311 311 309
314 314 314 314 313 316 316 315 315 315 316 318 320 322 323 324 323 325 325 327 329 329 329 331 332 333 333 334 336 337 338 340 341 347 348 348 346 346 348 349 351 352 352 353 352 353 351 354 356 355 355 354 355 356 357 359 360 361 349 329 322 311 310
315 316 315 315 315 316 316 315 315 315 316 318 320 321 324 323 323 323 325 327 328 328 327 329 331 332 332 333 334 335 336 336 337 340 342 344 344 346 348 348 348 352 353 350 351 352 351 352 355 354 355 354 354 355 356 358 360 360 365 351 338 324 313
314 315 315 315 316 316 316 316 315 316 317 318 321 321 321 322 322 323 325 326 325 325 327 328 329 330 331 331 331 333 334 335 335 336 339 341 341 344 348 349 349 349 349 351 350 350 351 351 352 354 351 353 355 356 357 358 358 359 363 370 364 356 342
313 313 315 316 316 316 316 316 316 316 317 317 320 321 322 322 323 323 323 323 325 325 327 327 327 328 329 328 329 330 332 333 336 337 336 338 342 344 347 348 346 345 347 349 348 348 348 347 349 350 352 353 356 358 358 357 361 357 359 358 360 360 365
312 312 313 314 314 316 315 316 316 317 317 318 319 320 321 321 322 324 325 325 325 326 326 326 329 330 329 330 330 330 333 334 337 337 337 337 340 340 342 344 345 344 344 346 348 350 352 348 349 351 351 353 355 354 350 351 351 350 333 343 327 345 355
311 311 312 313 314 314 314 315 316 316 317 318 319 319 319 320 321 323 324 326 326 326 325 326 328 328 328 328 328 330 330 332 333 334 333 333 334 337 339 342 327 337 344 344 341 332 322 320 343 349 350 349 350 353 350 354 357 336 318 317 317 315 314
310 310 310 312 312 313 313 314 315 316 316 317 319 318 319 320 321 322 323 325 326 326 327 327 327 327 328 327 326 327 330 331 330 330 334 336 335 335 336 337 341 320 315 316 321 316 311 309 310 310 313 333 343 343 330 326 319 311 309 309 310 310 309
310 310 310 311 311 312 312 313 314 315 315 316 317 317 319 318 319 321 321 323 324 326 327 327 327 326 325 327 327 327 330 330 332 332 331 332 334 336 336 336 336 339 323 310 313 312 307 304 304 303 305 307 314 328 343 330 320 313 310 308 306 306 305

ECMWFFLT1_sfc_thetae_090.txt.gz
Theta_e
339 341 343 346 345 346 347 347 348 347 348 349 348 350 347 346 350 352 354 359 359 360 361 363 364 364 363 359 359 360 361 361 362 361 360 360 361 361 360 357 358 363 359 359 362 367 367 368 365 365 367 368 370 372 373 373 372 368 371 370 369 369 368
339 342 345 347 346 346 346 349 351 350 348 349 350 352 349 349 355 351 355 360 360 360 360 361 364 364 363 361 359 361 360 361 362 363 360 364 364 364 361 361 362 363 368 362 365 365 368 366 366 366 365 367 367 373 369 371 372 371 370 371 368 368 367
340 344 346 348 348 348 348 349 349 351 352 350 349 349 350 356 357 358 357 358 359 361 360 360 364 363 363 364 361 360 360 359 360 358 357 354 356 352 356 361 360 359 358 361 366 362 363 364 369 368 366 363 361 368 370 370 371 370 372 372 371 366 367
339 340 342 345 348 348 349 349 348 348 348 349 349 349 349 358 359 359 358 359 359 361 360 359 359 361 362 363 361 361 360 359 357 354 354 356 355 353 355 359 360 358 359 358 356 358 357 363 362 368 368 367 366 364 365 365 366 369 369 370 369 368 370
338 339 340 342 343 346 348 348 350 352 352 350 352 352 352 356 353 354 357 359 357 358 360 359 359 360 362 362 359 359 358 357 357 357 356 356 358 356 354 352 353 353 356 355 361 366 366 363 361 364 365 368 364 366 366 367 365 368 369 369 364 365 367
337 336 338 339 341 345 347 349 349 348 349 350 353 354 354 355 353 354 357 358 359 359 361 361 359 361 360 359 360 358 361 361 361 361 358 358 358 354 352 353 353 353 352 354 356 356 361 362 360 361 360 360 359 358 359 362 361 362 367 366 364 362 361
335 339 339 340 342 344 345 349 349 351 354 356 355 354 353 349 350 352 354 354 354 355 356 358 358 358 359 361 360 361 360 359 359 357 356 354 355 355 353 353 354 352 351 356 355 355 355 359 361 362 362 358 360 356 360 363 362 362 364 365 367 367 366
333 335 337 340 342 343 345 347 350 352 353 352 353 353 352 352 354 352 348 350 352 352 354 354 353 355 358 357 358 356 359 359 358 357 357 354 352 353 352 352 353 355 354 351 355 354 352 357 356 360 360 359 359 360 360 363 366 358 360 363 364 363 359
332 334 335 337 339 341 343 346 348 350 351 353 354 354 358 353 350 348 349 350 353 352 354 354 355 356 359 353 354 355 358 359 358 358 356 353 351 349 349 351 351 354 352 348 349 353 353 355 354 361 362 359 361 361 360 364 361 359 359 360 364 362 358
330 333 334 336 338 339 340 341 344 346 348 349 351 353 356 355 353 353 352 353 350 353 354 355 359 359 359 357 352 349 350 355 358 357 355 352 350 349 348 349 350 352 351 349 348 348 352 354 355 359 363 361 364 362 360 363 359 358 359 363 363 361 362
329 329 331 333 335 336 337 337 338 341 344 346 347 349 351 351 355 353 355 354 353 355 356 357 357 357 355 355 358 358 353 349 352 354 355 352 349 349 349 349 350 351 350 348 345 347 349 353 357 358 359 355 359 361 360 361 360 361 357 358 360 361 359
328 327 327 329 332 333 333 334 335 338 341 342 343 345 346 348 351 351 351 353 355 353 354 356 359 358 355 356 357 357 356 353 351 351 352 353 351 348 348 348 348 350 350 349 347 348 348 350 351 355 357 356 357 359 360 361 361 362 361 357 356 359 358
327 327 327 327 328 330 332 332 333 334 337 339 340 341 343 346 348 349 352 352 356 356 354 358 359 357 356 356 355 352 353 352 348 348 350 351 351 349 348 346 345 346 349 350 349 346 344 347 350 352 355 356 357 357 360 361 361 363 364 362 361 359 358
327 325 326 326 326 327 329 330 332 333 333 336 338 339 342 342 343 349 351 350 352 355 355 358 359 357 355 356 356 353 352 353 355 355 353 351 354 352 348 347 345 345 347 350 349 346 344 344 347 350 351 355 355 357 361 362 360 364 365 363 361 359 360
324 323 324 324 325 326 327 328 330 331 332 333 336 338 339 341 341 344 345 347 350 354 355 359 357 354 355 356 357 356 355 356 356 356 355 353 357 356 353 349 349 348 348 350 347 345 345 343 344 348 348 350 354 356 357 357 357 358 361 362 361 360 356
322 323 323 323 324 324 326 327 328 329 331 332 332 334 336 339 341 342 344 344 346 350 352 356 356 355 356 358 356 355 354 356 355 354 356 353 351 357 359 355 351 347 347 348 348 349 351 350 347 346 348 348 352 354 353 354 355 355 348 353 359 359 355
322 322 323 324 325 324 325 326 327 327 329 330 331 332 334 335 337 340 341 343 345 348 351 353 354 353 353 354 355 358 358 355 355 355 354 356 356 354 353 356 353 353 359 358 352 351 355 352 348 344 344 347 347 350 349 350 350 344 336 340 347 359 360
320 321 321 322 324 325 325 325 326 327 326 327 329 331 332 335 336 337 339 342 344 347 348 349 350 352 354 355 356 356 355 357 357 357 357 355 355 357 353 354 351 354 360 361 354 367 359 350 350 350 345 344 347 347 348 349 346 333 333 335 337 347 360
319 320 320 321 321 323 324 324 325 327 326 328 328 330 332 334 335 336 337 342 342 345 346 346 346 347 350 353 355 355 356 356 355 356 357 357 358 356 355 356 355 353 349 351 353 355 359 362 355 353 353 348 349 345 347 349 341 329 330 332 333 336 350
318 320 320 321 321 321 322 323 323 326 327 328 331 331 334 335 335 336 337 339 341 343 344 344 344 345 345 348 351 353 354 356 356 355 356 358 356 354 353 352 354 353 354 352 352 352 355 354 354 357 357 354 354 357 351 349 343 327 326 328 330 332 340
317 318 319 320 320 321 322 323 323 324 325 325 328 331 330 332 334 337 338 339 340 341 342 342 342 342 342 343 345 347 349 352 354 355 355 357 357 354 353 353 353 353 355 354 354 351 351 351 355 355 358 356 355 354 353 348 336 325 323 323 325 329 336
317 317 316 318 318 319 320 321 323 322 325 325 323 326 328 330 333 334 335 337 336 337 338 339 340 341 341 340 341 343 345 347 349 351 353 355 356 355 354 354 354 354 358 357 356 355 357 356 352 353 357 358 357 354 353 352 334 322 321 321 323 327 343
317 317 317 319 318 317 320 321 322 322 325 328 322 324 326 330 333 333 335 335 337 340 338 337 337 338 340 341 341 341 343 346 348 349 350 352 354 354 355 355 355 357 359 357 357 355 353 355 352 355 350 350 354 355 356 356 344 323 317 318 320 326 346
317 317 317 317 319 318 319 321 321 322 320 321 320 323 328 329 332 332 332 334 336 335 335 335 335 337 338 339 340 342 342 344 346 349 350 350 349 352 355 357 357 357 360 359 357 355 353 352 353 354 354 351 350 351 353 356 350 325 315 315 317 329 346
316 316 317 317 317 316 317 319 320 320 320 321 318 321 324 326 331 326 326 327 330 331 333 334 335 336 337 338 340 342 343 344 346 347 347 348 349 349 351 353 353 355 357 358 357 356 357 356 352 352 353 354 354 352 350 352 350 328 316 315 315 327 347
315 316 316 316 316 317 319 322 320 318 317 317 319 320 324 322 324 326 325 324 328 327 327 331 333 337 338 339 340 341 344 345 345 345 345 346 348 350 352 353 353 352 352 355 358 355 355 357 356 353 353 356 355 353 352 352 355 351 316 314 313 318 347
315 316 315 315 315 320 317 318 317 316 317 320 322 319 320 321 324 325 326 325 325 327 327 331 335 338 338 340 339 340 341 342 343 345 346 348 349 351 351 353 352 352 352 353 355 356 356 355 354 353 352 352 353 354 354 355 357 357 319 313 312 314 326
315 315 316 317 319 318 316 316 317 317 317 317 318 319 320 322 324 325 326 326 325 326 328 329 334 335 336 338 339 341 341 337 341 343 344 347 347 341 343 351 353 353 353 353 353 352 351 351 353 352 352 354 355 356 358 363 361 361 329 314 312 312 315
314 314 314 315 316 316 315 315 315 315 315 315 317 320 321 321 323 323 325 324 327 328 329 329 330 333 335 337 337 339 340 342 341 337 338 341 343 342 344 348 349 351 351 350 350 349 347 348 351 353 352 353 354 356 357 360 361 343 351 324 310 311 311
315 315 315 315 315 316 317 315 315 314 315 316 319 320 321 322 322 323 323 325 328 329 329 329 330 334 334 335 334 334 338 340 341 342 344 341 343 348 347 347 348 346 348 351 349 347 347 348 347 347 346 346 348 351 353 357 354 346 335 341 316 310 309
314 314 314 315 315 318 317 315 314 315 316 317 319 320 322 322 322 322 322 326 329 329 329 330 329 329 330 332 331 332 333 336 338 341 344 346 349 348 349 348 347 345 343 345 348 348 347 349 345 344 345 347 347 350 353 355 357 356 346 330 322 311 308
314 315 315 315 315 315 315 315 315 315 316 317 319 319 322 321 321 321 323 324 327 327 327 328 328 328 329 328 329 330 330 329 328 331 338 343 347 345 347 344 350 348 345 341 344 349 349 349 348 346 345 345 347 348 351 354 354 353 354 349 344 332 315
313 313 313 313 314 315 314 314 314 315 316 316 318 319 319 320 320 322 324 326 324 324 328 326 325 327 328 329 328 329 329 328 326 327 329 333 337 344 345 344 348 351 351 347 347 348 351 349 347 345 345 345 345 346 348 349 350 352 351 351 355 356 347
312 312 313 314 314 315 314 314 314 314 315 316 318 319 320 320 320 320 322 322 324 324 325 326 326 325 325 325 328 328 329 328 331 333 331 335 338 337 340 348 347 344 343 344 345 343 342 341 343 346 348 348 348 349 349 349 349 348 348 352 354 353 357
312 312 312 312 313 313 313 313 313 314 315 316 317 318 318 319 320 321 322 323 324 325 324 325 326 326 326 326 327 329 332 331 332 330 330 334 337 335 342 339 337 345 346 345 349 346 340 338 338 339 340 343 345 346 347 347 345 349 337 346 334 345 353
311 311 311 312 312 312 313 313 313 313 314 315 316 317 318 318 320 321 321 322 323 324 323 323 324 324 325 326 326 327 328 328 326 329 331 329 327 328 333 338 326 333 338 338 340 331 323 322 336 341 339 337 339 341 340 343 349 326 317 314 313 312 315
310 310 310 311 310 311 311 312 313 314 314 315 317 316 317 318 318 320 320 321 322 321 322 322 322 322 323 325 325 326 327 326 326 328 331 331 330 331 331 330 336 316 313 322 329 323 316 307 308 308 313 331 335 335 326 324 319 313 310 307 305 303 304
310 310 310 310 309 310 311 312 313 314 314 314 315 315 316 316 317 319 318 320 319 320 321 320 319 320 320 321 323 328 329 327 329 329 328 329 332 333 334 333 333 336 321 307 310 311 306 304 303 303 304 307 316 330 335 324 315 310 308 306 303 304 303

ECMWFFLT1_sfc_thetae_093.txt.gz
Theta_e
341 340 342 343 342 344 344 344 347 348 348 346 344 343 340 341 344 349 350 351 352 352 353 355 352 355 354 354 355 355 355 357 356 355 354 355 355 355 355 357 356 356 357 360 358 357 358 358 357 360 364 361 364 365 365 365 363 365 363 362 363 363 361
340 340 342 344 342 344 343 343 345 346 344 344 344 345 342 340 345 348 351 351 352 353 353 356 355 354 354 353 354 354 354 356 358 359 357 357 358 356 356 355 355 355 355 357 358 362 360 360 360 359 362 364 366 366 367 365 363 364 363 363 362 360 357
338 338 341 342 342 343 344 346 346 345 344 344 346 345 347 346 346 348 351 352 352 354 354 356 357 355 356 354 352 353 354 354 356 356 354 356 355 357 356 355 356 356 358 356 358 358 362 362 360 360 361 362 365 366 366 365 364 364 364 362 363 360 357
340 343 345 345 344 343 345 346 346 347 347 346 345 350 352 353 353 352 353 352 352 354 353 355 358 357 358 355 352 352 352 353 354 355 354 354 354 353 353 355 355 355 356 356 360 357 359 360 362 361 366 359 363 365 364 364 365 364 365 363 361 361 359
337 340 341 342 345 346 345 343 344 347 348 354 353 350 349 356 354 356 355 354 355 354 355 355 358 359 359 358 355 354 353 353 353 353 353 352 353 351 350 353 353 353 353 356 355 357 356 358 358 362 361 358 361 362 362 361 362 364 363 361 359 361 361
335 337 338 340 342 344 347 351 348 350 349 347 348 345 350 354 353 353 352 355 354 354 353 357 355 358 358 359 356 355 354 353 353 352 352 352 352 350 349 349 351 351 352 353 355 355 358 357 356 361 360 360 360 359 360 360 361 364 363 361 359 359 361
335 337 339 339 341 343 343 346 349 350 348 348 350 355 352 352 349 352 354 355 352 351 350 349 349 351 354 353 357 356 353 353 353 352 352 352 353 350 349 349 351 349 350 353 352 353 358 356 355 358 358 358 358 356 357 359 358 361 363 360 358 356 359
332 334 336 337 338 341 344 347 350 350 350 350 350 352 350 351 351 351 351 350 351 351 351 352 351 350 348 350 350 354 355 354 354 354 353 352 351 351 349 349 350 349 349 350 351 351 352 356 357 357 357 356 355 355 355 357 356 358 360 360 358 357 360
332 333 334 336 336 338 342 345 349 351 351 348 349 349 349 348 348 349 352 351 350 352 352 352 352 355 352 352 351 349 351 355 355 354 353 352 350 351 350 349 348 351 349 348 349 351 351 352 354 356 356 356 355 354 354 356 356 356 357 358 358 357 358
328 330 332 333 333 334 338 341 344 346 346 346 347 347 348 350 350 351 351 350 349 347 351 354 354 355 353 352 351 351 350 349 355 355 354 352 350 348 349 349 348 350 349 348 347 348 350 351 351 354 356 355 354 354 353 355 356 356 355 356 357 357 356
325 327 329 330 330 331 332 334 336 339 342 344 346 347 347 347 348 349 350 352 353 353 355 354 356 356 354 352 351 352 351 350 349 350 352 352 351 349 347 347 347 347 347 347 346 346 347 351 351 350 355 355 355 355 352 354 356 354 353 355 357 357 356
325 325 327 328 329 329 330 331 333 335 337 339 342 344 346 348 349 350 349 352 355 355 355 354 354 354 352 353 354 352 352 353 349 350 351 351 351 346 343 346 346 346 347 347 346 344 345 347 350 351 352 354 353 356 354 353 355 353 352 352 354 357 356
324 324 325 327 328 328 329 330 332 334 335 337 338 339 341 347 348 351 353 353 353 355 356 355 354 355 354 353 351 349 352 351 348 351 351 351 350 348 346 345 346 344 347 347 346 344 343 344 347 351 352 352 352 353 355 353 355 354 353 352 351 352 354
325 323 324 325 326 326 327 328 328 330 333 336 338 339 340 342 344 346 348 350 350 352 356 357 355 352 351 352 351 351 351 352 353 352 352 353 352 351 350 348 347 346 347 347 346 345 343 343 344 347 352 352 351 351 354 354 353 353 355 355 354 353 351
321 321 322 323 323 324 325 326 327 328 330 333 336 338 339 341 342 344 344 347 350 353 356 356 354 354 354 351 350 350 352 353 353 354 356 354 351 351 351 350 348 348 348 346 346 347 345 343 344 344 349 351 351 351 352 354 354 354 355 355 354 355 354
320 320 321 321 322 323 324 324 326 327 329 330 331 333 336 339 341 343 343 344 347 348 351 356 355 355 355 353 352 353 354 355 355 355 354 352 351 350 351 351 350 348 346 346 345 345 346 344 341 344 345 348 350 350 351 353 355 355 348 352 356 354 354
319 320 321 322 322 323 324 324 324 324 326 327 329 332 333 336 338 342 342 343 345 346 348 350 352 352 353 354 356 355 353 354 353 353 352 353 352 351 351 351 352 348 347 346 346 348 345 344 342 341 344 344 347 349 349 351 353 346 337 339 346 356 354
317 317 319 319 321 322 323 323 322 323 325 327 328 329 331 333 336 338 338 341 343 345 346 345 346 345 349 352 351 352 355 355 354 354 353 354 354 354 353 353 353 349 348 347 346 347 351 348 342 341 342 344 344 346 349 349 347 336 334 335 335 346 356
316 317 317 318 319 320 320 321 322 323 325 327 328 328 330 333 333 334 338 340 341 343 343 343 343 343 344 346 350 350 352 354 355 355 354 353 354 354 354 353 353 352 350 347 347 348 347 349 350 346 341 342 342 343 347 348 340 333 330 332 332 334 347
316 316 317 317 318 319 319 320 322 323 323 326 329 330 331 334 335 335 339 340 340 340 340 340 340 341 341 342 343 345 347 350 353 353 353 355 354 353 353 352 352 354 354 354 353 349 348 349 348 349 350 348 344 343 344 346 341 330 327 327 328 331 337
316 316 315 316 317 319 319 321 320 319 319 323 328 327 329 329 332 334 336 337 336 337 338 339 339 339 339 339 341 343 344 347 348 349 351 354 354 352 351 351 352 353 354 353 352 351 349 349 348 349 350 351 353 350 347 348 338 328 325 323 323 327 333
314 314 314 314 315 316 317 318 320 320 319 324 323 325 327 328 330 331 334 336 335 335 335 336 338 339 339 338 340 341 342 345 347 350 350 352 352 352 352 352 351 351 354 354 354 354 354 353 352 349 349 350 350 350 350 353 338 328 323 321 321 325 337
314 314 314 313 314 316 318 318 319 323 323 320 323 326 327 327 327 328 330 334 335 334 334 334 334 335 336 339 341 341 342 343 345 347 348 349 348 348 351 353 353 353 355 353 353 353 353 352 351 351 352 351 351 349 349 350 341 333 321 316 318 321 335
314 314 314 313 314 315 317 317 318 319 317 315 317 324 326 325 325 324 324 327 328 331 330 331 332 334 334 335 339 341 342 343 344 344 346 347 347 347 348 351 354 354 356 354 352 352 353 353 352 352 352 351 351 351 349 349 344 329 323 319 313 321 332
313 313 313 312 312 313 316 319 320 319 318 315 316 318 323 326 325 324 322 325 325 327 327 327 330 333 333 335 337 339 341 342 343 343 344 346 346 346 347 349 350 351 351 351 352 352 353 354 351 351 351 352 352 354 351 350 344 332 326 323 320 322 330
312 312 311 312 314 315 318 318 314 314 314 315 316 317 319 323 324 327 325 325 325 324 326 326 328 332 333 335 335 338 339 338 338 342 344 344 344 342 346 348 349 349 350 350 351 352 353 353 352 353 352 353 353 353 353 352 352 348 326 314 312 313 329
312 312 312 313 316 321 313 313 314 312 312 314 317 317 320 323 323 323 325 325 323 323 325 325 329 331 332 333 334 337 338 335 336 336 340 344 344 341 343 346 347 348 348 349 349 351 351 352 353 353 353 353 352 352 352 352 352 343 317 322 318 312 318
312 313 313 318 322 319 313 313 313 312 312 313 317 319 318 319 321 322 323 322 323 323 326 327 325 327 331 331 333 333 332 334 335 338 338 339 340 340 339 343 345 347 348 348 348 348 348 348 348 349 350 352 353 353 353 356 351 349 333 324 324 316 312
311 311 312 312 314 316 316 312 312 312 312 315 317 318 318 319 322 322 322 322 321 324 325 325 325 326 327 332 333 330 330 331 337 341 338 338 338 335 335 341 344 344 344 343 345 345 345 344 345 347 348 349 350 352 354 354 350 338 345 330 321 320 310
312 312 312 314 314 314 315 312 313 313 314 316 317 318 319 319 320 322 322 321 320 324 325 324 326 326 328 330 328 328 329 331 334 333 336 339 338 336 336 341 344 344 341 342 340 338 339 343 344 344 344 344 345 349 351 351 350 341 335 340 324 316 312
311 311 311 311 312 315 314 312 311 313 314 315 316 317 319 318 317 320 321 319 323 324 324 324 324 324 324 323 324 325 327 328 328 326 326 333 340 338 340 341 342 342 342 336 333 333 332 336 343 343 342 342 343 345 348 349 349 350 342 330 329 321 314
311 311 310 310 311 313 313 311 312 313 313 314 316 316 319 318 317 317 318 321 322 320 323 323 324 324 324 324 325 325 327 326 325 324 325 326 332 343 342 340 339 342 340 336 333 333 335 341 345 343 342 342 343 345 347 349 349 349 350 348 345 337 322
310 310 310 310 312 314 312 312 311 312 313 313 315 316 317 316 318 317 318 320 319 320 322 322 324 325 324 322 323 323 324 325 325 325 327 327 328 330 335 339 338 341 343 340 339 340 343 344 343 342 342 342 343 344 345 346 347 348 347 346 348 349 343
309 310 311 310 313 313 311 311 310 311 312 313 314 315 316 317 316 317 318 320 321 321 321 322 323 322 321 322 323 324 324 325 332 331 327 328 328 330 331 336 342 340 340 342 343 342 342 340 339 337 336 339 342 342 342 343 344 345 345 346 349 349 350
310 310 309 309 310 312 309 310 311 310 312 312 313 314 315 316 317 319 318 318 319 320 319 320 323 322 320 321 322 323 327 328 328 327 327 325 324 324 326 329 331 329 328 331 341 340 338 337 336 338 338 339 338 335 333 335 336 342 332 342 328 339 347
309 308 308 308 309 309 309 311 310 310 312 313 313 313 314 314 315 317 318 317 318 319 318 320 318 317 316 318 318 320 322 323 323 324 325 324 324 325 327 333 321 320 325 327 332 328 324 323 331 335 336 335 335 336 333 332 335 327 311 312 311 311 312
307 307 307 308 307 308 308 308 313 313 312 311 313 313 313 313 313 314 315 316 317 317 315 316 316 317 316 319 318 319 320 321 321 322 323 324 325 325 324 325 328 315 313 316 322 317 310 309 311 312 316 332 333 331 324 322 317 309 306 304 304 304 303
307 307 308 309 307 308 309 310 310 310 311 311 312 311 312 313 313 313 314 315 315 316 315 315 316 315 316 317 317 319 319 318 319 320 321 322 324 326 326 324 323 325 316 312 311 309 304 303 303 301 301 303 313 328 330 321 313 307 304 302 302 302 300

ECMWFFLT1_sfc_thetae_096.txt.gz
Theta_e
340 340 339 340 340 339 339 340 342 342 341 339 338 337 339 344 346 346 345 346 347 345 350 348 348 353 352 352 354 353 354 352 353 350 351 351 354 352 352 352 353 353 355 355 355 355 357 359 358 360 360 360 359 359 361 362 359 362 359 359 358 361 356
338 339 339 340 339 340 340 341 343 343 341 339 342 342 339 344 346 346 346 347 347 346 349 349 348 352 353 352 354 353 352 353 353 355 352 354 355 354 354 354 353 353 353 357 356 356 357 357 357 358 359 361 359 361 362 362 359 359 359 358 358 357 355
338 339 340 340 340 340 341 342 343 343 342 340 342 344 344 342 347 346 346 347 348 347 349 350 349 350 353 353 353 352 352 353 353 355 350 352 353 354 354 355 354 354 354 356 357 358 359 357 356 358 359 359 360 361 362 361 360 361 359 359 358 357 353
337 338 340 341 341 342 342 343 343 343 344 344 343 344 350 349 347 348 347 348 349 348 349 351 350 350 352 352 352 352 351 352 353 354 353 353 353 353 353 353 354 354 354 354 357 358 360 358 356 357 364 359 360 362 363 362 362 361 360 359 358 357 354
337 340 340 340 341 341 342 341 343 344 344 345 346 348 349 353 351 349 348 349 350 349 351 352 351 352 352 353 353 353 352 352 353 353 353 353 354 353 353 352 352 353 354 355 355 356 356 358 358 356 359 358 360 361 362 362 361 361 361 359 358 358 356
335 335 338 340 341 341 341 343 346 345 346 347 347 348 347 349 348 352 351 351 352 352 352 353 352 353 352 353 353 353 352 352 352 353 352 352 352 351 352 352 352 353 352 354 355 355 354 356 358 357 358 357 359 360 362 361 361 361 361 360 359 359 359
334 335 337 339 342 342 341 344 343 345 344 346 347 348 350 350 348 349 350 349 350 350 352 354 354 354 354 354 352 352 351 351 351 351 352 351 351 350 349 350 353 352 352 353 353 354 353 353 356 358 358 357 358 359 359 359 358 360 360 359 357 356 357
332 332 334 337 340 342 343 343 344 344 344 346 347 347 348 349 349 349 350 350 350 350 351 352 352 355 355 356 354 352 351 351 351 351 351 350 350 350 348 348 350 351 351 350 351 351 354 353 354 358 358 357 356 357 358 358 358 359 360 358 356 355 357
330 330 331 332 335 340 343 342 342 344 344 345 346 347 347 348 348 348 350 351 351 350 350 352 352 352 350 351 353 352 352 351 351 351 350 350 350 350 349 348 348 349 349 349 350 351 351 354 354 354 357 357 356 355 355 356 357 357 358 359 357 355 355
328 328 329 331 332 336 337 339 341 343 343 344 345 345 345 346 346 347 347 347 349 350 348 351 353 352 350 350 351 351 349 350 351 351 350 350 349 349 350 349 348 349 348 348 349 349 350 352 354 354 354 355 354 353 353 353 355 355 356 357 357 356 354
327 328 328 329 331 333 337 337 336 339 340 340 341 344 344 344 346 345 346 347 347 348 350 352 354 352 351 350 348 350 348 349 347 349 350 350 350 349 349 349 349 348 348 347 346 348 349 349 352 353 353 354 353 353 352 352 353 354 354 355 357 357 356
326 326 326 328 329 331 332 334 336 337 337 341 342 342 343 345 346 347 347 347 348 348 350 351 353 352 351 350 349 346 346 351 349 348 347 348 349 349 348 349 348 347 348 347 346 345 347 348 349 352 353 353 353 353 353 352 352 353 353 353 355 355 355
324 325 326 326 327 328 330 332 334 336 337 338 341 345 345 346 345 347 348 348 351 351 349 350 350 350 349 349 348 346 349 350 348 348 349 350 346 346 345 345 344 345 345 347 347 345 344 346 348 349 351 353 353 353 353 352 352 352 353 352 352 354 354
325 324 325 326 326 327 327 329 332 335 337 338 339 342 344 346 347 346 347 347 348 351 351 351 350 350 348 348 348 347 350 350 349 348 349 349 347 347 347 346 345 345 344 345 344 344 344 343 346 347 348 350 352 353 354 353 351 351 352 352 350 351 353
321 321 323 325 323 325 326 327 329 331 334 337 339 339 339 340 340 343 347 347 347 348 348 351 350 350 350 349 347 347 349 350 349 349 348 349 347 347 347 348 346 345 345 346 345 346 344 343 343 345 347 348 349 351 353 353 352 352 352 351 350 349 349
320 320 321 321 322 324 324 325 326 327 329 331 336 338 338 339 341 342 344 343 346 348 351 351 351 350 349 349 347 348 349 349 350 350 349 349 347 347 347 348 348 347 345 343 343 344 345 344 342 342 345 347 347 348 350 351 353 353 345 349 352 350 350
318 319 320 321 321 322 323 324 325 326 327 328 331 334 337 338 339 341 342 343 344 343 345 347 348 350 350 349 349 350 350 350 350 350 349 349 349 349 348 347 348 347 346 344 343 343 344 347 343 340 341 344 347 347 348 349 351 344 335 338 343 353 350
315 316 317 319 320 320 322 323 324 325 325 327 329 331 334 335 338 339 340 341 342 342 344 343 343 341 341 346 350 351 350 351 351 350 349 350 349 349 349 349 348 347 346 345 343 343 344 345 344 342 340 341 344 346 348 348 346 336 333 334 334 344 352
314 315 316 317 318 320 320 321 323 324 324 325 327 328 332 335 335 335 337 338 340 342 342 342 341 341 341 342 344 344 346 351 351 350 349 350 350 350 350 349 348 348 348 347 346 344 342 343 348 346 341 340 340 342 346 347 340 333 331 332 331 332 345
313 314 315 315 316 317 318 319 320 323 324 324 325 327 330 336 335 335 336 337 339 339 339 339 338 339 340 341 342 344 345 348 350 350 351 352 352 351 350 349 348 349 350 350 350 347 344 344 345 346 347 345 341 340 342 344 341 330 328 328 329 330 335
312 312 311 311 312 313 315 315 316 319 322 324 325 324 325 327 332 334 334 334 333 336 337 338 337 338 339 340 341 342 342 344 348 350 351 352 352 350 349 349 349 350 350 350 350 348 346 346 345 345 348 349 350 347 344 344 338 329 324 323 324 327 331
311 311 311 311 311 311 312 315 315 317 320 326 322 322 322 323 327 332 333 333 333 334 334 334 334 337 338 338 340 341 342 343 345 346 348 349 349 349 350 350 348 348 349 351 350 350 350 349 349 348 347 348 348 348 347 349 327 325 322 321 320 323 332
312 311 311 312 312 312 313 314 314 315 318 321 322 321 321 322 323 324 328 330 329 329 330 331 332 333 334 338 341 342 342 343 343 343 344 345 346 346 347 348 350 350 352 350 350 350 350 349 350 348 349 349 348 347 346 348 333 323 316 315 317 323 330
310 310 311 312 312 312 312 313 314 316 315 316 319 321 322 322 322 322 323 324 325 324 324 326 329 331 332 333 337 339 340 341 341 342 343 343 342 343 343 346 348 349 352 351 351 349 350 351 350 351 350 349 349 349 347 348 335 324 319 316 317 327 331
310 311 312 312 311 311 311 312 314 314 316 316 317 319 321 322 323 323 322 323 322 322 321 322 325 327 328 331 332 335 337 339 338 338 340 342 341 340 342 342 345 349 350 348 348 349 350 353 351 351 350 351 351 354 350 349 339 318 318 316 313 325 333
310 312 313 314 314 312 313 314 312 312 313 314 314 317 319 320 321 324 323 322 321 321 321 321 322 322 327 329 330 333 337 335 337 336 336 337 341 337 338 342 344 344 345 347 349 349 350 351 351 351 350 352 351 352 351 349 349 330 314 314 312 319 336
312 313 314 315 315 319 312 312 312 312 313 314 315 317 318 319 320 321 322 320 317 319 321 321 321 322 324 326 329 328 327 329 330 332 333 334 336 339 340 339 340 342 343 345 346 347 348 348 350 351 350 351 352 352 352 352 349 334 312 311 313 317 327
312 312 313 316 319 317 311 311 311 312 314 315 316 317 317 318 320 321 320 316 316 318 321 322 322 322 323 326 327 325 324 325 328 333 336 337 337 334 334 334 338 341 342 342 342 341 343 345 345 345 346 348 352 353 352 355 354 346 318 311 310 311 317
309 309 309 310 311 315 313 310 310 311 313 314 315 315 317 317 318 320 319 315 317 320 322 322 322 322 322 324 323 324 325 326 327 329 330 331 333 333 333 333 334 338 342 338 339 338 337 338 340 342 343 344 346 349 352 352 351 342 343 316 308 309 309
309 309 310 311 312 313 315 310 311 311 312 313 315 314 315 315 316 319 317 314 318 319 322 320 321 322 323 324 323 323 324 325 327 325 325 326 328 331 333 333 334 338 341 338 336 333 331 332 336 339 341 342 342 345 348 349 349 346 336 337 326 316 310
308 308 308 309 311 313 311 309 309 310 311 312 313 314 315 314 314 317 315 315 320 319 319 319 321 322 322 321 321 322 322 323 323 323 324 325 326 327 331 332 335 337 338 339 334 332 331 332 336 339 341 341 341 341 343 346 348 348 344 335 330 321 315
307 307 308 309 309 311 310 309 310 310 312 311 313 312 315 314 313 314 314 316 319 318 318 319 320 321 321 319 320 320 321 321 322 324 326 327 327 327 328 329 333 335 336 336 334 333 332 336 342 343 342 342 343 343 343 344 344 346 347 347 346 339 323
306 306 307 308 311 311 309 309 308 311 311 310 311 312 313 313 314 315 315 317 316 317 318 318 320 322 318 315 316 317 319 320 322 323 323 324 325 326 328 328 331 330 332 335 336 336 338 341 342 341 341 340 341 341 343 343 340 340 343 347 347 346 344
305 306 307 308 309 309 307 307 306 308 310 310 310 311 313 313 313 314 314 315 315 316 316 318 320 317 314 314 315 316 318 319 324 322 319 321 322 322 323 324 327 324 323 324 325 328 333 336 337 334 335 335 337 338 339 338 337 336 336 339 344 345 344
305 306 306 306 307 308 305 308 308 308 309 311 310 310 311 311 312 313 312 313 313 314 314 316 318 317 314 314 314 314 320 319 317 317 317 317 318 320 321 323 324 323 325 325 327 329 330 329 328 332 331 333 334 334 332 333 334 335 327 338 323 329 338
304 304 305 306 307 306 309 310 308 309 310 309 309 310 311 310 311 312 313 313 313 313 313 315 315 313 314 315 315 316 318 317 314 314 316 316 316 317 319 325 318 317 322 323 329 321 312 313 324 329 328 329 331 333 331 331 333 326 313 307 304 304 302
303 303 304 305 304 304 305 308 312 310 310 309 311 311 311 311 311 311 312 313 313 312 312 311 313 315 313 316 315 317 319 317 314 315 314 314 315 316 318 319 321 310 310 311 316 311 305 303 301 300 305 321 328 329 323 320 314 307 304 302 299 297 297
303 304 305 305 304 307 308 308 308 308 309 307 310 309 309 311 311 311 313 314 314 313 311 311 312 311 312 312 313 317 318 316 316 317 316 315 314 315 317 317 317 320 312 309 307 307 304 303 300 298 298 301 308 320 325 319 313 308 304 302 299 298 296

ECMWFFLT1_sfc_thetae_099.txt.gz
Theta_e
336 335 336 339 339 339 338 338 333 332 334 335 336 337 338 341 342 343 344 344 345 344 346 347 347 349 349 351 351 352 351 351 352 350 350 349 350 349 349 349 351 352 352 351 352 353 355 357 357 359 359 358 357 356 356 357 356 359 356 357 355 357 354
336 336 336 338 339 339 338 339 339 333 333 335 336 337 338 340 342 342 343 344 344 345 346 346 347 349 349 350 351 351 352 350 352 354 351 351 353 351 350 350 351 352 352 352 353 354 355 357 358 357 358 358 358 356 357 358 356 356 356 355 355 355 354
335 336 337 338 338 338 338 338 340 338 333 335 336 336 337 341 342 342 343 344 344 344 346 346 347 349 350 349 350 351 352 351 351 351 349 350 351 352 351 351 351 352 353 354 354 355 357 356 356 357 357 357 358 357 357 358 357 356 355 355 355 356 352
335 336 337 339 339 339 339 339 340 342 341 338 338 341 340 341 343 343 343 345 344 344 345 346 346 348 350 349 350 350 351 352 351 352 350 351 351 352 351 351 351 352 352 353 356 356 357 356 355 355 362 357 357 357 358 359 358 357 356 355 354 354 353
335 337 338 338 339 339 340 340 341 341 342 343 345 346 345 344 345 345 344 345 346 345 347 347 347 349 351 351 350 351 351 351 351 352 351 351 352 352 351 352 352 351 352 353 355 357 356 355 354 354 355 356 356 357 358 358 358 358 357 355 354 354 353
335 336 337 337 336 337 338 341 343 342 342 342 344 345 347 349 346 345 345 346 346 346 346 348 347 349 350 351 351 351 351 351 352 352 352 351 351 351 351 351 352 352 352 352 354 355 355 356 355 354 354 356 357 357 358 358 358 358 357 356 354 355 355
332 335 337 336 336 336 338 340 343 345 344 344 344 346 347 349 349 347 348 347 349 347 347 348 348 348 349 351 351 351 350 350 350 351 352 351 351 351 351 350 352 352 353 353 352 353 353 353 355 355 354 355 356 357 358 358 357 358 358 357 355 354 354
330 332 336 340 339 340 341 341 342 343 344 343 343 344 345 348 348 347 348 349 349 349 348 349 349 349 349 350 351 351 351 351 350 351 351 350 350 351 350 350 351 351 351 351 352 352 353 352 353 356 355 355 355 356 357 358 357 358 358 357 355 355 356
331 332 333 335 338 340 340 341 341 341 343 344 343 342 345 346 348 348 349 350 350 349 349 351 351 351 351 350 350 350 351 351 350 350 350 350 349 349 349 349 349 351 350 350 350 351 352 352 352 354 355 355 355 355 356 357 357 357 357 357 356 355 355
330 331 333 335 335 337 339 340 341 340 341 342 343 342 343 345 347 348 349 350 349 349 350 352 353 353 352 351 350 350 350 349 349 349 349 349 349 348 349 349 348 349 349 350 349 349 350 351 352 352 354 355 354 354 354 355 356 356 356 357 356 355 354
328 331 332 334 334 336 336 338 339 339 340 340 341 343 343 344 345 347 348 350 349 349 351 352 352 352 352 352 351 351 349 349 349 349 349 349 349 349 349 349 348 347 347 348 347 348 348 349 351 351 351 354 354 353 353 353 354 354 355 356 356 356 355
325 327 328 330 332 333 334 335 336 337 339 340 341 341 343 344 345 345 347 348 350 350 349 351 352 351 351 350 350 349 349 349 349 349 348 349 349 349 349 349 349 347 347 347 346 346 347 347 348 351 350 352 353 353 353 353 352 353 354 354 355 355 356
324 325 326 327 329 331 334 335 334 335 337 340 342 343 344 344 344 344 344 345 348 349 349 349 351 350 350 349 349 347 347 348 348 349 349 349 349 348 348 348 348 348 347 347 347 345 345 345 346 349 350 351 352 352 353 352 352 352 352 352 353 353 354
324 323 324 326 326 327 329 333 335 335 337 339 342 343 344 343 343 343 343 344 346 348 349 350 350 349 348 348 347 345 346 347 349 348 348 350 348 347 346 345 344 345 346 347 346 346 345 344 345 345 349 350 351 352 353 352 351 351 351 351 351 352 352
321 322 323 323 324 325 326 327 330 333 336 338 338 338 338 340 340 343 344 346 347 348 348 349 348 347 346 347 345 345 346 346 346 346 346 348 346 346 345 345 343 342 342 343 345 346 345 345 344 344 345 347 350 351 352 352 351 351 351 350 350 350 350
320 321 322 323 325 326 327 328 329 330 333 334 336 337 338 339 340 342 343 343 346 348 349 348 347 347 346 346 346 346 347 347 348 347 346 344 343 344 345 346 346 345 343 341 341 342 344 343 342 342 343 344 346 348 350 352 352 353 344 348 352 350 350
318 319 320 322 324 326 327 327 327 328 329 331 334 336 337 338 339 341 342 341 342 342 344 348 347 346 346 345 347 347 347 346 347 347 346 345 345 344 344 345 346 346 344 343 342 341 341 344 341 341 341 342 344 344 346 349 352 344 336 336 340 352 349
317 317 318 319 321 324 326 326 326 326 328 330 332 333 334 335 337 338 339 340 340 341 342 342 344 345 345 347 349 348 347 348 348 347 347 347 346 346 345 345 345 345 345 344 344 343 342 342 342 342 340 340 341 343 345 346 345 335 333 334 333 342 351
315 316 316 318 320 322 323 324 324 324 326 327 330 332 332 333 334 335 337 337 339 341 340 339 340 340 340 342 343 344 347 349 349 348 347 347 346 346 346 345 345 345 344 344 345 344 342 341 341 342 342 340 338 339 343 345 339 332 330 331 331 332 342
312 312 313 315 317 318 319 321 322 322 323 324 327 330 332 333 333 333 336 337 338 338 337 337 338 339 339 340 341 342 344 345 347 348 348 348 348 348 348 347 346 346 347 348 348 345 343 342 341 342 343 343 340 339 339 341 340 330 328 327 328 329 333
310 310 310 311 313 315 316 319 320 320 320 322 325 326 329 330 331 331 332 334 334 335 335 336 337 338 339 339 341 341 342 343 343 345 346 348 350 350 347 345 345 346 347 348 347 346 346 345 343 342 343 344 347 345 344 344 334 328 325 323 323 326 330
309 309 309 310 311 312 314 317 318 319 319 322 321 321 323 324 327 326 325 326 326 328 330 332 332 334 337 337 339 339 340 341 342 343 342 341 342 341 341 343 345 344 345 349 348 348 348 347 346 346 346 346 346 346 345 346 326 327 325 321 321 324 334
309 308 309 309 311 311 314 315 315 317 318 317 319 320 321 322 323 323 323 322 322 322 322 323 323 327 330 334 337 338 337 338 339 341 342 338 338 341 341 343 346 346 347 346 347 348 349 347 348 348 347 347 346 346 345 346 330 321 321 319 318 324 334
309 309 310 310 311 312 313 314 315 316 315 315 316 317 320 322 322 320 320 320 320 319 319 320 320 322 325 327 331 336 335 335 335 335 339 341 337 336 338 340 344 347 350 346 344 345 347 349 348 349 347 347 347 347 346 346 337 318 316 315 316 328 332
309 310 310 311 311 312 313 314 315 316 315 314 314 316 319 320 321 318 317 318 318 318 318 318 320 320 322 325 327 327 329 329 331 333 335 335 338 337 336 337 340 343 345 347 347 346 346 347 349 350 349 349 349 352 349 347 342 319 314 313 313 327 333
310 310 310 311 312 313 313 315 314 313 313 313 313 316 319 320 319 320 318 317 318 317 317 318 319 321 322 323 323 323 325 325 329 330 330 331 333 336 337 339 338 339 342 344 345 346 348 348 349 348 350 351 350 351 350 348 348 339 315 312 312 318 340
312 312 311 312 314 317 312 312 312 311 312 312 314 315 317 319 317 316 318 317 316 317 318 318 320 321 322 322 322 322 323 323 326 327 327 329 331 332 334 337 336 337 338 341 343 343 343 345 346 347 348 348 350 351 351 352 351 344 320 312 311 312 323
311 314 316 317 317 314 311 311 311 311 312 313 314 315 315 317 317 316 315 314 315 316 319 318 319 321 321 321 320 322 321 322 325 326 326 327 329 326 328 332 335 337 337 339 339 339 339 338 339 341 343 345 345 348 349 351 352 350 324 313 310 310 309
309 309 309 310 311 314 311 309 309 310 311 312 313 313 314 315 316 316 314 312 314 316 318 318 319 320 319 320 319 320 320 322 323 324 325 326 327 326 327 329 332 333 336 337 337 336 335 333 333 335 339 342 344 345 346 348 350 342 344 321 312 311 310
309 309 310 310 310 310 312 309 309 309 310 311 312 312 313 312 315 317 314 311 315 316 319 317 319 319 317 318 317 317 319 321 322 323 322 324 325 326 326 328 331 333 335 337 336 334 332 331 332 335 339 342 342 344 346 348 348 345 341 336 317 310 308
307 308 308 308 309 311 309 308 308 308 309 309 311 311 312 311 313 314 312 312 316 315 315 316 319 319 315 314 314 316 316 318 319 320 319 320 321 322 324 325 329 327 329 332 333 332 331 332 334 338 341 341 339 340 342 345 346 347 344 336 333 324 318
306 306 306 307 307 309 308 308 308 308 308 308 310 311 313 311 311 311 310 313 314 313 314 316 318 318 314 314 314 314 315 316 317 317 316 318 319 321 321 322 325 325 326 326 326 328 330 333 337 339 339 338 338 338 339 342 343 343 340 339 339 336 329
304 305 306 306 308 309 306 306 307 309 309 308 308 309 311 309 310 311 311 312 312 312 313 315 317 316 313 311 313 314 314 315 316 315 315 315 316 317 319 320 321 322 324 323 323 324 328 328 330 330 331 332 333 335 338 339 339 337 336 336 337 338 342
304 305 305 306 307 306 304 304 305 307 308 308 306 308 309 309 309 310 310 311 312 311 312 315 315 312 310 311 312 314 316 316 321 317 313 314 316 314 315 317 320 320 319 320 321 323 323 323 324 324 325 325 328 330 333 334 335 335 335 336 337 338 339
304 304 304 304 304 305 304 306 308 308 308 307 306 307 308 308 309 310 310 312 312 311 312 314 315 313 310 311 312 312 319 319 315 313 314 312 313 314 314 316 318 318 318 319 322 322 320 319 319 323 322 324 325 326 327 329 330 333 319 320 310 319 324
303 303 302 303 305 306 309 309 307 308 308 305 306 307 309 308 310 310 312 313 312 312 312 313 313 311 310 312 311 313 316 317 314 313 315 313 312 313 313 319 316 314 316 315 320 316 311 311 316 318 318 320 323 327 325 326 329 318 300 299 299 298 300
302 302 302 303 304 304 305 307 310 309 308 306 309 309 309 310 310 310 312 312 312 312 311 311 313 312 310 313 312 316 318 315 314 315 313 313 311 312 313 312 312 308 306 308 313 307 302 301 302 303 306 318 321 321 317 315 309 302 298 298 298 298 298
302 302 303 303 305 306 306 306 306 306 307 306 308 308 308 310 310 309 311 311 312 312 310 310 311 309 309 311 313 316 317 313 313 315 314 312 311 311 312 310 310 311 307 305 305 305 303 302 302 301 300 300 305 315 316 313 307 302 298 297 297 299 297

ECMWFFLT1_sfc_thetae_105.txt.gz
Theta_e
339 341 342 343 339 337 338 340 343 343 345 345 345 345 346 347 350 353 352 355 356 357 358 360 360 359 359 358 360 360 360 362 362 361 361 361 362 364 363 362 362 364 362 361 363 363 366 368 367 367 369 369 370 370 371 372 371 368 370 371 369 368 367
338 340 340 343 340 338 338 341 343 343 344 344 345 346 346 347 350 350 352 355 356 357 357 358 359 359 359 359 359 361 361 361 362 363 361 363 365 366 365 365 364 365 366 364 365 367 367 367 367 367 367 369 368 371 369 370 370 370 369 370 367 367 367
338 340 341 341 342 338 338 339 342 343 343 343 344 345 345 348 350 351 353 353 355 356 357 357 359 359 359 360 359 360 359 359 361 360 359 358 360 358 363 365 365 364 364 365 368 366 367 366 369 368 367 367 366 370 371 370 370 368 370 371 368 365 367
338 339 343 343 343 344 340 338 340 341 342 343 345 344 346 350 350 352 353 353 353 355 355 356 357 357 358 359 359 360 359 360 360 358 357 358 359 360 362 363 364 364 364 364 364 365 363 366 367 369 369 368 368 369 369 368 368 369 369 371 368 367 368
338 340 341 342 344 345 342 339 338 341 342 345 347 348 347 349 350 351 352 353 352 353 354 355 355 356 358 359 357 358 358 358 359 360 360 360 363 363 361 359 360 361 362 363 366 367 368 367 365 367 367 370 368 369 369 369 368 370 370 370 368 367 365
337 338 341 342 343 344 345 343 342 341 342 344 346 347 347 348 348 348 351 352 353 355 356 356 355 356 356 357 357 357 360 361 362 363 361 363 363 361 360 361 360 361 360 362 364 364 366 365 364 365 364 363 363 363 365 366 367 367 368 369 367 364 362
337 339 341 343 344 346 347 348 346 345 345 345 347 347 347 346 348 350 352 352 355 355 356 356 356 356 356 356 357 359 359 358 359 359 360 360 361 361 361 362 363 360 361 364 363 364 364 364 366 366 365 362 365 362 366 368 367 368 369 369 369 369 368
339 339 341 343 344 345 347 349 350 350 349 350 348 346 347 349 350 351 352 352 355 355 355 355 355 356 358 357 357 357 357 357 359 359 360 358 359 360 360 361 362 364 364 362 364 365 363 365 364 365 365 363 365 366 365 369 371 367 367 368 367 367 363
341 342 341 342 342 343 341 342 348 350 349 348 349 350 351 350 349 349 351 353 354 354 355 355 355 357 359 358 357 357 357 357 358 359 359 357 357 357 357 359 361 364 363 360 361 364 364 364 363 366 367 365 366 368 367 369 367 367 368 368 368 367 364
341 342 343 344 344 342 342 343 346 345 346 346 346 348 349 346 344 349 352 353 353 353 355 355 356 356 358 358 358 358 357 357 357 356 357 356 356 356 357 357 359 362 361 360 359 360 364 364 364 366 368 365 367 368 367 367 366 367 367 368 368 368 368
339 341 341 342 342 343 343 343 342 341 344 346 346 348 349 350 350 351 354 352 352 354 356 357 358 357 356 357 356 358 356 355 355 355 356 355 355 356 356 357 358 360 360 360 359 360 361 364 365 366 366 362 363 365 366 366 367 367 365 367 368 368 366
335 337 339 341 342 342 342 343 343 344 343 343 344 345 345 346 348 349 351 350 353 352 351 352 356 357 355 357 356 357 358 356 355 355 355 355 355 355 356 357 357 358 360 360 359 361 359 361 362 362 364 364 364 364 366 367 368 368 367 365 366 367 367
334 336 337 337 339 340 341 339 338 341 343 343 344 345 345 345 346 347 348 349 350 352 353 353 353 353 355 358 357 357 357 357 357 357 355 357 356 356 357 357 356 357 357 360 359 359 357 358 360 362 362 364 363 362 364 366 365 368 369 367 367 368 367
332 332 334 335 336 336 337 337 339 340 342 344 344 344 344 347 349 349 348 348 350 352 353 354 354 354 353 355 357 357 356 356 358 358 359 361 362 360 358 357 357 357 358 359 359 358 357 357 357 359 360 361 361 363 364 365 364 367 368 367 366 365 366
329 329 331 332 334 337 336 337 338 341 342 343 344 344 345 346 346 347 347 349 350 351 350 353 353 352 350 350 349 350 351 354 358 360 361 362 361 361 360 358 358 358 358 359 357 356 357 357 356 356 357 358 359 360 360 358 359 360 364 364 366 365 362
328 328 329 330 332 333 334 334 335 336 337 339 340 342 343 344 344 345 346 348 349 350 351 353 353 350 349 348 349 350 349 349 352 354 357 358 359 361 360 358 357 355 355 356 357 358 359 359 358 356 355 355 357 358 356 357 358 362 353 355 361 363 361
326 326 327 328 329 330 331 332 332 333 334 335 336 337 337 338 339 341 343 344 347 349 351 351 348 349 348 347 350 350 350 349 347 350 352 354 354 354 355 355 355 355 356 356 355 355 357 356 356 355 355 354 355 355 354 354 355 352 339 338 341 357 362
324 325 325 326 327 328 328 328 329 329 329 330 331 333 335 336 339 340 340 342 343 346 349 348 346 347 348 349 350 351 349 349 348 348 350 352 351 349 350 351 353 354 355 354 353 355 354 353 354 356 355 354 354 353 353 354 354 339 335 335 333 343 358
323 324 324 325 325 325 325 325 325 325 324 324 325 326 327 329 330 332 335 337 339 342 343 343 343 343 345 349 349 350 349 349 348 348 349 350 347 342 343 347 351 353 354 353 354 353 353 355 355 355 354 354 354 352 352 352 346 335 332 332 331 331 345
323 323 324 325 324 323 323 323 322 323 323 323 324 324 326 327 326 327 329 331 333 335 336 337 337 337 337 339 342 346 348 349 349 348 347 348 347 344 343 345 349 354 356 356 357 355 353 352 353 355 357 357 356 357 356 354 350 334 329 327 327 329 335
322 323 322 322 322 322 322 323 323 323 323 323 324 324 323 324 326 327 327 328 329 330 331 332 332 333 334 335 337 339 340 339 340 343 345 347 348 347 346 347 350 351 351 351 351 351 353 352 352 353 355 355 354 355 354 353 342 332 328 324 323 325 334
323 324 322 321 321 322 322 322 322 323 323 323 322 322 323 324 326 326 326 328 327 328 328 329 330 330 331 331 333 335 337 339 339 339 340 341 345 345 343 345 349 349 351 351 353 353 354 354 354 354 355 357 356 355 354 355 334 332 328 324 322 325 343
320 320 321 321 321 320 321 321 322 323 325 324 323 323 323 324 327 327 327 327 327 328 327 328 327 328 329 330 332 333 333 335 336 337 338 339 337 336 338 339 341 346 350 350 352 353 354 354 354 356 355 355 357 356 357 358 339 326 324 325 322 331 353
319 319 320 321 322 322 322 321 321 322 322 322 323 323 324 325 325 325 324 324 325 325 325 325 326 326 327 328 330 332 334 334 334 334 335 336 337 338 339 340 341 341 345 346 348 350 350 351 352 352 353 354 355 355 355 357 347 328 324 321 321 336 353
318 318 320 321 321 320 320 320 320 320 321 321 320 322 323 324 324 322 321 323 322 324 324 324 325 326 325 326 328 330 332 333 333 333 334 335 336 337 338 340 340 342 343 344 345 345 349 348 349 350 351 351 352 354 354 355 346 326 321 318 319 335 355
315 315 317 318 319 319 320 322 321 319 318 318 319 321 322 321 321 322 320 320 321 320 322 324 325 327 328 328 328 328 329 330 331 332 333 334 335 336 337 339 340 340 341 342 344 344 346 346 345 346 348 349 349 349 350 351 349 332 315 313 315 322 350
316 316 316 317 318 321 319 319 318 318 318 320 320 320 321 321 321 320 321 320 320 319 321 324 327 327 327 328 327 327 328 327 328 329 330 331 333 335 335 337 340 340 341 342 345 345 344 342 343 345 347 348 349 349 349 349 345 332 313 312 314 319 333
317 317 318 320 320 319 318 318 319 319 319 321 320 321 321 322 321 321 321 320 319 320 322 324 326 326 327 327 327 327 327 327 328 327 328 330 332 332 332 335 336 337 339 342 342 342 342 342 343 345 345 346 347 347 348 346 343 343 318 313 313 317 325
317 317 316 316 316 318 317 317 317 317 318 319 320 321 320 321 321 320 320 319 321 321 323 323 325 326 326 326 325 326 326 326 326 326 328 329 330 330 331 333 334 335 336 337 338 339 339 341 343 343 343 342 345 346 347 347 346 340 340 318 310 310 312
317 316 315 315 316 317 318 317 316 316 317 318 320 321 321 321 320 320 319 319 323 322 322 323 324 325 324 324 324 323 324 324 325 325 326 328 329 330 330 330 332 331 332 335 336 335 335 335 337 338 338 337 337 340 344 347 345 337 333 332 316 314 313
315 315 317 315 316 317 317 316 315 315 316 317 318 320 321 321 319 318 318 321 324 323 322 322 322 321 321 323 323 323 323 322 323 324 324 325 327 326 326 328 330 328 330 331 331 332 332 333 334 334 335 336 336 337 341 344 345 343 339 334 331 322 317
315 315 315 315 315 315 316 316 315 315 315 316 317 318 320 319 319 318 319 321 322 322 321 322 321 321 322 322 322 322 323 321 320 320 322 323 323 324 324 324 325 327 327 327 327 328 329 330 331 332 332 333 335 336 337 338 341 339 339 337 336 335 328
315 315 314 312 313 314 313 314 315 315 316 316 318 318 318 318 318 321 322 322 320 321 322 322 321 321 321 321 321 321 322 322 319 319 319 321 320 322 323 323 323 323 324 324 324 325 326 326 328 329 330 331 331 333 335 334 336 335 335 337 338 338 337
314 314 316 316 314 314 314 313 314 315 315 316 318 319 318 318 318 319 321 320 321 321 322 322 321 319 320 320 321 320 320 320 321 320 319 320 320 319 320 320 321 320 320 320 320 320 321 323 324 324 325 327 329 331 332 331 333 332 329 331 330 331 333
314 314 315 316 316 315 313 313 313 313 314 314 317 318 319 319 319 320 321 322 322 322 321 320 321 321 320 320 319 319 321 320 320 320 319 319 321 320 321 319 319 320 321 321 321 320 319 321 321 323 323 325 328 329 329 329 329 330 311 317 308 314 321
313 313 313 314 315 316 316 315 314 314 313 313 314 315 315 316 317 318 318 320 321 321 319 319 319 318 318 318 318 318 318 319 318 319 319 317 318 319 320 319 312 315 320 321 319 312 305 305 320 320 321 324 328 329 326 326 328 309 300 298 297 297 298
313 313 313 313 314 316 316 316 316 316 315 315 316 315 314 314 314 315 316 317 317 317 317 318 317 316 315 317 317 317 317 317 317 319 319 319 318 319 319 319 324 302 304 311 315 308 300 299 300 301 306 317 322 323 316 314 307 299 298 296 296 295 294
313 313 313 314 316 316 316 316 316 316 316 316 316 315 315 313 314 314 313 314 314 315 315 315 315 314 314 315 315 316 318 316 317 317 317 318 318 319 318 319 319 321 309 306 309 307 303 300 301 301 301 302 305 316 325 316 306 298 296 296 295 295 293

ECMWFFLT1_sfc_thetae_108.txt.gz
Theta_e
341 340 341 344 345 343 342 343 345 346 348 349 351 350 350 349 351 354 354 358 359 360 362 362 361 362 362 362 362 362 361 360 362 361 360 361 361 362 362 361 362 364 362 362 364 363 367 368 368 367 369 370 369 372 375 376 373 369 371 374 371 370 370
341 341 341 344 346 344 344 345 347 347 348 351 352 353 351 350 353 355 357 362 361 360 361 361 362 361 362 363 363 364 363 361 362 362 361 361 363 364 365 364 363 365 367 366 366 368 369 367 367 368 368 371 368 374 372 372 373 372 368 371 367 369 369
341 341 342 344 346 344 345 345 347 348 350 350 351 350 351 353 356 358 359 361 362 361 361 360 363 360 361 363 363 363 363 361 361 359 359 358 361 359 363 364 365 362 363 366 369 366 365 367 368 369 369 368 365 369 372 373 373 370 370 373 369 366 367
340 341 344 346 345 346 346 346 347 348 349 350 351 350 352 355 357 359 360 361 360 360 359 358 359 358 359 360 361 362 363 363 362 359 357 357 359 360 362 364 366 365 363 363 364 365 364 366 367 368 368 369 368 367 368 368 368 370 371 374 368 368 369
341 342 344 346 345 345 345 345 346 349 349 352 354 354 353 355 356 358 359 359 356 356 356 356 354 356 358 359 358 359 361 361 361 360 359 359 360 362 361 361 362 363 364 365 368 368 368 369 367 368 367 369 369 369 369 370 368 371 373 372 369 367 366
339 343 344 344 345 348 346 347 349 348 349 352 354 354 354 356 355 355 357 357 357 359 360 357 354 355 355 356 356 355 359 362 363 363 359 359 362 360 361 362 361 362 361 364 365 365 367 367 366 366 365 365 364 364 365 367 366 367 370 371 368 364 361
340 340 343 344 345 345 345 345 345 345 348 351 354 354 354 355 356 357 359 358 359 359 360 360 357 355 357 357 356 357 357 357 360 360 359 358 360 361 362 362 363 361 361 364 365 364 364 364 366 367 365 363 364 362 365 368 367 366 369 370 370 369 368
341 341 343 345 346 347 345 345 344 345 347 350 351 350 351 353 354 356 357 358 360 361 360 361 359 358 361 359 356 355 356 357 358 359 359 357 358 360 360 360 362 364 364 361 365 365 362 365 364 365 365 364 365 365 366 368 370 367 366 367 368 368 365
342 344 344 346 347 347 346 346 348 346 346 347 350 351 352 354 354 354 356 357 360 360 361 360 360 362 362 362 359 358 356 357 356 357 357 355 355 355 356 358 360 363 362 360 361 364 364 363 363 364 366 365 365 367 367 369 368 367 366 367 369 368 365
344 344 346 348 348 349 348 350 352 349 347 348 349 351 351 354 356 356 357 357 359 360 361 361 361 361 363 363 362 360 359 357 355 354 355 353 353 353 356 356 358 360 360 360 359 359 364 364 364 365 367 365 366 368 367 367 366 366 367 368 369 369 369
345 345 345 346 349 350 350 349 346 345 345 344 346 350 352 351 352 356 357 358 358 359 361 362 362 362 362 363 362 362 358 356 355 354 354 354 352 352 353 355 355 359 360 359 358 359 361 363 365 365 366 361 364 366 368 367 367 367 366 366 367 367 366
342 343 344 346 347 347 347 348 346 346 346 346 349 349 350 349 351 353 355 356 358 357 360 362 362 362 360 361 360 361 361 357 356 356 355 354 353 353 353 353 354 356 359 359 359 360 359 362 362 362 365 365 364 366 367 367 367 368 368 365 365 365 365
340 342 343 346 346 346 346 346 346 347 348 348 348 349 350 350 349 349 350 351 354 358 358 359 361 362 361 362 361 360 359 358 358 358 357 358 356 355 355 354 353 355 356 359 359 360 359 359 362 362 362 363 361 361 365 367 366 367 368 367 366 366 366
337 339 341 341 342 343 344 345 345 346 346 346 346 348 348 349 351 350 352 351 355 356 356 357 359 360 360 359 360 359 359 358 359 358 361 361 362 361 359 356 355 355 356 358 359 359 359 358 357 360 359 359 359 361 363 364 364 366 367 367 365 364 363
334 335 337 338 339 341 343 342 343 345 346 346 346 346 347 347 349 351 351 352 352 353 353 357 355 353 354 356 356 357 358 358 361 363 363 363 364 366 363 360 359 357 356 357 357 357 359 358 357 358 359 358 358 359 359 357 358 358 362 363 362 362 361
333 334 335 336 337 338 340 341 342 345 345 346 346 347 347 347 347 348 349 350 353 353 354 356 356 355 354 353 354 356 359 361 362 360 362 364 365 366 366 364 362 358 357 356 357 358 359 360 360 358 356 356 358 358 355 352 352 362 362 362 362 362 359
332 332 332 334 335 336 337 339 340 341 343 345 347 346 346 347 347 348 349 350 352 353 353 355 354 354 354 353 354 355 355 356 356 359 359 360 359 362 365 362 361 360 360 359 359 359 360 358 357 356 354 353 354 354 352 348 349 356 343 344 349 360 360
330 330 330 330 332 333 333 333 335 336 336 336 337 340 342 344 345 346 347 348 349 352 353 352 352 352 352 353 354 354 354 354 354 355 356 357 358 359 360 360 358 359 361 360 358 361 359 358 357 357 354 351 350 350 350 350 356 339 339 341 339 352 360
328 328 328 329 329 330 330 330 331 333 333 335 335 336 337 337 336 337 342 345 348 352 353 352 350 350 351 352 353 353 354 355 354 355 355 356 357 358 359 357 357 356 358 360 361 360 361 361 359 359 358 355 354 354 352 352 344 337 336 337 335 336 353
328 328 328 329 329 330 330 330 330 330 331 331 332 333 334 333 334 335 338 338 340 342 344 345 344 345 347 350 351 352 355 356 356 357 357 357 358 357 355 355 354 357 358 360 361 360 360 359 360 360 361 360 358 359 358 356 347 335 333 333 331 332 341
329 328 326 326 327 329 330 330 329 330 330 331 331 332 334 334 333 333 333 334 335 338 339 341 342 342 343 344 346 348 349 350 353 354 355 356 356 354 352 352 354 356 358 357 356 357 358 357 358 359 359 359 359 359 357 357 337 331 330 329 327 330 339
327 327 326 327 327 328 328 329 330 329 330 334 331 330 330 331 332 330 332 333 332 331 333 335 337 337 338 339 340 343 345 347 347 350 352 351 352 351 350 351 350 350 353 355 357 357 356 358 357 358 359 360 361 359 358 355 326 330 328 327 326 330 349
327 326 326 327 328 327 327 328 329 331 332 332 331 332 332 332 332 332 332 331 331 331 331 332 332 334 336 338 339 340 341 342 342 343 344 345 344 344 346 347 348 350 352 352 354 355 355 356 357 360 359 360 361 360 361 358 332 323 323 324 324 334 357
323 322 322 324 327 327 326 326 328 329 329 329 329 330 332 333 333 332 331 331 331 330 330 331 331 332 334 336 338 341 342 343 342 341 341 341 340 343 344 345 345 348 352 354 353 351 353 356 356 358 360 360 359 358 358 357 338 322 320 321 323 342 358
322 321 321 321 322 322 323 323 324 325 327 327 326 328 329 330 330 329 328 330 329 330 330 331 332 332 331 332 336 339 340 341 341 342 341 340 339 340 341 341 343 345 347 348 348 349 351 355 356 355 357 356 356 357 355 356 342 317 319 320 324 343 362
325 321 321 322 322 322 323 323 322 322 322 322 323 325 327 326 326 326 325 325 328 328 329 331 333 334 334 333 334 337 339 339 338 340 340 340 339 339 340 344 345 346 345 345 346 345 346 348 351 353 355 354 354 353 353 351 346 330 314 316 320 325 353
323 323 322 321 321 323 320 320 320 319 320 322 322 322 324 324 324 323 324 324 325 326 327 330 333 333 334 334 334 334 336 337 338 338 340 341 340 340 340 342 343 345 344 346 346 345 344 345 347 348 347 349 349 346 345 344 341 335 313 313 315 319 331
320 320 321 322 322 321 319 318 319 319 320 321 321 322 322 324 324 323 324 323 322 324 327 329 331 332 332 332 332 332 333 335 337 338 338 341 342 341 340 341 343 343 345 346 345 344 345 344 343 342 344 344 344 346 346 344 342 341 321 313 312 314 320
321 319 319 319 320 320 320 319 318 318 319 320 322 323 323 323 323 323 323 322 323 323 326 327 328 329 329 330 329 331 332 333 334 335 337 338 340 339 339 340 342 342 344 344 343 343 343 343 343 342 342 343 343 347 347 343 340 336 338 320 313 312 314
321 321 318 317 318 319 318 317 317 318 320 320 322 322 322 323 322 323 322 322 325 325 326 327 327 329 328 327 327 328 330 331 332 333 335 336 337 337 337 337 338 338 340 342 340 338 338 338 341 341 339 338 341 344 345 344 343 338 335 333 319 315 313
319 318 319 320 320 320 318 317 317 318 319 320 321 322 322 323 322 322 321 323 326 327 326 326 326 326 326 327 326 326 327 327 329 330 332 333 334 334 334 335 336 334 336 336 336 337 336 336 339 340 341 340 340 341 342 340 340 341 339 334 333 323 320
320 319 317 317 318 319 318 319 317 318 318 318 319 320 322 322 323 322 323 325 326 327 326 326 326 326 326 326 326 326 326 324 323 325 328 329 330 331 331 332 332 332 332 332 333 334 334 334 335 335 337 337 338 338 338 339 339 340 341 342 339 336 327
318 319 318 316 318 319 317 317 317 316 318 318 320 320 320 320 322 324 325 325 324 324 326 326 325 325 326 325 324 325 325 325 324 322 323 325 325 327 328 330 330 331 331 331 330 330 330 331 332 332 333 334 334 336 337 338 338 336 335 336 336 336 339
319 320 320 319 319 319 318 317 316 315 316 317 319 320 320 321 321 322 324 323 323 323 323 323 323 323 324 323 324 324 324 324 321 323 323 323 324 323 323 324 327 327 327 327 326 327 327 329 329 328 329 330 332 335 336 334 336 334 329 330 329 331 335
320 321 320 318 319 319 320 320 319 319 318 317 319 318 319 320 321 322 322 322 323 323 322 321 321 323 323 323 323 323 325 324 324 323 323 323 327 324 322 322 323 326 327 325 325 324 324 327 327 327 328 330 332 331 332 333 333 328 309 316 305 313 321
319 319 318 319 319 318 318 318 318 317 317 318 319 318 318 318 319 320 321 321 322 322 321 321 322 322 322 322 322 322 322 323 322 323 323 322 322 325 323 319 313 318 325 324 320 311 303 304 324 323 326 329 332 332 328 327 324 306 300 297 296 296 297
313 314 315 318 318 317 317 317 317 318 317 318 318 316 315 315 315 316 317 319 320 321 321 321 320 320 319 320 319 317 321 321 321 323 324 323 323 323 323 324 321 302 305 315 317 309 301 297 299 302 308 320 326 325 311 308 302 299 297 297 296 294 294
314 315 317 318 317 317 317 318 318 317 317 318 317 316 316 314 314 314 314 315 316 318 319 320 319 318 318 318 318 319 320 320 321 322 321 322 322 324 323 323 323 325 305 302 305 301 299 300 300 299 300 303 307 320 328 315 305 298 297 296 295 295 293

ECMWFFLT1_sfc_thetae_111.txt.gz
Theta_e
342 343 347 351 344 342 343 343 345 344 345 346 346 348 349 349 352 352 352 355 357 359 361 364 363 363 363 361 362 361 360 360 360 361 360 360 360 360 362 361 361 362 356 358 359 359 362 364 364 363 366 368 368 372 375 373 370 367 368 376 368 370 371
340 340 344 348 346 342 343 345 346 344 345 346 347 349 350 350 352 351 353 355 356 357 360 361 363 363 364 364 363 363 362 360 361 364 361 362 364 364 362 362 360 360 364 361 365 363 364 365 366 365 366 369 366 372 372 370 370 371 366 367 365 369 369
340 340 342 345 348 343 344 343 345 346 345 346 348 349 350 353 352 353 354 354 355 357 358 359 363 362 364 364 364 362 362 360 360 360 360 359 361 360 362 363 362 360 360 361 363 359 364 366 367 367 368 365 363 369 372 370 372 365 369 373 366 363 364
340 339 342 344 348 352 346 344 344 345 346 348 350 350 351 352 353 354 353 356 354 354 356 355 358 358 360 363 363 364 362 361 360 358 357 359 360 359 361 363 364 360 358 359 359 360 359 361 364 367 367 367 366 365 366 367 365 367 369 370 363 366 371
341 342 342 342 344 345 343 342 343 345 347 351 353 353 352 353 353 353 354 355 351 352 352 352 353 354 357 360 359 360 361 360 360 358 357 357 361 360 359 359 358 360 360 360 361 362 366 363 362 365 364 368 367 368 368 367 367 369 370 370 363 364 364
341 340 340 341 343 346 343 342 343 344 347 349 352 352 353 353 352 353 355 354 352 353 354 352 350 352 354 355 356 356 360 361 362 361 358 358 360 358 358 359 355 357 359 359 357 360 364 366 363 363 364 362 363 363 365 366 364 367 367 370 364 361 358
342 341 341 344 346 346 347 347 345 347 349 351 353 354 354 352 355 357 359 355 355 355 354 352 352 351 352 354 355 356 356 359 359 358 358 357 357 359 359 359 361 357 359 361 359 361 362 363 365 365 364 363 362 361 362 364 365 363 366 367 365 367 366
341 342 345 345 347 345 343 346 348 349 351 353 352 352 354 354 361 359 353 355 356 356 354 354 353 355 357 354 354 354 354 355 357 358 357 355 355 356 357 359 360 361 362 358 360 363 358 363 363 364 364 359 360 363 361 365 367 364 364 366 363 362 356
344 344 345 347 348 347 348 349 351 351 351 352 354 356 356 357 359 359 360 360 359 357 357 355 354 356 357 354 355 355 353 354 355 356 354 353 352 351 354 357 358 361 359 358 357 361 360 358 360 362 363 360 363 361 362 367 366 365 363 364 366 364 362
344 346 347 347 349 348 349 350 351 351 350 352 353 353 354 355 358 359 360 360 362 362 362 361 359 357 360 361 359 357 354 355 354 353 354 351 351 351 352 354 356 358 358 357 357 357 359 360 361 362 365 364 360 363 364 366 366 364 363 364 366 366 364
343 343 345 346 348 349 349 349 351 353 354 355 355 355 355 356 356 357 358 361 361 362 363 364 363 362 359 361 361 361 356 354 354 353 353 352 350 350 350 352 354 357 358 356 356 355 358 360 359 359 365 361 362 366 365 365 366 364 362 363 365 366 365
343 345 345 345 346 347 347 349 349 350 351 354 357 356 355 355 356 357 359 361 362 363 365 364 365 362 361 363 362 361 360 357 355 354 353 352 352 350 350 351 351 355 356 356 358 355 355 356 355 358 363 364 363 364 364 365 366 365 366 364 364 363 364
343 343 345 341 342 342 345 346 347 346 345 346 354 356 354 354 357 357 358 359 362 364 365 365 365 364 363 363 363 361 360 357 356 356 354 353 353 352 352 351 350 351 353 354 354 355 352 354 356 357 360 364 362 361 364 365 365 367 367 365 365 363 363
342 342 344 344 342 343 342 345 347 347 344 346 347 351 349 348 349 351 353 357 360 360 361 365 365 365 364 363 362 362 359 357 355 355 358 358 359 356 353 352 352 352 354 354 354 354 353 352 353 355 359 361 361 362 364 365 365 366 369 365 364 363 364
340 341 343 344 342 342 341 345 346 348 348 348 349 349 350 350 349 349 350 350 351 353 357 360 361 364 364 364 363 362 363 361 361 359 360 362 363 362 358 356 354 353 354 356 356 354 354 354 353 354 355 358 358 358 358 359 359 361 362 363 364 364 361
337 338 339 340 342 343 345 346 346 348 347 348 348 349 350 349 349 351 350 351 354 355 356 356 357 356 357 358 360 363 365 366 366 365 365 362 362 365 365 361 360 356 355 355 356 357 358 358 356 354 353 355 358 357 354 354 356 362 363 362 362 360 359
336 336 337 338 340 342 343 346 348 349 350 350 349 349 349 349 349 350 351 353 354 355 357 357 355 355 355 355 357 360 362 361 361 362 360 362 366 367 367 363 362 360 360 357 357 358 362 359 357 355 354 351 352 355 353 352 353 352 344 348 354 363 361
334 336 336 336 337 339 340 341 342 343 343 346 348 350 350 351 351 350 350 351 352 354 357 357 355 354 354 354 356 356 356 356 356 355 355 357 357 360 362 365 366 364 363 360 357 359 355 354 354 357 354 354 354 354 353 353 355 337 340 344 345 358 358
334 335 335 336 337 338 338 339 341 342 342 343 343 344 347 349 349 349 350 351 353 355 354 354 354 352 352 354 354 355 355 356 355 354 354 354 355 356 357 357 360 363 360 359 360 359 359 359 354 354 353 352 352 350 350 349 340 335 338 340 340 343 358
334 335 336 336 336 336 336 335 335 336 338 339 341 343 345 346 346 346 347 348 350 351 352 352 350 350 351 354 355 356 354 354 352 353 354 356 356 357 357 357 357 360 362 361 361 351 349 353 356 355 359 354 353 357 351 352 339 335 335 336 336 338 348
333 333 334 333 334 334 334 334 333 335 336 337 339 340 341 342 342 343 344 346 346 347 348 349 349 349 349 350 352 353 354 351 348 347 351 352 351 350 350 350 357 361 360 362 355 351 351 351 353 353 356 355 354 353 350 349 334 332 332 332 332 334 347
331 331 331 332 333 334 334 334 334 333 334 337 337 337 338 338 340 340 340 342 342 343 343 344 343 343 344 343 344 346 347 348 349 348 348 348 348 348 348 349 359 361 363 358 356 355 357 356 346 342 348 355 356 353 352 344 324 329 330 328 330 336 353
331 330 331 332 332 332 334 334 334 334 336 337 335 335 335 337 338 338 338 338 338 338 337 338 338 340 341 342 344 345 346 347 347 343 344 345 347 344 344 349 357 358 360 355 352 351 351 350 348 350 348 347 351 354 355 348 329 322 322 324 325 339 356
331 330 329 329 330 331 332 332 333 335 335 334 334 335 335 336 336 336 335 336 337 335 333 333 334 336 338 339 341 344 344 345 345 345 346 346 345 346 348 348 350 352 357 354 351 350 351 353 352 352 352 349 349 350 350 347 330 318 318 321 323 335 356
325 326 326 326 325 325 326 327 329 330 331 330 329 333 333 334 335 335 333 335 335 335 334 334 333 333 335 336 339 342 344 344 344 343 342 342 344 346 346 348 350 351 355 356 354 353 354 354 351 354 352 352 350 349 347 344 335 318 317 318 321 340 359
320 320 322 324 326 326 326 326 324 323 324 325 326 327 329 330 330 331 331 331 333 331 330 332 334 335 335 337 338 339 340 341 343 343 344 343 342 343 345 346 348 349 350 349 348 347 346 349 351 351 349 348 347 344 344 342 337 329 314 316 319 323 350
320 320 319 319 320 323 320 319 318 318 319 321 324 326 327 328 327 326 327 328 329 329 330 334 335 336 336 336 336 336 337 337 339 339 341 343 343 344 345 347 348 348 346 345 346 346 345 347 345 344 343 344 346 345 344 342 340 332 315 313 315 319 332
320 318 318 320 322 321 320 320 320 321 320 321 321 322 324 327 327 327 326 325 324 327 330 332 334 335 334 336 336 337 337 337 338 339 340 342 344 344 343 344 346 348 347 345 346 346 346 345 345 344 343 343 345 345 343 343 342 340 323 316 313 315 320
320 320 321 320 320 320 318 316 317 318 321 322 323 324 324 325 325 325 325 324 325 325 327 329 330 330 331 333 334 336 337 337 338 337 338 338 340 341 342 345 346 346 347 347 346 345 345 345 345 344 344 345 346 345 342 341 341 337 339 322 315 313 316
321 321 321 322 321 321 321 319 319 320 321 321 322 323 324 324 324 325 325 324 326 327 328 328 329 330 329 328 329 332 334 336 337 338 337 338 339 339 339 341 343 343 344 344 343 343 342 342 342 342 341 342 343 342 342 340 339 336 337 333 320 318 315
317 316 317 318 318 319 320 322 322 320 321 321 322 324 325 324 323 324 324 327 329 328 328 328 329 327 326 327 327 327 327 330 334 336 337 337 337 337 337 338 340 338 340 341 340 340 340 341 342 342 342 341 342 342 341 340 340 339 338 334 329 321 320
318 316 314 314 316 318 318 319 319 318 319 320 322 322 325 323 322 321 323 326 327 330 329 328 327 327 327 326 325 326 326 327 327 328 332 335 336 336 336 336 336 336 337 337 337 339 337 338 337 338 340 340 340 339 339 340 340 340 340 339 340 333 322
319 317 316 316 318 320 319 318 316 316 318 317 321 323 323 322 322 324 325 325 324 325 328 329 328 327 327 327 326 325 325 323 325 325 325 327 329 333 334 334 333 336 336 335 334 335 334 335 336 334 333 336 337 337 339 339 339 337 336 336 334 334 338
319 318 320 321 321 321 320 319 318 318 317 317 320 321 322 321 321 322 323 323 323 324 325 324 325 325 325 324 324 324 325 323 322 326 325 323 326 325 327 329 332 331 329 328 328 329 330 331 332 331 332 331 332 335 337 337 332 328 328 329 329 330 333
321 322 323 322 322 322 320 320 320 319 316 316 318 318 318 320 321 322 322 323 324 325 324 324 325 325 326 326 326 324 326 327 325 324 326 327 328 324 323 321 324 329 328 323 324 323 323 328 330 331 331 333 333 333 334 333 326 321 308 315 305 313 321
321 322 322 323 323 323 322 321 321 320 320 319 318 316 315 316 318 320 321 324 324 324 323 323 324 325 323 324 322 323 325 326 325 323 324 325 326 328 323 319 310 317 324 323 319 307 303 308 322 323 328 331 332 329 327 324 319 304 298 297 297 297 297
324 322 320 320 319 319 320 319 320 320 320 320 318 317 317 316 316 316 317 320 322 322 323 322 323 323 321 322 319 318 323 323 323 326 325 325 324 326 326 324 322 302 304 316 317 305 295 295 297 301 307 321 328 320 308 308 302 297 296 296 296 295 294
322 322 321 321 322 319 319 318 319 319 319 319 318 317 318 316 316 316 316 318 319 320 322 323 323 322 320 320 321 322 322 323 322 324 323 324 325 327 324 326 326 322 307 299 302 300 296 295 295 297 300 301 309 324 328 314 304 297 296 296 296 295 294

ECMWFFLT1_sfc_thetae_114.txt.gz
Theta_e
343 345 347 351 340 340 340 342 344 345 347 345 344 345 346 345 351 354 354 358 360 359 362 363 362 363 361 361 362 364 362 363 362 360 363 364 364 364 360 358 360 365 362 359 359 360 366 369 366 364 369 370 369 371 375 375 374 369 373 375 374 375 372
339 342 345 349 346 340 342 344 345 345 346 345 344 348 346 347 351 350 355 358 359 359 360 361 363 362 361 361 361 364 363 363 364 365 361 365 367 369 365 363 364 365 368 364 375 370 367 363 364 365 365 368 366 373 368 371 371 370 369 372 371 373 371
336 340 344 348 349 344 343 342 345 345 345 343 343 344 346 351 351 353 355 355 358 360 359 359 362 360 361 362 362 362 361 360 361 358 357 355 357 358 362 365 362 361 361 362 368 363 364 363 369 367 367 366 361 370 371 370 371 368 372 372 368 367 371
335 337 343 348 350 353 345 344 344 345 343 345 345 344 347 354 350 355 353 355 355 358 358 358 359 358 359 361 360 361 360 361 360 357 356 356 357 357 359 362 366 361 362 360 359 359 359 363 363 368 369 368 367 368 369 368 365 367 369 373 371 367 371
340 341 343 347 348 348 350 343 343 346 345 348 350 351 349 350 350 350 352 354 354 354 356 356 357 358 359 359 357 358 358 357 358 358 357 358 363 362 359 356 358 358 362 359 364 365 369 366 362 366 366 370 365 368 366 367 366 370 370 369 368 367 367
339 339 341 346 347 349 350 354 346 346 347 349 351 352 351 352 349 348 350 351 352 356 357 356 354 356 355 357 357 357 359 361 362 363 360 360 360 357 358 359 358 358 359 359 360 360 361 362 360 361 361 360 360 360 362 363 363 363 368 369 366 363 360
340 340 341 345 347 349 348 348 349 352 348 353 353 353 353 351 353 354 355 353 355 356 356 354 351 353 355 356 356 357 357 356 358 355 356 354 359 357 358 359 360 356 357 362 360 359 361 362 363 363 361 359 361 357 364 367 365 364 368 368 369 368 368
340 340 341 344 346 346 346 347 348 350 356 352 352 351 352 354 361 361 362 354 355 358 357 354 349 354 356 356 354 353 354 355 356 356 356 354 353 354 354 355 358 358 359 356 360 359 358 360 359 361 362 360 359 363 363 366 369 360 363 365 366 364 359
340 344 343 343 345 346 347 347 347 348 351 352 351 351 355 359 359 359 358 360 361 358 357 353 350 356 356 355 353 354 353 354 355 355 354 353 351 351 352 354 356 358 357 355 356 359 359 359 359 367 366 364 364 368 363 365 362 362 364 365 365 363 359
344 344 345 344 347 349 347 347 349 349 350 350 353 356 360 361 361 361 363 363 361 360 358 353 356 355 358 358 357 351 351 353 353 353 352 351 351 351 351 352 354 358 359 357 356 356 361 361 362 367 368 364 365 364 365 364 363 361 362 364 365 363 364
345 346 347 348 348 349 351 352 353 354 356 358 356 357 358 356 358 357 356 357 358 361 361 362 360 361 359 357 355 356 350 349 350 350 351 350 349 349 349 350 351 356 356 356 355 356 358 361 362 366 365 360 360 362 364 362 365 365 360 360 361 363 361
344 345 343 342 342 343 344 351 354 352 354 357 354 351 353 354 354 355 353 355 358 356 360 361 366 364 354 360 359 360 360 352 350 349 350 351 350 348 348 349 349 351 355 356 357 357 356 357 358 360 361 361 362 362 364 367 366 366 364 359 359 363 362
342 342 342 343 343 344 346 345 344 346 350 357 356 357 357 358 356 354 352 353 356 358 357 355 362 365 361 363 358 357 356 353 356 353 349 351 351 350 350 349 349 349 351 355 356 355 355 355 357 359 358 362 362 361 365 365 362 367 367 364 364 364 362
340 341 343 344 343 343 343 345 345 346 348 354 355 358 360 361 360 355 355 354 356 354 353 358 363 365 364 363 361 359 354 353 352 353 359 362 362 358 351 349 349 350 352 356 355 354 355 354 354 355 357 358 360 362 363 365 363 366 366 365 363 361 361
338 338 338 340 341 341 342 343 344 344 345 349 352 352 353 355 356 358 358 358 356 356 358 364 367 366 365 366 364 363 365 365 364 365 366 366 370 371 363 357 352 355 359 358 354 353 353 354 353 353 355 356 359 361 361 359 360 362 362 362 363 360 361
332 335 336 337 339 339 340 341 344 343 344 347 347 346 345 347 349 350 352 353 353 355 358 362 364 363 364 365 366 367 366 367 366 368 369 369 367 366 367 360 360 355 352 354 354 357 361 360 356 353 353 354 358 359 358 356 358 365 361 362 364 363 358
332 334 335 333 334 337 340 341 342 344 345 346 344 343 342 345 348 350 350 351 352 353 355 355 357 357 358 360 363 365 365 363 365 365 364 362 362 367 367 366 364 362 358 357 358 363 361 361 356 351 354 353 354 355 356 355 355 355 344 345 355 362 363
331 332 334 334 335 336 336 338 338 340 342 344 346 348 347 347 348 347 349 351 351 354 356 357 356 354 354 355 358 360 361 361 361 360 358 355 355 358 361 362 362 364 362 361 359 358 355 354 354 356 353 352 352 352 353 354 358 340 338 342 344 358 361
333 337 335 335 334 335 337 336 335 336 337 338 341 341 345 350 350 350 353 352 353 354 355 355 354 353 353 355 356 356 358 359 357 356 354 350 351 352 354 356 358 357 360 360 359 359 356 356 356 358 359 356 352 349 351 354 344 335 335 335 338 343 359
335 335 335 334 335 335 334 335 336 338 338 339 342 343 344 345 346 346 347 349 351 352 353 353 353 353 352 353 354 355 356 355 355 354 353 353 352 352 350 349 354 356 364 362 360 355 353 354 356 356 357 356 356 360 355 347 334 327 328 332 334 339 350
333 332 332 332 332 333 335 337 339 338 337 339 340 342 341 342 343 343 345 346 345 346 344 343 344 346 348 348 348 350 352 352 353 353 353 354 355 356 356 357 358 356 360 361 358 357 357 358 357 356 353 352 351 350 347 344 329 327 327 329 333 337 352
332 333 332 332 332 332 332 335 336 336 337 341 341 341 341 340 342 342 342 341 340 341 340 342 343 343 343 342 343 346 347 348 349 348 348 350 351 352 352 352 352 352 354 357 359 358 360 358 357 354 353 353 352 348 347 342 325 325 324 324 326 335 355
330 330 331 332 332 332 334 335 333 333 334 336 336 337 337 338 339 339 338 337 338 339 339 339 339 341 343 343 344 346 347 348 346 343 344 345 346 347 348 347 348 351 353 351 353 354 356 356 354 354 352 351 352 351 349 346 327 322 320 322 325 342 355
329 328 326 325 324 323 331 335 334 334 334 334 333 335 337 338 338 337 335 334 334 333 333 335 336 338 339 342 345 346 347 347 347 345 345 345 345 345 346 346 347 347 351 352 352 351 353 354 354 352 352 351 351 351 348 344 326 318 318 319 323 339 354
324 325 325 323 321 319 319 321 323 325 328 328 328 332 336 337 339 335 333 334 332 333 332 334 335 338 338 337 341 346 347 346 345 346 345 345 345 346 347 348 348 349 350 350 350 351 351 352 351 351 351 351 350 352 348 340 331 317 317 318 321 339 355
319 319 319 320 320 319 320 323 321 321 321 322 325 327 328 328 328 331 330 329 330 330 330 332 334 335 336 337 337 340 343 343 345 344 343 343 344 346 347 348 350 350 350 351 351 348 348 348 349 348 349 350 350 348 342 337 333 327 315 316 319 324 347
318 319 318 319 319 324 320 320 320 319 320 323 325 326 328 327 325 325 328 328 327 328 329 332 335 336 337 338 336 336 339 341 342 342 344 345 346 347 347 349 348 349 347 347 347 347 345 343 342 342 344 346 345 342 341 338 335 329 315 314 316 320 335
319 320 319 319 321 320 318 318 319 319 319 321 323 325 325 326 325 326 325 324 324 326 328 330 333 335 334 337 337 338 338 338 343 343 342 345 346 345 346 348 349 348 346 344 344 343 344 343 343 341 342 343 342 342 341 343 341 338 321 316 314 315 323
321 320 319 320 320 319 318 317 318 318 319 320 322 323 324 325 325 324 324 322 325 326 328 327 327 329 330 334 334 335 336 339 340 339 339 339 342 344 344 347 347 347 348 347 346 345 342 341 342 342 341 340 341 340 339 340 341 337 336 320 314 315 317
319 319 318 320 322 322 322 319 319 319 320 321 321 321 321 322 323 324 324 325 327 328 329 330 330 330 328 329 331 332 335 336 337 339 340 340 341 342 342 343 343 346 348 346 344 343 342 342 340 339 339 336 337 338 337 337 338 338 337 332 320 316 314
316 316 316 316 318 321 321 319 319 319 320 322 322 323 324 322 322 323 322 324 329 329 329 329 329 328 326 326 327 329 329 332 334 337 339 338 340 341 343 340 343 340 340 341 341 343 342 343 341 341 341 339 338 338 338 338 339 339 339 334 327 319 317
315 314 314 316 317 317 318 319 319 318 317 320 322 323 325 323 323 323 325 326 326 326 329 329 328 328 329 327 325 325 327 328 329 331 329 334 335 336 339 337 336 341 342 340 342 342 342 341 340 340 340 340 340 339 339 341 340 338 337 336 340 333 323
314 314 315 316 319 320 318 318 318 318 318 319 323 324 324 322 321 324 326 325 322 322 326 326 328 329 328 328 325 326 327 325 326 331 330 329 335 332 331 340 337 331 329 326 324 328 334 335 338 339 335 337 336 338 338 333 330 329 330 331 331 332 333
317 317 319 321 322 322 321 320 319 319 317 318 320 322 322 322 322 324 324 325 325 324 325 326 324 324 324 323 322 323 324 321 326 328 323 323 326 321 321 325 330 327 320 317 318 319 322 325 331 330 331 332 335 335 331 328 325 322 320 321 319 323 327
319 320 321 321 321 321 320 320 319 317 317 317 316 318 320 320 320 322 324 324 324 326 327 326 327 326 325 325 327 333 330 329 326 323 325 323 325 321 319 320 322 324 322 322 321 319 318 322 321 325 328 329 327 331 330 325 322 319 309 312 305 309 317
320 321 321 323 323 323 323 323 322 320 319 317 314 314 315 317 319 319 320 322 325 326 325 324 324 323 322 321 319 322 324 325 323 324 324 323 322 319 319 316 307 315 322 320 316 304 302 310 319 320 326 328 322 324 322 320 319 307 299 297 297 297 297
323 323 324 323 322 323 323 322 322 321 320 319 318 316 316 316 316 317 319 320 321 320 323 323 324 323 321 321 319 321 323 321 322 326 329 325 324 326 323 319 320 299 300 309 308 302 294 294 296 301 308 326 321 313 308 308 301 296 297 297 297 296 295
324 327 327 326 323 321 320 320 320 320 319 318 318 317 317 316 315 317 316 318 318 320 320 318 319 322 322 321 321 324 325 323 323 324 324 327 329 327 329 325 320 321 301 297 302 301 296 295 296 296 298 302 313 327 321 307 297 294 295 296 297 297 296

ECMWFFLT1_sfc_thetae_117.txt.gz
Theta_e
344 341 341 342 335 336 337 338 340 341 342 343 342 343 345 349 350 352 353 355 356 357 359 357 357 356 356 356 356 357 352 357 356 355 354 356 357 356 357 359 357 357 357 355 356 356 358 361 359 362 364 365 363 367 367 367 367 369 367 365 367 365 361
341 343 342 344 340 335 336 339 339 341 340 342 341 342 345 348 350 352 353 354 356 357 358 358 357 356 356 356 356 357 354 356 357 361 356 358 360 357 358 358 358 359 358 356 358 357 361 363 360 361 363 366 365 364 368 368 366 365 366 365 365 364 364
339 341 342 342 345 338 336 338 339 341 341 342 341 342 344 347 350 352 352 354 354 356 358 358 357 357 355 356 355 356 355 356 356 358 356 358 358 359 358 359 358 358 359 361 362 360 361 359 360 359 362 364 363 365 366 366 365 363 363 364 362 365 361
338 339 341 342 344 347 341 338 339 342 342 341 341 342 344 348 350 353 353 355 354 356 355 356 357 356 355 355 355 355 355 355 356 357 355 356 358 356 358 357 358 358 358 358 361 360 360 358 359 361 367 362 361 364 365 364 364 363 365 363 362 362 362
338 339 340 341 344 345 347 338 339 341 340 341 341 343 346 348 351 353 354 356 355 355 356 356 357 357 356 356 357 356 356 355 355 354 353 353 355 356 356 356 357 356 357 355 357 359 362 358 359 361 361 361 361 364 364 364 362 362 363 363 362 361 361
336 337 339 341 344 345 347 343 339 340 340 340 340 342 347 348 351 352 353 355 354 355 356 356 355 356 355 355 356 355 355 355 354 355 354 354 354 354 353 354 356 354 357 355 359 357 360 358 358 360 360 362 361 363 363 363 363 363 363 364 362 359 362
336 336 337 340 344 345 345 345 339 341 340 341 342 345 347 348 349 351 352 353 355 353 354 354 355 355 355 355 354 355 353 354 354 355 355 358 355 354 355 355 356 355 355 357 356 357 357 357 356 357 359 358 358 357 358 359 359 360 360 361 360 359 360
336 336 337 339 344 346 346 345 346 343 344 343 342 346 344 346 348 349 349 352 353 354 354 353 353 355 354 355 355 355 354 355 354 354 353 352 354 353 355 355 356 355 355 356 356 357 356 359 358 358 357 357 356 356 358 359 360 360 360 361 360 360 362
337 338 339 341 344 344 344 345 344 343 346 344 344 345 346 350 348 348 349 350 352 353 352 353 351 354 354 354 353 354 355 354 354 353 352 351 353 353 354 354 355 355 354 354 356 356 357 358 358 357 357 357 357 356 359 359 360 360 358 360 360 359 358
340 340 341 342 343 343 342 344 346 343 342 345 346 348 349 350 352 350 348 350 352 350 351 352 350 352 352 352 352 352 353 352 353 353 352 351 350 352 352 353 354 355 353 353 354 354 355 357 356 359 357 358 358 360 358 358 358 358 357 358 359 359 358
339 340 339 339 341 341 340 341 341 339 340 345 350 352 352 352 354 354 351 353 351 350 350 350 350 351 351 351 350 350 350 351 352 352 352 351 350 349 349 350 353 355 353 353 353 353 354 357 358 361 360 359 359 358 358 359 358 358 358 358 359 359 359
339 342 340 339 339 340 339 340 341 343 347 349 351 351 351 351 352 352 353 354 357 355 355 351 355 350 350 349 350 348 347 349 350 350 350 350 349 348 348 348 349 354 355 354 353 352 354 356 356 361 358 357 358 358 357 358 359 359 359 358 358 358 359
335 337 337 338 338 341 341 341 344 348 348 348 348 349 350 350 350 349 350 354 355 355 353 354 357 355 349 349 348 349 349 348 347 348 349 350 348 348 347 346 346 351 354 355 354 354 353 355 355 358 359 357 358 359 359 358 360 360 360 360 359 357 358
338 339 336 337 337 338 339 340 342 346 347 346 346 347 350 352 350 348 349 351 352 352 352 355 355 357 356 353 352 351 352 351 352 352 349 348 349 348 348 346 345 345 352 354 353 353 353 352 353 355 357 357 357 358 359 360 360 359 361 361 360 358 358
334 336 335 334 335 334 336 338 339 341 347 350 349 347 348 348 348 348 348 348 350 350 352 354 355 351 353 355 352 352 353 354 355 360 362 360 358 358 360 360 355 354 352 353 354 354 353 353 353 353 353 355 356 358 359 360 360 360 361 361 360 360 357
330 333 334 334 333 334 335 335 338 340 342 341 341 344 346 347 349 350 350 348 349 350 352 353 353 352 350 349 348 342 345 351 360 360 358 357 359 360 360 360 359 356 353 356 357 354 353 353 352 351 351 352 354 356 359 358 353 354 356 363 359 357 357
329 329 331 332 334 335 334 335 336 337 338 339 340 340 341 342 345 347 348 346 347 348 350 351 350 351 351 350 347 344 347 345 346 351 350 351 351 354 357 359 360 358 356 354 354 354 353 350 350 350 350 351 352 353 356 352 353 349 335 340 356 359 353
328 329 330 331 332 335 334 334 334 335 337 339 340 341 343 344 345 345 344 344 345 347 349 349 347 346 349 352 350 347 347 351 351 350 349 348 348 348 349 352 355 357 356 356 354 353 354 352 353 349 352 355 353 350 352 355 352 338 333 334 335 348 356
331 330 330 330 331 332 333 333 334 335 337 337 337 338 340 340 340 340 344 345 347 347 347 348 347 346 348 350 350 346 345 347 348 346 349 348 348 347 346 345 345 351 354 356 355 353 353 353 355 353 352 350 348 349 350 349 344 333 332 332 332 334 347
329 330 331 332 333 333 334 334 334 335 336 336 337 340 340 340 339 340 342 342 344 346 346 347 349 349 348 348 348 349 350 349 347 346 348 349 348 348 345 343 343 346 352 358 354 350 351 353 352 352 352 354 353 350 347 348 335 326 327 329 331 333 339
328 329 330 330 331 332 333 335 335 336 337 338 339 340 340 340 341 340 339 340 339 341 341 341 342 342 343 343 344 346 349 351 351 350 349 350 350 349 348 348 350 352 353 353 351 352 352 353 353 352 351 350 348 347 345 345 331 326 328 327 330 335 347
329 330 330 331 330 330 331 332 334 336 337 340 339 340 341 339 339 337 336 338 337 338 339 339 340 341 342 341 342 344 345 346 346 345 346 346 346 346 347 348 347 347 350 351 352 353 357 357 356 353 351 350 348 347 343 337 322 323 324 324 327 332 347
319 319 320 323 329 333 334 335 335 336 337 336 337 336 336 337 336 334 334 334 335 335 336 336 336 337 340 342 344 345 346 346 344 343 343 343 344 345 346 344 344 346 347 346 349 351 352 354 354 352 352 351 350 348 345 340 324 318 320 322 325 339 354
321 318 317 318 319 319 322 325 327 330 333 334 335 336 336 335 334 333 332 332 333 333 333 333 334 335 336 338 343 344 345 346 345 343 343 342 343 343 344 344 344 343 348 346 346 347 348 351 350 350 351 352 351 348 345 335 324 318 317 318 322 342 354
317 317 317 318 318 318 320 323 327 328 329 326 324 325 329 334 333 331 330 331 331 331 330 331 332 333 334 335 338 341 343 344 344 344 343 343 343 344 343 343 344 345 346 345 345 347 347 348 347 347 348 349 349 354 341 334 329 317 318 318 320 339 352
317 316 317 318 318 318 319 321 320 321 323 324 324 328 327 325 326 328 327 328 329 328 329 331 332 333 334 335 336 338 340 342 345 345 343 342 343 344 345 346 347 347 346 345 345 345 344 343 344 345 347 349 350 345 338 333 332 328 315 317 319 328 352
317 317 316 316 317 321 317 317 318 318 319 321 325 326 325 324 323 323 325 325 325 326 327 329 331 331 332 333 333 333 335 337 342 341 342 344 346 345 344 345 345 345 345 344 344 342 340 340 340 342 343 345 346 339 336 334 331 328 314 314 318 326 338
315 315 317 320 322 320 317 317 316 317 318 320 322 324 324 324 323 323 323 323 322 323 325 326 328 329 329 330 330 331 333 334 342 339 339 340 344 343 343 344 346 344 343 343 341 339 339 340 340 338 337 337 339 340 338 339 336 332 320 315 314 318 327
316 316 316 316 317 320 319 317 316 316 316 318 319 321 323 324 323 323 323 322 323 327 328 326 325 326 328 328 328 329 330 333 335 339 339 340 342 342 341 342 344 344 344 343 342 340 338 339 339 336 334 332 333 334 336 337 336 334 331 319 314 313 316
314 315 317 319 319 318 319 317 317 318 318 319 319 320 322 323 322 322 321 320 323 324 327 330 331 327 327 329 329 329 329 330 330 328 339 341 340 340 340 339 340 343 343 343 342 340 338 338 336 333 330 329 329 331 333 336 336 336 336 329 315 313 312
311 313 315 315 316 319 318 316 316 318 318 319 321 322 321 322 321 321 319 320 324 324 324 326 329 328 326 321 323 330 328 327 325 327 326 326 327 326 331 335 331 326 324 328 335 339 338 338 336 333 331 329 329 332 335 338 338 334 334 335 332 321 319
311 313 314 315 315 317 317 317 317 317 319 320 320 321 322 321 320 319 320 322 324 324 325 326 328 326 325 325 325 323 327 324 323 324 324 324 324 327 327 324 322 322 320 319 321 325 335 339 338 336 334 332 331 334 334 328 326 325 325 328 331 330 324
311 311 313 314 316 318 317 316 316 316 318 317 319 319 320 320 320 319 320 321 323 324 325 326 326 328 325 323 322 324 326 327 326 324 325 321 320 320 323 326 321 317 319 318 315 319 326 330 337 337 337 337 330 324 324 322 320 319 319 318 319 321 324
311 314 316 317 318 320 318 316 314 314 315 315 314 317 318 318 319 320 318 319 321 321 323 326 326 322 320 322 324 325 326 327 329 325 321 320 317 316 316 318 320 317 316 317 316 316 318 321 325 326 328 328 327 324 321 320 318 315 314 315 315 316 319
315 316 317 317 319 320 316 316 315 314 315 314 314 315 315 315 316 319 320 321 321 322 322 324 327 324 318 319 318 321 328 327 323 322 319 315 317 315 316 315 319 319 316 318 314 312 315 320 321 323 321 322 324 323 319 317 316 315 308 311 305 309 313
317 317 317 319 319 319 319 319 315 315 314 311 312 313 313 314 314 316 319 319 319 320 321 322 324 322 319 318 318 321 323 323 324 324 323 316 314 313 314 314 304 310 319 319 316 307 299 304 317 319 318 315 315 318 317 315 315 307 301 298 298 297 298
317 317 317 319 318 319 319 319 320 318 315 313 313 312 313 313 314 314 316 318 319 319 317 316 320 321 320 319 319 324 324 322 321 322 323 325 322 317 316 315 313 297 301 309 308 302 295 294 296 304 314 318 311 310 306 306 301 297 297 297 298 296 296
319 319 320 320 320 318 317 317 318 317 316 315 315 314 313 312 312 314 315 316 317 317 316 316 315 314 318 321 323 324 325 322 324 322 322 321 323 324 321 318 318 317 300 296 302 301 296 295 294 295 298 307 313 315 308 300 296 295 295 295 295 296 295

ECMWFFLT1_sfc_thetae_120.txt.gz
Theta_e
338 338 338 334 333 334 334 333 334 335 335 336 338 343 347 350 351 352 352 352 352 353 353 354 355 354 353 354 353 353 351 350 355 354 353 353 352 353 352 355 355 355 355 353 354 355 355 355 355 358 359 359 358 360 360 361 361 363 361 360 361 362 356
336 337 339 339 335 334 335 335 335 336 336 337 338 344 348 350 351 352 352 353 353 354 354 354 355 354 354 354 353 353 351 351 354 356 354 356 357 355 354 356 355 355 356 354 354 355 356 358 357 358 359 362 359 362 362 361 361 362 362 359 361 359 359
336 337 339 340 339 334 335 336 336 337 337 339 339 344 348 349 351 352 353 353 354 355 354 354 356 354 354 354 353 353 350 352 353 353 352 354 355 355 356 357 356 356 356 356 354 355 358 359 357 358 360 361 361 361 363 363 363 363 362 360 361 362 357
336 338 341 342 343 339 335 337 337 338 339 340 340 345 347 349 352 353 354 354 354 356 354 354 355 354 354 353 352 353 350 353 353 353 353 354 355 354 356 356 356 357 356 355 357 356 359 358 357 358 367 360 361 361 362 364 364 362 361 360 358 360 358
336 338 340 341 342 343 340 336 338 339 339 341 341 346 348 350 351 353 354 355 355 356 356 355 356 355 355 354 353 354 352 353 353 354 353 354 356 355 355 356 356 356 356 357 358 358 357 356 356 356 360 359 359 361 361 362 362 361 360 359 358 358 358
335 337 338 339 340 341 343 339 337 339 340 340 341 345 348 349 351 351 353 355 355 356 357 356 355 356 354 354 353 354 353 353 353 354 353 354 355 354 355 355 356 355 355 354 357 356 357 355 355 356 356 358 359 360 361 361 361 360 359 359 358 359 359
335 336 337 338 339 340 342 342 339 340 340 341 341 346 348 349 350 351 352 353 354 354 355 355 355 355 354 354 353 354 352 352 352 353 353 353 354 353 354 355 356 354 355 354 354 354 357 355 355 356 357 357 358 359 359 359 360 360 359 359 357 357 357
334 335 336 337 339 342 339 339 339 341 344 345 342 344 346 348 350 350 351 353 354 354 354 355 354 354 353 354 353 352 352 352 353 353 352 352 352 353 353 353 355 354 355 353 354 354 355 355 355 357 358 357 357 357 359 359 359 359 358 359 357 357 359
335 336 338 337 340 340 341 340 339 339 342 343 345 344 345 348 349 350 351 352 353 353 353 355 354 355 354 353 352 352 352 352 352 352 352 352 352 352 353 353 354 354 354 354 354 355 353 354 354 355 356 356 356 355 355 357 358 358 357 357 357 357 357
333 334 337 342 342 341 339 340 341 341 341 340 341 343 345 347 349 350 351 352 352 353 353 354 354 354 354 352 352 353 352 352 352 352 352 351 352 352 353 353 354 355 353 353 354 354 354 354 355 354 354 354 354 354 354 355 356 357 357 357 358 357 357
335 335 337 339 339 338 338 339 339 339 340 339 340 342 343 346 348 349 350 352 351 352 354 354 354 353 353 352 351 352 352 352 352 351 351 350 350 352 352 353 353 354 353 352 353 354 354 354 355 354 354 354 354 354 355 356 356 356 356 356 357 358 357
335 336 335 337 337 336 336 337 337 338 339 340 340 343 344 345 347 349 350 351 352 352 353 353 352 353 353 352 351 351 351 352 351 351 350 350 350 350 351 352 352 352 353 352 352 353 353 353 354 355 354 354 354 355 356 356 356 355 355 355 356 357 357
335 334 333 332 334 336 336 336 336 337 339 341 346 347 347 346 346 347 348 349 352 352 352 352 350 352 352 351 351 349 351 351 351 351 350 350 350 349 349 350 350 351 352 352 351 352 352 352 353 357 356 356 356 356 355 355 356 356 355 356 355 355 356
334 333 334 335 334 333 333 335 338 338 340 344 345 345 345 343 345 346 347 347 348 346 348 351 350 350 350 350 349 345 347 349 352 351 350 350 350 350 348 347 347 350 351 352 351 351 351 351 352 356 357 357 356 356 357 355 355 355 356 356 357 355 355
331 331 332 332 332 332 332 333 335 338 340 340 342 341 342 343 342 343 343 343 343 344 346 346 346 346 348 346 344 343 346 351 353 355 355 356 350 349 347 349 345 346 351 352 351 352 352 352 353 353 355 356 355 355 357 357 357 358 357 358 357 357 355
328 329 330 330 331 332 333 333 335 337 338 339 339 341 342 342 341 342 343 344 345 346 346 347 346 345 342 343 344 346 348 350 351 350 350 352 354 354 355 355 353 347 348 351 352 351 352 351 352 352 353 353 354 354 356 357 356 360 359 360 358 356 357
327 328 330 330 331 333 332 333 335 336 337 337 338 340 341 341 340 341 341 342 343 343 345 345 345 346 344 342 343 345 346 348 348 349 347 347 349 351 353 355 354 351 349 350 351 351 352 350 349 349 351 352 352 352 355 354 356 356 342 342 347 358 355
327 328 329 330 331 332 332 333 333 334 334 335 337 338 339 340 341 341 340 341 342 343 345 344 343 343 345 345 343 345 346 347 347 347 346 346 346 346 345 350 352 351 350 350 350 350 351 349 349 349 349 350 351 352 352 353 357 339 337 337 336 348 355
328 329 329 330 331 331 332 332 333 333 334 335 336 337 339 340 340 340 342 343 344 345 344 345 345 344 344 345 344 344 344 344 345 345 345 345 345 345 344 342 344 350 351 349 349 349 348 346 347 346 348 349 347 349 351 350 345 334 335 334 333 334 349
327 328 329 329 331 331 332 333 334 335 336 336 337 338 339 340 339 339 341 342 343 344 344 344 344 344 344 345 345 345 345 344 345 345 345 346 345 345 342 342 341 342 347 351 348 346 347 348 347 348 347 346 345 347 348 347 342 331 331 331 331 332 339
326 327 327 328 328 330 332 333 335 335 336 337 337 337 336 337 338 338 339 340 340 340 340 341 341 341 342 343 342 343 345 347 346 345 345 346 347 346 344 344 342 345 348 349 346 345 344 345 347 346 349 349 348 346 345 347 329 327 328 328 329 332 344
320 321 321 323 323 325 329 332 333 333 334 337 335 334 335 334 336 336 336 337 337 338 339 340 340 340 341 340 341 343 344 345 345 344 345 344 344 345 345 345 344 346 347 347 346 347 348 347 347 346 345 346 345 345 344 335 322 325 326 326 327 335 344
317 317 319 320 322 323 325 327 330 334 334 333 333 333 333 334 334 333 333 333 333 334 335 335 336 337 340 341 342 342 343 343 342 342 341 341 341 341 343 342 343 343 344 342 343 344 347 347 348 348 346 346 347 344 342 340 326 320 320 322 324 333 343
316 317 318 319 321 323 324 325 325 326 326 328 332 334 334 333 332 331 330 331 331 331 332 332 333 334 336 338 342 342 342 343 342 340 341 340 340 340 341 341 342 342 347 344 344 343 344 348 347 348 349 350 347 345 343 340 328 319 317 317 320 335 346
315 316 316 317 318 319 322 324 325 326 325 325 325 327 330 331 331 330 329 329 329 330 329 330 331 333 334 335 338 340 341 342 341 341 341 341 341 342 342 341 342 343 344 344 344 344 345 347 346 346 347 349 349 353 346 338 333 319 316 317 319 333 350
314 314 315 316 317 319 320 322 322 322 322 322 323 326 327 327 326 327 325 325 326 325 326 327 329 330 332 332 333 335 337 341 343 343 342 342 341 341 341 345 346 345 343 342 342 343 344 347 346 344 344 347 348 348 340 335 333 330 314 316 322 327 347
314 315 314 315 317 321 317 319 320 320 320 321 323 325 326 326 325 324 325 323 322 323 324 327 329 329 331 330 330 331 334 338 339 338 339 342 341 342 343 343 343 344 343 342 342 341 340 340 340 342 343 345 344 338 335 335 332 328 314 313 321 330 339
314 316 318 321 321 318 315 316 317 318 319 320 323 324 324 323 322 322 322 323 324 326 325 326 327 328 328 328 327 328 329 332 338 338 339 340 342 341 337 338 344 343 342 342 341 339 338 339 339 336 336 337 338 337 337 338 336 333 322 314 312 321 330
313 314 315 315 316 320 317 315 315 316 317 319 321 322 323 322 321 321 320 320 321 325 329 330 327 326 328 328 326 328 328 329 332 334 334 334 335 332 328 327 325 327 339 341 338 337 336 335 334 333 332 332 332 333 334 334 336 334 333 320 312 312 317
313 314 314 315 317 318 320 315 316 317 318 319 320 320 320 320 320 321 320 318 321 324 327 327 326 324 324 328 328 326 326 326 327 326 328 329 329 327 324 324 324 323 320 325 339 337 335 332 330 329 328 327 328 330 333 334 334 334 333 328 317 313 313
311 312 312 313 315 319 316 315 316 317 318 318 319 319 319 318 319 320 319 319 325 323 323 325 326 325 323 323 324 326 324 323 322 323 325 325 324 321 320 321 321 318 318 321 323 336 333 331 330 328 328 329 330 330 327 327 327 326 328 329 328 319 315
310 311 311 312 313 317 315 316 317 317 317 317 318 318 321 318 317 318 317 320 322 322 323 326 326 326 324 324 325 325 324 321 320 319 319 321 323 322 319 319 319 320 320 320 321 324 335 331 330 329 329 330 328 323 322 323 323 322 323 325 326 327 320
309 309 309 310 314 316 314 315 316 316 316 315 315 316 318 317 318 317 318 319 320 321 322 326 324 324 322 320 322 324 324 320 319 318 319 317 318 320 320 317 317 316 320 320 320 322 328 335 332 330 331 326 322 322 322 319 318 317 318 318 318 320 321
307 309 311 311 314 316 312 312 312 313 313 313 312 314 315 315 315 316 316 317 319 319 322 326 324 317 316 319 322 325 323 324 328 320 315 315 314 315 317 316 315 315 315 316 316 319 322 325 327 327 325 322 321 320 319 318 318 316 313 315 315 316 318
308 311 312 312 315 316 311 312 313 312 311 310 310 311 312 312 313 315 315 316 316 316 319 324 325 321 315 317 319 322 325 324 320 315 314 313 313 312 311 314 316 316 316 315 312 312 316 323 322 322 320 320 319 318 316 317 316 316 308 310 305 307 313
310 312 313 314 317 315 314 314 312 311 311 309 308 309 311 310 311 312 315 315 315 315 316 320 322 317 315 317 319 321 321 322 321 319 316 313 312 312 312 311 303 308 316 314 310 303 299 304 315 318 319 313 311 313 314 313 313 303 298 295 295 296 297
311 312 313 314 314 314 313 313 314 312 311 308 310 310 312 311 309 309 312 314 315 314 313 313 317 317 316 319 319 322 322 321 319 320 320 318 315 315 315 312 311 298 299 308 306 300 295 295 299 305 311 318 314 310 302 301 298 294 293 294 294 293 294
313 313 314 314 315 315 315 315 315 312 312 309 310 310 310 310 309 309 312 313 313 313 312 313 314 312 314 316 318 323 323 319 320 322 321 320 321 319 318 316 313 313 301 296 301 299 296 295 295 296 298 302 308 315 311 305 298 294 293 293 293 293 293

ECMWFFLT1_sfc_thetae_123.txt.gz
Theta_e
335 337 333 329 328 327 327 331 334 336 337 339 341 343 344 345 346 347 346 346 346 346 348 350 351 352 351 351 351 351 351 351 353 351 350 349 349 349 350 349 348 349 349 348 350 351 352 354 354 355 357 357 357 357 358 359 358 360 356 356 356 358 354
332 336 337 332 330 329 328 330 333 336 337 339 341 342 344 345 346 347 347 346 347 347 348 350 352 352 352 352 352 351 349 349 354 355 352 351 353 350 352 352 350 350 350 350 351 353 353 353 354 354 355 357 357 356 358 358 358 357 357 355 355 356 356
331 334 337 337 331 330 329 329 332 336 337 338 340 342 343 345 347 347 348 347 347 348 349 350 352 351 352 352 351 351 350 348 352 354 351 351 351 351 351 354 353 352 353 352 352 353 356 353 353 354 355 355 357 356 358 358 358 358 357 356 357 359 354
331 333 336 339 337 333 331 330 331 334 337 338 339 341 344 346 347 348 349 349 348 349 348 350 351 352 351 352 351 350 350 349 350 353 353 352 352 352 351 353 354 354 354 353 354 355 357 355 355 354 361 356 357 357 359 359 359 359 359 357 356 357 356
332 333 335 338 340 336 332 331 332 333 335 338 339 342 344 347 348 349 349 350 350 349 350 351 352 352 352 352 353 352 351 350 349 351 352 352 353 353 352 352 354 354 354 355 354 355 354 354 355 354 356 357 357 358 358 360 360 360 358 358 356 356 356
331 331 333 335 339 340 335 333 333 333 334 336 337 341 345 347 348 349 350 351 350 351 351 351 351 353 351 352 353 352 352 351 351 351 351 351 352 352 352 352 354 354 354 354 356 355 354 354 354 355 355 357 357 358 359 359 360 360 358 357 356 356 356
332 332 332 334 337 340 341 336 334 334 335 337 338 342 345 347 348 349 350 350 351 351 351 351 352 353 352 353 352 352 351 350 351 351 351 351 352 352 352 353 355 354 355 355 354 356 354 354 353 353 354 356 358 357 358 358 358 359 358 356 355 355 355
333 333 333 334 337 340 342 342 337 336 337 338 337 341 344 347 348 349 350 351 351 352 352 352 352 353 353 353 353 351 352 350 351 352 351 350 351 352 352 352 354 354 354 353 354 354 354 354 354 354 354 354 355 356 357 358 357 358 357 356 355 355 357
336 335 335 336 337 339 341 341 338 337 338 337 338 340 343 345 347 348 349 351 351 352 353 353 353 354 353 353 352 351 352 351 350 351 351 350 350 351 352 352 353 354 353 353 353 354 353 354 354 354 354 353 354 354 355 357 357 357 357 356 356 355 356
332 333 335 337 338 339 339 340 338 337 338 337 338 341 343 345 347 348 349 350 351 351 353 354 354 354 353 352 352 351 351 350 350 351 351 350 350 350 351 352 352 354 353 353 353 352 353 353 353 353 354 354 354 353 354 355 356 357 357 356 356 356 355
333 334 335 334 334 335 336 336 335 335 337 337 337 340 343 345 346 347 348 350 351 351 353 354 354 353 353 352 351 351 350 350 350 350 350 350 350 350 351 351 352 353 353 353 352 352 352 352 352 352 352 354 354 353 353 354 355 355 356 356 356 356 356
332 331 331 332 333 334 334 335 337 337 339 340 341 340 340 341 345 348 349 349 350 351 352 353 354 353 352 351 350 350 349 350 350 349 349 350 350 350 351 351 351 352 353 353 352 352 352 352 352 352 351 352 353 353 353 353 354 354 355 356 356 356 356
331 330 331 332 332 332 334 334 335 338 340 341 342 342 342 342 343 342 341 342 343 343 344 347 349 352 352 351 350 349 349 349 349 350 350 350 350 350 350 351 351 351 352 353 352 351 352 352 351 353 352 352 352 352 353 353 354 353 354 354 354 354 355
332 331 331 331 330 331 331 333 336 337 340 340 341 342 342 342 343 343 343 342 345 345 345 346 346 345 346 348 349 349 349 350 350 350 350 350 350 350 349 350 350 350 352 353 351 351 351 351 351 352 353 352 352 353 353 353 353 353 353 354 354 353 353
328 329 329 330 330 331 331 333 334 336 338 340 341 341 341 341 342 343 343 345 346 346 346 347 347 345 344 344 347 347 348 349 350 351 350 351 349 349 349 348 348 349 349 351 351 352 351 352 352 351 352 353 353 353 354 354 353 354 354 353 353 353 353
328 328 329 330 331 331 332 334 335 335 337 338 339 340 340 340 341 342 343 344 345 345 345 347 346 343 342 343 343 343 344 346 349 350 350 351 350 348 348 348 346 346 346 348 350 350 351 350 351 351 351 352 353 353 354 354 355 359 359 359 355 354 354
328 328 328 330 331 331 332 333 334 335 335 337 338 339 340 339 341 342 343 344 344 344 345 346 344 343 342 341 342 342 344 345 345 346 348 350 350 350 348 348 348 346 344 345 347 348 349 350 348 349 350 351 353 352 353 355 357 357 344 346 355 359 354
327 328 329 329 331 332 332 332 333 333 335 336 338 339 339 339 340 341 341 342 343 343 345 345 344 343 342 342 342 342 343 344 345 344 343 344 344 343 342 344 346 348 345 344 345 348 349 349 348 349 349 350 351 352 352 353 357 344 341 343 344 357 356
327 328 328 329 330 331 331 332 333 333 334 336 336 338 339 340 339 339 340 340 341 343 342 342 343 343 342 342 342 342 342 343 343 342 343 342 341 339 340 340 339 339 343 346 347 347 348 347 347 347 348 349 349 350 352 352 347 339 339 339 338 341 357
325 326 326 328 330 331 333 333 334 335 335 335 336 337 339 340 340 341 342 343 342 342 341 341 341 341 342 343 342 341 343 342 342 342 342 343 342 339 338 339 339 340 344 345 344 343 344 345 344 344 343 345 347 349 350 351 347 336 335 335 335 336 344
322 323 323 324 325 327 330 332 333 333 333 334 335 336 336 336 339 340 340 340 340 341 340 340 340 340 340 341 341 341 343 343 343 342 342 343 343 342 342 340 339 342 344 342 340 341 341 342 344 345 347 345 345 344 346 350 342 332 332 331 331 333 344
319 321 321 322 323 324 326 329 330 331 331 333 333 333 334 334 336 336 336 337 338 339 339 338 339 340 339 339 340 341 342 342 342 343 343 343 343 343 342 340 338 340 342 343 340 342 342 343 344 343 344 344 344 344 343 341 325 326 328 328 328 333 341
319 319 321 322 323 323 324 325 326 329 331 331 331 330 331 332 333 333 334 333 333 334 334 336 336 337 340 340 340 341 341 341 341 341 340 341 341 341 342 342 339 341 344 341 341 342 341 342 344 345 345 345 345 343 342 341 330 322 323 323 323 329 336
316 317 319 321 322 323 323 324 324 326 326 327 328 330 331 331 330 330 329 330 331 331 331 331 332 334 336 338 339 339 340 340 340 339 340 339 339 339 339 340 343 343 347 343 342 342 343 344 344 345 346 347 346 346 344 342 331 322 320 319 320 330 337
315 316 317 318 319 319 321 323 324 325 325 324 325 327 329 328 328 327 326 327 327 328 328 329 330 331 332 334 337 339 340 340 340 339 339 339 338 340 340 340 341 343 344 344 343 343 343 346 343 344 345 347 348 353 350 343 333 318 317 317 317 326 337
313 314 315 316 318 319 320 322 321 321 321 322 323 326 326 326 326 326 324 325 326 325 326 327 328 331 332 333 335 337 338 339 340 340 340 339 338 338 338 342 342 341 341 342 343 343 343 344 344 342 343 345 348 349 344 338 335 328 313 315 316 321 334
314 314 314 315 317 322 317 317 318 318 319 320 321 323 324 324 323 322 324 323 323 324 326 328 329 328 328 328 330 333 336 336 337 337 339 340 338 337 336 336 339 341 341 340 340 340 340 341 342 343 343 344 345 341 336 337 333 328 312 311 311 316 326
314 315 316 320 321 319 315 316 317 318 318 319 319 321 321 322 322 321 321 321 322 325 327 326 326 327 327 327 328 329 330 334 335 334 333 332 330 327 327 327 328 335 341 341 340 339 338 338 339 337 335 335 336 336 335 339 339 333 319 313 311 312 315
312 312 313 314 315 319 317 315 315 316 316 318 318 318 319 321 321 320 319 318 320 323 326 325 324 325 326 326 326 328 327 327 328 329 328 327 327 324 323 323 324 325 329 337 338 337 336 335 334 333 331 330 331 333 334 334 335 333 331 318 312 312 313
310 311 312 314 316 316 318 314 315 315 316 316 317 317 317 318 320 320 318 316 320 323 325 325 323 323 325 327 324 323 325 325 325 324 324 325 324 324 322 322 322 323 324 328 337 335 332 331 331 329 329 328 328 327 327 328 328 331 330 327 317 313 312
309 309 310 311 313 317 315 314 313 314 314 315 315 316 315 315 316 318 315 316 321 322 323 324 325 324 323 322 322 321 320 320 320 321 321 321 321 321 322 322 323 322 323 326 326 333 331 329 329 328 329 328 324 323 323 324 323 323 327 327 326 317 314
307 308 310 311 312 314 312 313 314 313 313 313 314 315 317 315 315 315 314 317 319 320 323 322 322 323 322 322 323 320 319 316 316 317 318 319 319 320 319 319 321 323 322 323 328 331 331 330 330 331 328 323 322 321 321 320 320 319 320 323 324 324 319
306 307 308 310 313 313 311 312 312 312 312 312 311 312 314 313 315 315 315 317 316 319 323 323 320 320 319 319 323 322 320 317 315 314 315 316 317 317 317 318 318 320 321 320 323 329 333 332 331 328 324 322 321 320 320 318 317 315 316 315 315 317 320
305 307 308 310 312 311 309 309 308 309 310 310 309 309 311 312 312 313 314 315 316 317 322 323 322 317 316 318 320 324 321 320 322 315 311 312 313 313 315 316 318 317 316 315 316 322 322 323 323 322 321 319 319 318 317 317 316 313 310 312 310 311 313
304 306 308 310 312 312 307 310 310 310 311 309 307 308 309 309 310 312 313 314 314 315 321 322 323 320 317 318 319 320 324 319 316 313 312 310 311 310 309 309 313 315 314 313 311 315 320 319 319 319 317 314 313 316 315 315 314 313 305 306 302 304 306
306 307 309 310 313 310 311 313 310 310 310 308 306 307 310 308 309 309 312 313 313 314 319 321 320 317 317 319 320 321 321 321 319 316 314 311 310 311 311 310 302 302 311 312 311 306 304 311 317 318 316 313 312 313 312 312 313 304 296 294 294 295 296
306 308 308 310 310 309 310 309 313 310 310 307 309 309 310 310 308 307 310 311 311 312 312 315 317 317 315 320 320 322 321 320 319 318 316 314 312 312 313 310 309 299 298 304 307 302 297 298 300 305 311 319 314 310 304 305 300 294 293 293 293 292 293
307 308 310 311 310 310 310 311 312 310 310 307 308 307 306 307 306 305 308 309 310 310 310 311 314 313 313 315 317 323 321 316 318 319 318 316 316 315 313 310 308 309 302 298 299 300 296 296 296 296 298 299 305 315 313 304 298 294 293 292 292 292 294

ECMWFFLT1_sfc_thetae_126.txt.gz
Theta_e
334 335 333 327 325 325 327 330 333 334 336 337 339 340 341 341 343 344 344 344 345 344 345 347 348 350 350 350 351 351 351 350 351 351 351 349 349 348 348 348 348 348 349 349 350 351 352 355 356 357 359 359 359 360 360 362 363 363 362 363 360 361 358
333 335 335 329 325 325 327 331 333 335 336 338 339 341 341 342 344 344 344 344 345 345 345 347 349 350 350 350 351 351 351 350 352 355 353 352 353 351 350 350 349 349 350 351 351 352 354 354 356 356 357 359 359 360 359 361 362 362 362 360 360 359 362
332 334 335 330 326 326 327 330 333 335 337 338 340 341 341 342 344 345 344 344 344 345 346 347 349 350 350 350 350 351 351 351 352 353 352 350 351 351 352 352 351 350 350 352 352 352 355 355 356 357 357 358 358 359 360 360 362 362 362 361 360 360 360
332 333 336 332 328 327 327 330 333 335 337 339 340 341 342 343 345 346 346 345 344 345 345 346 349 349 350 350 350 351 351 351 352 353 353 352 351 352 352 353 353 352 352 352 353 354 355 356 355 356 360 358 358 359 359 360 361 362 362 361 360 360 361
331 333 336 334 330 328 327 328 332 334 336 339 341 343 343 344 345 346 346 347 346 345 346 347 349 350 351 352 351 351 352 351 351 353 354 353 354 353 352 352 354 354 353 354 354 356 356 357 355 356 356 358 357 358 359 360 360 362 362 361 360 360 360
332 332 335 336 333 331 330 329 330 334 336 337 339 341 343 344 345 346 347 347 347 348 348 348 349 351 350 351 352 352 352 352 352 353 354 354 353 353 352 352 354 355 354 355 356 355 355 357 357 356 355 357 357 358 359 359 360 361 361 361 361 360 360
331 332 332 336 339 336 333 331 330 332 335 338 340 342 343 344 345 346 347 348 349 347 348 348 349 350 350 351 352 353 352 351 351 351 353 353 354 353 353 353 355 355 356 357 356 356 355 355 357 357 357 357 359 358 359 360 361 362 362 361 360 360 361
333 333 335 335 337 340 340 336 335 334 334 337 340 339 341 344 345 346 347 348 349 349 348 349 349 350 351 351 352 351 352 352 352 352 352 352 352 353 353 353 354 355 357 355 356 357 356 356 356 357 357 357 358 359 359 361 361 361 362 361 360 359 359
332 334 335 336 337 338 337 335 335 336 336 337 337 338 341 345 345 346 347 348 349 349 349 350 350 351 352 351 351 351 352 352 352 352 351 351 351 352 353 353 354 356 355 355 356 357 357 357 356 357 357 356 357 359 359 360 360 361 361 360 360 359 359
331 333 334 335 335 336 336 337 337 337 337 337 337 338 341 343 346 348 349 349 349 349 350 350 351 352 352 352 352 352 352 352 352 351 351 351 351 351 352 353 354 356 355 355 356 355 357 357 357 357 357 355 357 357 358 359 359 360 360 360 360 359 359
332 332 333 334 334 335 336 336 336 337 338 338 338 339 340 342 345 346 347 348 349 350 353 354 354 353 352 352 352 352 351 351 351 351 351 351 351 351 352 353 354 355 355 355 355 355 356 356 357 357 356 355 355 356 356 357 358 359 359 360 360 360 359
330 331 331 332 333 333 334 335 337 337 338 339 342 340 341 343 345 346 345 346 348 348 350 352 355 354 353 353 352 352 351 351 351 351 351 351 351 351 351 352 353 353 355 355 355 355 355 355 355 355 355 356 357 357 357 357 357 358 359 359 359 359 359
330 330 330 331 332 332 334 334 335 337 338 339 340 341 341 342 343 346 345 346 348 349 350 350 352 353 353 353 352 352 351 351 351 351 351 351 352 352 352 352 352 352 353 355 355 354 354 354 355 356 355 355 356 356 357 357 357 358 358 359 359 359 359
331 330 330 330 330 331 332 334 335 336 336 337 339 340 341 342 343 344 344 344 346 347 348 349 350 350 353 352 352 351 351 351 352 351 351 352 352 352 352 352 352 352 354 355 354 353 354 354 353 354 355 355 355 356 357 357 357 357 358 358 358 358 358
328 329 330 330 330 331 332 333 334 336 338 339 340 339 340 341 342 343 344 345 346 346 346 347 346 347 348 347 348 351 351 352 351 351 352 353 351 351 351 351 352 352 353 354 354 354 354 355 354 354 354 355 355 355 355 355 355 356 357 357 357 357 357
328 328 329 329 330 331 332 333 334 335 337 338 339 340 340 340 340 341 342 344 345 345 346 347 346 346 345 345 347 349 350 351 352 351 351 351 350 351 351 351 351 351 351 352 353 354 355 355 355 354 353 353 354 355 354 355 356 358 357 358 358 357 356
327 328 329 330 331 332 333 333 334 335 335 337 338 339 340 340 341 342 343 344 345 345 346 346 346 346 346 345 348 350 349 349 350 351 350 350 350 350 350 351 350 350 349 349 351 353 354 354 352 353 353 353 353 354 355 356 357 354 343 344 352 360 358
324 325 325 328 330 332 332 333 333 333 334 335 336 340 340 340 341 342 342 344 344 345 346 346 346 346 346 346 345 344 345 346 346 348 347 347 345 344 345 346 344 345 347 349 347 349 350 350 352 352 352 353 353 353 354 356 357 342 340 341 341 354 360
323 323 324 325 327 329 330 331 331 331 332 334 334 335 337 340 341 341 342 343 345 346 345 344 345 345 344 343 343 343 344 345 346 346 345 344 342 342 343 343 343 342 344 346 348 351 349 350 350 351 351 351 352 352 354 355 347 338 339 338 338 340 358
322 323 323 324 326 327 329 330 330 330 331 332 333 334 336 338 339 342 343 344 345 344 343 343 342 342 342 342 341 341 342 341 341 341 341 342 341 340 340 341 340 341 343 344 344 345 347 349 349 350 350 350 350 352 353 354 349 337 335 335 336 337 346
320 322 322 323 323 325 326 327 328 329 329 330 332 333 333 334 337 340 341 341 340 341 342 342 341 340 341 341 341 341 341 341 340 340 340 340 341 341 340 340 340 341 343 342 341 342 344 347 348 349 351 351 351 350 350 352 344 338 334 331 332 335 346
318 320 320 321 323 323 323 324 325 326 328 330 330 330 331 331 334 336 336 337 338 339 339 339 338 339 339 339 339 340 341 341 340 342 341 341 341 341 341 341 341 340 341 342 341 341 341 342 345 348 348 348 349 349 349 350 331 330 331 331 331 335 344
317 318 319 321 321 322 323 324 324 325 326 326 326 327 328 330 331 331 332 333 334 335 336 337 337 338 339 339 340 340 340 341 341 340 340 341 341 341 343 341 341 341 342 341 341 341 341 342 342 345 348 348 349 348 347 347 328 323 323 324 325 333 341
317 318 318 318 320 321 322 323 323 323 323 323 324 325 327 328 328 328 328 329 330 331 332 333 334 336 337 337 339 340 340 340 340 339 340 340 339 339 341 342 340 340 345 342 342 341 341 342 343 343 346 348 348 348 348 346 331 322 320 321 323 333 340
316 316 317 318 318 318 319 320 322 322 321 321 321 323 325 326 327 326 325 326 326 327 326 327 329 332 334 336 338 339 340 340 339 338 338 338 338 340 340 341 340 342 345 345 344 345 344 344 343 345 346 347 349 351 353 348 336 318 319 318 319 330 338
314 315 317 318 319 319 319 320 319 318 318 318 319 322 324 324 323 325 324 324 325 324 324 326 327 329 332 335 336 336 337 338 340 340 339 337 338 338 338 341 343 341 341 343 344 344 344 345 346 344 346 347 348 349 350 348 342 326 313 314 317 322 335
314 315 317 319 320 321 317 317 317 316 317 317 319 321 322 322 321 321 323 323 322 323 324 326 328 329 330 331 333 333 333 333 333 332 332 332 332 333 332 330 331 337 340 340 340 341 342 343 343 343 343 343 344 346 344 344 338 322 311 310 313 319 332
314 315 316 320 323 320 316 316 316 316 316 317 317 319 321 321 320 320 320 320 321 323 326 326 327 328 328 328 328 328 329 330 329 328 328 329 329 327 325 327 328 331 336 341 341 340 340 340 341 338 335 335 336 336 336 340 337 328 315 311 310 313 321
312 313 313 315 316 319 318 315 314 314 315 315 316 316 317 320 319 319 318 317 319 323 326 326 325 326 326 325 325 326 326 325 326 327 328 328 327 325 324 325 326 327 331 334 339 340 339 337 337 334 331 331 330 330 330 332 334 330 325 314 310 310 312
311 311 313 315 317 318 318 314 314 314 314 314 315 315 315 316 317 318 317 315 320 323 325 325 325 324 323 323 321 320 321 322 322 322 323 324 325 326 325 325 326 327 327 330 336 336 334 333 332 331 329 326 325 326 325 325 326 328 328 324 313 311 310
310 310 311 313 315 318 315 314 313 313 313 313 314 315 315 315 315 318 315 316 321 323 322 324 326 325 323 320 318 319 317 318 318 319 319 319 320 320 321 324 326 325 326 330 332 333 330 330 332 329 327 325 322 322 322 323 322 322 324 325 323 315 312
309 310 312 313 314 316 314 313 313 313 313 312 313 314 316 314 314 315 314 317 320 322 323 323 324 324 324 324 321 318 317 316 315 316 316 317 317 319 320 320 322 325 325 327 332 332 331 331 328 326 324 322 321 320 320 320 319 319 319 321 322 321 317
308 309 310 312 315 316 312 313 313 314 314 313 311 312 314 313 314 315 316 318 317 321 323 324 322 323 322 322 322 321 321 319 316 313 314 314 314 315 316 318 319 318 320 321 325 329 330 328 326 325 323 321 320 320 320 318 317 315 316 315 315 316 318
307 309 310 310 313 313 309 308 310 312 313 312 310 310 312 312 312 313 314 315 316 318 323 325 323 319 319 321 321 319 317 318 321 315 312 312 312 310 311 312 315 316 314 313 312 319 322 323 322 321 321 320 319 318 317 316 316 314 311 313 312 312 312
306 308 310 312 313 315 309 313 310 307 312 312 309 308 310 310 311 312 313 314 315 317 323 325 325 322 320 320 322 323 322 318 315 313 312 311 311 309 307 308 310 313 315 315 313 311 315 319 318 318 318 317 317 317 315 315 314 313 303 306 302 304 305
307 307 310 310 315 311 314 315 309 308 314 313 308 306 310 308 310 311 312 313 314 315 319 322 322 320 320 322 321 321 320 319 317 315 315 312 312 312 310 308 302 304 311 312 312 306 302 306 314 315 317 316 316 315 314 314 313 301 295 293 293 294 295
307 308 310 311 313 312 312 312 317 315 315 313 313 310 311 312 310 309 311 312 313 314 315 317 321 319 319 323 324 323 322 321 319 319 316 315 314 314 314 311 310 298 299 306 307 301 296 295 297 300 304 311 315 316 305 303 299 294 293 293 293 294 295
307 309 311 312 312 312 313 314 315 315 315 310 312 310 309 310 309 309 311 311 312 313 313 314 317 316 317 319 323 325 322 320 321 321 320 319 318 315 314 312 311 311 302 298 300 301 296 295 295 296 297 298 300 310 315 305 298 293 293 295 298 298 296